<?xml version="1.0" encoding="UTF-8" standalone="no" ?>
<gpx xmlns="http://www.topografix.com/GPX/1/1" xmlns:xsi="http://www.w3.org/2001/XMLSchema-instance" xsi:schemaLocation="http://www.topografix.com/GPX/1/1 http://www.topografix.com/GPX/1/1/gpx.xsd" version="1.1" creator="VisuGPX - https://www.visugpx.com">
  <metadata>
    <name>Rando VTT Rando du Clain 2023</name>
    <desc><![CDATA[Un peu trop de bitume.....]]></desc>
  </metadata>
  <trk>
    <name><![CDATA[Rando VTT Rando du Clain 2023_1]]></name>
    <trkseg>
      <trkpt lat="46.54922" lon="0.33731">
        <ele>77.4</ele>
        <time>2023-03-05T07:37:36Z</time>
      </trkpt>
      <trkpt lat="46.54931" lon="0.33741">
        <ele>77.2</ele>
        <time>2023-03-05T07:37:41Z</time>
      </trkpt>
      <trkpt lat="46.54945" lon="0.33751">
        <ele>77.4</ele>
        <time>2023-03-05T07:37:46Z</time>
      </trkpt>
      <trkpt lat="46.54968" lon="0.33768">
        <ele>77.6</ele>
        <time>2023-03-05T07:37:52Z</time>
      </trkpt>
      <trkpt lat="46.54976" lon="0.33774">
        <ele>77.4</ele>
        <time>2023-03-05T07:37:54Z</time>
      </trkpt>
      <trkpt lat="46.54987" lon="0.3378">
        <ele>77.2</ele>
        <time>2023-03-05T07:37:57Z</time>
      </trkpt>
      <trkpt lat="46.54991" lon="0.33789">
        <ele>77.2</ele>
        <time>2023-03-05T07:37:59Z</time>
      </trkpt>
      <trkpt lat="46.54991" lon="0.33795">
        <ele>77.2</ele>
        <time>2023-03-05T07:38:00Z</time>
      </trkpt>
      <trkpt lat="46.54991" lon="0.33801">
        <ele>77.2</ele>
        <time>2023-03-05T07:38:01Z</time>
      </trkpt>
      <trkpt lat="46.54991" lon="0.33834">
        <ele>77.4</ele>
        <time>2023-03-05T07:38:06Z</time>
      </trkpt>
      <trkpt lat="46.54991" lon="0.33841">
        <ele>77.4</ele>
        <time>2023-03-05T07:38:07Z</time>
      </trkpt>
      <trkpt lat="46.54993" lon="0.33855">
        <ele>77.6</ele>
        <time>2023-03-05T07:38:09Z</time>
      </trkpt>
      <trkpt lat="46.54994" lon="0.33871">
        <ele>77.6</ele>
        <time>2023-03-05T07:38:11Z</time>
      </trkpt>
      <trkpt lat="46.54994" lon="0.33887">
        <ele>77.4</ele>
        <time>2023-03-05T07:38:13Z</time>
      </trkpt>
      <trkpt lat="46.5499" lon="0.33899">
        <ele>77.4</ele>
        <time>2023-03-05T07:38:15Z</time>
      </trkpt>
      <trkpt lat="46.54982" lon="0.33903">
        <ele>77.4</ele>
        <time>2023-03-05T07:38:17Z</time>
      </trkpt>
      <trkpt lat="46.54978" lon="0.33902">
        <ele>77.4</ele>
        <time>2023-03-05T07:38:18Z</time>
      </trkpt>
      <trkpt lat="46.5497" lon="0.33898">
        <ele>77.6</ele>
        <time>2023-03-05T07:38:20Z</time>
      </trkpt>
      <trkpt lat="46.54964" lon="0.33894">
        <ele>77.6</ele>
        <time>2023-03-05T07:38:22Z</time>
      </trkpt>
      <trkpt lat="46.54959" lon="0.33889">
        <ele>77.6</ele>
        <time>2023-03-05T07:38:24Z</time>
      </trkpt>
      <trkpt lat="46.54955" lon="0.33886">
        <ele>77.6</ele>
        <time>2023-03-05T07:38:25Z</time>
      </trkpt>
      <trkpt lat="46.54944" lon="0.33874">
        <ele>77.6</ele>
        <time>2023-03-05T07:38:28Z</time>
      </trkpt>
      <trkpt lat="46.54934" lon="0.33864">
        <ele>77.8</ele>
        <time>2023-03-05T07:38:30Z</time>
      </trkpt>
      <trkpt lat="46.5492" lon="0.33854">
        <ele>78</ele>
        <time>2023-03-05T07:38:33Z</time>
      </trkpt>
      <trkpt lat="46.54911" lon="0.33848">
        <ele>78.6</ele>
        <time>2023-03-05T07:38:35Z</time>
      </trkpt>
      <trkpt lat="46.54901" lon="0.3384">
        <ele>79.8</ele>
        <time>2023-03-05T07:38:38Z</time>
      </trkpt>
      <trkpt lat="46.54898" lon="0.33838">
        <ele>80.4</ele>
        <time>2023-03-05T07:38:39Z</time>
      </trkpt>
      <trkpt lat="46.54892" lon="0.33834">
        <ele>81.2</ele>
        <time>2023-03-05T07:38:41Z</time>
      </trkpt>
      <trkpt lat="46.54884" lon="0.33829">
        <ele>82.6</ele>
        <time>2023-03-05T07:38:44Z</time>
      </trkpt>
      <trkpt lat="46.54879" lon="0.33826">
        <ele>83.4</ele>
        <time>2023-03-05T07:38:46Z</time>
      </trkpt>
      <trkpt lat="46.54877" lon="0.33824">
        <ele>83.8</ele>
        <time>2023-03-05T07:38:47Z</time>
      </trkpt>
      <trkpt lat="46.5487" lon="0.33821">
        <ele>84.8</ele>
        <time>2023-03-05T07:38:50Z</time>
      </trkpt>
      <trkpt lat="46.54865" lon="0.33818">
        <ele>85.4</ele>
        <time>2023-03-05T07:38:52Z</time>
      </trkpt>
      <trkpt lat="46.5486" lon="0.33815">
        <ele>86</ele>
        <time>2023-03-05T07:38:54Z</time>
      </trkpt>
      <trkpt lat="46.54853" lon="0.3381">
        <ele>87.2</ele>
        <time>2023-03-05T07:38:58Z</time>
      </trkpt>
      <trkpt lat="46.54851" lon="0.33809">
        <ele>87.6</ele>
        <time>2023-03-05T07:38:59Z</time>
      </trkpt>
      <trkpt lat="46.54846" lon="0.33806">
        <ele>88.2</ele>
        <time>2023-03-05T07:39:02Z</time>
      </trkpt>
      <trkpt lat="46.54838" lon="0.33802">
        <ele>89.2</ele>
        <time>2023-03-05T07:39:05Z</time>
      </trkpt>
      <trkpt lat="46.54835" lon="0.338">
        <ele>89.6</ele>
        <time>2023-03-05T07:39:06Z</time>
      </trkpt>
      <trkpt lat="46.54828" lon="0.33796">
        <ele>90.6</ele>
        <time>2023-03-05T07:39:09Z</time>
      </trkpt>
      <trkpt lat="46.5482" lon="0.3379">
        <ele>91.8</ele>
        <time>2023-03-05T07:39:13Z</time>
      </trkpt>
      <trkpt lat="46.54818" lon="0.33789">
        <ele>92</ele>
        <time>2023-03-05T07:39:14Z</time>
      </trkpt>
      <trkpt lat="46.54812" lon="0.33786">
        <ele>92.8</ele>
        <time>2023-03-05T07:39:17Z</time>
      </trkpt>
      <trkpt lat="46.54806" lon="0.33782">
        <ele>94</ele>
        <time>2023-03-05T07:39:20Z</time>
      </trkpt>
      <trkpt lat="46.54802" lon="0.33779">
        <ele>94.4</ele>
        <time>2023-03-05T07:39:22Z</time>
      </trkpt>
      <trkpt lat="46.54798" lon="0.33777">
        <ele>95</ele>
        <time>2023-03-05T07:39:24Z</time>
      </trkpt>
      <trkpt lat="46.54789" lon="0.33768">
        <ele>96</ele>
        <time>2023-03-05T07:39:29Z</time>
      </trkpt>
      <trkpt lat="46.5478" lon="0.33762">
        <ele>97.4</ele>
        <time>2023-03-05T07:39:34Z</time>
      </trkpt>
      <trkpt lat="46.54777" lon="0.33759">
        <ele>98</ele>
        <time>2023-03-05T07:39:36Z</time>
      </trkpt>
      <trkpt lat="46.54771" lon="0.33755">
        <ele>98.6</ele>
        <time>2023-03-05T07:39:40Z</time>
      </trkpt>
      <trkpt lat="46.54763" lon="0.33749">
        <ele>99.6</ele>
        <time>2023-03-05T07:39:44Z</time>
      </trkpt>
      <trkpt lat="46.54761" lon="0.33747">
        <ele>99.6</ele>
        <time>2023-03-05T07:39:45Z</time>
      </trkpt>
      <trkpt lat="46.54751" lon="0.33741">
        <ele>100.8</ele>
        <time>2023-03-05T07:39:50Z</time>
      </trkpt>
      <trkpt lat="46.54747" lon="0.33739">
        <ele>101</ele>
        <time>2023-03-05T07:39:52Z</time>
      </trkpt>
      <trkpt lat="46.54739" lon="0.33738">
        <ele>101.8</ele>
        <time>2023-03-05T07:39:56Z</time>
      </trkpt>
      <trkpt lat="46.5473" lon="0.33733">
        <ele>102.6</ele>
        <time>2023-03-05T07:40:00Z</time>
      </trkpt>
      <trkpt lat="46.54728" lon="0.33732">
        <ele>102.6</ele>
        <time>2023-03-05T07:40:01Z</time>
      </trkpt>
      <trkpt lat="46.54721" lon="0.3373">
        <ele>103</ele>
        <time>2023-03-05T07:40:04Z</time>
      </trkpt>
      <trkpt lat="46.54713" lon="0.33727">
        <ele>103.6</ele>
        <time>2023-03-05T07:40:07Z</time>
      </trkpt>
      <trkpt lat="46.54706" lon="0.33724">
        <ele>104</ele>
        <time>2023-03-05T07:40:10Z</time>
      </trkpt>
      <trkpt lat="46.547" lon="0.33722">
        <ele>104.4</ele>
        <time>2023-03-05T07:40:13Z</time>
      </trkpt>
      <trkpt lat="46.54688" lon="0.3372">
        <ele>105.2</ele>
        <time>2023-03-05T07:40:17Z</time>
      </trkpt>
      <trkpt lat="46.54676" lon="0.33715">
        <ele>106</ele>
        <time>2023-03-05T07:40:21Z</time>
      </trkpt>
      <trkpt lat="46.54668" lon="0.33711">
        <ele>106.2</ele>
        <time>2023-03-05T07:40:24Z</time>
      </trkpt>
      <trkpt lat="46.54655" lon="0.33703">
        <ele>106.6</ele>
        <time>2023-03-05T07:40:28Z</time>
      </trkpt>
      <trkpt lat="46.5463" lon="0.33689">
        <ele>106.8</ele>
        <time>2023-03-05T07:40:34Z</time>
      </trkpt>
      <trkpt lat="46.54604" lon="0.33674">
        <ele>106.8</ele>
        <time>2023-03-05T07:40:40Z</time>
      </trkpt>
      <trkpt lat="46.546" lon="0.33672">
        <ele>106.6</ele>
        <time>2023-03-05T07:40:41Z</time>
      </trkpt>
      <trkpt lat="46.54589" lon="0.33667">
        <ele>106.2</ele>
        <time>2023-03-05T07:40:44Z</time>
      </trkpt>
      <trkpt lat="46.54585" lon="0.3366">
        <ele>106</ele>
        <time>2023-03-05T07:40:46Z</time>
      </trkpt>
      <trkpt lat="46.54585" lon="0.33656">
        <ele>106</ele>
        <time>2023-03-05T07:40:47Z</time>
      </trkpt>
      <trkpt lat="46.5459" lon="0.33631">
        <ele>105.2</ele>
        <time>2023-03-05T07:40:51Z</time>
      </trkpt>
      <trkpt lat="46.54593" lon="0.33615">
        <ele>104.6</ele>
        <time>2023-03-05T07:40:53Z</time>
      </trkpt>
      <trkpt lat="46.54595" lon="0.33611">
        <ele>103.2</ele>
        <time>2023-03-05T07:40:54Z</time>
      </trkpt>
      <trkpt lat="46.54599" lon="0.33609">
        <ele>101.8</ele>
        <time>2023-03-05T07:40:55Z</time>
      </trkpt>
      <trkpt lat="46.54606" lon="0.33613">
        <ele>100.2</ele>
        <time>2023-03-05T07:40:57Z</time>
      </trkpt>
      <trkpt lat="46.54609" lon="0.33616">
        <ele>99.4</ele>
        <time>2023-03-05T07:40:58Z</time>
      </trkpt>
      <trkpt lat="46.54613" lon="0.3362">
        <ele>99</ele>
        <time>2023-03-05T07:40:59Z</time>
      </trkpt>
      <trkpt lat="46.54632" lon="0.33636">
        <ele>98.6</ele>
        <time>2023-03-05T07:41:03Z</time>
      </trkpt>
      <trkpt lat="46.54642" lon="0.33643">
        <ele>98.4</ele>
        <time>2023-03-05T07:41:05Z</time>
      </trkpt>
      <trkpt lat="46.54659" lon="0.33648">
        <ele>97.8</ele>
        <time>2023-03-05T07:41:08Z</time>
      </trkpt>
      <trkpt lat="46.54675" lon="0.33646">
        <ele>97.4</ele>
        <time>2023-03-05T07:41:11Z</time>
      </trkpt>
      <trkpt lat="46.5468" lon="0.33644">
        <ele>97.2</ele>
        <time>2023-03-05T07:41:12Z</time>
      </trkpt>
      <trkpt lat="46.54685" lon="0.33642">
        <ele>97.2</ele>
        <time>2023-03-05T07:41:13Z</time>
      </trkpt>
      <trkpt lat="46.5469" lon="0.3364">
        <ele>97</ele>
        <time>2023-03-05T07:41:14Z</time>
      </trkpt>
      <trkpt lat="46.54695" lon="0.33638">
        <ele>96.8</ele>
        <time>2023-03-05T07:41:16Z</time>
      </trkpt>
      <trkpt lat="46.54708" lon="0.33628">
        <ele>97</ele>
        <time>2023-03-05T07:41:21Z</time>
      </trkpt>
      <trkpt lat="46.54731" lon="0.33598">
        <ele>97.2</ele>
        <time>2023-03-05T07:41:28Z</time>
      </trkpt>
      <trkpt lat="46.54745" lon="0.33572">
        <ele>97</ele>
        <time>2023-03-05T07:41:33Z</time>
      </trkpt>
      <trkpt lat="46.54751" lon="0.33562">
        <ele>97</ele>
        <time>2023-03-05T07:41:35Z</time>
      </trkpt>
      <trkpt lat="46.54777" lon="0.33513">
        <ele>97.4</ele>
        <time>2023-03-05T07:41:43Z</time>
      </trkpt>
      <trkpt lat="46.54811" lon="0.33451">
        <ele>97.4</ele>
        <time>2023-03-05T07:41:53Z</time>
      </trkpt>
      <trkpt lat="46.54841" lon="0.334">
        <ele>97.4</ele>
        <time>2023-03-05T07:42:02Z</time>
      </trkpt>
      <trkpt lat="46.54868" lon="0.33371">
        <ele>97.4</ele>
        <time>2023-03-05T07:42:09Z</time>
      </trkpt>
      <trkpt lat="46.54877" lon="0.33361">
        <ele>97.6</ele>
        <time>2023-03-05T07:42:11Z</time>
      </trkpt>
      <trkpt lat="46.54891" lon="0.3335">
        <ele>97.4</ele>
        <time>2023-03-05T07:42:14Z</time>
      </trkpt>
      <trkpt lat="46.54916" lon="0.33341">
        <ele>97.4</ele>
        <time>2023-03-05T07:42:19Z</time>
      </trkpt>
      <trkpt lat="46.54921" lon="0.33341">
        <ele>97.4</ele>
        <time>2023-03-05T07:42:20Z</time>
      </trkpt>
      <trkpt lat="46.54925" lon="0.33341">
        <ele>97.4</ele>
        <time>2023-03-05T07:42:21Z</time>
      </trkpt>
      <trkpt lat="46.54934" lon="0.33342">
        <ele>97.2</ele>
        <time>2023-03-05T07:42:24Z</time>
      </trkpt>
      <trkpt lat="46.54938" lon="0.33343">
        <ele>97.2</ele>
        <time>2023-03-05T07:42:26Z</time>
      </trkpt>
      <trkpt lat="46.54944" lon="0.33348">
        <ele>97.4</ele>
        <time>2023-03-05T07:42:29Z</time>
      </trkpt>
      <trkpt lat="46.54947" lon="0.33349">
        <ele>97.4</ele>
        <time>2023-03-05T07:42:31Z</time>
      </trkpt>
      <trkpt lat="46.54948" lon="0.33349">
        <ele>97.6</ele>
        <time>2023-03-05T07:42:33Z</time>
      </trkpt>
      <trkpt lat="46.54947" lon="0.33349">
        <ele>97.6</ele>
        <time>2023-03-05T07:42:37Z</time>
      </trkpt>
      <trkpt lat="46.54947" lon="0.33348">
        <ele>97.4</ele>
        <time>2023-03-05T07:42:39Z</time>
      </trkpt>
      <trkpt lat="46.5495" lon="0.33348">
        <ele>97.4</ele>
        <time>2023-03-05T07:42:42Z</time>
      </trkpt>
      <trkpt lat="46.54951" lon="0.33351">
        <ele>97.6</ele>
        <time>2023-03-05T07:42:44Z</time>
      </trkpt>
      <trkpt lat="46.54952" lon="0.33351">
        <ele>97.6</ele>
        <time>2023-03-05T07:42:46Z</time>
      </trkpt>
      <trkpt lat="46.54952" lon="0.3335">
        <ele>97.6</ele>
        <time>2023-03-05T07:42:48Z</time>
      </trkpt>
      <trkpt lat="46.54951" lon="0.3335">
        <ele>97.6</ele>
        <time>2023-03-05T07:42:49Z</time>
      </trkpt>
      <trkpt lat="46.5495" lon="0.3335">
        <ele>97.6</ele>
        <time>2023-03-05T07:42:50Z</time>
      </trkpt>
      <trkpt lat="46.54948" lon="0.33347">
        <ele>97.4</ele>
        <time>2023-03-05T07:42:53Z</time>
      </trkpt>
      <trkpt lat="46.54947" lon="0.33343">
        <ele>97.4</ele>
        <time>2023-03-05T07:42:55Z</time>
      </trkpt>
      <trkpt lat="46.54946" lon="0.33342">
        <ele>97.6</ele>
        <time>2023-03-05T07:42:56Z</time>
      </trkpt>
      <trkpt lat="46.54945" lon="0.33341">
        <ele>98</ele>
        <time>2023-03-05T07:42:57Z</time>
      </trkpt>
      <trkpt lat="46.54944" lon="0.3334">
        <ele>99.6</ele>
        <time>2023-03-05T07:42:59Z</time>
      </trkpt>
      <trkpt lat="46.54942" lon="0.33338">
        <ele>100.8</ele>
        <time>2023-03-05T07:43:01Z</time>
      </trkpt>
      <trkpt lat="46.54942" lon="0.33337">
        <ele>101.2</ele>
        <time>2023-03-05T07:43:02Z</time>
      </trkpt>
      <trkpt lat="46.5494" lon="0.33334">
        <ele>101.6</ele>
        <time>2023-03-05T07:43:04Z</time>
      </trkpt>
      <trkpt lat="46.54937" lon="0.33329">
        <ele>102</ele>
        <time>2023-03-05T07:43:07Z</time>
      </trkpt>
      <trkpt lat="46.54932" lon="0.33322">
        <ele>103.2</ele>
        <time>2023-03-05T07:43:12Z</time>
      </trkpt>
      <trkpt lat="46.54929" lon="0.33319">
        <ele>103.8</ele>
        <time>2023-03-05T07:43:14Z</time>
      </trkpt>
      <trkpt lat="46.54927" lon="0.33317">
        <ele>104.6</ele>
        <time>2023-03-05T07:43:16Z</time>
      </trkpt>
      <trkpt lat="46.54924" lon="0.33313">
        <ele>105.6</ele>
        <time>2023-03-05T07:43:19Z</time>
      </trkpt>
      <trkpt lat="46.5492" lon="0.33309">
        <ele>107</ele>
        <time>2023-03-05T07:43:23Z</time>
      </trkpt>
      <trkpt lat="46.54916" lon="0.33305">
        <ele>107.8</ele>
        <time>2023-03-05T07:43:26Z</time>
      </trkpt>
      <trkpt lat="46.54914" lon="0.33303">
        <ele>108</ele>
        <time>2023-03-05T07:43:27Z</time>
      </trkpt>
      <trkpt lat="46.54911" lon="0.33299">
        <ele>108.6</ele>
        <time>2023-03-05T07:43:31Z</time>
      </trkpt>
      <trkpt lat="46.54909" lon="0.33297">
        <ele>109.2</ele>
        <time>2023-03-05T07:43:33Z</time>
      </trkpt>
      <trkpt lat="46.54906" lon="0.33292">
        <ele>110.4</ele>
        <time>2023-03-05T07:43:37Z</time>
      </trkpt>
      <trkpt lat="46.54904" lon="0.33288">
        <ele>110.8</ele>
        <time>2023-03-05T07:43:40Z</time>
      </trkpt>
      <trkpt lat="46.54903" lon="0.33286">
        <ele>111.4</ele>
        <time>2023-03-05T07:43:41Z</time>
      </trkpt>
      <trkpt lat="46.54902" lon="0.33284">
        <ele>111.6</ele>
        <time>2023-03-05T07:43:42Z</time>
      </trkpt>
      <trkpt lat="46.549" lon="0.3328">
        <ele>112</ele>
        <time>2023-03-05T07:43:45Z</time>
      </trkpt>
      <trkpt lat="46.54898" lon="0.33278">
        <ele>112.6</ele>
        <time>2023-03-05T07:43:47Z</time>
      </trkpt>
      <trkpt lat="46.54896" lon="0.33273">
        <ele>114</ele>
        <time>2023-03-05T07:43:50Z</time>
      </trkpt>
      <trkpt lat="46.54895" lon="0.33271">
        <ele>114.4</ele>
        <time>2023-03-05T07:43:52Z</time>
      </trkpt>
      <trkpt lat="46.54892" lon="0.33266">
        <ele>115.2</ele>
        <time>2023-03-05T07:43:55Z</time>
      </trkpt>
      <trkpt lat="46.54886" lon="0.3326">
        <ele>116</ele>
        <time>2023-03-05T07:43:59Z</time>
      </trkpt>
      <trkpt lat="46.54883" lon="0.33257">
        <ele>116.4</ele>
        <time>2023-03-05T07:44:01Z</time>
      </trkpt>
      <trkpt lat="46.54881" lon="0.33255">
        <ele>116.6</ele>
        <time>2023-03-05T07:44:03Z</time>
      </trkpt>
      <trkpt lat="46.54878" lon="0.33249">
        <ele>117.6</ele>
        <time>2023-03-05T07:44:08Z</time>
      </trkpt>
      <trkpt lat="46.54877" lon="0.33248">
        <ele>117.8</ele>
        <time>2023-03-05T07:44:09Z</time>
      </trkpt>
      <trkpt lat="46.54875" lon="0.33243">
        <ele>118.6</ele>
        <time>2023-03-05T07:44:12Z</time>
      </trkpt>
      <trkpt lat="46.54874" lon="0.33242">
        <ele>118.8</ele>
        <time>2023-03-05T07:44:13Z</time>
      </trkpt>
      <trkpt lat="46.54872" lon="0.33237">
        <ele>119.6</ele>
        <time>2023-03-05T07:44:16Z</time>
      </trkpt>
      <trkpt lat="46.54866" lon="0.33224">
        <ele>120.6</ele>
        <time>2023-03-05T07:44:23Z</time>
      </trkpt>
      <trkpt lat="46.5486" lon="0.33212">
        <ele>121.8</ele>
        <time>2023-03-05T07:44:30Z</time>
      </trkpt>
      <trkpt lat="46.54854" lon="0.332">
        <ele>122.4</ele>
        <time>2023-03-05T07:44:35Z</time>
      </trkpt>
      <trkpt lat="46.54852" lon="0.33196">
        <ele>123</ele>
        <time>2023-03-05T07:44:37Z</time>
      </trkpt>
      <trkpt lat="46.54847" lon="0.33174">
        <ele>124</ele>
        <time>2023-03-05T07:44:45Z</time>
      </trkpt>
      <trkpt lat="46.54842" lon="0.33152">
        <ele>124.8</ele>
        <time>2023-03-05T07:44:53Z</time>
      </trkpt>
      <trkpt lat="46.5484" lon="0.33146">
        <ele>125.2</ele>
        <time>2023-03-05T07:44:55Z</time>
      </trkpt>
      <trkpt lat="46.54838" lon="0.33134">
        <ele>125.8</ele>
        <time>2023-03-05T07:44:59Z</time>
      </trkpt>
      <trkpt lat="46.54837" lon="0.3313">
        <ele>126.2</ele>
        <time>2023-03-05T07:45:00Z</time>
      </trkpt>
      <trkpt lat="46.54834" lon="0.33112">
        <ele>127.2</ele>
        <time>2023-03-05T07:45:06Z</time>
      </trkpt>
      <trkpt lat="46.54833" lon="0.33109">
        <ele>127.6</ele>
        <time>2023-03-05T07:45:07Z</time>
      </trkpt>
      <trkpt lat="46.54832" lon="0.33089">
        <ele>128.2</ele>
        <time>2023-03-05T07:45:13Z</time>
      </trkpt>
      <trkpt lat="46.54832" lon="0.33083">
        <ele>128.6</ele>
        <time>2023-03-05T07:45:15Z</time>
      </trkpt>
      <trkpt lat="46.54831" lon="0.33063">
        <ele>129.4</ele>
        <time>2023-03-05T07:45:20Z</time>
      </trkpt>
      <trkpt lat="46.54831" lon="0.33059">
        <ele>129.6</ele>
        <time>2023-03-05T07:45:21Z</time>
      </trkpt>
      <trkpt lat="46.54827" lon="0.33028">
        <ele>130.4</ele>
        <time>2023-03-05T07:45:27Z</time>
      </trkpt>
      <trkpt lat="46.54824" lon="0.33004">
        <ele>130.6</ele>
        <time>2023-03-05T07:45:32Z</time>
      </trkpt>
      <trkpt lat="46.54824" lon="0.3299">
        <ele>130.6</ele>
        <time>2023-03-05T07:45:35Z</time>
      </trkpt>
      <trkpt lat="46.54824" lon="0.3298">
        <ele>130.8</ele>
        <time>2023-03-05T07:45:37Z</time>
      </trkpt>
      <trkpt lat="46.54825" lon="0.32951">
        <ele>131</ele>
        <time>2023-03-05T07:45:42Z</time>
      </trkpt>
      <trkpt lat="46.54827" lon="0.32939">
        <ele>131.4</ele>
        <time>2023-03-05T07:45:44Z</time>
      </trkpt>
      <trkpt lat="46.54825" lon="0.32932">
        <ele>131.4</ele>
        <time>2023-03-05T07:45:45Z</time>
      </trkpt>
      <trkpt lat="46.54821" lon="0.32918">
        <ele>131.6</ele>
        <time>2023-03-05T07:45:47Z</time>
      </trkpt>
      <trkpt lat="46.54821" lon="0.32912">
        <ele>131.6</ele>
        <time>2023-03-05T07:45:48Z</time>
      </trkpt>
      <trkpt lat="46.54816" lon="0.329">
        <ele>131.6</ele>
        <time>2023-03-05T07:45:50Z</time>
      </trkpt>
      <trkpt lat="46.54811" lon="0.32895">
        <ele>131.6</ele>
        <time>2023-03-05T07:45:52Z</time>
      </trkpt>
      <trkpt lat="46.54806" lon="0.32895">
        <ele>131.4</ele>
        <time>2023-03-05T07:45:54Z</time>
      </trkpt>
      <trkpt lat="46.54803" lon="0.32898">
        <ele>131.2</ele>
        <time>2023-03-05T07:45:56Z</time>
      </trkpt>
      <trkpt lat="46.54787" lon="0.32916">
        <ele>131.6</ele>
        <time>2023-03-05T07:46:03Z</time>
      </trkpt>
      <trkpt lat="46.54782" lon="0.32921">
        <ele>131.6</ele>
        <time>2023-03-05T07:46:05Z</time>
      </trkpt>
      <trkpt lat="46.54775" lon="0.32927">
        <ele>131.6</ele>
        <time>2023-03-05T07:46:07Z</time>
      </trkpt>
      <trkpt lat="46.54772" lon="0.32929">
        <ele>131.6</ele>
        <time>2023-03-05T07:46:08Z</time>
      </trkpt>
      <trkpt lat="46.54769" lon="0.32932">
        <ele>131.6</ele>
        <time>2023-03-05T07:46:09Z</time>
      </trkpt>
      <trkpt lat="46.54751" lon="0.32946">
        <ele>131.6</ele>
        <time>2023-03-05T07:46:14Z</time>
      </trkpt>
      <trkpt lat="46.54747" lon="0.3295">
        <ele>131.6</ele>
        <time>2023-03-05T07:46:15Z</time>
      </trkpt>
      <trkpt lat="46.54745" lon="0.32953">
        <ele>131.6</ele>
        <time>2023-03-05T07:46:16Z</time>
      </trkpt>
      <trkpt lat="46.54737" lon="0.32958">
        <ele>131.4</ele>
        <time>2023-03-05T07:46:18Z</time>
      </trkpt>
      <trkpt lat="46.54734" lon="0.32959">
        <ele>131.4</ele>
        <time>2023-03-05T07:46:19Z</time>
      </trkpt>
      <trkpt lat="46.54731" lon="0.32958">
        <ele>131.2</ele>
        <time>2023-03-05T07:46:20Z</time>
      </trkpt>
      <trkpt lat="46.54728" lon="0.32953">
        <ele>131</ele>
        <time>2023-03-05T07:46:22Z</time>
      </trkpt>
      <trkpt lat="46.54723" lon="0.32949">
        <ele>131</ele>
        <time>2023-03-05T07:46:24Z</time>
      </trkpt>
      <trkpt lat="46.54716" lon="0.32946">
        <ele>130.6</ele>
        <time>2023-03-05T07:46:26Z</time>
      </trkpt>
      <trkpt lat="46.54714" lon="0.32934">
        <ele>130.4</ele>
        <time>2023-03-05T07:46:29Z</time>
      </trkpt>
      <trkpt lat="46.54714" lon="0.32923">
        <ele>130.4</ele>
        <time>2023-03-05T07:46:31Z</time>
      </trkpt>
      <trkpt lat="46.54714" lon="0.32915">
        <ele>130.2</ele>
        <time>2023-03-05T07:46:33Z</time>
      </trkpt>
      <trkpt lat="46.54712" lon="0.32912">
        <ele>130.2</ele>
        <time>2023-03-05T07:46:34Z</time>
      </trkpt>
      <trkpt lat="46.54709" lon="0.32909">
        <ele>130.4</ele>
        <time>2023-03-05T07:46:35Z</time>
      </trkpt>
      <trkpt lat="46.54702" lon="0.32907">
        <ele>130.4</ele>
        <time>2023-03-05T07:46:37Z</time>
      </trkpt>
      <trkpt lat="46.54698" lon="0.32907">
        <ele>130.4</ele>
        <time>2023-03-05T07:46:38Z</time>
      </trkpt>
      <trkpt lat="46.54694" lon="0.32905">
        <ele>130.2</ele>
        <time>2023-03-05T07:46:39Z</time>
      </trkpt>
      <trkpt lat="46.54689" lon="0.32897">
        <ele>130</ele>
        <time>2023-03-05T07:46:41Z</time>
      </trkpt>
      <trkpt lat="46.54676" lon="0.32883">
        <ele>129.6</ele>
        <time>2023-03-05T07:46:44Z</time>
      </trkpt>
      <trkpt lat="46.5467" lon="0.32876">
        <ele>129.2</ele>
        <time>2023-03-05T07:46:46Z</time>
      </trkpt>
      <trkpt lat="46.54667" lon="0.32875">
        <ele>129.2</ele>
        <time>2023-03-05T07:46:47Z</time>
      </trkpt>
      <trkpt lat="46.54662" lon="0.32873">
        <ele>129</ele>
        <time>2023-03-05T07:46:49Z</time>
      </trkpt>
      <trkpt lat="46.54658" lon="0.32867">
        <ele>128.8</ele>
        <time>2023-03-05T07:46:52Z</time>
      </trkpt>
      <trkpt lat="46.54655" lon="0.3286">
        <ele>128.6</ele>
        <time>2023-03-05T07:46:54Z</time>
      </trkpt>
      <trkpt lat="46.54653" lon="0.32856">
        <ele>128.6</ele>
        <time>2023-03-05T07:46:55Z</time>
      </trkpt>
      <trkpt lat="46.54652" lon="0.32852">
        <ele>128.4</ele>
        <time>2023-03-05T07:46:56Z</time>
      </trkpt>
      <trkpt lat="46.54646" lon="0.32845">
        <ele>128.2</ele>
        <time>2023-03-05T07:46:58Z</time>
      </trkpt>
      <trkpt lat="46.54643" lon="0.32835">
        <ele>127.8</ele>
        <time>2023-03-05T07:47:00Z</time>
      </trkpt>
      <trkpt lat="46.54641" lon="0.32831">
        <ele>127.4</ele>
        <time>2023-03-05T07:47:01Z</time>
      </trkpt>
      <trkpt lat="46.54639" lon="0.32827">
        <ele>127</ele>
        <time>2023-03-05T07:47:02Z</time>
      </trkpt>
      <trkpt lat="46.54634" lon="0.32825">
        <ele>126.8</ele>
        <time>2023-03-05T07:47:03Z</time>
      </trkpt>
      <trkpt lat="46.54625" lon="0.3282">
        <ele>126.8</ele>
        <time>2023-03-05T07:47:04Z</time>
      </trkpt>
      <trkpt lat="46.54615" lon="0.32812">
        <ele>126.6</ele>
        <time>2023-03-05T07:47:06Z</time>
      </trkpt>
      <trkpt lat="46.54612" lon="0.32806">
        <ele>126.4</ele>
        <time>2023-03-05T07:47:07Z</time>
      </trkpt>
      <trkpt lat="46.54607" lon="0.328">
        <ele>126</ele>
        <time>2023-03-05T07:47:08Z</time>
      </trkpt>
      <trkpt lat="46.54595" lon="0.32788">
        <ele>124.6</ele>
        <time>2023-03-05T07:47:11Z</time>
      </trkpt>
      <trkpt lat="46.54593" lon="0.32784">
        <ele>124.2</ele>
        <time>2023-03-05T07:47:12Z</time>
      </trkpt>
      <trkpt lat="46.54581" lon="0.32767">
        <ele>123.8</ele>
        <time>2023-03-05T07:47:15Z</time>
      </trkpt>
      <trkpt lat="46.54575" lon="0.32761">
        <ele>123.6</ele>
        <time>2023-03-05T07:47:16Z</time>
      </trkpt>
      <trkpt lat="46.54568" lon="0.32755">
        <ele>123.4</ele>
        <time>2023-03-05T07:47:17Z</time>
      </trkpt>
      <trkpt lat="46.54558" lon="0.32743">
        <ele>122.6</ele>
        <time>2023-03-05T07:47:19Z</time>
      </trkpt>
      <trkpt lat="46.54555" lon="0.32737">
        <ele>122</ele>
        <time>2023-03-05T07:47:20Z</time>
      </trkpt>
      <trkpt lat="46.54551" lon="0.32732">
        <ele>121.6</ele>
        <time>2023-03-05T07:47:21Z</time>
      </trkpt>
      <trkpt lat="46.54546" lon="0.32722">
        <ele>121</ele>
        <time>2023-03-05T07:47:23Z</time>
      </trkpt>
      <trkpt lat="46.54544" lon="0.32717">
        <ele>120.6</ele>
        <time>2023-03-05T07:47:24Z</time>
      </trkpt>
      <trkpt lat="46.54543" lon="0.32705">
        <ele>120.4</ele>
        <time>2023-03-05T07:47:26Z</time>
      </trkpt>
      <trkpt lat="46.54544" lon="0.32699">
        <ele>120.2</ele>
        <time>2023-03-05T07:47:27Z</time>
      </trkpt>
      <trkpt lat="46.54546" lon="0.32694">
        <ele>120</ele>
        <time>2023-03-05T07:47:28Z</time>
      </trkpt>
      <trkpt lat="46.54556" lon="0.3268">
        <ele>119.6</ele>
        <time>2023-03-05T07:47:31Z</time>
      </trkpt>
      <trkpt lat="46.54577" lon="0.32647">
        <ele>119.4</ele>
        <time>2023-03-05T07:47:38Z</time>
      </trkpt>
      <trkpt lat="46.54592" lon="0.32624">
        <ele>120.8</ele>
        <time>2023-03-05T07:47:44Z</time>
      </trkpt>
      <trkpt lat="46.54604" lon="0.32611">
        <ele>122</ele>
        <time>2023-03-05T07:47:49Z</time>
      </trkpt>
      <trkpt lat="46.54606" lon="0.3261">
        <ele>122.2</ele>
        <time>2023-03-05T07:47:50Z</time>
      </trkpt>
      <trkpt lat="46.54606" lon="0.3261">
        <ele>123</ele>
        <time>2023-03-05T07:47:52Z</time>
      </trkpt>
      <trkpt lat="46.54616" lon="0.32603">
        <ele>123.6</ele>
        <time>2023-03-05T07:47:54Z</time>
      </trkpt>
      <trkpt lat="46.54621" lon="0.32603">
        <ele>124</ele>
        <time>2023-03-05T07:47:56Z</time>
      </trkpt>
      <trkpt lat="46.54623" lon="0.32602">
        <ele>124</ele>
        <time>2023-03-05T07:47:57Z</time>
      </trkpt>
      <trkpt lat="46.54627" lon="0.326">
        <ele>124.8</ele>
        <time>2023-03-05T07:47:59Z</time>
      </trkpt>
      <trkpt lat="46.54635" lon="0.32597">
        <ele>125</ele>
        <time>2023-03-05T07:48:01Z</time>
      </trkpt>
      <trkpt lat="46.54639" lon="0.32594">
        <ele>125.2</ele>
        <time>2023-03-05T07:48:02Z</time>
      </trkpt>
      <trkpt lat="46.54657" lon="0.3258">
        <ele>126.4</ele>
        <time>2023-03-05T07:48:07Z</time>
      </trkpt>
      <trkpt lat="46.54662" lon="0.32574">
        <ele>126.8</ele>
        <time>2023-03-05T07:48:09Z</time>
      </trkpt>
      <trkpt lat="46.54674" lon="0.32554">
        <ele>127</ele>
        <time>2023-03-05T07:48:15Z</time>
      </trkpt>
      <trkpt lat="46.54674" lon="0.3255">
        <ele>127</ele>
        <time>2023-03-05T07:48:16Z</time>
      </trkpt>
      <trkpt lat="46.54668" lon="0.32536">
        <ele>127</ele>
        <time>2023-03-05T07:48:19Z</time>
      </trkpt>
      <trkpt lat="46.54666" lon="0.3253">
        <ele>126.8</ele>
        <time>2023-03-05T07:48:20Z</time>
      </trkpt>
      <trkpt lat="46.54652" lon="0.32508">
        <ele>126.4</ele>
        <time>2023-03-05T07:48:24Z</time>
      </trkpt>
      <trkpt lat="46.54629" lon="0.32473">
        <ele>126</ele>
        <time>2023-03-05T07:48:30Z</time>
      </trkpt>
      <trkpt lat="46.54607" lon="0.32433">
        <ele>126.2</ele>
        <time>2023-03-05T07:48:37Z</time>
      </trkpt>
      <trkpt lat="46.54598" lon="0.32406">
        <ele>127</ele>
        <time>2023-03-05T07:48:43Z</time>
      </trkpt>
      <trkpt lat="46.54598" lon="0.32394">
        <ele>127.2</ele>
        <time>2023-03-05T07:48:46Z</time>
      </trkpt>
      <trkpt lat="46.54601" lon="0.32391">
        <ele>127.4</ele>
        <time>2023-03-05T07:48:47Z</time>
      </trkpt>
      <trkpt lat="46.54604" lon="0.32388">
        <ele>127.6</ele>
        <time>2023-03-05T07:48:48Z</time>
      </trkpt>
      <trkpt lat="46.54621" lon="0.32377">
        <ele>128.2</ele>
        <time>2023-03-05T07:48:52Z</time>
      </trkpt>
      <trkpt lat="46.54639" lon="0.32363">
        <ele>128.2</ele>
        <time>2023-03-05T07:48:56Z</time>
      </trkpt>
      <trkpt lat="46.54651" lon="0.32351">
        <ele>128.4</ele>
        <time>2023-03-05T07:48:59Z</time>
      </trkpt>
      <trkpt lat="46.54683" lon="0.32315">
        <ele>128.4</ele>
        <time>2023-03-05T07:49:07Z</time>
      </trkpt>
      <trkpt lat="46.54717" lon="0.32278">
        <ele>128.2</ele>
        <time>2023-03-05T07:49:15Z</time>
      </trkpt>
      <trkpt lat="46.54737" lon="0.32258">
        <ele>128.6</ele>
        <time>2023-03-05T07:49:20Z</time>
      </trkpt>
      <trkpt lat="46.54745" lon="0.32251">
        <ele>129</ele>
        <time>2023-03-05T07:49:22Z</time>
      </trkpt>
      <trkpt lat="46.54775" lon="0.32229">
        <ele>129.6</ele>
        <time>2023-03-05T07:49:30Z</time>
      </trkpt>
      <trkpt lat="46.54783" lon="0.32225">
        <ele>129.6</ele>
        <time>2023-03-05T07:49:32Z</time>
      </trkpt>
      <trkpt lat="46.54808" lon="0.32214">
        <ele>130.8</ele>
        <time>2023-03-05T07:49:38Z</time>
      </trkpt>
      <trkpt lat="46.54812" lon="0.32212">
        <ele>131</ele>
        <time>2023-03-05T07:49:39Z</time>
      </trkpt>
      <trkpt lat="46.54824" lon="0.32207">
        <ele>131.2</ele>
        <time>2023-03-05T07:49:42Z</time>
      </trkpt>
      <trkpt lat="46.54844" lon="0.322">
        <ele>131.4</ele>
        <time>2023-03-05T07:49:47Z</time>
      </trkpt>
      <trkpt lat="46.54863" lon="0.3219">
        <ele>131.8</ele>
        <time>2023-03-05T07:49:52Z</time>
      </trkpt>
      <trkpt lat="46.54874" lon="0.32184">
        <ele>131.8</ele>
        <time>2023-03-05T07:49:55Z</time>
      </trkpt>
      <trkpt lat="46.54885" lon="0.32176">
        <ele>132</ele>
        <time>2023-03-05T07:50:00Z</time>
      </trkpt>
      <trkpt lat="46.54883" lon="0.32165">
        <ele>132.4</ele>
        <time>2023-03-05T07:50:04Z</time>
      </trkpt>
      <trkpt lat="46.54882" lon="0.32157">
        <ele>132.6</ele>
        <time>2023-03-05T07:50:06Z</time>
      </trkpt>
      <trkpt lat="46.54884" lon="0.32153">
        <ele>132.6</ele>
        <time>2023-03-05T07:50:07Z</time>
      </trkpt>
      <trkpt lat="46.54891" lon="0.32134">
        <ele>132.2</ele>
        <time>2023-03-05T07:50:11Z</time>
      </trkpt>
      <trkpt lat="46.54892" lon="0.32127">
        <ele>132</ele>
        <time>2023-03-05T07:50:12Z</time>
      </trkpt>
      <trkpt lat="46.54891" lon="0.32121">
        <ele>132</ele>
        <time>2023-03-05T07:50:13Z</time>
      </trkpt>
      <trkpt lat="46.54888" lon="0.32109">
        <ele>132</ele>
        <time>2023-03-05T07:50:15Z</time>
      </trkpt>
      <trkpt lat="46.54877" lon="0.32082">
        <ele>131.8</ele>
        <time>2023-03-05T07:50:20Z</time>
      </trkpt>
      <trkpt lat="46.54875" lon="0.32079">
        <ele>131.6</ele>
        <time>2023-03-05T07:50:21Z</time>
      </trkpt>
      <trkpt lat="46.54873" lon="0.32078">
        <ele>131.4</ele>
        <time>2023-03-05T07:50:22Z</time>
      </trkpt>
      <trkpt lat="46.54865" lon="0.32081">
        <ele>131.4</ele>
        <time>2023-03-05T07:50:24Z</time>
      </trkpt>
      <trkpt lat="46.54845" lon="0.32092">
        <ele>131</ele>
        <time>2023-03-05T07:50:28Z</time>
      </trkpt>
      <trkpt lat="46.54841" lon="0.32093">
        <ele>131</ele>
        <time>2023-03-05T07:50:29Z</time>
      </trkpt>
      <trkpt lat="46.54836" lon="0.32092">
        <ele>130.8</ele>
        <time>2023-03-05T07:50:30Z</time>
      </trkpt>
      <trkpt lat="46.54827" lon="0.3209">
        <ele>130.6</ele>
        <time>2023-03-05T07:50:32Z</time>
      </trkpt>
      <trkpt lat="46.54821" lon="0.32089">
        <ele>130.4</ele>
        <time>2023-03-05T07:50:33Z</time>
      </trkpt>
      <trkpt lat="46.54807" lon="0.32084">
        <ele>129.4</ele>
        <time>2023-03-05T07:50:36Z</time>
      </trkpt>
      <trkpt lat="46.54803" lon="0.32081">
        <ele>129.2</ele>
        <time>2023-03-05T07:50:37Z</time>
      </trkpt>
      <trkpt lat="46.548" lon="0.32075">
        <ele>128.4</ele>
        <time>2023-03-05T07:50:38Z</time>
      </trkpt>
      <trkpt lat="46.54798" lon="0.32069">
        <ele>127.8</ele>
        <time>2023-03-05T07:50:39Z</time>
      </trkpt>
      <trkpt lat="46.54797" lon="0.32062">
        <ele>127.2</ele>
        <time>2023-03-05T07:50:40Z</time>
      </trkpt>
      <trkpt lat="46.54797" lon="0.32055">
        <ele>126.6</ele>
        <time>2023-03-05T07:50:41Z</time>
      </trkpt>
      <trkpt lat="46.54798" lon="0.32043">
        <ele>126.2</ele>
        <time>2023-03-05T07:50:43Z</time>
      </trkpt>
      <trkpt lat="46.54799" lon="0.32032">
        <ele>126</ele>
        <time>2023-03-05T07:50:45Z</time>
      </trkpt>
      <trkpt lat="46.548" lon="0.3202">
        <ele>125.8</ele>
        <time>2023-03-05T07:50:48Z</time>
      </trkpt>
      <trkpt lat="46.54802" lon="0.32006">
        <ele>125.6</ele>
        <time>2023-03-05T07:50:51Z</time>
      </trkpt>
      <trkpt lat="46.54803" lon="0.32">
        <ele>125.4</ele>
        <time>2023-03-05T07:50:52Z</time>
      </trkpt>
      <trkpt lat="46.548" lon="0.31991">
        <ele>125</ele>
        <time>2023-03-05T07:50:54Z</time>
      </trkpt>
      <trkpt lat="46.54797" lon="0.31987">
        <ele>124.4</ele>
        <time>2023-03-05T07:50:55Z</time>
      </trkpt>
      <trkpt lat="46.54794" lon="0.31984">
        <ele>124</ele>
        <time>2023-03-05T07:50:56Z</time>
      </trkpt>
      <trkpt lat="46.54785" lon="0.3198">
        <ele>123.6</ele>
        <time>2023-03-05T07:50:58Z</time>
      </trkpt>
      <trkpt lat="46.54777" lon="0.31979">
        <ele>123.8</ele>
        <time>2023-03-05T07:51:00Z</time>
      </trkpt>
      <trkpt lat="46.54762" lon="0.31981">
        <ele>125</ele>
        <time>2023-03-05T07:51:04Z</time>
      </trkpt>
      <trkpt lat="46.5476" lon="0.31981">
        <ele>125.6</ele>
        <time>2023-03-05T07:51:05Z</time>
      </trkpt>
      <trkpt lat="46.54758" lon="0.3198">
        <ele>126.4</ele>
        <time>2023-03-05T07:51:06Z</time>
      </trkpt>
      <trkpt lat="46.54756" lon="0.3198">
        <ele>127</ele>
        <time>2023-03-05T07:51:07Z</time>
      </trkpt>
      <trkpt lat="46.54747" lon="0.3198">
        <ele>128</ele>
        <time>2023-03-05T07:51:11Z</time>
      </trkpt>
      <trkpt lat="46.54744" lon="0.31981">
        <ele>128.2</ele>
        <time>2023-03-05T07:51:12Z</time>
      </trkpt>
      <trkpt lat="46.54737" lon="0.31985">
        <ele>129.2</ele>
        <time>2023-03-05T07:51:15Z</time>
      </trkpt>
      <trkpt lat="46.5473" lon="0.3199">
        <ele>130</ele>
        <time>2023-03-05T07:51:18Z</time>
      </trkpt>
      <trkpt lat="46.54728" lon="0.31992">
        <ele>130.2</ele>
        <time>2023-03-05T07:51:19Z</time>
      </trkpt>
      <trkpt lat="46.54716" lon="0.31999">
        <ele>130.8</ele>
        <time>2023-03-05T07:51:24Z</time>
      </trkpt>
      <trkpt lat="46.54698" lon="0.32003">
        <ele>131</ele>
        <time>2023-03-05T07:51:29Z</time>
      </trkpt>
      <trkpt lat="46.54695" lon="0.32005">
        <ele>131.4</ele>
        <time>2023-03-05T07:51:30Z</time>
      </trkpt>
      <trkpt lat="46.54675" lon="0.32006">
        <ele>132.2</ele>
        <time>2023-03-05T07:51:35Z</time>
      </trkpt>
      <trkpt lat="46.54661" lon="0.32004">
        <ele>132.6</ele>
        <time>2023-03-05T07:51:39Z</time>
      </trkpt>
      <trkpt lat="46.54646" lon="0.32003">
        <ele>133</ele>
        <time>2023-03-05T07:51:43Z</time>
      </trkpt>
      <trkpt lat="46.54621" lon="0.32006">
        <ele>133.4</ele>
        <time>2023-03-05T07:51:50Z</time>
      </trkpt>
      <trkpt lat="46.54613" lon="0.32007">
        <ele>133.6</ele>
        <time>2023-03-05T07:51:52Z</time>
      </trkpt>
      <trkpt lat="46.54585" lon="0.32012">
        <ele>133.8</ele>
        <time>2023-03-05T07:51:58Z</time>
      </trkpt>
      <trkpt lat="46.54553" lon="0.32011">
        <ele>133.8</ele>
        <time>2023-03-05T07:52:04Z</time>
      </trkpt>
      <trkpt lat="46.54539" lon="0.32004">
        <ele>134</ele>
        <time>2023-03-05T07:52:07Z</time>
      </trkpt>
      <trkpt lat="46.5453" lon="0.31999">
        <ele>133.8</ele>
        <time>2023-03-05T07:52:09Z</time>
      </trkpt>
      <trkpt lat="46.54522" lon="0.32002">
        <ele>133.6</ele>
        <time>2023-03-05T07:52:11Z</time>
      </trkpt>
      <trkpt lat="46.54519" lon="0.32006">
        <ele>133.6</ele>
        <time>2023-03-05T07:52:12Z</time>
      </trkpt>
      <trkpt lat="46.545" lon="0.32035">
        <ele>133.6</ele>
        <time>2023-03-05T07:52:18Z</time>
      </trkpt>
      <trkpt lat="46.54495" lon="0.32042">
        <ele>133.6</ele>
        <time>2023-03-05T07:52:20Z</time>
      </trkpt>
      <trkpt lat="46.54493" lon="0.32043">
        <ele>133.4</ele>
        <time>2023-03-05T07:52:22Z</time>
      </trkpt>
      <trkpt lat="46.54488" lon="0.32029">
        <ele>133.2</ele>
        <time>2023-03-05T07:52:27Z</time>
      </trkpt>
      <trkpt lat="46.54487" lon="0.3202">
        <ele>133</ele>
        <time>2023-03-05T07:52:29Z</time>
      </trkpt>
      <trkpt lat="46.54486" lon="0.32011">
        <ele>132.8</ele>
        <time>2023-03-05T07:52:31Z</time>
      </trkpt>
      <trkpt lat="46.54485" lon="0.32008">
        <ele>132.8</ele>
        <time>2023-03-05T07:52:32Z</time>
      </trkpt>
      <trkpt lat="46.54483" lon="0.32005">
        <ele>132.6</ele>
        <time>2023-03-05T07:52:33Z</time>
      </trkpt>
      <trkpt lat="46.54482" lon="0.32002">
        <ele>132.6</ele>
        <time>2023-03-05T07:52:34Z</time>
      </trkpt>
      <trkpt lat="46.5448" lon="0.31997">
        <ele>132.6</ele>
        <time>2023-03-05T07:52:35Z</time>
      </trkpt>
      <trkpt lat="46.54478" lon="0.3199">
        <ele>132.4</ele>
        <time>2023-03-05T07:52:36Z</time>
      </trkpt>
      <trkpt lat="46.54475" lon="0.31976">
        <ele>131.6</ele>
        <time>2023-03-05T07:52:38Z</time>
      </trkpt>
      <trkpt lat="46.5447" lon="0.3196">
        <ele>131</ele>
        <time>2023-03-05T07:52:40Z</time>
      </trkpt>
      <trkpt lat="46.54469" lon="0.31951">
        <ele>131</ele>
        <time>2023-03-05T07:52:41Z</time>
      </trkpt>
      <trkpt lat="46.5446" lon="0.31902">
        <ele>130.6</ele>
        <time>2023-03-05T07:52:46Z</time>
      </trkpt>
      <trkpt lat="46.54454" lon="0.31877">
        <ele>130.6</ele>
        <time>2023-03-05T07:52:49Z</time>
      </trkpt>
      <trkpt lat="46.54452" lon="0.3187">
        <ele>130.6</ele>
        <time>2023-03-05T07:52:50Z</time>
      </trkpt>
      <trkpt lat="46.54451" lon="0.31864">
        <ele>130.6</ele>
        <time>2023-03-05T07:52:51Z</time>
      </trkpt>
      <trkpt lat="46.54448" lon="0.31858">
        <ele>130.6</ele>
        <time>2023-03-05T07:52:53Z</time>
      </trkpt>
      <trkpt lat="46.54444" lon="0.31856">
        <ele>130.6</ele>
        <time>2023-03-05T07:52:54Z</time>
      </trkpt>
      <trkpt lat="46.54431" lon="0.3185">
        <ele>132</ele>
        <time>2023-03-05T07:52:58Z</time>
      </trkpt>
      <trkpt lat="46.54425" lon="0.31843">
        <ele>133</ele>
        <time>2023-03-05T07:53:00Z</time>
      </trkpt>
      <trkpt lat="46.54421" lon="0.31835">
        <ele>133.4</ele>
        <time>2023-03-05T07:53:02Z</time>
      </trkpt>
      <trkpt lat="46.5442" lon="0.31829">
        <ele>133.6</ele>
        <time>2023-03-05T07:53:03Z</time>
      </trkpt>
      <trkpt lat="46.54422" lon="0.31803">
        <ele>133</ele>
        <time>2023-03-05T07:53:07Z</time>
      </trkpt>
      <trkpt lat="46.54419" lon="0.31786">
        <ele>132.6</ele>
        <time>2023-03-05T07:53:09Z</time>
      </trkpt>
      <trkpt lat="46.54414" lon="0.31771">
        <ele>132.4</ele>
        <time>2023-03-05T07:53:11Z</time>
      </trkpt>
      <trkpt lat="46.544" lon="0.31734">
        <ele>132.8</ele>
        <time>2023-03-05T07:53:18Z</time>
      </trkpt>
      <trkpt lat="46.54396" lon="0.31722">
        <ele>134.4</ele>
        <time>2023-03-05T07:53:21Z</time>
      </trkpt>
      <trkpt lat="46.54392" lon="0.31705">
        <ele>135</ele>
        <time>2023-03-05T07:53:25Z</time>
      </trkpt>
      <trkpt lat="46.54387" lon="0.3168">
        <ele>135.4</ele>
        <time>2023-03-05T07:53:31Z</time>
      </trkpt>
      <trkpt lat="46.54385" lon="0.31673">
        <ele>135.8</ele>
        <time>2023-03-05T07:53:33Z</time>
      </trkpt>
      <trkpt lat="46.54379" lon="0.3165">
        <ele>136.4</ele>
        <time>2023-03-05T07:53:38Z</time>
      </trkpt>
      <trkpt lat="46.54378" lon="0.31646">
        <ele>136.6</ele>
        <time>2023-03-05T07:53:39Z</time>
      </trkpt>
      <trkpt lat="46.54373" lon="0.3161">
        <ele>137.2</ele>
        <time>2023-03-05T07:53:46Z</time>
      </trkpt>
      <trkpt lat="46.54373" lon="0.31606">
        <ele>137.4</ele>
        <time>2023-03-05T07:53:47Z</time>
      </trkpt>
      <trkpt lat="46.54369" lon="0.31583">
        <ele>137.6</ele>
        <time>2023-03-05T07:53:52Z</time>
      </trkpt>
      <trkpt lat="46.54365" lon="0.31555">
        <ele>138.8</ele>
        <time>2023-03-05T07:53:59Z</time>
      </trkpt>
      <trkpt lat="46.54364" lon="0.31547">
        <ele>139</ele>
        <time>2023-03-05T07:54:01Z</time>
      </trkpt>
      <trkpt lat="46.5436" lon="0.31527">
        <ele>140</ele>
        <time>2023-03-05T07:54:06Z</time>
      </trkpt>
      <trkpt lat="46.54359" lon="0.31519">
        <ele>140.2</ele>
        <time>2023-03-05T07:54:08Z</time>
      </trkpt>
      <trkpt lat="46.54353" lon="0.31496">
        <ele>140</ele>
        <time>2023-03-05T07:54:13Z</time>
      </trkpt>
      <trkpt lat="46.54346" lon="0.31478">
        <ele>140.2</ele>
        <time>2023-03-05T07:54:17Z</time>
      </trkpt>
      <trkpt lat="46.54337" lon="0.31439">
        <ele>140.6</ele>
        <time>2023-03-05T07:54:25Z</time>
      </trkpt>
      <trkpt lat="46.54334" lon="0.31429">
        <ele>141</ele>
        <time>2023-03-05T07:54:27Z</time>
      </trkpt>
      <trkpt lat="46.54326" lon="0.31396">
        <ele>141.4</ele>
        <time>2023-03-05T07:54:34Z</time>
      </trkpt>
      <trkpt lat="46.54326" lon="0.31387">
        <ele>141.6</ele>
        <time>2023-03-05T07:54:38Z</time>
      </trkpt>
      <trkpt lat="46.54326" lon="0.31385">
        <ele>141.4</ele>
        <time>2023-03-05T07:54:39Z</time>
      </trkpt>
      <trkpt lat="46.5433" lon="0.31383">
        <ele>141.4</ele>
        <time>2023-03-05T07:54:41Z</time>
      </trkpt>
      <trkpt lat="46.54332" lon="0.31382">
        <ele>141.4</ele>
        <time>2023-03-05T07:54:42Z</time>
      </trkpt>
      <trkpt lat="46.54351" lon="0.31377">
        <ele>142</ele>
        <time>2023-03-05T07:54:48Z</time>
      </trkpt>
      <trkpt lat="46.54374" lon="0.31372">
        <ele>141.6</ele>
        <time>2023-03-05T07:54:54Z</time>
      </trkpt>
      <trkpt lat="46.54397" lon="0.31368">
        <ele>141.2</ele>
        <time>2023-03-05T07:54:59Z</time>
      </trkpt>
      <trkpt lat="46.54408" lon="0.31366">
        <ele>140.8</ele>
        <time>2023-03-05T07:55:01Z</time>
      </trkpt>
      <trkpt lat="46.54442" lon="0.31361">
        <ele>140.4</ele>
        <time>2023-03-05T07:55:07Z</time>
      </trkpt>
      <trkpt lat="46.54471" lon="0.31358">
        <ele>140.8</ele>
        <time>2023-03-05T07:55:12Z</time>
      </trkpt>
      <trkpt lat="46.54511" lon="0.31357">
        <ele>141.8</ele>
        <time>2023-03-05T07:55:20Z</time>
      </trkpt>
      <trkpt lat="46.54516" lon="0.31358">
        <ele>142</ele>
        <time>2023-03-05T07:55:21Z</time>
      </trkpt>
      <trkpt lat="46.54521" lon="0.31359">
        <ele>142.2</ele>
        <time>2023-03-05T07:55:22Z</time>
      </trkpt>
      <trkpt lat="46.54527" lon="0.3136">
        <ele>142.2</ele>
        <time>2023-03-05T07:55:23Z</time>
      </trkpt>
      <trkpt lat="46.54538" lon="0.3136">
        <ele>142.2</ele>
        <time>2023-03-05T07:55:25Z</time>
      </trkpt>
      <trkpt lat="46.54572" lon="0.31364">
        <ele>142.4</ele>
        <time>2023-03-05T07:55:31Z</time>
      </trkpt>
      <trkpt lat="46.54603" lon="0.31358">
        <ele>142.6</ele>
        <time>2023-03-05T07:55:37Z</time>
      </trkpt>
      <trkpt lat="46.54608" lon="0.31356">
        <ele>142.6</ele>
        <time>2023-03-05T07:55:38Z</time>
      </trkpt>
      <trkpt lat="46.54617" lon="0.31349">
        <ele>142.8</ele>
        <time>2023-03-05T07:55:40Z</time>
      </trkpt>
      <trkpt lat="46.54621" lon="0.31344">
        <ele>142.6</ele>
        <time>2023-03-05T07:55:41Z</time>
      </trkpt>
      <trkpt lat="46.54622" lon="0.31339">
        <ele>142.6</ele>
        <time>2023-03-05T07:55:42Z</time>
      </trkpt>
      <trkpt lat="46.54621" lon="0.31328">
        <ele>142</ele>
        <time>2023-03-05T07:55:44Z</time>
      </trkpt>
      <trkpt lat="46.54621" lon="0.31316">
        <ele>141.8</ele>
        <time>2023-03-05T07:55:46Z</time>
      </trkpt>
      <trkpt lat="46.5462" lon="0.31303">
        <ele>141.8</ele>
        <time>2023-03-05T07:55:48Z</time>
      </trkpt>
      <trkpt lat="46.5462" lon="0.31296">
        <ele>142</ele>
        <time>2023-03-05T07:55:49Z</time>
      </trkpt>
      <trkpt lat="46.54615" lon="0.31271">
        <ele>142.2</ele>
        <time>2023-03-05T07:55:53Z</time>
      </trkpt>
      <trkpt lat="46.54613" lon="0.31264">
        <ele>142.2</ele>
        <time>2023-03-05T07:55:54Z</time>
      </trkpt>
      <trkpt lat="46.54609" lon="0.31243">
        <ele>142.2</ele>
        <time>2023-03-05T07:55:58Z</time>
      </trkpt>
      <trkpt lat="46.54608" lon="0.31238">
        <ele>142.2</ele>
        <time>2023-03-05T07:55:59Z</time>
      </trkpt>
      <trkpt lat="46.54606" lon="0.31229">
        <ele>142.4</ele>
        <time>2023-03-05T07:56:01Z</time>
      </trkpt>
      <trkpt lat="46.54603" lon="0.31213">
        <ele>142.8</ele>
        <time>2023-03-05T07:56:04Z</time>
      </trkpt>
      <trkpt lat="46.54601" lon="0.31207">
        <ele>143</ele>
        <time>2023-03-05T07:56:05Z</time>
      </trkpt>
      <trkpt lat="46.546" lon="0.31201">
        <ele>143.2</ele>
        <time>2023-03-05T07:56:06Z</time>
      </trkpt>
      <trkpt lat="46.54594" lon="0.31184">
        <ele>143.4</ele>
        <time>2023-03-05T07:56:09Z</time>
      </trkpt>
      <trkpt lat="46.54591" lon="0.31172">
        <ele>143.4</ele>
        <time>2023-03-05T07:56:11Z</time>
      </trkpt>
      <trkpt lat="46.54586" lon="0.31149">
        <ele>144.2</ele>
        <time>2023-03-05T07:56:15Z</time>
      </trkpt>
      <trkpt lat="46.54582" lon="0.31136">
        <ele>143.8</ele>
        <time>2023-03-05T07:56:17Z</time>
      </trkpt>
      <trkpt lat="46.54574" lon="0.3111">
        <ele>144.4</ele>
        <time>2023-03-05T07:56:21Z</time>
      </trkpt>
      <trkpt lat="46.54571" lon="0.31097">
        <ele>144</ele>
        <time>2023-03-05T07:56:23Z</time>
      </trkpt>
      <trkpt lat="46.54568" lon="0.31084">
        <ele>144.2</ele>
        <time>2023-03-05T07:56:25Z</time>
      </trkpt>
      <trkpt lat="46.54562" lon="0.31068">
        <ele>144</ele>
        <time>2023-03-05T07:56:27Z</time>
      </trkpt>
      <trkpt lat="46.54559" lon="0.31061">
        <ele>144</ele>
        <time>2023-03-05T07:56:28Z</time>
      </trkpt>
      <trkpt lat="46.54546" lon="0.31025">
        <ele>144.4</ele>
        <time>2023-03-05T07:56:34Z</time>
      </trkpt>
      <trkpt lat="46.54543" lon="0.31013">
        <ele>143.8</ele>
        <time>2023-03-05T07:56:36Z</time>
      </trkpt>
      <trkpt lat="46.54539" lon="0.31001">
        <ele>143.8</ele>
        <time>2023-03-05T07:56:38Z</time>
      </trkpt>
      <trkpt lat="46.54538" lon="0.30995">
        <ele>143.8</ele>
        <time>2023-03-05T07:56:39Z</time>
      </trkpt>
      <trkpt lat="46.54527" lon="0.3096">
        <ele>144.4</ele>
        <time>2023-03-05T07:56:44Z</time>
      </trkpt>
      <trkpt lat="46.54525" lon="0.30953">
        <ele>144</ele>
        <time>2023-03-05T07:56:45Z</time>
      </trkpt>
      <trkpt lat="46.54523" lon="0.30946">
        <ele>144</ele>
        <time>2023-03-05T07:56:46Z</time>
      </trkpt>
      <trkpt lat="46.54518" lon="0.30929">
        <ele>143.8</ele>
        <time>2023-03-05T07:56:48Z</time>
      </trkpt>
      <trkpt lat="46.54515" lon="0.30921">
        <ele>143.8</ele>
        <time>2023-03-05T07:56:49Z</time>
      </trkpt>
      <trkpt lat="46.54511" lon="0.30908">
        <ele>143.8</ele>
        <time>2023-03-05T07:56:51Z</time>
      </trkpt>
      <trkpt lat="46.54505" lon="0.30881">
        <ele>143.8</ele>
        <time>2023-03-05T07:56:55Z</time>
      </trkpt>
      <trkpt lat="46.54489" lon="0.30845">
        <ele>143.2</ele>
        <time>2023-03-05T07:57:00Z</time>
      </trkpt>
      <trkpt lat="46.54486" lon="0.30838">
        <ele>143.2</ele>
        <time>2023-03-05T07:57:01Z</time>
      </trkpt>
      <trkpt lat="46.54481" lon="0.30825">
        <ele>143.2</ele>
        <time>2023-03-05T07:57:03Z</time>
      </trkpt>
      <trkpt lat="46.54475" lon="0.30807">
        <ele>143.4</ele>
        <time>2023-03-05T07:57:06Z</time>
      </trkpt>
      <trkpt lat="46.54466" lon="0.30775">
        <ele>143.2</ele>
        <time>2023-03-05T07:57:11Z</time>
      </trkpt>
      <trkpt lat="46.54464" lon="0.30769">
        <ele>143.2</ele>
        <time>2023-03-05T07:57:12Z</time>
      </trkpt>
      <trkpt lat="46.54457" lon="0.30755">
        <ele>143</ele>
        <time>2023-03-05T07:57:14Z</time>
      </trkpt>
      <trkpt lat="46.54446" lon="0.30723">
        <ele>142.6</ele>
        <time>2023-03-05T07:57:18Z</time>
      </trkpt>
      <trkpt lat="46.54421" lon="0.30656">
        <ele>143.8</ele>
        <time>2023-03-05T07:57:26Z</time>
      </trkpt>
      <trkpt lat="46.54418" lon="0.30642">
        <ele>143.8</ele>
        <time>2023-03-05T07:57:28Z</time>
      </trkpt>
      <trkpt lat="46.54414" lon="0.3063">
        <ele>144</ele>
        <time>2023-03-05T07:57:30Z</time>
      </trkpt>
      <trkpt lat="46.54411" lon="0.30624">
        <ele>144</ele>
        <time>2023-03-05T07:57:31Z</time>
      </trkpt>
      <trkpt lat="46.54407" lon="0.30621">
        <ele>144</ele>
        <time>2023-03-05T07:57:32Z</time>
      </trkpt>
      <trkpt lat="46.54398" lon="0.30617">
        <ele>144</ele>
        <time>2023-03-05T07:57:34Z</time>
      </trkpt>
      <trkpt lat="46.54392" lon="0.30615">
        <ele>144</ele>
        <time>2023-03-05T07:57:35Z</time>
      </trkpt>
      <trkpt lat="46.54365" lon="0.30603">
        <ele>144.4</ele>
        <time>2023-03-05T07:57:40Z</time>
      </trkpt>
      <trkpt lat="46.5433" lon="0.30588">
        <ele>145.6</ele>
        <time>2023-03-05T07:57:48Z</time>
      </trkpt>
      <trkpt lat="46.54309" lon="0.3058">
        <ele>146</ele>
        <time>2023-03-05T07:57:54Z</time>
      </trkpt>
      <trkpt lat="46.54302" lon="0.30577">
        <ele>146.2</ele>
        <time>2023-03-05T07:57:56Z</time>
      </trkpt>
      <trkpt lat="46.54284" lon="0.30569">
        <ele>146.6</ele>
        <time>2023-03-05T07:58:00Z</time>
      </trkpt>
      <trkpt lat="46.54273" lon="0.30564">
        <ele>146.8</ele>
        <time>2023-03-05T07:58:02Z</time>
      </trkpt>
      <trkpt lat="46.54234" lon="0.30556">
        <ele>147</ele>
        <time>2023-03-05T07:58:09Z</time>
      </trkpt>
      <trkpt lat="46.54198" lon="0.30564">
        <ele>146.4</ele>
        <time>2023-03-05T07:58:15Z</time>
      </trkpt>
      <trkpt lat="46.54156" lon="0.30579">
        <ele>146.6</ele>
        <time>2023-03-05T07:58:22Z</time>
      </trkpt>
      <trkpt lat="46.54113" lon="0.30595">
        <ele>146</ele>
        <time>2023-03-05T07:58:29Z</time>
      </trkpt>
      <trkpt lat="46.54068" lon="0.30608">
        <ele>146</ele>
        <time>2023-03-05T07:58:36Z</time>
      </trkpt>
      <trkpt lat="46.54054" lon="0.3061">
        <ele>145.4</ele>
        <time>2023-03-05T07:58:38Z</time>
      </trkpt>
      <trkpt lat="46.54025" lon="0.30612">
        <ele>145</ele>
        <time>2023-03-05T07:58:42Z</time>
      </trkpt>
      <trkpt lat="46.53997" lon="0.3061">
        <ele>144.4</ele>
        <time>2023-03-05T07:58:46Z</time>
      </trkpt>
      <trkpt lat="46.53982" lon="0.30607">
        <ele>144.4</ele>
        <time>2023-03-05T07:58:48Z</time>
      </trkpt>
      <trkpt lat="46.53939" lon="0.30598">
        <ele>144</ele>
        <time>2023-03-05T07:58:54Z</time>
      </trkpt>
      <trkpt lat="46.53932" lon="0.30597">
        <ele>144</ele>
        <time>2023-03-05T07:58:55Z</time>
      </trkpt>
      <trkpt lat="46.53918" lon="0.30594">
        <ele>143.8</ele>
        <time>2023-03-05T07:58:57Z</time>
      </trkpt>
      <trkpt lat="46.53906" lon="0.3059">
        <ele>144</ele>
        <time>2023-03-05T07:58:59Z</time>
      </trkpt>
      <trkpt lat="46.53874" lon="0.30585">
        <ele>144.2</ele>
        <time>2023-03-05T07:59:04Z</time>
      </trkpt>
      <trkpt lat="46.53838" lon="0.30576">
        <ele>144.4</ele>
        <time>2023-03-05T07:59:10Z</time>
      </trkpt>
      <trkpt lat="46.53833" lon="0.30572">
        <ele>144.4</ele>
        <time>2023-03-05T07:59:11Z</time>
      </trkpt>
      <trkpt lat="46.53822" lon="0.30565">
        <ele>144.2</ele>
        <time>2023-03-05T07:59:13Z</time>
      </trkpt>
      <trkpt lat="46.53809" lon="0.30562">
        <ele>143.8</ele>
        <time>2023-03-05T07:59:15Z</time>
      </trkpt>
      <trkpt lat="46.53757" lon="0.30553">
        <ele>143.4</ele>
        <time>2023-03-05T07:59:23Z</time>
      </trkpt>
      <trkpt lat="46.53727" lon="0.30548">
        <ele>142</ele>
        <time>2023-03-05T07:59:28Z</time>
      </trkpt>
      <trkpt lat="46.53708" lon="0.30547">
        <ele>141.4</ele>
        <time>2023-03-05T07:59:31Z</time>
      </trkpt>
      <trkpt lat="46.53701" lon="0.30548">
        <ele>141.2</ele>
        <time>2023-03-05T07:59:32Z</time>
      </trkpt>
      <trkpt lat="46.53695" lon="0.30549">
        <ele>141</ele>
        <time>2023-03-05T07:59:33Z</time>
      </trkpt>
      <trkpt lat="46.53668" lon="0.30552">
        <ele>139.8</ele>
        <time>2023-03-05T07:59:37Z</time>
      </trkpt>
      <trkpt lat="46.5365" lon="0.30549">
        <ele>138.4</ele>
        <time>2023-03-05T07:59:40Z</time>
      </trkpt>
      <trkpt lat="46.53635" lon="0.30547">
        <ele>136.8</ele>
        <time>2023-03-05T07:59:42Z</time>
      </trkpt>
      <trkpt lat="46.53619" lon="0.30545">
        <ele>135.2</ele>
        <time>2023-03-05T07:59:44Z</time>
      </trkpt>
      <trkpt lat="46.5361" lon="0.30544">
        <ele>134</ele>
        <time>2023-03-05T07:59:45Z</time>
      </trkpt>
      <trkpt lat="46.536" lon="0.30542">
        <ele>133.4</ele>
        <time>2023-03-05T07:59:46Z</time>
      </trkpt>
      <trkpt lat="46.53591" lon="0.30541">
        <ele>133</ele>
        <time>2023-03-05T07:59:47Z</time>
      </trkpt>
      <trkpt lat="46.53574" lon="0.30542">
        <ele>132</ele>
        <time>2023-03-05T07:59:49Z</time>
      </trkpt>
      <trkpt lat="46.53566" lon="0.30544">
        <ele>131.8</ele>
        <time>2023-03-05T07:59:50Z</time>
      </trkpt>
      <trkpt lat="46.53541" lon="0.30555">
        <ele>131.4</ele>
        <time>2023-03-05T07:59:54Z</time>
      </trkpt>
      <trkpt lat="46.53518" lon="0.3056">
        <ele>131.4</ele>
        <time>2023-03-05T07:59:59Z</time>
      </trkpt>
      <trkpt lat="46.53511" lon="0.3056">
        <ele>131.6</ele>
        <time>2023-03-05T08:00:03Z</time>
      </trkpt>
      <trkpt lat="46.53508" lon="0.30562">
        <ele>132</ele>
        <time>2023-03-05T08:00:05Z</time>
      </trkpt>
      <trkpt lat="46.53505" lon="0.30567">
        <ele>132.2</ele>
        <time>2023-03-05T08:00:07Z</time>
      </trkpt>
      <trkpt lat="46.53505" lon="0.30571">
        <ele>132.2</ele>
        <time>2023-03-05T08:00:08Z</time>
      </trkpt>
      <trkpt lat="46.53507" lon="0.30586">
        <ele>131.8</ele>
        <time>2023-03-05T08:00:11Z</time>
      </trkpt>
      <trkpt lat="46.53512" lon="0.30611">
        <ele>130.2</ele>
        <time>2023-03-05T08:00:14Z</time>
      </trkpt>
      <trkpt lat="46.53514" lon="0.3062">
        <ele>129.8</ele>
        <time>2023-03-05T08:00:15Z</time>
      </trkpt>
      <trkpt lat="46.53517" lon="0.3063">
        <ele>129</ele>
        <time>2023-03-05T08:00:16Z</time>
      </trkpt>
      <trkpt lat="46.53519" lon="0.30639">
        <ele>128</ele>
        <time>2023-03-05T08:00:17Z</time>
      </trkpt>
      <trkpt lat="46.5352" lon="0.30648">
        <ele>127.6</ele>
        <time>2023-03-05T08:00:18Z</time>
      </trkpt>
      <trkpt lat="46.53521" lon="0.30656">
        <ele>127.2</ele>
        <time>2023-03-05T08:00:19Z</time>
      </trkpt>
      <trkpt lat="46.53522" lon="0.30662">
        <ele>126.8</ele>
        <time>2023-03-05T08:00:20Z</time>
      </trkpt>
      <trkpt lat="46.53522" lon="0.30666">
        <ele>126.4</ele>
        <time>2023-03-05T08:00:21Z</time>
      </trkpt>
      <trkpt lat="46.53517" lon="0.30674">
        <ele>125.4</ele>
        <time>2023-03-05T08:00:23Z</time>
      </trkpt>
      <trkpt lat="46.53515" lon="0.30679">
        <ele>125</ele>
        <time>2023-03-05T08:00:24Z</time>
      </trkpt>
      <trkpt lat="46.535" lon="0.30699">
        <ele>124.4</ele>
        <time>2023-03-05T08:00:28Z</time>
      </trkpt>
      <trkpt lat="46.53492" lon="0.30708">
        <ele>124</ele>
        <time>2023-03-05T08:00:30Z</time>
      </trkpt>
      <trkpt lat="46.53488" lon="0.30712">
        <ele>124</ele>
        <time>2023-03-05T08:00:31Z</time>
      </trkpt>
      <trkpt lat="46.53476" lon="0.30727">
        <ele>123.8</ele>
        <time>2023-03-05T08:00:34Z</time>
      </trkpt>
      <trkpt lat="46.53466" lon="0.30737">
        <ele>123.6</ele>
        <time>2023-03-05T08:00:36Z</time>
      </trkpt>
      <trkpt lat="46.53447" lon="0.30755">
        <ele>122.6</ele>
        <time>2023-03-05T08:00:40Z</time>
      </trkpt>
      <trkpt lat="46.53438" lon="0.30762">
        <ele>122</ele>
        <time>2023-03-05T08:00:42Z</time>
      </trkpt>
      <trkpt lat="46.53434" lon="0.30767">
        <ele>121.6</ele>
        <time>2023-03-05T08:00:43Z</time>
      </trkpt>
      <trkpt lat="46.53417" lon="0.30781">
        <ele>120.6</ele>
        <time>2023-03-05T08:00:47Z</time>
      </trkpt>
      <trkpt lat="46.53385" lon="0.30807">
        <ele>119.8</ele>
        <time>2023-03-05T08:00:53Z</time>
      </trkpt>
      <trkpt lat="46.5338" lon="0.3081">
        <ele>119.6</ele>
        <time>2023-03-05T08:00:54Z</time>
      </trkpt>
      <trkpt lat="46.53375" lon="0.30814">
        <ele>119.4</ele>
        <time>2023-03-05T08:00:55Z</time>
      </trkpt>
      <trkpt lat="46.53355" lon="0.30831">
        <ele>118</ele>
        <time>2023-03-05T08:00:59Z</time>
      </trkpt>
      <trkpt lat="46.53337" lon="0.30841">
        <ele>116.8</ele>
        <time>2023-03-05T08:01:02Z</time>
      </trkpt>
      <trkpt lat="46.53323" lon="0.30846">
        <ele>116.2</ele>
        <time>2023-03-05T08:01:04Z</time>
      </trkpt>
      <trkpt lat="46.53317" lon="0.30848">
        <ele>116</ele>
        <time>2023-03-05T08:01:05Z</time>
      </trkpt>
      <trkpt lat="46.53311" lon="0.30851">
        <ele>115.6</ele>
        <time>2023-03-05T08:01:06Z</time>
      </trkpt>
      <trkpt lat="46.53304" lon="0.30855">
        <ele>115.2</ele>
        <time>2023-03-05T08:01:07Z</time>
      </trkpt>
      <trkpt lat="46.53299" lon="0.30857">
        <ele>114.6</ele>
        <time>2023-03-05T08:01:08Z</time>
      </trkpt>
      <trkpt lat="46.53295" lon="0.3086">
        <ele>113.8</ele>
        <time>2023-03-05T08:01:09Z</time>
      </trkpt>
      <trkpt lat="46.5329" lon="0.30863">
        <ele>113.2</ele>
        <time>2023-03-05T08:01:10Z</time>
      </trkpt>
      <trkpt lat="46.53283" lon="0.30869">
        <ele>112.6</ele>
        <time>2023-03-05T08:01:12Z</time>
      </trkpt>
      <trkpt lat="46.53265" lon="0.30883">
        <ele>112.4</ele>
        <time>2023-03-05T08:01:16Z</time>
      </trkpt>
      <trkpt lat="46.53253" lon="0.30894">
        <ele>112.2</ele>
        <time>2023-03-05T08:01:19Z</time>
      </trkpt>
      <trkpt lat="46.53223" lon="0.30925">
        <ele>111.8</ele>
        <time>2023-03-05T08:01:26Z</time>
      </trkpt>
      <trkpt lat="46.53219" lon="0.30931">
        <ele>111</ele>
        <time>2023-03-05T08:01:27Z</time>
      </trkpt>
      <trkpt lat="46.53202" lon="0.30949">
        <ele>110</ele>
        <time>2023-03-05T08:01:30Z</time>
      </trkpt>
      <trkpt lat="46.5319" lon="0.30963">
        <ele>108.8</ele>
        <time>2023-03-05T08:01:32Z</time>
      </trkpt>
      <trkpt lat="46.53176" lon="0.30982">
        <ele>107.4</ele>
        <time>2023-03-05T08:01:35Z</time>
      </trkpt>
      <trkpt lat="46.53169" lon="0.30991">
        <ele>107.2</ele>
        <time>2023-03-05T08:01:36Z</time>
      </trkpt>
      <trkpt lat="46.53157" lon="0.31007">
        <ele>105.8</ele>
        <time>2023-03-05T08:01:38Z</time>
      </trkpt>
      <trkpt lat="46.53151" lon="0.31014">
        <ele>104.6</ele>
        <time>2023-03-05T08:01:39Z</time>
      </trkpt>
      <trkpt lat="46.53134" lon="0.31032">
        <ele>103.4</ele>
        <time>2023-03-05T08:01:42Z</time>
      </trkpt>
      <trkpt lat="46.53116" lon="0.31048">
        <ele>102.2</ele>
        <time>2023-03-05T08:01:45Z</time>
      </trkpt>
      <trkpt lat="46.53105" lon="0.31059">
        <ele>101.2</ele>
        <time>2023-03-05T08:01:47Z</time>
      </trkpt>
      <trkpt lat="46.531" lon="0.31065">
        <ele>101</ele>
        <time>2023-03-05T08:01:48Z</time>
      </trkpt>
      <trkpt lat="46.5309" lon="0.31075">
        <ele>99.6</ele>
        <time>2023-03-05T08:01:50Z</time>
      </trkpt>
      <trkpt lat="46.53075" lon="0.31092">
        <ele>97.6</ele>
        <time>2023-03-05T08:01:53Z</time>
      </trkpt>
      <trkpt lat="46.5307" lon="0.31097">
        <ele>96.4</ele>
        <time>2023-03-05T08:01:54Z</time>
      </trkpt>
      <trkpt lat="46.53062" lon="0.31107">
        <ele>94.8</ele>
        <time>2023-03-05T08:01:56Z</time>
      </trkpt>
      <trkpt lat="46.53044" lon="0.3113">
        <ele>93.8</ele>
        <time>2023-03-05T08:02:00Z</time>
      </trkpt>
      <trkpt lat="46.53039" lon="0.31137">
        <ele>93.6</ele>
        <time>2023-03-05T08:02:01Z</time>
      </trkpt>
      <trkpt lat="46.53034" lon="0.3115">
        <ele>93.2</ele>
        <time>2023-03-05T08:02:03Z</time>
      </trkpt>
      <trkpt lat="46.53032" lon="0.31157">
        <ele>92.4</ele>
        <time>2023-03-05T08:02:04Z</time>
      </trkpt>
      <trkpt lat="46.5303" lon="0.31164">
        <ele>92</ele>
        <time>2023-03-05T08:02:05Z</time>
      </trkpt>
      <trkpt lat="46.53027" lon="0.3117">
        <ele>91.6</ele>
        <time>2023-03-05T08:02:06Z</time>
      </trkpt>
      <trkpt lat="46.53024" lon="0.31181">
        <ele>91.4</ele>
        <time>2023-03-05T08:02:08Z</time>
      </trkpt>
      <trkpt lat="46.5302" lon="0.31187">
        <ele>91.2</ele>
        <time>2023-03-05T08:02:09Z</time>
      </trkpt>
      <trkpt lat="46.53003" lon="0.31207">
        <ele>89.8</ele>
        <time>2023-03-05T08:02:13Z</time>
      </trkpt>
      <trkpt lat="46.52999" lon="0.31211">
        <ele>89.2</ele>
        <time>2023-03-05T08:02:14Z</time>
      </trkpt>
      <trkpt lat="46.52994" lon="0.31216">
        <ele>88.6</ele>
        <time>2023-03-05T08:02:15Z</time>
      </trkpt>
      <trkpt lat="46.52981" lon="0.31226">
        <ele>88</ele>
        <time>2023-03-05T08:02:18Z</time>
      </trkpt>
      <trkpt lat="46.52971" lon="0.31232">
        <ele>87.8</ele>
        <time>2023-03-05T08:02:22Z</time>
      </trkpt>
      <trkpt lat="46.5297" lon="0.31234">
        <ele>87.8</ele>
        <time>2023-03-05T08:02:23Z</time>
      </trkpt>
      <trkpt lat="46.52967" lon="0.31236">
        <ele>87.8</ele>
        <time>2023-03-05T08:02:24Z</time>
      </trkpt>
      <trkpt lat="46.52961" lon="0.31242">
        <ele>87.6</ele>
        <time>2023-03-05T08:02:28Z</time>
      </trkpt>
      <trkpt lat="46.52948" lon="0.31256">
        <ele>87</ele>
        <time>2023-03-05T08:02:34Z</time>
      </trkpt>
      <trkpt lat="46.52928" lon="0.31258">
        <ele>87.4</ele>
        <time>2023-03-05T08:02:40Z</time>
      </trkpt>
      <trkpt lat="46.52915" lon="0.31243">
        <ele>88.8</ele>
        <time>2023-03-05T08:02:46Z</time>
      </trkpt>
      <trkpt lat="46.52905" lon="0.31229">
        <ele>89.6</ele>
        <time>2023-03-05T08:02:51Z</time>
      </trkpt>
      <trkpt lat="46.52901" lon="0.31222">
        <ele>89.8</ele>
        <time>2023-03-05T08:02:53Z</time>
      </trkpt>
      <trkpt lat="46.52891" lon="0.31207">
        <ele>90.2</ele>
        <time>2023-03-05T08:02:57Z</time>
      </trkpt>
      <trkpt lat="46.52879" lon="0.31186">
        <ele>90.8</ele>
        <time>2023-03-05T08:03:03Z</time>
      </trkpt>
      <trkpt lat="46.52877" lon="0.31178">
        <ele>90.8</ele>
        <time>2023-03-05T08:03:06Z</time>
      </trkpt>
      <trkpt lat="46.52877" lon="0.31168">
        <ele>90.6</ele>
        <time>2023-03-05T08:03:09Z</time>
      </trkpt>
      <trkpt lat="46.52874" lon="0.31154">
        <ele>90.8</ele>
        <time>2023-03-05T08:03:12Z</time>
      </trkpt>
      <trkpt lat="46.52872" lon="0.31145">
        <ele>90.8</ele>
        <time>2023-03-05T08:03:14Z</time>
      </trkpt>
      <trkpt lat="46.52871" lon="0.31141">
        <ele>90.8</ele>
        <time>2023-03-05T08:03:15Z</time>
      </trkpt>
      <trkpt lat="46.52861" lon="0.31113">
        <ele>91.4</ele>
        <time>2023-03-05T08:03:22Z</time>
      </trkpt>
      <trkpt lat="46.52859" lon="0.3111">
        <ele>91.6</ele>
        <time>2023-03-05T08:03:23Z</time>
      </trkpt>
      <trkpt lat="46.52857" lon="0.31101">
        <ele>92.2</ele>
        <time>2023-03-05T08:03:25Z</time>
      </trkpt>
      <trkpt lat="46.52854" lon="0.31092">
        <ele>92.6</ele>
        <time>2023-03-05T08:03:27Z</time>
      </trkpt>
      <trkpt lat="46.52851" lon="0.3108">
        <ele>93.2</ele>
        <time>2023-03-05T08:03:30Z</time>
      </trkpt>
      <trkpt lat="46.52847" lon="0.3107">
        <ele>93.6</ele>
        <time>2023-03-05T08:03:33Z</time>
      </trkpt>
      <trkpt lat="46.52846" lon="0.31067">
        <ele>93.6</ele>
        <time>2023-03-05T08:03:34Z</time>
      </trkpt>
      <trkpt lat="46.5284" lon="0.31054">
        <ele>94.6</ele>
        <time>2023-03-05T08:03:38Z</time>
      </trkpt>
      <trkpt lat="46.52835" lon="0.31042">
        <ele>95.6</ele>
        <time>2023-03-05T08:03:42Z</time>
      </trkpt>
      <trkpt lat="46.52833" lon="0.31038">
        <ele>95.8</ele>
        <time>2023-03-05T08:03:43Z</time>
      </trkpt>
      <trkpt lat="46.52829" lon="0.31028">
        <ele>96</ele>
        <time>2023-03-05T08:03:46Z</time>
      </trkpt>
      <trkpt lat="46.52826" lon="0.31023">
        <ele>96.4</ele>
        <time>2023-03-05T08:03:48Z</time>
      </trkpt>
      <trkpt lat="46.52822" lon="0.31017">
        <ele>97.2</ele>
        <time>2023-03-05T08:03:50Z</time>
      </trkpt>
      <trkpt lat="46.52817" lon="0.31011">
        <ele>98.2</ele>
        <time>2023-03-05T08:03:53Z</time>
      </trkpt>
      <trkpt lat="46.52816" lon="0.31008">
        <ele>98.4</ele>
        <time>2023-03-05T08:03:54Z</time>
      </trkpt>
      <trkpt lat="46.52812" lon="0.31001">
        <ele>99.2</ele>
        <time>2023-03-05T08:03:57Z</time>
      </trkpt>
      <trkpt lat="46.52805" lon="0.30989">
        <ele>100.4</ele>
        <time>2023-03-05T08:04:01Z</time>
      </trkpt>
      <trkpt lat="46.52802" lon="0.30983">
        <ele>100.6</ele>
        <time>2023-03-05T08:04:04Z</time>
      </trkpt>
      <trkpt lat="46.52798" lon="0.30974">
        <ele>101.6</ele>
        <time>2023-03-05T08:04:08Z</time>
      </trkpt>
      <trkpt lat="46.52794" lon="0.30963">
        <ele>102.6</ele>
        <time>2023-03-05T08:04:12Z</time>
      </trkpt>
      <trkpt lat="46.52792" lon="0.30957">
        <ele>102.8</ele>
        <time>2023-03-05T08:04:14Z</time>
      </trkpt>
      <trkpt lat="46.52788" lon="0.30948">
        <ele>103.8</ele>
        <time>2023-03-05T08:04:18Z</time>
      </trkpt>
      <trkpt lat="46.52786" lon="0.30943">
        <ele>104.4</ele>
        <time>2023-03-05T08:04:20Z</time>
      </trkpt>
      <trkpt lat="46.52783" lon="0.30939">
        <ele>105</ele>
        <time>2023-03-05T08:04:22Z</time>
      </trkpt>
      <trkpt lat="46.52778" lon="0.30928">
        <ele>106.2</ele>
        <time>2023-03-05T08:04:27Z</time>
      </trkpt>
      <trkpt lat="46.52775" lon="0.30925">
        <ele>106.8</ele>
        <time>2023-03-05T08:04:29Z</time>
      </trkpt>
      <trkpt lat="46.52772" lon="0.3092">
        <ele>107.4</ele>
        <time>2023-03-05T08:04:31Z</time>
      </trkpt>
      <trkpt lat="46.52769" lon="0.30912">
        <ele>108.8</ele>
        <time>2023-03-05T08:04:35Z</time>
      </trkpt>
      <trkpt lat="46.52765" lon="0.30903">
        <ele>109.4</ele>
        <time>2023-03-05T08:04:40Z</time>
      </trkpt>
      <trkpt lat="46.52763" lon="0.30899">
        <ele>109.8</ele>
        <time>2023-03-05T08:04:42Z</time>
      </trkpt>
      <trkpt lat="46.52758" lon="0.30888">
        <ele>111</ele>
        <time>2023-03-05T08:04:47Z</time>
      </trkpt>
      <trkpt lat="46.52753" lon="0.30875">
        <ele>111.4</ele>
        <time>2023-03-05T08:04:52Z</time>
      </trkpt>
      <trkpt lat="46.52751" lon="0.30865">
        <ele>112</ele>
        <time>2023-03-05T08:04:57Z</time>
      </trkpt>
      <trkpt lat="46.5275" lon="0.30862">
        <ele>112.4</ele>
        <time>2023-03-05T08:04:58Z</time>
      </trkpt>
      <trkpt lat="46.52749" lon="0.3086">
        <ele>112.4</ele>
        <time>2023-03-05T08:04:59Z</time>
      </trkpt>
      <trkpt lat="46.52748" lon="0.30856">
        <ele>113.2</ele>
        <time>2023-03-05T08:05:02Z</time>
      </trkpt>
      <trkpt lat="46.52744" lon="0.30843">
        <ele>114.2</ele>
        <time>2023-03-05T08:05:08Z</time>
      </trkpt>
      <trkpt lat="46.52739" lon="0.30833">
        <ele>115.4</ele>
        <time>2023-03-05T08:05:14Z</time>
      </trkpt>
      <trkpt lat="46.52738" lon="0.30826">
        <ele>116.4</ele>
        <time>2023-03-05T08:05:19Z</time>
      </trkpt>
      <trkpt lat="46.52737" lon="0.30825">
        <ele>116.4</ele>
        <time>2023-03-05T08:05:20Z</time>
      </trkpt>
      <trkpt lat="46.52735" lon="0.30821">
        <ele>117.4</ele>
        <time>2023-03-05T08:05:23Z</time>
      </trkpt>
      <trkpt lat="46.52735" lon="0.3082">
        <ele>117.8</ele>
        <time>2023-03-05T08:05:24Z</time>
      </trkpt>
      <trkpt lat="46.52731" lon="0.30813">
        <ele>118.6</ele>
        <time>2023-03-05T08:05:28Z</time>
      </trkpt>
      <trkpt lat="46.5273" lon="0.30811">
        <ele>118.8</ele>
        <time>2023-03-05T08:05:29Z</time>
      </trkpt>
      <trkpt lat="46.52728" lon="0.30808">
        <ele>119.2</ele>
        <time>2023-03-05T08:05:31Z</time>
      </trkpt>
      <trkpt lat="46.52726" lon="0.30803">
        <ele>119.8</ele>
        <time>2023-03-05T08:05:34Z</time>
      </trkpt>
      <trkpt lat="46.52724" lon="0.30799">
        <ele>120.4</ele>
        <time>2023-03-05T08:05:37Z</time>
      </trkpt>
      <trkpt lat="46.52722" lon="0.30795">
        <ele>120.8</ele>
        <time>2023-03-05T08:05:39Z</time>
      </trkpt>
      <trkpt lat="46.5272" lon="0.3079">
        <ele>121.2</ele>
        <time>2023-03-05T08:05:42Z</time>
      </trkpt>
      <trkpt lat="46.52719" lon="0.30787">
        <ele>121.8</ele>
        <time>2023-03-05T08:05:44Z</time>
      </trkpt>
      <trkpt lat="46.52718" lon="0.30784">
        <ele>122.2</ele>
        <time>2023-03-05T08:05:46Z</time>
      </trkpt>
      <trkpt lat="46.52716" lon="0.3078">
        <ele>122.4</ele>
        <time>2023-03-05T08:05:49Z</time>
      </trkpt>
      <trkpt lat="46.52715" lon="0.30776">
        <ele>122.6</ele>
        <time>2023-03-05T08:05:51Z</time>
      </trkpt>
      <trkpt lat="46.52715" lon="0.30774">
        <ele>122.8</ele>
        <time>2023-03-05T08:05:52Z</time>
      </trkpt>
      <trkpt lat="46.5271" lon="0.30767">
        <ele>124</ele>
        <time>2023-03-05T08:05:57Z</time>
      </trkpt>
      <trkpt lat="46.52705" lon="0.30761">
        <ele>124.6</ele>
        <time>2023-03-05T08:06:01Z</time>
      </trkpt>
      <trkpt lat="46.52703" lon="0.30758">
        <ele>125</ele>
        <time>2023-03-05T08:06:03Z</time>
      </trkpt>
      <trkpt lat="46.52698" lon="0.30753">
        <ele>126</ele>
        <time>2023-03-05T08:06:08Z</time>
      </trkpt>
      <trkpt lat="46.52697" lon="0.30752">
        <ele>126.2</ele>
        <time>2023-03-05T08:06:09Z</time>
      </trkpt>
      <trkpt lat="46.52689" lon="0.30745">
        <ele>127.2</ele>
        <time>2023-03-05T08:06:14Z</time>
      </trkpt>
      <trkpt lat="46.52687" lon="0.30743">
        <ele>127.4</ele>
        <time>2023-03-05T08:06:15Z</time>
      </trkpt>
      <trkpt lat="46.52678" lon="0.30737">
        <ele>128.4</ele>
        <time>2023-03-05T08:06:20Z</time>
      </trkpt>
      <trkpt lat="46.5267" lon="0.30733">
        <ele>129.2</ele>
        <time>2023-03-05T08:06:24Z</time>
      </trkpt>
      <trkpt lat="46.52668" lon="0.30732">
        <ele>129.6</ele>
        <time>2023-03-05T08:06:25Z</time>
      </trkpt>
      <trkpt lat="46.5266" lon="0.30729">
        <ele>130.6</ele>
        <time>2023-03-05T08:06:30Z</time>
      </trkpt>
      <trkpt lat="46.52658" lon="0.30729">
        <ele>130.8</ele>
        <time>2023-03-05T08:06:31Z</time>
      </trkpt>
      <trkpt lat="46.52651" lon="0.30734">
        <ele>131.6</ele>
        <time>2023-03-05T08:06:36Z</time>
      </trkpt>
      <trkpt lat="46.52648" lon="0.30743">
        <ele>132.4</ele>
        <time>2023-03-05T08:06:42Z</time>
      </trkpt>
      <trkpt lat="46.52649" lon="0.30759">
        <ele>132.2</ele>
        <time>2023-03-05T08:06:48Z</time>
      </trkpt>
      <trkpt lat="46.52657" lon="0.30772">
        <ele>131.6</ele>
        <time>2023-03-05T08:06:54Z</time>
      </trkpt>
      <trkpt lat="46.52666" lon="0.30784">
        <ele>130.6</ele>
        <time>2023-03-05T08:06:57Z</time>
      </trkpt>
      <trkpt lat="46.52671" lon="0.30791">
        <ele>129.8</ele>
        <time>2023-03-05T08:06:59Z</time>
      </trkpt>
      <trkpt lat="46.52674" lon="0.30795">
        <ele>129</ele>
        <time>2023-03-05T08:07:00Z</time>
      </trkpt>
      <trkpt lat="46.5268" lon="0.30803">
        <ele>128</ele>
        <time>2023-03-05T08:07:02Z</time>
      </trkpt>
      <trkpt lat="46.52686" lon="0.30815">
        <ele>126.8</ele>
        <time>2023-03-05T08:07:04Z</time>
      </trkpt>
      <trkpt lat="46.52688" lon="0.30821">
        <ele>126.2</ele>
        <time>2023-03-05T08:07:05Z</time>
      </trkpt>
      <trkpt lat="46.5269" lon="0.30828">
        <ele>126</ele>
        <time>2023-03-05T08:07:06Z</time>
      </trkpt>
      <trkpt lat="46.52695" lon="0.30843">
        <ele>125.4</ele>
        <time>2023-03-05T08:07:08Z</time>
      </trkpt>
      <trkpt lat="46.52697" lon="0.30851">
        <ele>125</ele>
        <time>2023-03-05T08:07:09Z</time>
      </trkpt>
      <trkpt lat="46.52698" lon="0.30859">
        <ele>124.2</ele>
        <time>2023-03-05T08:07:10Z</time>
      </trkpt>
      <trkpt lat="46.52701" lon="0.30867">
        <ele>123.4</ele>
        <time>2023-03-05T08:07:11Z</time>
      </trkpt>
      <trkpt lat="46.52703" lon="0.30875">
        <ele>123</ele>
        <time>2023-03-05T08:07:12Z</time>
      </trkpt>
      <trkpt lat="46.52707" lon="0.30889">
        <ele>122</ele>
        <time>2023-03-05T08:07:14Z</time>
      </trkpt>
      <trkpt lat="46.5271" lon="0.30896">
        <ele>121.6</ele>
        <time>2023-03-05T08:07:15Z</time>
      </trkpt>
      <trkpt lat="46.52714" lon="0.30906">
        <ele>120.8</ele>
        <time>2023-03-05T08:07:17Z</time>
      </trkpt>
      <trkpt lat="46.52717" lon="0.30916">
        <ele>120</ele>
        <time>2023-03-05T08:07:19Z</time>
      </trkpt>
      <trkpt lat="46.52718" lon="0.3092">
        <ele>119.8</ele>
        <time>2023-03-05T08:07:20Z</time>
      </trkpt>
      <trkpt lat="46.52718" lon="0.30924">
        <ele>119.6</ele>
        <time>2023-03-05T08:07:21Z</time>
      </trkpt>
      <trkpt lat="46.5272" lon="0.30941">
        <ele>119.6</ele>
        <time>2023-03-05T08:07:24Z</time>
      </trkpt>
      <trkpt lat="46.52723" lon="0.30959">
        <ele>120</ele>
        <time>2023-03-05T08:07:27Z</time>
      </trkpt>
      <trkpt lat="46.52725" lon="0.30971">
        <ele>120.2</ele>
        <time>2023-03-05T08:07:29Z</time>
      </trkpt>
      <trkpt lat="46.52726" lon="0.30978">
        <ele>120.4</ele>
        <time>2023-03-05T08:07:30Z</time>
      </trkpt>
      <trkpt lat="46.52733" lon="0.31013">
        <ele>120.2</ele>
        <time>2023-03-05T08:07:35Z</time>
      </trkpt>
      <trkpt lat="46.52738" lon="0.31034">
        <ele>120</ele>
        <time>2023-03-05T08:07:38Z</time>
      </trkpt>
      <trkpt lat="46.52741" lon="0.31048">
        <ele>120</ele>
        <time>2023-03-05T08:07:40Z</time>
      </trkpt>
      <trkpt lat="46.52741" lon="0.31063">
        <ele>120.2</ele>
        <time>2023-03-05T08:07:43Z</time>
      </trkpt>
      <trkpt lat="46.52743" lon="0.31079">
        <ele>121</ele>
        <time>2023-03-05T08:07:46Z</time>
      </trkpt>
      <trkpt lat="46.5275" lon="0.31103">
        <ele>122</ele>
        <time>2023-03-05T08:07:50Z</time>
      </trkpt>
      <trkpt lat="46.52751" lon="0.31112">
        <ele>122.4</ele>
        <time>2023-03-05T08:07:52Z</time>
      </trkpt>
      <trkpt lat="46.52753" lon="0.31121">
        <ele>123.4</ele>
        <time>2023-03-05T08:07:54Z</time>
      </trkpt>
      <trkpt lat="46.52754" lon="0.31132">
        <ele>124.2</ele>
        <time>2023-03-05T08:07:57Z</time>
      </trkpt>
      <trkpt lat="46.52753" lon="0.31136">
        <ele>124.6</ele>
        <time>2023-03-05T08:07:58Z</time>
      </trkpt>
      <trkpt lat="46.52754" lon="0.31151">
        <ele>125.6</ele>
        <time>2023-03-05T08:08:02Z</time>
      </trkpt>
      <trkpt lat="46.52754" lon="0.31154">
        <ele>125.8</ele>
        <time>2023-03-05T08:08:03Z</time>
      </trkpt>
      <trkpt lat="46.52754" lon="0.3116">
        <ele>126</ele>
        <time>2023-03-05T08:08:05Z</time>
      </trkpt>
      <trkpt lat="46.52756" lon="0.31172">
        <ele>126.2</ele>
        <time>2023-03-05T08:08:08Z</time>
      </trkpt>
      <trkpt lat="46.52762" lon="0.31194">
        <ele>126.4</ele>
        <time>2023-03-05T08:08:13Z</time>
      </trkpt>
      <trkpt lat="46.52764" lon="0.31199">
        <ele>126.6</ele>
        <time>2023-03-05T08:08:14Z</time>
      </trkpt>
      <trkpt lat="46.52767" lon="0.31214">
        <ele>127.6</ele>
        <time>2023-03-05T08:08:18Z</time>
      </trkpt>
      <trkpt lat="46.52772" lon="0.3123">
        <ele>128.2</ele>
        <time>2023-03-05T08:08:22Z</time>
      </trkpt>
      <trkpt lat="46.52774" lon="0.31232">
        <ele>128.2</ele>
        <time>2023-03-05T08:08:23Z</time>
      </trkpt>
      <trkpt lat="46.52786" lon="0.31229">
        <ele>127.6</ele>
        <time>2023-03-05T08:08:27Z</time>
      </trkpt>
      <trkpt lat="46.52794" lon="0.31225">
        <ele>126.8</ele>
        <time>2023-03-05T08:08:29Z</time>
      </trkpt>
      <trkpt lat="46.52797" lon="0.31224">
        <ele>126.2</ele>
        <time>2023-03-05T08:08:30Z</time>
      </trkpt>
      <trkpt lat="46.528" lon="0.31224">
        <ele>124.6</ele>
        <time>2023-03-05T08:08:31Z</time>
      </trkpt>
      <trkpt lat="46.52804" lon="0.31224">
        <ele>123.6</ele>
        <time>2023-03-05T08:08:32Z</time>
      </trkpt>
      <trkpt lat="46.52807" lon="0.31225">
        <ele>122.8</ele>
        <time>2023-03-05T08:08:33Z</time>
      </trkpt>
      <trkpt lat="46.52812" lon="0.3123">
        <ele>122</ele>
        <time>2023-03-05T08:08:35Z</time>
      </trkpt>
      <trkpt lat="46.52814" lon="0.31233">
        <ele>121.8</ele>
        <time>2023-03-05T08:08:36Z</time>
      </trkpt>
      <trkpt lat="46.52816" lon="0.31237">
        <ele>121.4</ele>
        <time>2023-03-05T08:08:37Z</time>
      </trkpt>
      <trkpt lat="46.52823" lon="0.31247">
        <ele>120.8</ele>
        <time>2023-03-05T08:08:40Z</time>
      </trkpt>
      <trkpt lat="46.52825" lon="0.3125">
        <ele>120.8</ele>
        <time>2023-03-05T08:08:41Z</time>
      </trkpt>
      <trkpt lat="46.52828" lon="0.31254">
        <ele>120.8</ele>
        <time>2023-03-05T08:08:42Z</time>
      </trkpt>
      <trkpt lat="46.52835" lon="0.31269">
        <ele>120.8</ele>
        <time>2023-03-05T08:08:46Z</time>
      </trkpt>
      <trkpt lat="46.52842" lon="0.31284">
        <ele>121.8</ele>
        <time>2023-03-05T08:08:49Z</time>
      </trkpt>
      <trkpt lat="46.52847" lon="0.31298">
        <ele>122.6</ele>
        <time>2023-03-05T08:08:52Z</time>
      </trkpt>
      <trkpt lat="46.5285" lon="0.31302">
        <ele>123</ele>
        <time>2023-03-05T08:08:53Z</time>
      </trkpt>
      <trkpt lat="46.5286" lon="0.31325">
        <ele>123.8</ele>
        <time>2023-03-05T08:08:58Z</time>
      </trkpt>
      <trkpt lat="46.52867" lon="0.31337">
        <ele>123.8</ele>
        <time>2023-03-05T08:09:01Z</time>
      </trkpt>
      <trkpt lat="46.52873" lon="0.31346">
        <ele>124.2</ele>
        <time>2023-03-05T08:09:03Z</time>
      </trkpt>
      <trkpt lat="46.52875" lon="0.3135">
        <ele>124</ele>
        <time>2023-03-05T08:09:04Z</time>
      </trkpt>
      <trkpt lat="46.52878" lon="0.31354">
        <ele>124</ele>
        <time>2023-03-05T08:09:05Z</time>
      </trkpt>
      <trkpt lat="46.5288" lon="0.31358">
        <ele>124</ele>
        <time>2023-03-05T08:09:06Z</time>
      </trkpt>
      <trkpt lat="46.52886" lon="0.31373">
        <ele>123.8</ele>
        <time>2023-03-05T08:09:09Z</time>
      </trkpt>
      <trkpt lat="46.52888" lon="0.31378">
        <ele>123.6</ele>
        <time>2023-03-05T08:09:10Z</time>
      </trkpt>
      <trkpt lat="46.52893" lon="0.31388">
        <ele>123.4</ele>
        <time>2023-03-05T08:09:12Z</time>
      </trkpt>
      <trkpt lat="46.52898" lon="0.31396">
        <ele>123.2</ele>
        <time>2023-03-05T08:09:14Z</time>
      </trkpt>
      <trkpt lat="46.529" lon="0.314">
        <ele>123</ele>
        <time>2023-03-05T08:09:15Z</time>
      </trkpt>
      <trkpt lat="46.52903" lon="0.31404">
        <ele>122.8</ele>
        <time>2023-03-05T08:09:16Z</time>
      </trkpt>
      <trkpt lat="46.52917" lon="0.31423">
        <ele>121.8</ele>
        <time>2023-03-05T08:09:20Z</time>
      </trkpt>
      <trkpt lat="46.52921" lon="0.31429">
        <ele>120.2</ele>
        <time>2023-03-05T08:09:22Z</time>
      </trkpt>
      <trkpt lat="46.52923" lon="0.31432">
        <ele>119.4</ele>
        <time>2023-03-05T08:09:23Z</time>
      </trkpt>
      <trkpt lat="46.52925" lon="0.31435">
        <ele>118.8</ele>
        <time>2023-03-05T08:09:24Z</time>
      </trkpt>
      <trkpt lat="46.52925" lon="0.31438">
        <ele>118.6</ele>
        <time>2023-03-05T08:09:25Z</time>
      </trkpt>
      <trkpt lat="46.5293" lon="0.3145">
        <ele>119.4</ele>
        <time>2023-03-05T08:09:30Z</time>
      </trkpt>
      <trkpt lat="46.52928" lon="0.31459">
        <ele>120.2</ele>
        <time>2023-03-05T08:09:33Z</time>
      </trkpt>
      <trkpt lat="46.52928" lon="0.31473">
        <ele>121.4</ele>
        <time>2023-03-05T08:09:37Z</time>
      </trkpt>
      <trkpt lat="46.52925" lon="0.31485">
        <ele>122.4</ele>
        <time>2023-03-05T08:09:41Z</time>
      </trkpt>
      <trkpt lat="46.52921" lon="0.31496">
        <ele>123</ele>
        <time>2023-03-05T08:09:45Z</time>
      </trkpt>
      <trkpt lat="46.52918" lon="0.31501">
        <ele>123.6</ele>
        <time>2023-03-05T08:09:47Z</time>
      </trkpt>
      <trkpt lat="46.52909" lon="0.31514">
        <ele>124.4</ele>
        <time>2023-03-05T08:09:52Z</time>
      </trkpt>
      <trkpt lat="46.52903" lon="0.31523">
        <ele>124.8</ele>
        <time>2023-03-05T08:09:56Z</time>
      </trkpt>
      <trkpt lat="46.52895" lon="0.31531">
        <ele>125</ele>
        <time>2023-03-05T08:09:59Z</time>
      </trkpt>
      <trkpt lat="46.52878" lon="0.31546">
        <ele>125.4</ele>
        <time>2023-03-05T08:10:05Z</time>
      </trkpt>
      <trkpt lat="46.52859" lon="0.31551">
        <ele>125.8</ele>
        <time>2023-03-05T08:10:10Z</time>
      </trkpt>
      <trkpt lat="46.52835" lon="0.31548">
        <ele>126.4</ele>
        <time>2023-03-05T08:10:16Z</time>
      </trkpt>
      <trkpt lat="46.52809" lon="0.31545">
        <ele>126.8</ele>
        <time>2023-03-05T08:10:23Z</time>
      </trkpt>
      <trkpt lat="46.52798" lon="0.31542">
        <ele>127</ele>
        <time>2023-03-05T08:10:26Z</time>
      </trkpt>
      <trkpt lat="46.52789" lon="0.31535">
        <ele>127.4</ele>
        <time>2023-03-05T08:10:29Z</time>
      </trkpt>
      <trkpt lat="46.52787" lon="0.31532">
        <ele>127.4</ele>
        <time>2023-03-05T08:10:30Z</time>
      </trkpt>
      <trkpt lat="46.52781" lon="0.31523">
        <ele>127.8</ele>
        <time>2023-03-05T08:10:33Z</time>
      </trkpt>
      <trkpt lat="46.52778" lon="0.3152">
        <ele>128.2</ele>
        <time>2023-03-05T08:10:34Z</time>
      </trkpt>
      <trkpt lat="46.52765" lon="0.31502">
        <ele>129.2</ele>
        <time>2023-03-05T08:10:40Z</time>
      </trkpt>
      <trkpt lat="46.52754" lon="0.31485">
        <ele>130.2</ele>
        <time>2023-03-05T08:10:45Z</time>
      </trkpt>
      <trkpt lat="46.52749" lon="0.31477">
        <ele>130.6</ele>
        <time>2023-03-05T08:10:47Z</time>
      </trkpt>
      <trkpt lat="46.52744" lon="0.31472">
        <ele>131.4</ele>
        <time>2023-03-05T08:10:49Z</time>
      </trkpt>
      <trkpt lat="46.5273" lon="0.31457">
        <ele>131.6</ele>
        <time>2023-03-05T08:10:54Z</time>
      </trkpt>
      <trkpt lat="46.52709" lon="0.31441">
        <ele>132.2</ele>
        <time>2023-03-05T08:11:00Z</time>
      </trkpt>
      <trkpt lat="46.52682" lon="0.31435">
        <ele>132</ele>
        <time>2023-03-05T08:11:07Z</time>
      </trkpt>
      <trkpt lat="46.52659" lon="0.31435">
        <ele>132</ele>
        <time>2023-03-05T08:11:13Z</time>
      </trkpt>
      <trkpt lat="46.52635" lon="0.3143">
        <ele>132</ele>
        <time>2023-03-05T08:11:19Z</time>
      </trkpt>
      <trkpt lat="46.52618" lon="0.31424">
        <ele>131.6</ele>
        <time>2023-03-05T08:11:23Z</time>
      </trkpt>
      <trkpt lat="46.52607" lon="0.31419">
        <ele>131.6</ele>
        <time>2023-03-05T08:11:25Z</time>
      </trkpt>
      <trkpt lat="46.52577" lon="0.31404">
        <ele>131.2</ele>
        <time>2023-03-05T08:11:30Z</time>
      </trkpt>
      <trkpt lat="46.5254" lon="0.3138">
        <ele>131</ele>
        <time>2023-03-05T08:11:36Z</time>
      </trkpt>
      <trkpt lat="46.52523" lon="0.31366">
        <ele>130.2</ele>
        <time>2023-03-05T08:11:39Z</time>
      </trkpt>
      <trkpt lat="46.52498" lon="0.31345">
        <ele>129.6</ele>
        <time>2023-03-05T08:11:43Z</time>
      </trkpt>
      <trkpt lat="46.52486" lon="0.31336">
        <ele>129.6</ele>
        <time>2023-03-05T08:11:45Z</time>
      </trkpt>
      <trkpt lat="46.52476" lon="0.31324">
        <ele>129.2</ele>
        <time>2023-03-05T08:11:47Z</time>
      </trkpt>
      <trkpt lat="46.52471" lon="0.31317">
        <ele>129</ele>
        <time>2023-03-05T08:11:48Z</time>
      </trkpt>
      <trkpt lat="46.52459" lon="0.31295">
        <ele>128.2</ele>
        <time>2023-03-05T08:11:52Z</time>
      </trkpt>
      <trkpt lat="46.52455" lon="0.31287">
        <ele>128.2</ele>
        <time>2023-03-05T08:11:54Z</time>
      </trkpt>
      <trkpt lat="46.52452" lon="0.3128">
        <ele>128</ele>
        <time>2023-03-05T08:11:56Z</time>
      </trkpt>
      <trkpt lat="46.52449" lon="0.31273">
        <ele>127.8</ele>
        <time>2023-03-05T08:11:58Z</time>
      </trkpt>
      <trkpt lat="46.52445" lon="0.31263">
        <ele>127.8</ele>
        <time>2023-03-05T08:12:01Z</time>
      </trkpt>
      <trkpt lat="46.52445" lon="0.31257">
        <ele>127.8</ele>
        <time>2023-03-05T08:12:04Z</time>
      </trkpt>
      <trkpt lat="46.52447" lon="0.31241">
        <ele>128.2</ele>
        <time>2023-03-05T08:12:08Z</time>
      </trkpt>
      <trkpt lat="46.52448" lon="0.3123">
        <ele>129</ele>
        <time>2023-03-05T08:12:10Z</time>
      </trkpt>
      <trkpt lat="46.52451" lon="0.31212">
        <ele>130</ele>
        <time>2023-03-05T08:12:14Z</time>
      </trkpt>
      <trkpt lat="46.52456" lon="0.31191">
        <ele>131</ele>
        <time>2023-03-05T08:12:19Z</time>
      </trkpt>
      <trkpt lat="46.52459" lon="0.31182">
        <ele>131.2</ele>
        <time>2023-03-05T08:12:21Z</time>
      </trkpt>
      <trkpt lat="46.52463" lon="0.31155">
        <ele>132</ele>
        <time>2023-03-05T08:12:26Z</time>
      </trkpt>
      <trkpt lat="46.52464" lon="0.31151">
        <ele>132.2</ele>
        <time>2023-03-05T08:12:27Z</time>
      </trkpt>
      <trkpt lat="46.52474" lon="0.31122">
        <ele>133</ele>
        <time>2023-03-05T08:12:33Z</time>
      </trkpt>
      <trkpt lat="46.52477" lon="0.31113">
        <ele>133.2</ele>
        <time>2023-03-05T08:12:35Z</time>
      </trkpt>
      <trkpt lat="46.52482" lon="0.31099">
        <ele>133.6</ele>
        <time>2023-03-05T08:12:38Z</time>
      </trkpt>
      <trkpt lat="46.5249" lon="0.31074">
        <ele>134.4</ele>
        <time>2023-03-05T08:12:43Z</time>
      </trkpt>
      <trkpt lat="46.52494" lon="0.31062">
        <ele>134.8</ele>
        <time>2023-03-05T08:12:45Z</time>
      </trkpt>
      <trkpt lat="46.52504" lon="0.31025">
        <ele>135.6</ele>
        <time>2023-03-05T08:12:51Z</time>
      </trkpt>
      <trkpt lat="46.52505" lon="0.3102">
        <ele>135.6</ele>
        <time>2023-03-05T08:12:52Z</time>
      </trkpt>
      <trkpt lat="46.52515" lon="0.30984">
        <ele>136</ele>
        <time>2023-03-05T08:12:58Z</time>
      </trkpt>
      <trkpt lat="46.5253" lon="0.30941">
        <ele>136.2</ele>
        <time>2023-03-05T08:13:05Z</time>
      </trkpt>
      <trkpt lat="46.52533" lon="0.30936">
        <ele>136.2</ele>
        <time>2023-03-05T08:13:06Z</time>
      </trkpt>
      <trkpt lat="46.5254" lon="0.30919">
        <ele>136</ele>
        <time>2023-03-05T08:13:09Z</time>
      </trkpt>
      <trkpt lat="46.52545" lon="0.30906">
        <ele>135.8</ele>
        <time>2023-03-05T08:13:11Z</time>
      </trkpt>
      <trkpt lat="46.52558" lon="0.30867">
        <ele>136</ele>
        <time>2023-03-05T08:13:17Z</time>
      </trkpt>
      <trkpt lat="46.52559" lon="0.30859">
        <ele>136.2</ele>
        <time>2023-03-05T08:13:18Z</time>
      </trkpt>
      <trkpt lat="46.5256" lon="0.30852">
        <ele>136.2</ele>
        <time>2023-03-05T08:13:19Z</time>
      </trkpt>
      <trkpt lat="46.52559" lon="0.30821">
        <ele>136.6</ele>
        <time>2023-03-05T08:13:23Z</time>
      </trkpt>
      <trkpt lat="46.52559" lon="0.30806">
        <ele>136.8</ele>
        <time>2023-03-05T08:13:25Z</time>
      </trkpt>
      <trkpt lat="46.52563" lon="0.30783">
        <ele>136.8</ele>
        <time>2023-03-05T08:13:28Z</time>
      </trkpt>
      <trkpt lat="46.52574" lon="0.30735">
        <ele>136.8</ele>
        <time>2023-03-05T08:13:34Z</time>
      </trkpt>
      <trkpt lat="46.52576" lon="0.30728">
        <ele>136.8</ele>
        <time>2023-03-05T08:13:35Z</time>
      </trkpt>
      <trkpt lat="46.52587" lon="0.30707">
        <ele>136.2</ele>
        <time>2023-03-05T08:13:38Z</time>
      </trkpt>
      <trkpt lat="46.52604" lon="0.30673">
        <ele>135.6</ele>
        <time>2023-03-05T08:13:43Z</time>
      </trkpt>
      <trkpt lat="46.52609" lon="0.30659">
        <ele>134.4</ele>
        <time>2023-03-05T08:13:45Z</time>
      </trkpt>
      <trkpt lat="46.52612" lon="0.30652">
        <ele>134</ele>
        <time>2023-03-05T08:13:46Z</time>
      </trkpt>
      <trkpt lat="46.52618" lon="0.30637">
        <ele>133.2</ele>
        <time>2023-03-05T08:13:48Z</time>
      </trkpt>
      <trkpt lat="46.52632" lon="0.30598">
        <ele>132</ele>
        <time>2023-03-05T08:13:53Z</time>
      </trkpt>
      <trkpt lat="46.52633" lon="0.30589">
        <ele>131.6</ele>
        <time>2023-03-05T08:13:54Z</time>
      </trkpt>
      <trkpt lat="46.52637" lon="0.30574">
        <ele>131</ele>
        <time>2023-03-05T08:13:56Z</time>
      </trkpt>
      <trkpt lat="46.52638" lon="0.30567">
        <ele>130.8</ele>
        <time>2023-03-05T08:13:57Z</time>
      </trkpt>
      <trkpt lat="46.5264" lon="0.30561">
        <ele>130.6</ele>
        <time>2023-03-05T08:13:58Z</time>
      </trkpt>
      <trkpt lat="46.52641" lon="0.30555">
        <ele>129.6</ele>
        <time>2023-03-05T08:13:59Z</time>
      </trkpt>
      <trkpt lat="46.52643" lon="0.30551">
        <ele>128.4</ele>
        <time>2023-03-05T08:14:00Z</time>
      </trkpt>
      <trkpt lat="46.52646" lon="0.30541">
        <ele>127.4</ele>
        <time>2023-03-05T08:14:02Z</time>
      </trkpt>
      <trkpt lat="46.52647" lon="0.30534">
        <ele>127</ele>
        <time>2023-03-05T08:14:03Z</time>
      </trkpt>
      <trkpt lat="46.52647" lon="0.30528">
        <ele>126.4</ele>
        <time>2023-03-05T08:14:04Z</time>
      </trkpt>
      <trkpt lat="46.52648" lon="0.30514">
        <ele>126.2</ele>
        <time>2023-03-05T08:14:06Z</time>
      </trkpt>
      <trkpt lat="46.5265" lon="0.305">
        <ele>126</ele>
        <time>2023-03-05T08:14:08Z</time>
      </trkpt>
      <trkpt lat="46.52651" lon="0.30493">
        <ele>126</ele>
        <time>2023-03-05T08:14:09Z</time>
      </trkpt>
      <trkpt lat="46.52651" lon="0.30485">
        <ele>125.6</ele>
        <time>2023-03-05T08:14:10Z</time>
      </trkpt>
      <trkpt lat="46.52653" lon="0.30471">
        <ele>125</ele>
        <time>2023-03-05T08:14:12Z</time>
      </trkpt>
      <trkpt lat="46.52652" lon="0.30457">
        <ele>124.6</ele>
        <time>2023-03-05T08:14:14Z</time>
      </trkpt>
      <trkpt lat="46.52652" lon="0.3045">
        <ele>124.4</ele>
        <time>2023-03-05T08:14:15Z</time>
      </trkpt>
      <trkpt lat="46.52651" lon="0.3042">
        <ele>123.6</ele>
        <time>2023-03-05T08:14:20Z</time>
      </trkpt>
      <trkpt lat="46.52653" lon="0.30401">
        <ele>122.6</ele>
        <time>2023-03-05T08:14:23Z</time>
      </trkpt>
      <trkpt lat="46.52653" lon="0.30394">
        <ele>122.4</ele>
        <time>2023-03-05T08:14:24Z</time>
      </trkpt>
      <trkpt lat="46.52653" lon="0.30387">
        <ele>122.2</ele>
        <time>2023-03-05T08:14:25Z</time>
      </trkpt>
      <trkpt lat="46.52652" lon="0.3038">
        <ele>122.2</ele>
        <time>2023-03-05T08:14:26Z</time>
      </trkpt>
      <trkpt lat="46.52646" lon="0.30358">
        <ele>121.6</ele>
        <time>2023-03-05T08:14:29Z</time>
      </trkpt>
      <trkpt lat="46.52641" lon="0.30343">
        <ele>121.2</ele>
        <time>2023-03-05T08:14:31Z</time>
      </trkpt>
      <trkpt lat="46.52639" lon="0.30337">
        <ele>121.2</ele>
        <time>2023-03-05T08:14:32Z</time>
      </trkpt>
      <trkpt lat="46.5263" lon="0.30325">
        <ele>121</ele>
        <time>2023-03-05T08:14:34Z</time>
      </trkpt>
      <trkpt lat="46.52601" lon="0.30286">
        <ele>120</ele>
        <time>2023-03-05T08:14:40Z</time>
      </trkpt>
      <trkpt lat="46.52591" lon="0.30277">
        <ele>118.8</ele>
        <time>2023-03-05T08:14:42Z</time>
      </trkpt>
      <trkpt lat="46.52572" lon="0.30261">
        <ele>117.6</ele>
        <time>2023-03-05T08:14:46Z</time>
      </trkpt>
      <trkpt lat="46.52566" lon="0.30254">
        <ele>117.2</ele>
        <time>2023-03-05T08:14:48Z</time>
      </trkpt>
      <trkpt lat="46.52558" lon="0.30253">
        <ele>116.6</ele>
        <time>2023-03-05T08:14:50Z</time>
      </trkpt>
      <trkpt lat="46.52554" lon="0.30254">
        <ele>116.4</ele>
        <time>2023-03-05T08:14:51Z</time>
      </trkpt>
      <trkpt lat="46.52534" lon="0.30256">
        <ele>115.8</ele>
        <time>2023-03-05T08:14:55Z</time>
      </trkpt>
      <trkpt lat="46.52529" lon="0.30256">
        <ele>115.4</ele>
        <time>2023-03-05T08:14:56Z</time>
      </trkpt>
      <trkpt lat="46.5252" lon="0.30255">
        <ele>113.8</ele>
        <time>2023-03-05T08:14:58Z</time>
      </trkpt>
      <trkpt lat="46.52511" lon="0.30254">
        <ele>112.2</ele>
        <time>2023-03-05T08:15:00Z</time>
      </trkpt>
      <trkpt lat="46.525" lon="0.30253">
        <ele>111</ele>
        <time>2023-03-05T08:15:02Z</time>
      </trkpt>
      <trkpt lat="46.5249" lon="0.30252">
        <ele>109.4</ele>
        <time>2023-03-05T08:15:04Z</time>
      </trkpt>
      <trkpt lat="46.52487" lon="0.30251">
        <ele>108.4</ele>
        <time>2023-03-05T08:15:05Z</time>
      </trkpt>
      <trkpt lat="46.52486" lon="0.3025">
        <ele>107.8</ele>
        <time>2023-03-05T08:15:06Z</time>
      </trkpt>
      <trkpt lat="46.52486" lon="0.30248">
        <ele>107.4</ele>
        <time>2023-03-05T08:15:07Z</time>
      </trkpt>
      <trkpt lat="46.52487" lon="0.30247">
        <ele>107.2</ele>
        <time>2023-03-05T08:15:08Z</time>
      </trkpt>
      <trkpt lat="46.52489" lon="0.30242">
        <ele>106.8</ele>
        <time>2023-03-05T08:15:10Z</time>
      </trkpt>
      <trkpt lat="46.52498" lon="0.30231">
        <ele>106.2</ele>
        <time>2023-03-05T08:15:14Z</time>
      </trkpt>
      <trkpt lat="46.52505" lon="0.30223">
        <ele>105.6</ele>
        <time>2023-03-05T08:15:16Z</time>
      </trkpt>
      <trkpt lat="46.52514" lon="0.30213">
        <ele>105</ele>
        <time>2023-03-05T08:15:18Z</time>
      </trkpt>
      <trkpt lat="46.52532" lon="0.30194">
        <ele>103.4</ele>
        <time>2023-03-05T08:15:22Z</time>
      </trkpt>
      <trkpt lat="46.52537" lon="0.30191">
        <ele>102.8</ele>
        <time>2023-03-05T08:15:23Z</time>
      </trkpt>
      <trkpt lat="46.52541" lon="0.30187">
        <ele>102</ele>
        <time>2023-03-05T08:15:24Z</time>
      </trkpt>
      <trkpt lat="46.52545" lon="0.30183">
        <ele>101.6</ele>
        <time>2023-03-05T08:15:25Z</time>
      </trkpt>
      <trkpt lat="46.52549" lon="0.30172">
        <ele>100.8</ele>
        <time>2023-03-05T08:15:27Z</time>
      </trkpt>
      <trkpt lat="46.52549" lon="0.30167">
        <ele>100.4</ele>
        <time>2023-03-05T08:15:28Z</time>
      </trkpt>
      <trkpt lat="46.52546" lon="0.30162">
        <ele>100.2</ele>
        <time>2023-03-05T08:15:29Z</time>
      </trkpt>
      <trkpt lat="46.52543" lon="0.30156">
        <ele>100</ele>
        <time>2023-03-05T08:15:30Z</time>
      </trkpt>
      <trkpt lat="46.52537" lon="0.30145">
        <ele>99.4</ele>
        <time>2023-03-05T08:15:32Z</time>
      </trkpt>
      <trkpt lat="46.52532" lon="0.30136">
        <ele>99</ele>
        <time>2023-03-05T08:15:34Z</time>
      </trkpt>
      <trkpt lat="46.52529" lon="0.30131">
        <ele>98.2</ele>
        <time>2023-03-05T08:15:35Z</time>
      </trkpt>
      <trkpt lat="46.52526" lon="0.30126">
        <ele>97.6</ele>
        <time>2023-03-05T08:15:36Z</time>
      </trkpt>
      <trkpt lat="46.52522" lon="0.30121">
        <ele>96.8</ele>
        <time>2023-03-05T08:15:37Z</time>
      </trkpt>
      <trkpt lat="46.52507" lon="0.30104">
        <ele>95.8</ele>
        <time>2023-03-05T08:15:41Z</time>
      </trkpt>
      <trkpt lat="46.52498" lon="0.30095">
        <ele>95.8</ele>
        <time>2023-03-05T08:15:43Z</time>
      </trkpt>
      <trkpt lat="46.52472" lon="0.30063">
        <ele>95.4</ele>
        <time>2023-03-05T08:15:49Z</time>
      </trkpt>
      <trkpt lat="46.52454" lon="0.30032">
        <ele>96.2</ele>
        <time>2023-03-05T08:15:55Z</time>
      </trkpt>
      <trkpt lat="46.52448" lon="0.30018">
        <ele>96.8</ele>
        <time>2023-03-05T08:15:57Z</time>
      </trkpt>
      <trkpt lat="46.52433" lon="0.29986">
        <ele>96.8</ele>
        <time>2023-03-05T08:16:02Z</time>
      </trkpt>
      <trkpt lat="46.52431" lon="0.29982">
        <ele>96.4</ele>
        <time>2023-03-05T08:16:03Z</time>
      </trkpt>
      <trkpt lat="46.52421" lon="0.29965">
        <ele>96.2</ele>
        <time>2023-03-05T08:16:07Z</time>
      </trkpt>
      <trkpt lat="46.5242" lon="0.29963">
        <ele>96.4</ele>
        <time>2023-03-05T08:16:08Z</time>
      </trkpt>
      <trkpt lat="46.52416" lon="0.29954">
        <ele>96.8</ele>
        <time>2023-03-05T08:16:11Z</time>
      </trkpt>
      <trkpt lat="46.52404" lon="0.29933">
        <ele>96.8</ele>
        <time>2023-03-05T08:16:17Z</time>
      </trkpt>
      <trkpt lat="46.52388" lon="0.29896">
        <ele>97.8</ele>
        <time>2023-03-05T08:16:23Z</time>
      </trkpt>
      <trkpt lat="46.52385" lon="0.2989">
        <ele>97.8</ele>
        <time>2023-03-05T08:16:24Z</time>
      </trkpt>
      <trkpt lat="46.52373" lon="0.29869">
        <ele>98.6</ele>
        <time>2023-03-05T08:16:29Z</time>
      </trkpt>
      <trkpt lat="46.5237" lon="0.29861">
        <ele>99.2</ele>
        <time>2023-03-05T08:16:31Z</time>
      </trkpt>
      <trkpt lat="46.52363" lon="0.29846">
        <ele>99.8</ele>
        <time>2023-03-05T08:16:34Z</time>
      </trkpt>
      <trkpt lat="46.52358" lon="0.29834">
        <ele>100.6</ele>
        <time>2023-03-05T08:16:36Z</time>
      </trkpt>
      <trkpt lat="46.52349" lon="0.2982">
        <ele>101.8</ele>
        <time>2023-03-05T08:16:39Z</time>
      </trkpt>
      <trkpt lat="46.52332" lon="0.29799">
        <ele>102</ele>
        <time>2023-03-05T08:16:44Z</time>
      </trkpt>
      <trkpt lat="46.52328" lon="0.29795">
        <ele>102</ele>
        <time>2023-03-05T08:16:45Z</time>
      </trkpt>
      <trkpt lat="46.52314" lon="0.2978">
        <ele>101.2</ele>
        <time>2023-03-05T08:16:49Z</time>
      </trkpt>
      <trkpt lat="46.52302" lon="0.29768">
        <ele>100.6</ele>
        <time>2023-03-05T08:16:52Z</time>
      </trkpt>
      <trkpt lat="46.52281" lon="0.29751">
        <ele>100</ele>
        <time>2023-03-05T08:16:56Z</time>
      </trkpt>
      <trkpt lat="46.52272" lon="0.29747">
        <ele>99.6</ele>
        <time>2023-03-05T08:16:58Z</time>
      </trkpt>
      <trkpt lat="46.52263" lon="0.29747">
        <ele>99.6</ele>
        <time>2023-03-05T08:17:00Z</time>
      </trkpt>
      <trkpt lat="46.52249" lon="0.29745">
        <ele>100.6</ele>
        <time>2023-03-05T08:17:07Z</time>
      </trkpt>
      <trkpt lat="46.52246" lon="0.29744">
        <ele>100.8</ele>
        <time>2023-03-05T08:17:08Z</time>
      </trkpt>
      <trkpt lat="46.52229" lon="0.29734">
        <ele>101.2</ele>
        <time>2023-03-05T08:17:15Z</time>
      </trkpt>
      <trkpt lat="46.5221" lon="0.29722">
        <ele>101.6</ele>
        <time>2023-03-05T08:17:22Z</time>
      </trkpt>
      <trkpt lat="46.52185" lon="0.2971">
        <ele>102.6</ele>
        <time>2023-03-05T08:17:29Z</time>
      </trkpt>
      <trkpt lat="46.52182" lon="0.29708">
        <ele>102.6</ele>
        <time>2023-03-05T08:17:30Z</time>
      </trkpt>
      <trkpt lat="46.52167" lon="0.297">
        <ele>103.4</ele>
        <time>2023-03-05T08:17:34Z</time>
      </trkpt>
      <trkpt lat="46.52164" lon="0.29699">
        <ele>103.8</ele>
        <time>2023-03-05T08:17:35Z</time>
      </trkpt>
      <trkpt lat="46.52159" lon="0.29695">
        <ele>105</ele>
        <time>2023-03-05T08:17:38Z</time>
      </trkpt>
      <trkpt lat="46.52155" lon="0.2969">
        <ele>105.6</ele>
        <time>2023-03-05T08:17:40Z</time>
      </trkpt>
      <trkpt lat="46.52147" lon="0.2968">
        <ele>105.8</ele>
        <time>2023-03-05T08:17:43Z</time>
      </trkpt>
      <trkpt lat="46.52141" lon="0.29672">
        <ele>105</ele>
        <time>2023-03-05T08:17:45Z</time>
      </trkpt>
      <trkpt lat="46.52121" lon="0.29653">
        <ele>105</ele>
        <time>2023-03-05T08:17:51Z</time>
      </trkpt>
      <trkpt lat="46.52099" lon="0.29632">
        <ele>104.8</ele>
        <time>2023-03-05T08:17:58Z</time>
      </trkpt>
      <trkpt lat="46.52088" lon="0.29617">
        <ele>104.2</ele>
        <time>2023-03-05T08:18:02Z</time>
      </trkpt>
      <trkpt lat="46.52082" lon="0.2961">
        <ele>104.2</ele>
        <time>2023-03-05T08:18:04Z</time>
      </trkpt>
      <trkpt lat="46.52078" lon="0.29604">
        <ele>104.2</ele>
        <time>2023-03-05T08:18:05Z</time>
      </trkpt>
      <trkpt lat="46.52074" lon="0.29599">
        <ele>104.2</ele>
        <time>2023-03-05T08:18:06Z</time>
      </trkpt>
      <trkpt lat="46.52056" lon="0.29583">
        <ele>104.2</ele>
        <time>2023-03-05T08:18:10Z</time>
      </trkpt>
      <trkpt lat="46.52031" lon="0.29565">
        <ele>104.6</ele>
        <time>2023-03-05T08:18:16Z</time>
      </trkpt>
      <trkpt lat="46.52014" lon="0.29561">
        <ele>105</ele>
        <time>2023-03-05T08:18:22Z</time>
      </trkpt>
      <trkpt lat="46.52008" lon="0.29562">
        <ele>106.2</ele>
        <time>2023-03-05T08:18:25Z</time>
      </trkpt>
      <trkpt lat="46.52004" lon="0.29562">
        <ele>107.4</ele>
        <time>2023-03-05T08:18:27Z</time>
      </trkpt>
      <trkpt lat="46.52" lon="0.29561">
        <ele>108.4</ele>
        <time>2023-03-05T08:18:29Z</time>
      </trkpt>
      <trkpt lat="46.51993" lon="0.29561">
        <ele>109.8</ele>
        <time>2023-03-05T08:18:32Z</time>
      </trkpt>
      <trkpt lat="46.5199" lon="0.2956">
        <ele>110.6</ele>
        <time>2023-03-05T08:18:33Z</time>
      </trkpt>
      <trkpt lat="46.51987" lon="0.29558">
        <ele>111.2</ele>
        <time>2023-03-05T08:18:34Z</time>
      </trkpt>
      <trkpt lat="46.51983" lon="0.29555">
        <ele>111.4</ele>
        <time>2023-03-05T08:18:35Z</time>
      </trkpt>
      <trkpt lat="46.51962" lon="0.29529">
        <ele>111.4</ele>
        <time>2023-03-05T08:18:41Z</time>
      </trkpt>
      <trkpt lat="46.51934" lon="0.2949">
        <ele>110.2</ele>
        <time>2023-03-05T08:18:48Z</time>
      </trkpt>
      <trkpt lat="46.51929" lon="0.29484">
        <ele>110</ele>
        <time>2023-03-05T08:18:49Z</time>
      </trkpt>
      <trkpt lat="46.51907" lon="0.29461">
        <ele>109.2</ele>
        <time>2023-03-05T08:18:54Z</time>
      </trkpt>
      <trkpt lat="46.51892" lon="0.29444">
        <ele>109</ele>
        <time>2023-03-05T08:18:58Z</time>
      </trkpt>
      <trkpt lat="46.51886" lon="0.29433">
        <ele>109</ele>
        <time>2023-03-05T08:19:00Z</time>
      </trkpt>
      <trkpt lat="46.51883" lon="0.29427">
        <ele>109.2</ele>
        <time>2023-03-05T08:19:01Z</time>
      </trkpt>
      <trkpt lat="46.51877" lon="0.29413">
        <ele>109.6</ele>
        <time>2023-03-05T08:19:04Z</time>
      </trkpt>
      <trkpt lat="46.51874" lon="0.29409">
        <ele>109.6</ele>
        <time>2023-03-05T08:19:06Z</time>
      </trkpt>
      <trkpt lat="46.51871" lon="0.29408">
        <ele>110.2</ele>
        <time>2023-03-05T08:19:08Z</time>
      </trkpt>
      <trkpt lat="46.51867" lon="0.29408">
        <ele>111</ele>
        <time>2023-03-05T08:19:11Z</time>
      </trkpt>
      <trkpt lat="46.51866" lon="0.29412">
        <ele>111.4</ele>
        <time>2023-03-05T08:19:13Z</time>
      </trkpt>
      <trkpt lat="46.51865" lon="0.29414">
        <ele>111.6</ele>
        <time>2023-03-05T08:19:14Z</time>
      </trkpt>
      <trkpt lat="46.51863" lon="0.29418">
        <ele>112.4</ele>
        <time>2023-03-05T08:19:16Z</time>
      </trkpt>
      <trkpt lat="46.51861" lon="0.29425">
        <ele>113.8</ele>
        <time>2023-03-05T08:19:19Z</time>
      </trkpt>
      <trkpt lat="46.51859" lon="0.29431">
        <ele>114.8</ele>
        <time>2023-03-05T08:19:21Z</time>
      </trkpt>
      <trkpt lat="46.51858" lon="0.29433">
        <ele>115</ele>
        <time>2023-03-05T08:19:22Z</time>
      </trkpt>
      <trkpt lat="46.51849" lon="0.2945">
        <ele>116</ele>
        <time>2023-03-05T08:19:28Z</time>
      </trkpt>
      <trkpt lat="46.5184" lon="0.29463">
        <ele>117.2</ele>
        <time>2023-03-05T08:19:34Z</time>
      </trkpt>
      <trkpt lat="46.51838" lon="0.29466">
        <ele>117.6</ele>
        <time>2023-03-05T08:19:36Z</time>
      </trkpt>
      <trkpt lat="46.51833" lon="0.29473">
        <ele>118.2</ele>
        <time>2023-03-05T08:19:39Z</time>
      </trkpt>
      <trkpt lat="46.51827" lon="0.29483">
        <ele>119.2</ele>
        <time>2023-03-05T08:19:43Z</time>
      </trkpt>
      <trkpt lat="46.51826" lon="0.29485">
        <ele>119.6</ele>
        <time>2023-03-05T08:19:44Z</time>
      </trkpt>
      <trkpt lat="46.5182" lon="0.29497">
        <ele>120.8</ele>
        <time>2023-03-05T08:19:49Z</time>
      </trkpt>
      <trkpt lat="46.51819" lon="0.295">
        <ele>121.2</ele>
        <time>2023-03-05T08:19:50Z</time>
      </trkpt>
      <trkpt lat="46.51818" lon="0.29504">
        <ele>122.2</ele>
        <time>2023-03-05T08:19:52Z</time>
      </trkpt>
      <trkpt lat="46.51813" lon="0.29516">
        <ele>123</ele>
        <time>2023-03-05T08:19:57Z</time>
      </trkpt>
      <trkpt lat="46.51812" lon="0.29518">
        <ele>123.2</ele>
        <time>2023-03-05T08:19:58Z</time>
      </trkpt>
      <trkpt lat="46.51807" lon="0.29532">
        <ele>124.6</ele>
        <time>2023-03-05T08:20:04Z</time>
      </trkpt>
      <trkpt lat="46.51805" lon="0.29536">
        <ele>124.8</ele>
        <time>2023-03-05T08:20:06Z</time>
      </trkpt>
      <trkpt lat="46.51798" lon="0.29546">
        <ele>125.6</ele>
        <time>2023-03-05T08:20:11Z</time>
      </trkpt>
      <trkpt lat="46.51793" lon="0.29554">
        <ele>126.6</ele>
        <time>2023-03-05T08:20:15Z</time>
      </trkpt>
      <trkpt lat="46.51784" lon="0.29567">
        <ele>127.8</ele>
        <time>2023-03-05T08:20:21Z</time>
      </trkpt>
      <trkpt lat="46.51781" lon="0.29574">
        <ele>128.2</ele>
        <time>2023-03-05T08:20:24Z</time>
      </trkpt>
      <trkpt lat="46.51777" lon="0.29581">
        <ele>129</ele>
        <time>2023-03-05T08:20:27Z</time>
      </trkpt>
      <trkpt lat="46.51772" lon="0.29591">
        <ele>129.6</ele>
        <time>2023-03-05T08:20:31Z</time>
      </trkpt>
      <trkpt lat="46.51767" lon="0.29602">
        <ele>130.2</ele>
        <time>2023-03-05T08:20:35Z</time>
      </trkpt>
      <trkpt lat="46.51763" lon="0.29615">
        <ele>131</ele>
        <time>2023-03-05T08:20:39Z</time>
      </trkpt>
      <trkpt lat="46.51757" lon="0.29627">
        <ele>131.4</ele>
        <time>2023-03-05T08:20:43Z</time>
      </trkpt>
      <trkpt lat="46.51752" lon="0.29638">
        <ele>132</ele>
        <time>2023-03-05T08:20:47Z</time>
      </trkpt>
      <trkpt lat="46.51749" lon="0.29645">
        <ele>132.4</ele>
        <time>2023-03-05T08:20:49Z</time>
      </trkpt>
      <trkpt lat="46.51742" lon="0.29659">
        <ele>132.8</ele>
        <time>2023-03-05T08:20:54Z</time>
      </trkpt>
      <trkpt lat="46.51736" lon="0.29671">
        <ele>133.6</ele>
        <time>2023-03-05T08:20:58Z</time>
      </trkpt>
      <trkpt lat="46.51729" lon="0.29683">
        <ele>134</ele>
        <time>2023-03-05T08:21:02Z</time>
      </trkpt>
      <trkpt lat="46.51717" lon="0.29691">
        <ele>134.6</ele>
        <time>2023-03-05T08:21:07Z</time>
      </trkpt>
      <trkpt lat="46.51714" lon="0.29692">
        <ele>134.8</ele>
        <time>2023-03-05T08:21:08Z</time>
      </trkpt>
      <trkpt lat="46.51705" lon="0.29693">
        <ele>135.8</ele>
        <time>2023-03-05T08:21:11Z</time>
      </trkpt>
      <trkpt lat="46.51702" lon="0.29694">
        <ele>136.2</ele>
        <time>2023-03-05T08:21:12Z</time>
      </trkpt>
      <trkpt lat="46.51687" lon="0.29707">
        <ele>136.4</ele>
        <time>2023-03-05T08:21:18Z</time>
      </trkpt>
      <trkpt lat="46.5167" lon="0.29724">
        <ele>137.2</ele>
        <time>2023-03-05T08:21:24Z</time>
      </trkpt>
      <trkpt lat="46.51666" lon="0.29729">
        <ele>137.6</ele>
        <time>2023-03-05T08:21:26Z</time>
      </trkpt>
      <trkpt lat="46.51654" lon="0.2974">
        <ele>138.6</ele>
        <time>2023-03-05T08:21:31Z</time>
      </trkpt>
      <trkpt lat="46.51648" lon="0.29744">
        <ele>138.8</ele>
        <time>2023-03-05T08:21:33Z</time>
      </trkpt>
      <trkpt lat="46.51631" lon="0.29756">
        <ele>139.4</ele>
        <time>2023-03-05T08:21:40Z</time>
      </trkpt>
      <trkpt lat="46.51629" lon="0.29761">
        <ele>139.6</ele>
        <time>2023-03-05T08:21:42Z</time>
      </trkpt>
      <trkpt lat="46.51629" lon="0.29766">
        <ele>140</ele>
        <time>2023-03-05T08:21:44Z</time>
      </trkpt>
      <trkpt lat="46.51631" lon="0.29773">
        <ele>140.2</ele>
        <time>2023-03-05T08:21:46Z</time>
      </trkpt>
      <trkpt lat="46.51632" lon="0.29784">
        <ele>140.4</ele>
        <time>2023-03-05T08:21:49Z</time>
      </trkpt>
      <trkpt lat="46.51635" lon="0.29811">
        <ele>140.6</ele>
        <time>2023-03-05T08:21:54Z</time>
      </trkpt>
      <trkpt lat="46.51638" lon="0.2982">
        <ele>140.8</ele>
        <time>2023-03-05T08:21:56Z</time>
      </trkpt>
      <trkpt lat="46.51649" lon="0.29839">
        <ele>141.6</ele>
        <time>2023-03-05T08:22:01Z</time>
      </trkpt>
      <trkpt lat="46.51655" lon="0.29846">
        <ele>141.6</ele>
        <time>2023-03-05T08:22:03Z</time>
      </trkpt>
      <trkpt lat="46.51683" lon="0.29869">
        <ele>142</ele>
        <time>2023-03-05T08:22:11Z</time>
      </trkpt>
      <trkpt lat="46.51711" lon="0.29884">
        <ele>141.6</ele>
        <time>2023-03-05T08:22:18Z</time>
      </trkpt>
      <trkpt lat="46.5172" lon="0.29887">
        <ele>141.6</ele>
        <time>2023-03-05T08:22:20Z</time>
      </trkpt>
      <trkpt lat="46.51739" lon="0.29889">
        <ele>141.6</ele>
        <time>2023-03-05T08:22:24Z</time>
      </trkpt>
      <trkpt lat="46.51774" lon="0.29886">
        <ele>141.8</ele>
        <time>2023-03-05T08:22:31Z</time>
      </trkpt>
      <trkpt lat="46.51809" lon="0.29891">
        <ele>141.6</ele>
        <time>2023-03-05T08:22:38Z</time>
      </trkpt>
      <trkpt lat="46.51841" lon="0.29909">
        <ele>141.8</ele>
        <time>2023-03-05T08:22:45Z</time>
      </trkpt>
      <trkpt lat="46.51879" lon="0.29929">
        <ele>141</ele>
        <time>2023-03-05T08:22:52Z</time>
      </trkpt>
      <trkpt lat="46.51891" lon="0.29934">
        <ele>140.4</ele>
        <time>2023-03-05T08:22:54Z</time>
      </trkpt>
      <trkpt lat="46.5192" lon="0.29948">
        <ele>140.8</ele>
        <time>2023-03-05T08:22:59Z</time>
      </trkpt>
      <trkpt lat="46.51941" lon="0.29958">
        <ele>140.8</ele>
        <time>2023-03-05T08:23:03Z</time>
      </trkpt>
      <trkpt lat="46.51955" lon="0.29966">
        <ele>140.4</ele>
        <time>2023-03-05T08:23:06Z</time>
      </trkpt>
      <trkpt lat="46.51979" lon="0.29977">
        <ele>140.2</ele>
        <time>2023-03-05T08:23:12Z</time>
      </trkpt>
      <trkpt lat="46.51983" lon="0.29979">
        <ele>140.2</ele>
        <time>2023-03-05T08:23:13Z</time>
      </trkpt>
      <trkpt lat="46.52027" lon="0.30001">
        <ele>140</ele>
        <time>2023-03-05T08:23:23Z</time>
      </trkpt>
      <trkpt lat="46.52031" lon="0.30003">
        <ele>140</ele>
        <time>2023-03-05T08:23:24Z</time>
      </trkpt>
      <trkpt lat="46.52049" lon="0.30008">
        <ele>140</ele>
        <time>2023-03-05T08:23:28Z</time>
      </trkpt>
      <trkpt lat="46.52077" lon="0.30019">
        <ele>140</ele>
        <time>2023-03-05T08:23:34Z</time>
      </trkpt>
      <trkpt lat="46.52091" lon="0.30025">
        <ele>139.6</ele>
        <time>2023-03-05T08:23:37Z</time>
      </trkpt>
      <trkpt lat="46.52106" lon="0.30027">
        <ele>139.6</ele>
        <time>2023-03-05T08:23:40Z</time>
      </trkpt>
      <trkpt lat="46.5211" lon="0.30026">
        <ele>139.4</ele>
        <time>2023-03-05T08:23:41Z</time>
      </trkpt>
      <trkpt lat="46.52114" lon="0.30026">
        <ele>139.4</ele>
        <time>2023-03-05T08:23:42Z</time>
      </trkpt>
      <trkpt lat="46.5213" lon="0.30022">
        <ele>138.6</ele>
        <time>2023-03-05T08:23:46Z</time>
      </trkpt>
      <trkpt lat="46.5214" lon="0.30025">
        <ele>138.4</ele>
        <time>2023-03-05T08:23:48Z</time>
      </trkpt>
      <trkpt lat="46.52151" lon="0.3003">
        <ele>138.8</ele>
        <time>2023-03-05T08:23:50Z</time>
      </trkpt>
      <trkpt lat="46.52169" lon="0.3004">
        <ele>139.2</ele>
        <time>2023-03-05T08:23:53Z</time>
      </trkpt>
      <trkpt lat="46.52179" lon="0.30048">
        <ele>139.2</ele>
        <time>2023-03-05T08:23:55Z</time>
      </trkpt>
      <trkpt lat="46.52206" lon="0.30075">
        <ele>138.8</ele>
        <time>2023-03-05T08:24:00Z</time>
      </trkpt>
      <trkpt lat="46.52215" lon="0.30088">
        <ele>138.4</ele>
        <time>2023-03-05T08:24:02Z</time>
      </trkpt>
      <trkpt lat="46.52228" lon="0.30109">
        <ele>138.4</ele>
        <time>2023-03-05T08:24:05Z</time>
      </trkpt>
      <trkpt lat="46.52231" lon="0.30124">
        <ele>138.4</ele>
        <time>2023-03-05T08:24:07Z</time>
      </trkpt>
      <trkpt lat="46.52229" lon="0.3014">
        <ele>138.2</ele>
        <time>2023-03-05T08:24:09Z</time>
      </trkpt>
      <trkpt lat="46.52225" lon="0.30158">
        <ele>138</ele>
        <time>2023-03-05T08:24:11Z</time>
      </trkpt>
      <trkpt lat="46.52212" lon="0.30206">
        <ele>137.4</ele>
        <time>2023-03-05T08:24:16Z</time>
      </trkpt>
      <trkpt lat="46.52209" lon="0.30216">
        <ele>137</ele>
        <time>2023-03-05T08:24:17Z</time>
      </trkpt>
      <trkpt lat="46.52199" lon="0.30247">
        <ele>136</ele>
        <time>2023-03-05T08:24:20Z</time>
      </trkpt>
      <trkpt lat="46.52192" lon="0.3027">
        <ele>135</ele>
        <time>2023-03-05T08:24:22Z</time>
      </trkpt>
      <trkpt lat="46.52188" lon="0.30282">
        <ele>134.4</ele>
        <time>2023-03-05T08:24:23Z</time>
      </trkpt>
      <trkpt lat="46.52182" lon="0.30305">
        <ele>134</ele>
        <time>2023-03-05T08:24:25Z</time>
      </trkpt>
      <trkpt lat="46.52177" lon="0.30331">
        <ele>133.2</ele>
        <time>2023-03-05T08:24:27Z</time>
      </trkpt>
      <trkpt lat="46.52175" lon="0.30345">
        <ele>132.8</ele>
        <time>2023-03-05T08:24:28Z</time>
      </trkpt>
      <trkpt lat="46.52173" lon="0.30385">
        <ele>131.2</ele>
        <time>2023-03-05T08:24:31Z</time>
      </trkpt>
      <trkpt lat="46.52174" lon="0.30413">
        <ele>129.6</ele>
        <time>2023-03-05T08:24:33Z</time>
      </trkpt>
      <trkpt lat="46.52175" lon="0.30426">
        <ele>129</ele>
        <time>2023-03-05T08:24:34Z</time>
      </trkpt>
      <trkpt lat="46.52181" lon="0.30445">
        <ele>128.2</ele>
        <time>2023-03-05T08:24:36Z</time>
      </trkpt>
      <trkpt lat="46.52181" lon="0.30452">
        <ele>127.8</ele>
        <time>2023-03-05T08:24:37Z</time>
      </trkpt>
      <trkpt lat="46.5218" lon="0.30458">
        <ele>127.6</ele>
        <time>2023-03-05T08:24:38Z</time>
      </trkpt>
      <trkpt lat="46.52178" lon="0.3047">
        <ele>127.2</ele>
        <time>2023-03-05T08:24:40Z</time>
      </trkpt>
      <trkpt lat="46.52179" lon="0.30482">
        <ele>127.4</ele>
        <time>2023-03-05T08:24:42Z</time>
      </trkpt>
      <trkpt lat="46.52179" lon="0.30494">
        <ele>129</ele>
        <time>2023-03-05T08:24:44Z</time>
      </trkpt>
      <trkpt lat="46.5218" lon="0.30499">
        <ele>129.6</ele>
        <time>2023-03-05T08:24:45Z</time>
      </trkpt>
      <trkpt lat="46.52181" lon="0.30512">
        <ele>130.6</ele>
        <time>2023-03-05T08:24:47Z</time>
      </trkpt>
      <trkpt lat="46.52182" lon="0.30518">
        <ele>131</ele>
        <time>2023-03-05T08:24:48Z</time>
      </trkpt>
      <trkpt lat="46.52185" lon="0.30531">
        <ele>131.8</ele>
        <time>2023-03-05T08:24:50Z</time>
      </trkpt>
      <trkpt lat="46.52187" lon="0.30549">
        <ele>132.8</ele>
        <time>2023-03-05T08:24:53Z</time>
      </trkpt>
      <trkpt lat="46.5219" lon="0.30569">
        <ele>134</ele>
        <time>2023-03-05T08:24:57Z</time>
      </trkpt>
      <trkpt lat="46.5219" lon="0.30569">
        <ele>135</ele>
        <time>2023-03-05T08:25:01Z</time>
      </trkpt>
      <trkpt lat="46.52196" lon="0.30608">
        <ele>136.2</ele>
        <time>2023-03-05T08:25:05Z</time>
      </trkpt>
      <trkpt lat="46.52197" lon="0.30612">
        <ele>136.6</ele>
        <time>2023-03-05T08:25:06Z</time>
      </trkpt>
      <trkpt lat="46.52201" lon="0.30646">
        <ele>137.4</ele>
        <time>2023-03-05T08:25:13Z</time>
      </trkpt>
      <trkpt lat="46.52202" lon="0.30651">
        <ele>137.6</ele>
        <time>2023-03-05T08:25:14Z</time>
      </trkpt>
      <trkpt lat="46.52208" lon="0.30666">
        <ele>138.8</ele>
        <time>2023-03-05T08:25:18Z</time>
      </trkpt>
      <trkpt lat="46.52213" lon="0.30672">
        <ele>139.2</ele>
        <time>2023-03-05T08:25:20Z</time>
      </trkpt>
      <trkpt lat="46.52228" lon="0.30702">
        <ele>139.6</ele>
        <time>2023-03-05T08:25:27Z</time>
      </trkpt>
      <trkpt lat="46.52237" lon="0.30739">
        <ele>139.6</ele>
        <time>2023-03-05T08:25:34Z</time>
      </trkpt>
      <trkpt lat="46.52238" lon="0.30751">
        <ele>139.8</ele>
        <time>2023-03-05T08:25:36Z</time>
      </trkpt>
      <trkpt lat="46.52237" lon="0.30769">
        <ele>140</ele>
        <time>2023-03-05T08:25:39Z</time>
      </trkpt>
      <trkpt lat="46.52236" lon="0.30775">
        <ele>140</ele>
        <time>2023-03-05T08:25:40Z</time>
      </trkpt>
      <trkpt lat="46.52231" lon="0.30799">
        <ele>140.2</ele>
        <time>2023-03-05T08:25:44Z</time>
      </trkpt>
      <trkpt lat="46.52225" lon="0.30816">
        <ele>140.4</ele>
        <time>2023-03-05T08:25:47Z</time>
      </trkpt>
      <trkpt lat="46.52213" lon="0.30844">
        <ele>140.6</ele>
        <time>2023-03-05T08:25:52Z</time>
      </trkpt>
      <trkpt lat="46.52208" lon="0.30855">
        <ele>140.6</ele>
        <time>2023-03-05T08:25:54Z</time>
      </trkpt>
      <trkpt lat="46.52206" lon="0.3086">
        <ele>140.8</ele>
        <time>2023-03-05T08:25:55Z</time>
      </trkpt>
      <trkpt lat="46.52189" lon="0.30895">
        <ele>141</ele>
        <time>2023-03-05T08:26:01Z</time>
      </trkpt>
      <trkpt lat="46.52186" lon="0.30908">
        <ele>140.8</ele>
        <time>2023-03-05T08:26:03Z</time>
      </trkpt>
      <trkpt lat="46.5218" lon="0.30921">
        <ele>140.8</ele>
        <time>2023-03-05T08:26:05Z</time>
      </trkpt>
      <trkpt lat="46.52153" lon="0.30984">
        <ele>140.4</ele>
        <time>2023-03-05T08:26:14Z</time>
      </trkpt>
      <trkpt lat="46.52133" lon="0.31038">
        <ele>140.4</ele>
        <time>2023-03-05T08:26:21Z</time>
      </trkpt>
      <trkpt lat="46.52108" lon="0.31117">
        <ele>140.2</ele>
        <time>2023-03-05T08:26:30Z</time>
      </trkpt>
      <trkpt lat="46.52092" lon="0.31162">
        <ele>140.2</ele>
        <time>2023-03-05T08:26:36Z</time>
      </trkpt>
      <trkpt lat="46.52075" lon="0.31204">
        <ele>140.4</ele>
        <time>2023-03-05T08:26:43Z</time>
      </trkpt>
      <trkpt lat="46.52059" lon="0.31246">
        <ele>140.6</ele>
        <time>2023-03-05T08:26:50Z</time>
      </trkpt>
      <trkpt lat="46.52056" lon="0.31257">
        <ele>140.6</ele>
        <time>2023-03-05T08:26:52Z</time>
      </trkpt>
      <trkpt lat="46.52057" lon="0.31264">
        <ele>140.4</ele>
        <time>2023-03-05T08:26:54Z</time>
      </trkpt>
      <trkpt lat="46.52062" lon="0.31266">
        <ele>140</ele>
        <time>2023-03-05T08:26:57Z</time>
      </trkpt>
      <trkpt lat="46.52064" lon="0.31268">
        <ele>139.8</ele>
        <time>2023-03-05T08:26:58Z</time>
      </trkpt>
      <trkpt lat="46.52065" lon="0.31269">
        <ele>139.8</ele>
        <time>2023-03-05T08:26:59Z</time>
      </trkpt>
      <trkpt lat="46.52073" lon="0.31278">
        <ele>139.8</ele>
        <time>2023-03-05T08:27:03Z</time>
      </trkpt>
      <trkpt lat="46.5209" lon="0.31301">
        <ele>139.6</ele>
        <time>2023-03-05T08:27:08Z</time>
      </trkpt>
      <trkpt lat="46.52101" lon="0.31317">
        <ele>139.4</ele>
        <time>2023-03-05T08:27:11Z</time>
      </trkpt>
      <trkpt lat="46.52109" lon="0.31324">
        <ele>139.2</ele>
        <time>2023-03-05T08:27:13Z</time>
      </trkpt>
      <trkpt lat="46.52138" lon="0.31337">
        <ele>138.8</ele>
        <time>2023-03-05T08:27:18Z</time>
      </trkpt>
      <trkpt lat="46.52144" lon="0.31339">
        <ele>138.6</ele>
        <time>2023-03-05T08:27:19Z</time>
      </trkpt>
      <trkpt lat="46.5215" lon="0.31341">
        <ele>138.2</ele>
        <time>2023-03-05T08:27:20Z</time>
      </trkpt>
      <trkpt lat="46.52169" lon="0.31343">
        <ele>137.8</ele>
        <time>2023-03-05T08:27:23Z</time>
      </trkpt>
      <trkpt lat="46.5218" lon="0.31341">
        <ele>137.2</ele>
        <time>2023-03-05T08:27:25Z</time>
      </trkpt>
      <trkpt lat="46.52196" lon="0.31336">
        <ele>136.6</ele>
        <time>2023-03-05T08:27:28Z</time>
      </trkpt>
      <trkpt lat="46.52201" lon="0.31334">
        <ele>136.2</ele>
        <time>2023-03-05T08:27:29Z</time>
      </trkpt>
      <trkpt lat="46.52206" lon="0.31332">
        <ele>135.8</ele>
        <time>2023-03-05T08:27:30Z</time>
      </trkpt>
      <trkpt lat="46.52211" lon="0.31332">
        <ele>135.2</ele>
        <time>2023-03-05T08:27:31Z</time>
      </trkpt>
      <trkpt lat="46.52216" lon="0.31334">
        <ele>134.6</ele>
        <time>2023-03-05T08:27:32Z</time>
      </trkpt>
      <trkpt lat="46.52225" lon="0.31339">
        <ele>134.2</ele>
        <time>2023-03-05T08:27:34Z</time>
      </trkpt>
      <trkpt lat="46.52236" lon="0.31344">
        <ele>134</ele>
        <time>2023-03-05T08:27:36Z</time>
      </trkpt>
      <trkpt lat="46.52242" lon="0.31346">
        <ele>133.8</ele>
        <time>2023-03-05T08:27:37Z</time>
      </trkpt>
      <trkpt lat="46.52247" lon="0.31348">
        <ele>133.8</ele>
        <time>2023-03-05T08:27:38Z</time>
      </trkpt>
      <trkpt lat="46.52258" lon="0.31351">
        <ele>133.4</ele>
        <time>2023-03-05T08:27:40Z</time>
      </trkpt>
      <trkpt lat="46.52263" lon="0.31351">
        <ele>133.2</ele>
        <time>2023-03-05T08:27:41Z</time>
      </trkpt>
      <trkpt lat="46.52268" lon="0.3135">
        <ele>133</ele>
        <time>2023-03-05T08:27:42Z</time>
      </trkpt>
      <trkpt lat="46.52277" lon="0.31344">
        <ele>132.6</ele>
        <time>2023-03-05T08:27:44Z</time>
      </trkpt>
      <trkpt lat="46.52287" lon="0.31333">
        <ele>132</ele>
        <time>2023-03-05T08:27:46Z</time>
      </trkpt>
      <trkpt lat="46.52299" lon="0.31324">
        <ele>131.4</ele>
        <time>2023-03-05T08:27:48Z</time>
      </trkpt>
      <trkpt lat="46.52312" lon="0.31317">
        <ele>130.8</ele>
        <time>2023-03-05T08:27:50Z</time>
      </trkpt>
      <trkpt lat="46.52328" lon="0.31314">
        <ele>129.4</ele>
        <time>2023-03-05T08:27:52Z</time>
      </trkpt>
      <trkpt lat="46.52344" lon="0.31313">
        <ele>128.4</ele>
        <time>2023-03-05T08:27:54Z</time>
      </trkpt>
      <trkpt lat="46.52353" lon="0.31312">
        <ele>127.4</ele>
        <time>2023-03-05T08:27:55Z</time>
      </trkpt>
      <trkpt lat="46.52361" lon="0.3131">
        <ele>126.6</ele>
        <time>2023-03-05T08:27:56Z</time>
      </trkpt>
      <trkpt lat="46.52368" lon="0.31309">
        <ele>126</ele>
        <time>2023-03-05T08:27:57Z</time>
      </trkpt>
      <trkpt lat="46.52375" lon="0.3131">
        <ele>125.4</ele>
        <time>2023-03-05T08:27:58Z</time>
      </trkpt>
      <trkpt lat="46.52382" lon="0.31311">
        <ele>125</ele>
        <time>2023-03-05T08:27:59Z</time>
      </trkpt>
      <trkpt lat="46.5239" lon="0.31317">
        <ele>124</ele>
        <time>2023-03-05T08:28:01Z</time>
      </trkpt>
      <trkpt lat="46.52395" lon="0.31325">
        <ele>122.6</ele>
        <time>2023-03-05T08:28:03Z</time>
      </trkpt>
      <trkpt lat="46.52399" lon="0.31336">
        <ele>121.8</ele>
        <time>2023-03-05T08:28:05Z</time>
      </trkpt>
      <trkpt lat="46.524" lon="0.3134">
        <ele>121.4</ele>
        <time>2023-03-05T08:28:06Z</time>
      </trkpt>
      <trkpt lat="46.52409" lon="0.31366">
        <ele>120.6</ele>
        <time>2023-03-05T08:28:10Z</time>
      </trkpt>
      <trkpt lat="46.52412" lon="0.31373">
        <ele>120.4</ele>
        <time>2023-03-05T08:28:11Z</time>
      </trkpt>
      <trkpt lat="46.52415" lon="0.3138">
        <ele>120.2</ele>
        <time>2023-03-05T08:28:12Z</time>
      </trkpt>
      <trkpt lat="46.52419" lon="0.31387">
        <ele>119.8</ele>
        <time>2023-03-05T08:28:13Z</time>
      </trkpt>
      <trkpt lat="46.5243" lon="0.31409">
        <ele>119.4</ele>
        <time>2023-03-05T08:28:16Z</time>
      </trkpt>
      <trkpt lat="46.52438" lon="0.31423">
        <ele>119</ele>
        <time>2023-03-05T08:28:18Z</time>
      </trkpt>
      <trkpt lat="46.5245" lon="0.31451">
        <ele>117.6</ele>
        <time>2023-03-05T08:28:22Z</time>
      </trkpt>
      <trkpt lat="46.52467" lon="0.31491">
        <ele>117.2</ele>
        <time>2023-03-05T08:28:28Z</time>
      </trkpt>
      <trkpt lat="46.52479" lon="0.31517">
        <ele>116.8</ele>
        <time>2023-03-05T08:28:32Z</time>
      </trkpt>
      <trkpt lat="46.52483" lon="0.31523">
        <ele>116.6</ele>
        <time>2023-03-05T08:28:33Z</time>
      </trkpt>
      <trkpt lat="46.52493" lon="0.31539">
        <ele>116.4</ele>
        <time>2023-03-05T08:28:37Z</time>
      </trkpt>
      <trkpt lat="46.52496" lon="0.31545">
        <ele>116.4</ele>
        <time>2023-03-05T08:28:38Z</time>
      </trkpt>
      <trkpt lat="46.52499" lon="0.3156">
        <ele>116</ele>
        <time>2023-03-05T08:28:41Z</time>
      </trkpt>
      <trkpt lat="46.52502" lon="0.31568">
        <ele>116</ele>
        <time>2023-03-05T08:28:43Z</time>
      </trkpt>
      <trkpt lat="46.52505" lon="0.31587">
        <ele>117.8</ele>
        <time>2023-03-05T08:28:49Z</time>
      </trkpt>
      <trkpt lat="46.52507" lon="0.31599">
        <ele>119</ele>
        <time>2023-03-05T08:28:53Z</time>
      </trkpt>
      <trkpt lat="46.52509" lon="0.31612">
        <ele>120</ele>
        <time>2023-03-05T08:28:57Z</time>
      </trkpt>
      <trkpt lat="46.5251" lon="0.31624">
        <ele>121.4</ele>
        <time>2023-03-05T08:29:01Z</time>
      </trkpt>
      <trkpt lat="46.52514" lon="0.31644">
        <ele>122.8</ele>
        <time>2023-03-05T08:29:06Z</time>
      </trkpt>
      <trkpt lat="46.52516" lon="0.31657">
        <ele>123.6</ele>
        <time>2023-03-05T08:29:09Z</time>
      </trkpt>
      <trkpt lat="46.52516" lon="0.31662">
        <ele>123.8</ele>
        <time>2023-03-05T08:29:10Z</time>
      </trkpt>
      <trkpt lat="46.52517" lon="0.3167">
        <ele>124</ele>
        <time>2023-03-05T08:29:12Z</time>
      </trkpt>
      <trkpt lat="46.52527" lon="0.31691">
        <ele>124.4</ele>
        <time>2023-03-05T08:29:17Z</time>
      </trkpt>
      <trkpt lat="46.52533" lon="0.317">
        <ele>124.4</ele>
        <time>2023-03-05T08:29:19Z</time>
      </trkpt>
      <trkpt lat="46.52538" lon="0.31711">
        <ele>124.8</ele>
        <time>2023-03-05T08:29:21Z</time>
      </trkpt>
      <trkpt lat="46.5254" lon="0.31716">
        <ele>124.8</ele>
        <time>2023-03-05T08:29:22Z</time>
      </trkpt>
      <trkpt lat="46.52543" lon="0.31721">
        <ele>124.8</ele>
        <time>2023-03-05T08:29:23Z</time>
      </trkpt>
      <trkpt lat="46.52551" lon="0.31736">
        <ele>125</ele>
        <time>2023-03-05T08:29:26Z</time>
      </trkpt>
      <trkpt lat="46.52565" lon="0.31772">
        <ele>123.8</ele>
        <time>2023-03-05T08:29:32Z</time>
      </trkpt>
      <trkpt lat="46.5257" lon="0.31787">
        <ele>122.4</ele>
        <time>2023-03-05T08:29:34Z</time>
      </trkpt>
      <trkpt lat="46.5258" lon="0.31801">
        <ele>121.4</ele>
        <time>2023-03-05T08:29:36Z</time>
      </trkpt>
      <trkpt lat="46.52584" lon="0.31809">
        <ele>121.2</ele>
        <time>2023-03-05T08:29:37Z</time>
      </trkpt>
      <trkpt lat="46.52592" lon="0.31826">
        <ele>121.4</ele>
        <time>2023-03-05T08:29:40Z</time>
      </trkpt>
      <trkpt lat="46.52595" lon="0.31831">
        <ele>121.8</ele>
        <time>2023-03-05T08:29:41Z</time>
      </trkpt>
      <trkpt lat="46.52598" lon="0.31836">
        <ele>122.2</ele>
        <time>2023-03-05T08:29:42Z</time>
      </trkpt>
      <trkpt lat="46.52602" lon="0.31842">
        <ele>122.8</ele>
        <time>2023-03-05T08:29:43Z</time>
      </trkpt>
      <trkpt lat="46.5261" lon="0.31857">
        <ele>123.4</ele>
        <time>2023-03-05T08:29:46Z</time>
      </trkpt>
      <trkpt lat="46.52616" lon="0.31868">
        <ele>123.8</ele>
        <time>2023-03-05T08:29:48Z</time>
      </trkpt>
      <trkpt lat="46.52622" lon="0.3188">
        <ele>124.2</ele>
        <time>2023-03-05T08:29:50Z</time>
      </trkpt>
      <trkpt lat="46.52627" lon="0.31891">
        <ele>124.4</ele>
        <time>2023-03-05T08:29:52Z</time>
      </trkpt>
      <trkpt lat="46.52634" lon="0.31904">
        <ele>124.8</ele>
        <time>2023-03-05T08:29:55Z</time>
      </trkpt>
      <trkpt lat="46.52638" lon="0.31914">
        <ele>125.2</ele>
        <time>2023-03-05T08:29:57Z</time>
      </trkpt>
      <trkpt lat="46.52646" lon="0.31928">
        <ele>125.4</ele>
        <time>2023-03-05T08:30:00Z</time>
      </trkpt>
      <trkpt lat="46.52648" lon="0.31933">
        <ele>125.2</ele>
        <time>2023-03-05T08:30:01Z</time>
      </trkpt>
      <trkpt lat="46.52668" lon="0.31969">
        <ele>125.6</ele>
        <time>2023-03-05T08:30:08Z</time>
      </trkpt>
      <trkpt lat="46.52672" lon="0.31978">
        <ele>125.8</ele>
        <time>2023-03-05T08:30:10Z</time>
      </trkpt>
      <trkpt lat="46.52686" lon="0.32004">
        <ele>126.2</ele>
        <time>2023-03-05T08:30:15Z</time>
      </trkpt>
      <trkpt lat="46.52698" lon="0.32031">
        <ele>126.8</ele>
        <time>2023-03-05T08:30:21Z</time>
      </trkpt>
      <trkpt lat="46.52712" lon="0.3206">
        <ele>127.2</ele>
        <time>2023-03-05T08:30:27Z</time>
      </trkpt>
      <trkpt lat="46.52717" lon="0.32075">
        <ele>127.4</ele>
        <time>2023-03-05T08:30:30Z</time>
      </trkpt>
      <trkpt lat="46.5272" lon="0.32088">
        <ele>127.6</ele>
        <time>2023-03-05T08:30:32Z</time>
      </trkpt>
      <trkpt lat="46.52722" lon="0.32099">
        <ele>128.2</ele>
        <time>2023-03-05T08:30:34Z</time>
      </trkpt>
      <trkpt lat="46.52722" lon="0.32106">
        <ele>128.2</ele>
        <time>2023-03-05T08:30:35Z</time>
      </trkpt>
      <trkpt lat="46.52723" lon="0.32112">
        <ele>128.6</ele>
        <time>2023-03-05T08:30:36Z</time>
      </trkpt>
      <trkpt lat="46.52724" lon="0.32132">
        <ele>129.2</ele>
        <time>2023-03-05T08:30:39Z</time>
      </trkpt>
      <trkpt lat="46.52725" lon="0.32144">
        <ele>129.4</ele>
        <time>2023-03-05T08:30:41Z</time>
      </trkpt>
      <trkpt lat="46.52725" lon="0.32149">
        <ele>129.8</ele>
        <time>2023-03-05T08:30:42Z</time>
      </trkpt>
      <trkpt lat="46.52725" lon="0.32159">
        <ele>130.2</ele>
        <time>2023-03-05T08:30:44Z</time>
      </trkpt>
      <trkpt lat="46.52726" lon="0.32163">
        <ele>130.2</ele>
        <time>2023-03-05T08:30:45Z</time>
      </trkpt>
      <trkpt lat="46.52727" lon="0.32189">
        <ele>130.8</ele>
        <time>2023-03-05T08:30:50Z</time>
      </trkpt>
      <trkpt lat="46.52728" lon="0.322">
        <ele>131</ele>
        <time>2023-03-05T08:30:52Z</time>
      </trkpt>
      <trkpt lat="46.52728" lon="0.3221">
        <ele>131</ele>
        <time>2023-03-05T08:30:54Z</time>
      </trkpt>
      <trkpt lat="46.52724" lon="0.32221">
        <ele>131</ele>
        <time>2023-03-05T08:30:56Z</time>
      </trkpt>
      <trkpt lat="46.52714" lon="0.32228">
        <ele>131</ele>
        <time>2023-03-05T08:30:59Z</time>
      </trkpt>
      <trkpt lat="46.5271" lon="0.3223">
        <ele>131.2</ele>
        <time>2023-03-05T08:31:00Z</time>
      </trkpt>
      <trkpt lat="46.52699" lon="0.32235">
        <ele>131.4</ele>
        <time>2023-03-05T08:31:03Z</time>
      </trkpt>
      <trkpt lat="46.52691" lon="0.32238">
        <ele>131.6</ele>
        <time>2023-03-05T08:31:05Z</time>
      </trkpt>
      <trkpt lat="46.52668" lon="0.32245">
        <ele>131.4</ele>
        <time>2023-03-05T08:31:11Z</time>
      </trkpt>
      <trkpt lat="46.52661" lon="0.32247">
        <ele>131.4</ele>
        <time>2023-03-05T08:31:13Z</time>
      </trkpt>
      <trkpt lat="46.52648" lon="0.32252">
        <ele>131.4</ele>
        <time>2023-03-05T08:31:17Z</time>
      </trkpt>
      <trkpt lat="46.52644" lon="0.32268">
        <ele>131.4</ele>
        <time>2023-03-05T08:31:20Z</time>
      </trkpt>
      <trkpt lat="46.52642" lon="0.32284">
        <ele>131.2</ele>
        <time>2023-03-05T08:31:22Z</time>
      </trkpt>
      <trkpt lat="46.52641" lon="0.323">
        <ele>131.4</ele>
        <time>2023-03-05T08:31:24Z</time>
      </trkpt>
      <trkpt lat="46.5264" lon="0.32348">
        <ele>131.6</ele>
        <time>2023-03-05T08:31:29Z</time>
      </trkpt>
      <trkpt lat="46.52639" lon="0.32358">
        <ele>131.6</ele>
        <time>2023-03-05T08:31:30Z</time>
      </trkpt>
      <trkpt lat="46.52637" lon="0.32397">
        <ele>130.2</ele>
        <time>2023-03-05T08:31:34Z</time>
      </trkpt>
      <trkpt lat="46.52636" lon="0.32408">
        <ele>129.8</ele>
        <time>2023-03-05T08:31:35Z</time>
      </trkpt>
      <trkpt lat="46.52635" lon="0.32449">
        <ele>128.8</ele>
        <time>2023-03-05T08:31:39Z</time>
      </trkpt>
      <trkpt lat="46.52636" lon="0.32458">
        <ele>128.6</ele>
        <time>2023-03-05T08:31:40Z</time>
      </trkpt>
      <trkpt lat="46.52638" lon="0.32469">
        <ele>127.4</ele>
        <time>2023-03-05T08:31:42Z</time>
      </trkpt>
      <trkpt lat="46.52643" lon="0.32472">
        <ele>126</ele>
        <time>2023-03-05T08:31:44Z</time>
      </trkpt>
      <trkpt lat="46.52647" lon="0.32473">
        <ele>125.8</ele>
        <time>2023-03-05T08:31:46Z</time>
      </trkpt>
      <trkpt lat="46.52657" lon="0.32472">
        <ele>126.4</ele>
        <time>2023-03-05T08:31:49Z</time>
      </trkpt>
      <trkpt lat="46.52665" lon="0.32472">
        <ele>127.2</ele>
        <time>2023-03-05T08:31:51Z</time>
      </trkpt>
      <trkpt lat="46.52674" lon="0.32472">
        <ele>127.6</ele>
        <time>2023-03-05T08:31:53Z</time>
      </trkpt>
      <trkpt lat="46.52693" lon="0.32468">
        <ele>128.2</ele>
        <time>2023-03-05T08:31:58Z</time>
      </trkpt>
      <trkpt lat="46.5271" lon="0.32466">
        <ele>128.8</ele>
        <time>2023-03-05T08:32:03Z</time>
      </trkpt>
      <trkpt lat="46.52713" lon="0.32467">
        <ele>129</ele>
        <time>2023-03-05T08:32:04Z</time>
      </trkpt>
      <trkpt lat="46.52716" lon="0.32469">
        <ele>129.2</ele>
        <time>2023-03-05T08:32:05Z</time>
      </trkpt>
      <trkpt lat="46.52721" lon="0.32478">
        <ele>129.2</ele>
        <time>2023-03-05T08:32:07Z</time>
      </trkpt>
      <trkpt lat="46.52721" lon="0.32484">
        <ele>129.2</ele>
        <time>2023-03-05T08:32:08Z</time>
      </trkpt>
      <trkpt lat="46.52721" lon="0.32507">
        <ele>129.2</ele>
        <time>2023-03-05T08:32:11Z</time>
      </trkpt>
      <trkpt lat="46.52722" lon="0.32552">
        <ele>128</ele>
        <time>2023-03-05T08:32:16Z</time>
      </trkpt>
      <trkpt lat="46.52722" lon="0.32569">
        <ele>127.2</ele>
        <time>2023-03-05T08:32:18Z</time>
      </trkpt>
      <trkpt lat="46.52723" lon="0.32577">
        <ele>126.8</ele>
        <time>2023-03-05T08:32:19Z</time>
      </trkpt>
      <trkpt lat="46.52725" lon="0.32586">
        <ele>126.8</ele>
        <time>2023-03-05T08:32:20Z</time>
      </trkpt>
      <trkpt lat="46.52731" lon="0.32627">
        <ele>126.6</ele>
        <time>2023-03-05T08:32:25Z</time>
      </trkpt>
      <trkpt lat="46.52732" lon="0.32635">
        <ele>126.6</ele>
        <time>2023-03-05T08:32:26Z</time>
      </trkpt>
      <trkpt lat="46.52737" lon="0.32646">
        <ele>126.6</ele>
        <time>2023-03-05T08:32:28Z</time>
      </trkpt>
      <trkpt lat="46.52746" lon="0.3265">
        <ele>126.6</ele>
        <time>2023-03-05T08:32:31Z</time>
      </trkpt>
      <trkpt lat="46.5276" lon="0.32646">
        <ele>126.8</ele>
        <time>2023-03-05T08:32:35Z</time>
      </trkpt>
      <trkpt lat="46.52766" lon="0.32646">
        <ele>127</ele>
        <time>2023-03-05T08:32:36Z</time>
      </trkpt>
      <trkpt lat="46.52778" lon="0.32642">
        <ele>128</ele>
        <time>2023-03-05T08:32:39Z</time>
      </trkpt>
      <trkpt lat="46.52787" lon="0.32639">
        <ele>128.4</ele>
        <time>2023-03-05T08:32:41Z</time>
      </trkpt>
      <trkpt lat="46.52791" lon="0.32639">
        <ele>128.6</ele>
        <time>2023-03-05T08:32:42Z</time>
      </trkpt>
      <trkpt lat="46.52797" lon="0.32642">
        <ele>129</ele>
        <time>2023-03-05T08:32:44Z</time>
      </trkpt>
      <trkpt lat="46.52798" lon="0.32646">
        <ele>129</ele>
        <time>2023-03-05T08:32:45Z</time>
      </trkpt>
      <trkpt lat="46.52801" lon="0.32658">
        <ele>129</ele>
        <time>2023-03-05T08:32:48Z</time>
      </trkpt>
      <trkpt lat="46.52802" lon="0.32663">
        <ele>129</ele>
        <time>2023-03-05T08:32:49Z</time>
      </trkpt>
      <trkpt lat="46.52804" lon="0.3268">
        <ele>129</ele>
        <time>2023-03-05T08:32:52Z</time>
      </trkpt>
      <trkpt lat="46.52805" lon="0.32686">
        <ele>129</ele>
        <time>2023-03-05T08:32:53Z</time>
      </trkpt>
      <trkpt lat="46.52812" lon="0.32716">
        <ele>129.4</ele>
        <time>2023-03-05T08:32:58Z</time>
      </trkpt>
      <trkpt lat="46.52818" lon="0.32744">
        <ele>129.2</ele>
        <time>2023-03-05T08:33:02Z</time>
      </trkpt>
      <trkpt lat="46.52821" lon="0.3276">
        <ele>129.4</ele>
        <time>2023-03-05T08:33:04Z</time>
      </trkpt>
      <trkpt lat="46.52822" lon="0.32786">
        <ele>129.4</ele>
        <time>2023-03-05T08:33:07Z</time>
      </trkpt>
      <trkpt lat="46.52824" lon="0.32804">
        <ele>129</ele>
        <time>2023-03-05T08:33:09Z</time>
      </trkpt>
      <trkpt lat="46.52827" lon="0.32824">
        <ele>128.8</ele>
        <time>2023-03-05T08:33:11Z</time>
      </trkpt>
      <trkpt lat="46.52829" lon="0.32833">
        <ele>128.8</ele>
        <time>2023-03-05T08:33:12Z</time>
      </trkpt>
      <trkpt lat="46.52841" lon="0.32872">
        <ele>128.4</ele>
        <time>2023-03-05T08:33:16Z</time>
      </trkpt>
      <trkpt lat="46.52843" lon="0.32882">
        <ele>128.2</ele>
        <time>2023-03-05T08:33:17Z</time>
      </trkpt>
      <trkpt lat="46.52845" lon="0.32893">
        <ele>127.8</ele>
        <time>2023-03-05T08:33:18Z</time>
      </trkpt>
      <trkpt lat="46.52852" lon="0.32927">
        <ele>126.6</ele>
        <time>2023-03-05T08:33:21Z</time>
      </trkpt>
      <trkpt lat="46.52857" lon="0.32949">
        <ele>125.4</ele>
        <time>2023-03-05T08:33:23Z</time>
      </trkpt>
      <trkpt lat="46.52864" lon="0.32981">
        <ele>124</ele>
        <time>2023-03-05T08:33:26Z</time>
      </trkpt>
      <trkpt lat="46.52871" lon="0.33013">
        <ele>123</ele>
        <time>2023-03-05T08:33:29Z</time>
      </trkpt>
      <trkpt lat="46.52881" lon="0.33063">
        <ele>122</ele>
        <time>2023-03-05T08:33:34Z</time>
      </trkpt>
      <trkpt lat="46.52889" lon="0.33114">
        <ele>122</ele>
        <time>2023-03-05T08:33:39Z</time>
      </trkpt>
      <trkpt lat="46.5289" lon="0.33123">
        <ele>122</ele>
        <time>2023-03-05T08:33:40Z</time>
      </trkpt>
      <trkpt lat="46.52899" lon="0.33168">
        <ele>121.6</ele>
        <time>2023-03-05T08:33:45Z</time>
      </trkpt>
      <trkpt lat="46.52903" lon="0.33185">
        <ele>121.2</ele>
        <time>2023-03-05T08:33:47Z</time>
      </trkpt>
      <trkpt lat="46.52909" lon="0.33214">
        <ele>121</ele>
        <time>2023-03-05T08:33:50Z</time>
      </trkpt>
      <trkpt lat="46.52911" lon="0.33224">
        <ele>120.8</ele>
        <time>2023-03-05T08:33:51Z</time>
      </trkpt>
      <trkpt lat="46.52912" lon="0.33236">
        <ele>120.8</ele>
        <time>2023-03-05T08:33:52Z</time>
      </trkpt>
      <trkpt lat="46.52916" lon="0.33257">
        <ele>120.4</ele>
        <time>2023-03-05T08:33:54Z</time>
      </trkpt>
      <trkpt lat="46.52921" lon="0.33278">
        <ele>119.8</ele>
        <time>2023-03-05T08:33:56Z</time>
      </trkpt>
      <trkpt lat="46.52925" lon="0.33299">
        <ele>118.8</ele>
        <time>2023-03-05T08:33:58Z</time>
      </trkpt>
      <trkpt lat="46.52926" lon="0.33309">
        <ele>118.6</ele>
        <time>2023-03-05T08:33:59Z</time>
      </trkpt>
      <trkpt lat="46.52928" lon="0.3332">
        <ele>117.4</ele>
        <time>2023-03-05T08:34:00Z</time>
      </trkpt>
      <trkpt lat="46.52931" lon="0.33342">
        <ele>116.4</ele>
        <time>2023-03-05T08:34:02Z</time>
      </trkpt>
      <trkpt lat="46.52933" lon="0.33353">
        <ele>115.6</ele>
        <time>2023-03-05T08:34:03Z</time>
      </trkpt>
      <trkpt lat="46.52934" lon="0.33363">
        <ele>115.2</ele>
        <time>2023-03-05T08:34:04Z</time>
      </trkpt>
      <trkpt lat="46.52939" lon="0.33381">
        <ele>114.6</ele>
        <time>2023-03-05T08:34:06Z</time>
      </trkpt>
      <trkpt lat="46.52941" lon="0.33389">
        <ele>113.8</ele>
        <time>2023-03-05T08:34:07Z</time>
      </trkpt>
      <trkpt lat="46.52945" lon="0.33394">
        <ele>113.4</ele>
        <time>2023-03-05T08:34:08Z</time>
      </trkpt>
      <trkpt lat="46.52951" lon="0.33397">
        <ele>112.6</ele>
        <time>2023-03-05T08:34:10Z</time>
      </trkpt>
      <trkpt lat="46.52955" lon="0.334">
        <ele>112.4</ele>
        <time>2023-03-05T08:34:13Z</time>
      </trkpt>
      <trkpt lat="46.52959" lon="0.33402">
        <ele>112.4</ele>
        <time>2023-03-05T08:34:15Z</time>
      </trkpt>
      <trkpt lat="46.52973" lon="0.334">
        <ele>113.8</ele>
        <time>2023-03-05T08:34:22Z</time>
      </trkpt>
      <trkpt lat="46.52975" lon="0.334">
        <ele>114.2</ele>
        <time>2023-03-05T08:34:23Z</time>
      </trkpt>
      <trkpt lat="46.52978" lon="0.33399">
        <ele>115.2</ele>
        <time>2023-03-05T08:34:25Z</time>
      </trkpt>
      <trkpt lat="46.52987" lon="0.33397">
        <ele>116</ele>
        <time>2023-03-05T08:34:28Z</time>
      </trkpt>
      <trkpt lat="46.5299" lon="0.33395">
        <ele>116.4</ele>
        <time>2023-03-05T08:34:29Z</time>
      </trkpt>
      <trkpt lat="46.53005" lon="0.33389">
        <ele>117.8</ele>
        <time>2023-03-05T08:34:33Z</time>
      </trkpt>
      <trkpt lat="46.53021" lon="0.33385">
        <ele>119</ele>
        <time>2023-03-05T08:34:37Z</time>
      </trkpt>
      <trkpt lat="46.53031" lon="0.33382">
        <ele>119.8</ele>
        <time>2023-03-05T08:34:40Z</time>
      </trkpt>
      <trkpt lat="46.53038" lon="0.33381">
        <ele>120.2</ele>
        <time>2023-03-05T08:34:42Z</time>
      </trkpt>
      <trkpt lat="46.53051" lon="0.3338">
        <ele>121</ele>
        <time>2023-03-05T08:34:46Z</time>
      </trkpt>
      <trkpt lat="46.53055" lon="0.3338">
        <ele>121.4</ele>
        <time>2023-03-05T08:34:47Z</time>
      </trkpt>
      <trkpt lat="46.53068" lon="0.33379">
        <ele>121.8</ele>
        <time>2023-03-05T08:34:51Z</time>
      </trkpt>
      <trkpt lat="46.53083" lon="0.33377">
        <ele>122.4</ele>
        <time>2023-03-05T08:34:56Z</time>
      </trkpt>
      <trkpt lat="46.53087" lon="0.33376">
        <ele>122.6</ele>
        <time>2023-03-05T08:34:57Z</time>
      </trkpt>
      <trkpt lat="46.53102" lon="0.33371">
        <ele>123.4</ele>
        <time>2023-03-05T08:35:01Z</time>
      </trkpt>
      <trkpt lat="46.5311" lon="0.33367">
        <ele>123.8</ele>
        <time>2023-03-05T08:35:04Z</time>
      </trkpt>
      <trkpt lat="46.53133" lon="0.33355">
        <ele>124.2</ele>
        <time>2023-03-05T08:35:10Z</time>
      </trkpt>
      <trkpt lat="46.53137" lon="0.33353">
        <ele>124.6</ele>
        <time>2023-03-05T08:35:11Z</time>
      </trkpt>
      <trkpt lat="46.53155" lon="0.33339">
        <ele>125.4</ele>
        <time>2023-03-05T08:35:17Z</time>
      </trkpt>
      <trkpt lat="46.5316" lon="0.33333">
        <ele>125.6</ele>
        <time>2023-03-05T08:35:19Z</time>
      </trkpt>
      <trkpt lat="46.5317" lon="0.33323">
        <ele>125.8</ele>
        <time>2023-03-05T08:35:22Z</time>
      </trkpt>
      <trkpt lat="46.5318" lon="0.33306">
        <ele>125.8</ele>
        <time>2023-03-05T08:35:26Z</time>
      </trkpt>
      <trkpt lat="46.53185" lon="0.33298">
        <ele>126</ele>
        <time>2023-03-05T08:35:28Z</time>
      </trkpt>
      <trkpt lat="46.53193" lon="0.33281">
        <ele>126.2</ele>
        <time>2023-03-05T08:35:33Z</time>
      </trkpt>
      <trkpt lat="46.53203" lon="0.33284">
        <ele>126.2</ele>
        <time>2023-03-05T08:35:36Z</time>
      </trkpt>
      <trkpt lat="46.53224" lon="0.33302">
        <ele>125.8</ele>
        <time>2023-03-05T08:35:41Z</time>
      </trkpt>
      <trkpt lat="46.53228" lon="0.33307">
        <ele>125.8</ele>
        <time>2023-03-05T08:35:42Z</time>
      </trkpt>
      <trkpt lat="46.53232" lon="0.33313">
        <ele>125</ele>
        <time>2023-03-05T08:35:43Z</time>
      </trkpt>
      <trkpt lat="46.53239" lon="0.33328">
        <ele>124.4</ele>
        <time>2023-03-05T08:35:45Z</time>
      </trkpt>
      <trkpt lat="46.53242" lon="0.33337">
        <ele>124.4</ele>
        <time>2023-03-05T08:35:46Z</time>
      </trkpt>
      <trkpt lat="46.53246" lon="0.33353">
        <ele>123.8</ele>
        <time>2023-03-05T08:35:48Z</time>
      </trkpt>
      <trkpt lat="46.53249" lon="0.33361">
        <ele>123.4</ele>
        <time>2023-03-05T08:35:49Z</time>
      </trkpt>
      <trkpt lat="46.53251" lon="0.3337">
        <ele>123</ele>
        <time>2023-03-05T08:35:50Z</time>
      </trkpt>
      <trkpt lat="46.53253" lon="0.33379">
        <ele>123</ele>
        <time>2023-03-05T08:35:51Z</time>
      </trkpt>
      <trkpt lat="46.53258" lon="0.33397">
        <ele>122.8</ele>
        <time>2023-03-05T08:35:53Z</time>
      </trkpt>
      <trkpt lat="46.53262" lon="0.33416">
        <ele>122.4</ele>
        <time>2023-03-05T08:35:55Z</time>
      </trkpt>
      <trkpt lat="46.53265" lon="0.33425">
        <ele>122</ele>
        <time>2023-03-05T08:35:56Z</time>
      </trkpt>
      <trkpt lat="46.53271" lon="0.33454">
        <ele>121.4</ele>
        <time>2023-03-05T08:35:59Z</time>
      </trkpt>
      <trkpt lat="46.53276" lon="0.33462">
        <ele>121.2</ele>
        <time>2023-03-05T08:36:00Z</time>
      </trkpt>
      <trkpt lat="46.53281" lon="0.33468">
        <ele>121.2</ele>
        <time>2023-03-05T08:36:01Z</time>
      </trkpt>
      <trkpt lat="46.53287" lon="0.33472">
        <ele>120.8</ele>
        <time>2023-03-05T08:36:02Z</time>
      </trkpt>
      <trkpt lat="46.53293" lon="0.33476">
        <ele>120.6</ele>
        <time>2023-03-05T08:36:03Z</time>
      </trkpt>
      <trkpt lat="46.53298" lon="0.33478">
        <ele>120.4</ele>
        <time>2023-03-05T08:36:04Z</time>
      </trkpt>
      <trkpt lat="46.53303" lon="0.33481">
        <ele>119.4</ele>
        <time>2023-03-05T08:36:06Z</time>
      </trkpt>
      <trkpt lat="46.53303" lon="0.33476">
        <ele>119</ele>
        <time>2023-03-05T08:36:09Z</time>
      </trkpt>
      <trkpt lat="46.53292" lon="0.3348">
        <ele>119</ele>
        <time>2023-03-05T08:36:13Z</time>
      </trkpt>
      <trkpt lat="46.53285" lon="0.33488">
        <ele>119</ele>
        <time>2023-03-05T08:36:16Z</time>
      </trkpt>
      <trkpt lat="46.53284" lon="0.33493">
        <ele>119</ele>
        <time>2023-03-05T08:36:17Z</time>
      </trkpt>
      <trkpt lat="46.53286" lon="0.33521">
        <ele>118.8</ele>
        <time>2023-03-05T08:36:22Z</time>
      </trkpt>
      <trkpt lat="46.53288" lon="0.33539">
        <ele>118.4</ele>
        <time>2023-03-05T08:36:25Z</time>
      </trkpt>
      <trkpt lat="46.53287" lon="0.33555">
        <ele>117.8</ele>
        <time>2023-03-05T08:36:28Z</time>
      </trkpt>
      <trkpt lat="46.53287" lon="0.33563">
        <ele>117.4</ele>
        <time>2023-03-05T08:36:30Z</time>
      </trkpt>
      <trkpt lat="46.53287" lon="0.33573">
        <ele>116.8</ele>
        <time>2023-03-05T08:36:33Z</time>
      </trkpt>
      <trkpt lat="46.53288" lon="0.3358">
        <ele>116.6</ele>
        <time>2023-03-05T08:36:35Z</time>
      </trkpt>
      <trkpt lat="46.53291" lon="0.33581">
        <ele>116.4</ele>
        <time>2023-03-05T08:36:37Z</time>
      </trkpt>
      <trkpt lat="46.53297" lon="0.33581">
        <ele>116.2</ele>
        <time>2023-03-05T08:36:42Z</time>
      </trkpt>
      <trkpt lat="46.53297" lon="0.33581">
        <ele>116.2</ele>
        <time>2023-03-05T08:36:43Z</time>
      </trkpt>
      <trkpt lat="46.53297" lon="0.33574">
        <ele>116.4</ele>
        <time>2023-03-05T08:36:57Z</time>
      </trkpt>
      <trkpt lat="46.53296" lon="0.33561">
        <ele>116.6</ele>
        <time>2023-03-05T08:37:00Z</time>
      </trkpt>
      <trkpt lat="46.53296" lon="0.3355">
        <ele>116.6</ele>
        <time>2023-03-05T08:37:02Z</time>
      </trkpt>
      <trkpt lat="46.53294" lon="0.33534">
        <ele>117.4</ele>
        <time>2023-03-05T08:37:05Z</time>
      </trkpt>
      <trkpt lat="46.53291" lon="0.33508">
        <ele>118</ele>
        <time>2023-03-05T08:37:10Z</time>
      </trkpt>
      <trkpt lat="46.53289" lon="0.33488">
        <ele>118.2</ele>
        <time>2023-03-05T08:37:14Z</time>
      </trkpt>
      <trkpt lat="46.53294" lon="0.3348">
        <ele>118.4</ele>
        <time>2023-03-05T08:37:17Z</time>
      </trkpt>
      <trkpt lat="46.53296" lon="0.33478">
        <ele>118.6</ele>
        <time>2023-03-05T08:37:18Z</time>
      </trkpt>
      <trkpt lat="46.53303" lon="0.33477">
        <ele>118.6</ele>
        <time>2023-03-05T08:37:20Z</time>
      </trkpt>
      <trkpt lat="46.53307" lon="0.33478">
        <ele>118.6</ele>
        <time>2023-03-05T08:37:21Z</time>
      </trkpt>
      <trkpt lat="46.53323" lon="0.3349">
        <ele>118.6</ele>
        <time>2023-03-05T08:37:26Z</time>
      </trkpt>
      <trkpt lat="46.53355" lon="0.33516">
        <ele>118.8</ele>
        <time>2023-03-05T08:37:33Z</time>
      </trkpt>
      <trkpt lat="46.53391" lon="0.33539">
        <ele>118.2</ele>
        <time>2023-03-05T08:37:40Z</time>
      </trkpt>
      <trkpt lat="46.53401" lon="0.33539">
        <ele>118</ele>
        <time>2023-03-05T08:37:42Z</time>
      </trkpt>
      <trkpt lat="46.53406" lon="0.33537">
        <ele>118</ele>
        <time>2023-03-05T08:37:43Z</time>
      </trkpt>
      <trkpt lat="46.53423" lon="0.33531">
        <ele>117.4</ele>
        <time>2023-03-05T08:37:46Z</time>
      </trkpt>
      <trkpt lat="46.53442" lon="0.33525">
        <ele>117.2</ele>
        <time>2023-03-05T08:37:49Z</time>
      </trkpt>
      <trkpt lat="46.53472" lon="0.33517">
        <ele>116.4</ele>
        <time>2023-03-05T08:37:54Z</time>
      </trkpt>
      <trkpt lat="46.53477" lon="0.33515">
        <ele>116.2</ele>
        <time>2023-03-05T08:37:55Z</time>
      </trkpt>
      <trkpt lat="46.53502" lon="0.33504">
        <ele>116.4</ele>
        <time>2023-03-05T08:38:00Z</time>
      </trkpt>
      <trkpt lat="46.53512" lon="0.33497">
        <ele>116.8</ele>
        <time>2023-03-05T08:38:03Z</time>
      </trkpt>
      <trkpt lat="46.53514" lon="0.33496">
        <ele>116.8</ele>
        <time>2023-03-05T08:38:04Z</time>
      </trkpt>
      <trkpt lat="46.53516" lon="0.33497">
        <ele>116.8</ele>
        <time>2023-03-05T08:38:05Z</time>
      </trkpt>
      <trkpt lat="46.5352" lon="0.33502">
        <ele>116.6</ele>
        <time>2023-03-05T08:38:07Z</time>
      </trkpt>
      <trkpt lat="46.53522" lon="0.33506">
        <ele>116.4</ele>
        <time>2023-03-05T08:38:08Z</time>
      </trkpt>
      <trkpt lat="46.53537" lon="0.33527">
        <ele>115.4</ele>
        <time>2023-03-05T08:38:12Z</time>
      </trkpt>
      <trkpt lat="46.53542" lon="0.33532">
        <ele>115.2</ele>
        <time>2023-03-05T08:38:13Z</time>
      </trkpt>
      <trkpt lat="46.53563" lon="0.33559">
        <ele>113.8</ele>
        <time>2023-03-05T08:38:18Z</time>
      </trkpt>
      <trkpt lat="46.53568" lon="0.33565">
        <ele>113.4</ele>
        <time>2023-03-05T08:38:19Z</time>
      </trkpt>
      <trkpt lat="46.53577" lon="0.33577">
        <ele>112.6</ele>
        <time>2023-03-05T08:38:21Z</time>
      </trkpt>
      <trkpt lat="46.53589" lon="0.33591">
        <ele>112</ele>
        <time>2023-03-05T08:38:23Z</time>
      </trkpt>
      <trkpt lat="46.53596" lon="0.33599">
        <ele>110.6</ele>
        <time>2023-03-05T08:38:24Z</time>
      </trkpt>
      <trkpt lat="46.53608" lon="0.33611">
        <ele>109</ele>
        <time>2023-03-05T08:38:26Z</time>
      </trkpt>
      <trkpt lat="46.5362" lon="0.33624">
        <ele>108.2</ele>
        <time>2023-03-05T08:38:28Z</time>
      </trkpt>
      <trkpt lat="46.53627" lon="0.33632">
        <ele>107.4</ele>
        <time>2023-03-05T08:38:29Z</time>
      </trkpt>
      <trkpt lat="46.53634" lon="0.33639">
        <ele>105.8</ele>
        <time>2023-03-05T08:38:30Z</time>
      </trkpt>
      <trkpt lat="46.5364" lon="0.33645">
        <ele>103.4</ele>
        <time>2023-03-05T08:38:31Z</time>
      </trkpt>
      <trkpt lat="46.53645" lon="0.3365">
        <ele>102.2</ele>
        <time>2023-03-05T08:38:32Z</time>
      </trkpt>
      <trkpt lat="46.5365" lon="0.33653">
        <ele>101</ele>
        <time>2023-03-05T08:38:33Z</time>
      </trkpt>
      <trkpt lat="46.53654" lon="0.33656">
        <ele>100.4</ele>
        <time>2023-03-05T08:38:34Z</time>
      </trkpt>
      <trkpt lat="46.53657" lon="0.3366">
        <ele>99.8</ele>
        <time>2023-03-05T08:38:35Z</time>
      </trkpt>
      <trkpt lat="46.53658" lon="0.33663">
        <ele>99.4</ele>
        <time>2023-03-05T08:38:36Z</time>
      </trkpt>
      <trkpt lat="46.53659" lon="0.33668">
        <ele>98.6</ele>
        <time>2023-03-05T08:38:37Z</time>
      </trkpt>
      <trkpt lat="46.53656" lon="0.33681">
        <ele>98</ele>
        <time>2023-03-05T08:38:39Z</time>
      </trkpt>
      <trkpt lat="46.53641" lon="0.33721">
        <ele>98.2</ele>
        <time>2023-03-05T08:38:44Z</time>
      </trkpt>
      <trkpt lat="46.53634" lon="0.33733">
        <ele>99.4</ele>
        <time>2023-03-05T08:38:46Z</time>
      </trkpt>
      <trkpt lat="46.5363" lon="0.33738">
        <ele>100</ele>
        <time>2023-03-05T08:38:47Z</time>
      </trkpt>
      <trkpt lat="46.53626" lon="0.33743">
        <ele>100.6</ele>
        <time>2023-03-05T08:38:48Z</time>
      </trkpt>
      <trkpt lat="46.53622" lon="0.33749">
        <ele>101</ele>
        <time>2023-03-05T08:38:49Z</time>
      </trkpt>
      <trkpt lat="46.53618" lon="0.33753">
        <ele>101.2</ele>
        <time>2023-03-05T08:38:50Z</time>
      </trkpt>
      <trkpt lat="46.53613" lon="0.33755">
        <ele>101.4</ele>
        <time>2023-03-05T08:38:51Z</time>
      </trkpt>
      <trkpt lat="46.53609" lon="0.33757">
        <ele>101.4</ele>
        <time>2023-03-05T08:38:52Z</time>
      </trkpt>
      <trkpt lat="46.53604" lon="0.33758">
        <ele>101.8</ele>
        <time>2023-03-05T08:38:53Z</time>
      </trkpt>
      <trkpt lat="46.536" lon="0.3376">
        <ele>102.4</ele>
        <time>2023-03-05T08:38:54Z</time>
      </trkpt>
      <trkpt lat="46.53597" lon="0.33762">
        <ele>102.8</ele>
        <time>2023-03-05T08:38:55Z</time>
      </trkpt>
      <trkpt lat="46.53593" lon="0.33773">
        <ele>103</ele>
        <time>2023-03-05T08:38:57Z</time>
      </trkpt>
      <trkpt lat="46.53593" lon="0.33781">
        <ele>102.6</ele>
        <time>2023-03-05T08:38:58Z</time>
      </trkpt>
      <trkpt lat="46.5359" lon="0.33827">
        <ele>102.2</ele>
        <time>2023-03-05T08:39:03Z</time>
      </trkpt>
      <trkpt lat="46.53594" lon="0.33847">
        <ele>101.4</ele>
        <time>2023-03-05T08:39:05Z</time>
      </trkpt>
      <trkpt lat="46.53597" lon="0.33855">
        <ele>101.2</ele>
        <time>2023-03-05T08:39:06Z</time>
      </trkpt>
      <trkpt lat="46.53601" lon="0.33862">
        <ele>100.4</ele>
        <time>2023-03-05T08:39:07Z</time>
      </trkpt>
      <trkpt lat="46.53606" lon="0.33867">
        <ele>99.6</ele>
        <time>2023-03-05T08:39:08Z</time>
      </trkpt>
      <trkpt lat="46.53618" lon="0.3388">
        <ele>98.8</ele>
        <time>2023-03-05T08:39:10Z</time>
      </trkpt>
      <trkpt lat="46.53625" lon="0.33886">
        <ele>98.4</ele>
        <time>2023-03-05T08:39:11Z</time>
      </trkpt>
      <trkpt lat="46.53649" lon="0.33901">
        <ele>97.4</ele>
        <time>2023-03-05T08:39:14Z</time>
      </trkpt>
      <trkpt lat="46.53657" lon="0.33906">
        <ele>96.8</ele>
        <time>2023-03-05T08:39:15Z</time>
      </trkpt>
      <trkpt lat="46.53678" lon="0.33919">
        <ele>95.8</ele>
        <time>2023-03-05T08:39:18Z</time>
      </trkpt>
      <trkpt lat="46.53684" lon="0.33923">
        <ele>95.4</ele>
        <time>2023-03-05T08:39:19Z</time>
      </trkpt>
      <trkpt lat="46.53691" lon="0.33929">
        <ele>94.6</ele>
        <time>2023-03-05T08:39:20Z</time>
      </trkpt>
      <trkpt lat="46.53704" lon="0.33941">
        <ele>93</ele>
        <time>2023-03-05T08:39:22Z</time>
      </trkpt>
      <trkpt lat="46.5371" lon="0.33947">
        <ele>91.6</ele>
        <time>2023-03-05T08:39:23Z</time>
      </trkpt>
      <trkpt lat="46.53718" lon="0.33954">
        <ele>91</ele>
        <time>2023-03-05T08:39:24Z</time>
      </trkpt>
      <trkpt lat="46.53724" lon="0.3396">
        <ele>89.2</ele>
        <time>2023-03-05T08:39:25Z</time>
      </trkpt>
      <trkpt lat="46.53729" lon="0.33967">
        <ele>88</ele>
        <time>2023-03-05T08:39:26Z</time>
      </trkpt>
      <trkpt lat="46.53734" lon="0.33976">
        <ele>86.4</ele>
        <time>2023-03-05T08:39:27Z</time>
      </trkpt>
      <trkpt lat="46.53738" lon="0.33985">
        <ele>85.4</ele>
        <time>2023-03-05T08:39:28Z</time>
      </trkpt>
      <trkpt lat="46.53743" lon="0.33997">
        <ele>84.4</ele>
        <time>2023-03-05T08:39:29Z</time>
      </trkpt>
      <trkpt lat="46.53747" lon="0.34008">
        <ele>83.4</ele>
        <time>2023-03-05T08:39:30Z</time>
      </trkpt>
      <trkpt lat="46.5375" lon="0.34018">
        <ele>82.4</ele>
        <time>2023-03-05T08:39:31Z</time>
      </trkpt>
      <trkpt lat="46.53751" lon="0.34027">
        <ele>80.6</ele>
        <time>2023-03-05T08:39:32Z</time>
      </trkpt>
      <trkpt lat="46.53751" lon="0.34035">
        <ele>79</ele>
        <time>2023-03-05T08:39:33Z</time>
      </trkpt>
      <trkpt lat="46.53748" lon="0.34046">
        <ele>77.8</ele>
        <time>2023-03-05T08:39:35Z</time>
      </trkpt>
      <trkpt lat="46.53743" lon="0.3404">
        <ele>77.6</ele>
        <time>2023-03-05T08:39:38Z</time>
      </trkpt>
      <trkpt lat="46.53727" lon="0.34025">
        <ele>77.6</ele>
        <time>2023-03-05T08:39:42Z</time>
      </trkpt>
      <trkpt lat="46.53722" lon="0.34021">
        <ele>77.6</ele>
        <time>2023-03-05T08:39:43Z</time>
      </trkpt>
      <trkpt lat="46.53706" lon="0.34007">
        <ele>78</ele>
        <time>2023-03-05T08:39:46Z</time>
      </trkpt>
      <trkpt lat="46.53701" lon="0.34003">
        <ele>78</ele>
        <time>2023-03-05T08:39:47Z</time>
      </trkpt>
      <trkpt lat="46.53669" lon="0.33978">
        <ele>77.8</ele>
        <time>2023-03-05T08:39:53Z</time>
      </trkpt>
      <trkpt lat="46.53629" lon="0.33954">
        <ele>77.4</ele>
        <time>2023-03-05T08:40:00Z</time>
      </trkpt>
      <trkpt lat="46.53617" lon="0.33948">
        <ele>77.4</ele>
        <time>2023-03-05T08:40:01Z</time>
      </trkpt>
      <trkpt lat="46.53611" lon="0.33944">
        <ele>77.4</ele>
        <time>2023-03-05T08:40:03Z</time>
      </trkpt>
      <trkpt lat="46.53601" lon="0.33936">
        <ele>77.6</ele>
        <time>2023-03-05T08:40:05Z</time>
      </trkpt>
      <trkpt lat="46.53571" lon="0.33917">
        <ele>77.8</ele>
        <time>2023-03-05T08:40:11Z</time>
      </trkpt>
      <trkpt lat="46.53551" lon="0.33901">
        <ele>77.6</ele>
        <time>2023-03-05T08:40:15Z</time>
      </trkpt>
      <trkpt lat="46.53547" lon="0.33895">
        <ele>77.6</ele>
        <time>2023-03-05T08:40:16Z</time>
      </trkpt>
      <trkpt lat="46.53542" lon="0.3389">
        <ele>77.4</ele>
        <time>2023-03-05T08:40:17Z</time>
      </trkpt>
      <trkpt lat="46.5352" lon="0.33871">
        <ele>77</ele>
        <time>2023-03-05T08:40:21Z</time>
      </trkpt>
      <trkpt lat="46.53509" lon="0.33862">
        <ele>77.2</ele>
        <time>2023-03-05T08:40:23Z</time>
      </trkpt>
      <trkpt lat="46.53492" lon="0.33849">
        <ele>77.6</ele>
        <time>2023-03-05T08:40:26Z</time>
      </trkpt>
      <trkpt lat="46.5347" lon="0.33833">
        <ele>77.4</ele>
        <time>2023-03-05T08:40:30Z</time>
      </trkpt>
      <trkpt lat="46.53459" lon="0.33826">
        <ele>77</ele>
        <time>2023-03-05T08:40:32Z</time>
      </trkpt>
      <trkpt lat="46.53441" lon="0.3382">
        <ele>76.8</ele>
        <time>2023-03-05T08:40:35Z</time>
      </trkpt>
      <trkpt lat="46.5343" lon="0.33815">
        <ele>76.4</ele>
        <time>2023-03-05T08:40:37Z</time>
      </trkpt>
      <trkpt lat="46.534" lon="0.33801">
        <ele>76.8</ele>
        <time>2023-03-05T08:40:42Z</time>
      </trkpt>
      <trkpt lat="46.53376" lon="0.33789">
        <ele>77.2</ele>
        <time>2023-03-05T08:40:46Z</time>
      </trkpt>
      <trkpt lat="46.53371" lon="0.33786">
        <ele>77.2</ele>
        <time>2023-03-05T08:40:47Z</time>
      </trkpt>
      <trkpt lat="46.53344" lon="0.33772">
        <ele>77.6</ele>
        <time>2023-03-05T08:40:52Z</time>
      </trkpt>
      <trkpt lat="46.53325" lon="0.33761">
        <ele>77.4</ele>
        <time>2023-03-05T08:40:55Z</time>
      </trkpt>
      <trkpt lat="46.5332" lon="0.33757">
        <ele>77.4</ele>
        <time>2023-03-05T08:40:56Z</time>
      </trkpt>
      <trkpt lat="46.53314" lon="0.33753">
        <ele>77.2</ele>
        <time>2023-03-05T08:40:57Z</time>
      </trkpt>
      <trkpt lat="46.53297" lon="0.33743">
        <ele>77.4</ele>
        <time>2023-03-05T08:41:00Z</time>
      </trkpt>
      <trkpt lat="46.53281" lon="0.33732">
        <ele>77.8</ele>
        <time>2023-03-05T08:41:03Z</time>
      </trkpt>
      <trkpt lat="46.53275" lon="0.33729">
        <ele>77.8</ele>
        <time>2023-03-05T08:41:04Z</time>
      </trkpt>
      <trkpt lat="46.53252" lon="0.33718">
        <ele>77.6</ele>
        <time>2023-03-05T08:41:08Z</time>
      </trkpt>
      <trkpt lat="46.53223" lon="0.33703">
        <ele>77.8</ele>
        <time>2023-03-05T08:41:13Z</time>
      </trkpt>
      <trkpt lat="46.53217" lon="0.33699">
        <ele>77.8</ele>
        <time>2023-03-05T08:41:14Z</time>
      </trkpt>
      <trkpt lat="46.53205" lon="0.33693">
        <ele>77.2</ele>
        <time>2023-03-05T08:41:16Z</time>
      </trkpt>
      <trkpt lat="46.53181" lon="0.33681">
        <ele>77</ele>
        <time>2023-03-05T08:41:20Z</time>
      </trkpt>
      <trkpt lat="46.5315" lon="0.33666">
        <ele>77.2</ele>
        <time>2023-03-05T08:41:25Z</time>
      </trkpt>
      <trkpt lat="46.53122" lon="0.33652">
        <ele>77</ele>
        <time>2023-03-05T08:41:30Z</time>
      </trkpt>
      <trkpt lat="46.53113" lon="0.33648">
        <ele>77</ele>
        <time>2023-03-05T08:41:32Z</time>
      </trkpt>
      <trkpt lat="46.53106" lon="0.3365">
        <ele>77</ele>
        <time>2023-03-05T08:41:34Z</time>
      </trkpt>
      <trkpt lat="46.53085" lon="0.33655">
        <ele>77</ele>
        <time>2023-03-05T08:41:39Z</time>
      </trkpt>
      <trkpt lat="46.53061" lon="0.33665">
        <ele>77</ele>
        <time>2023-03-05T08:41:43Z</time>
      </trkpt>
      <trkpt lat="46.5303" lon="0.33679">
        <ele>77.2</ele>
        <time>2023-03-05T08:41:48Z</time>
      </trkpt>
      <trkpt lat="46.53024" lon="0.33681">
        <ele>77.2</ele>
        <time>2023-03-05T08:41:49Z</time>
      </trkpt>
      <trkpt lat="46.52975" lon="0.33688">
        <ele>77.8</ele>
        <time>2023-03-05T08:41:56Z</time>
      </trkpt>
      <trkpt lat="46.52962" lon="0.33685">
        <ele>77.6</ele>
        <time>2023-03-05T08:41:58Z</time>
      </trkpt>
      <trkpt lat="46.52955" lon="0.33682">
        <ele>77.6</ele>
        <time>2023-03-05T08:41:59Z</time>
      </trkpt>
      <trkpt lat="46.52897" lon="0.33662">
        <ele>78.2</ele>
        <time>2023-03-05T08:42:08Z</time>
      </trkpt>
      <trkpt lat="46.5285" lon="0.33645">
        <ele>77.6</ele>
        <time>2023-03-05T08:42:16Z</time>
      </trkpt>
      <trkpt lat="46.52813" lon="0.33634">
        <ele>77.4</ele>
        <time>2023-03-05T08:42:22Z</time>
      </trkpt>
      <trkpt lat="46.52775" lon="0.33637">
        <ele>77.4</ele>
        <time>2023-03-05T08:42:28Z</time>
      </trkpt>
      <trkpt lat="46.52763" lon="0.33635">
        <ele>77.2</ele>
        <time>2023-03-05T08:42:30Z</time>
      </trkpt>
      <trkpt lat="46.52747" lon="0.33628">
        <ele>77.4</ele>
        <time>2023-03-05T08:42:33Z</time>
      </trkpt>
      <trkpt lat="46.52726" lon="0.33619">
        <ele>77.6</ele>
        <time>2023-03-05T08:42:37Z</time>
      </trkpt>
      <trkpt lat="46.52714" lon="0.33617">
        <ele>78</ele>
        <time>2023-03-05T08:42:39Z</time>
      </trkpt>
      <trkpt lat="46.52674" lon="0.33616">
        <ele>78</ele>
        <time>2023-03-05T08:42:46Z</time>
      </trkpt>
      <trkpt lat="46.52654" lon="0.3362">
        <ele>77.8</ele>
        <time>2023-03-05T08:42:50Z</time>
      </trkpt>
      <trkpt lat="46.52644" lon="0.3362">
        <ele>77.6</ele>
        <time>2023-03-05T08:42:52Z</time>
      </trkpt>
      <trkpt lat="46.52628" lon="0.33615">
        <ele>78.8</ele>
        <time>2023-03-05T08:42:56Z</time>
      </trkpt>
      <trkpt lat="46.52624" lon="0.33614">
        <ele>79</ele>
        <time>2023-03-05T08:42:57Z</time>
      </trkpt>
      <trkpt lat="46.52605" lon="0.33616">
        <ele>80.2</ele>
        <time>2023-03-05T08:43:02Z</time>
      </trkpt>
      <trkpt lat="46.52592" lon="0.33619">
        <ele>81.2</ele>
        <time>2023-03-05T08:43:06Z</time>
      </trkpt>
      <trkpt lat="46.52583" lon="0.33622">
        <ele>81.6</ele>
        <time>2023-03-05T08:43:09Z</time>
      </trkpt>
      <trkpt lat="46.52565" lon="0.33625">
        <ele>82.2</ele>
        <time>2023-03-05T08:43:15Z</time>
      </trkpt>
      <trkpt lat="46.52559" lon="0.33625">
        <ele>83</ele>
        <time>2023-03-05T08:43:17Z</time>
      </trkpt>
      <trkpt lat="46.52556" lon="0.33625">
        <ele>83.4</ele>
        <time>2023-03-05T08:43:18Z</time>
      </trkpt>
      <trkpt lat="46.52547" lon="0.33624">
        <ele>84.4</ele>
        <time>2023-03-05T08:43:21Z</time>
      </trkpt>
      <trkpt lat="46.52542" lon="0.33621">
        <ele>85</ele>
        <time>2023-03-05T08:43:23Z</time>
      </trkpt>
      <trkpt lat="46.52531" lon="0.33619">
        <ele>85.6</ele>
        <time>2023-03-05T08:43:27Z</time>
      </trkpt>
      <trkpt lat="46.52528" lon="0.33622">
        <ele>85.8</ele>
        <time>2023-03-05T08:43:28Z</time>
      </trkpt>
      <trkpt lat="46.52517" lon="0.33646">
        <ele>85.8</ele>
        <time>2023-03-05T08:43:32Z</time>
      </trkpt>
      <trkpt lat="46.52513" lon="0.33653">
        <ele>85.8</ele>
        <time>2023-03-05T08:43:33Z</time>
      </trkpt>
      <trkpt lat="46.52506" lon="0.3367">
        <ele>85.4</ele>
        <time>2023-03-05T08:43:35Z</time>
      </trkpt>
      <trkpt lat="46.52504" lon="0.33681">
        <ele>84.6</ele>
        <time>2023-03-05T08:43:36Z</time>
      </trkpt>
      <trkpt lat="46.52503" lon="0.33692">
        <ele>84</ele>
        <time>2023-03-05T08:43:37Z</time>
      </trkpt>
      <trkpt lat="46.52503" lon="0.33704">
        <ele>83</ele>
        <time>2023-03-05T08:43:38Z</time>
      </trkpt>
      <trkpt lat="46.52501" lon="0.33714">
        <ele>82.6</ele>
        <time>2023-03-05T08:43:39Z</time>
      </trkpt>
      <trkpt lat="46.52497" lon="0.33724">
        <ele>81.4</ele>
        <time>2023-03-05T08:43:40Z</time>
      </trkpt>
      <trkpt lat="46.52492" lon="0.33733">
        <ele>80.8</ele>
        <time>2023-03-05T08:43:41Z</time>
      </trkpt>
      <trkpt lat="46.52482" lon="0.33749">
        <ele>79.8</ele>
        <time>2023-03-05T08:43:43Z</time>
      </trkpt>
      <trkpt lat="46.52476" lon="0.33757">
        <ele>79.4</ele>
        <time>2023-03-05T08:43:44Z</time>
      </trkpt>
      <trkpt lat="46.52454" lon="0.33783">
        <ele>78.8</ele>
        <time>2023-03-05T08:43:48Z</time>
      </trkpt>
      <trkpt lat="46.52448" lon="0.3379">
        <ele>78.8</ele>
        <time>2023-03-05T08:43:49Z</time>
      </trkpt>
      <trkpt lat="46.52418" lon="0.33821">
        <ele>79.6</ele>
        <time>2023-03-05T08:43:54Z</time>
      </trkpt>
      <trkpt lat="46.52413" lon="0.33826">
        <ele>79.4</ele>
        <time>2023-03-05T08:43:55Z</time>
      </trkpt>
      <trkpt lat="46.52403" lon="0.33834">
        <ele>79.2</ele>
        <time>2023-03-05T08:43:57Z</time>
      </trkpt>
      <trkpt lat="46.52393" lon="0.33841">
        <ele>79.4</ele>
        <time>2023-03-05T08:43:59Z</time>
      </trkpt>
      <trkpt lat="46.52388" lon="0.33844">
        <ele>79.4</ele>
        <time>2023-03-05T08:44:00Z</time>
      </trkpt>
      <trkpt lat="46.52372" lon="0.33857">
        <ele>79.6</ele>
        <time>2023-03-05T08:44:03Z</time>
      </trkpt>
      <trkpt lat="46.5235" lon="0.33874">
        <ele>80</ele>
        <time>2023-03-05T08:44:07Z</time>
      </trkpt>
      <trkpt lat="46.52338" lon="0.33881">
        <ele>79.6</ele>
        <time>2023-03-05T08:44:09Z</time>
      </trkpt>
      <trkpt lat="46.5231" lon="0.339">
        <ele>79.8</ele>
        <time>2023-03-05T08:44:14Z</time>
      </trkpt>
      <trkpt lat="46.52283" lon="0.3392">
        <ele>80</ele>
        <time>2023-03-05T08:44:19Z</time>
      </trkpt>
      <trkpt lat="46.52272" lon="0.33928">
        <ele>80.2</ele>
        <time>2023-03-05T08:44:21Z</time>
      </trkpt>
      <trkpt lat="46.52235" lon="0.33963">
        <ele>79.4</ele>
        <time>2023-03-05T08:44:28Z</time>
      </trkpt>
      <trkpt lat="46.52218" lon="0.33979">
        <ele>79.4</ele>
        <time>2023-03-05T08:44:31Z</time>
      </trkpt>
      <trkpt lat="46.52205" lon="0.33984">
        <ele>79.4</ele>
        <time>2023-03-05T08:44:33Z</time>
      </trkpt>
      <trkpt lat="46.52161" lon="0.33989">
        <ele>79</ele>
        <time>2023-03-05T08:44:40Z</time>
      </trkpt>
      <trkpt lat="46.52132" lon="0.33982">
        <ele>79.2</ele>
        <time>2023-03-05T08:44:45Z</time>
      </trkpt>
      <trkpt lat="46.5211" lon="0.33973">
        <ele>78.8</ele>
        <time>2023-03-05T08:44:49Z</time>
      </trkpt>
      <trkpt lat="46.52095" lon="0.33966">
        <ele>78.6</ele>
        <time>2023-03-05T08:44:52Z</time>
      </trkpt>
      <trkpt lat="46.52089" lon="0.33959">
        <ele>78.6</ele>
        <time>2023-03-05T08:44:54Z</time>
      </trkpt>
      <trkpt lat="46.52086" lon="0.33953">
        <ele>78.8</ele>
        <time>2023-03-05T08:44:55Z</time>
      </trkpt>
      <trkpt lat="46.52085" lon="0.33947">
        <ele>78.8</ele>
        <time>2023-03-05T08:44:56Z</time>
      </trkpt>
      <trkpt lat="46.52078" lon="0.3392">
        <ele>79.2</ele>
        <time>2023-03-05T08:45:00Z</time>
      </trkpt>
      <trkpt lat="46.5207" lon="0.3387">
        <ele>79.8</ele>
        <time>2023-03-05T08:45:06Z</time>
      </trkpt>
      <trkpt lat="46.52066" lon="0.33831">
        <ele>79.8</ele>
        <time>2023-03-05T08:45:10Z</time>
      </trkpt>
      <trkpt lat="46.52065" lon="0.33812">
        <ele>80</ele>
        <time>2023-03-05T08:45:12Z</time>
      </trkpt>
      <trkpt lat="46.52066" lon="0.33803">
        <ele>80.2</ele>
        <time>2023-03-05T08:45:13Z</time>
      </trkpt>
      <trkpt lat="46.5207" lon="0.33765">
        <ele>80.2</ele>
        <time>2023-03-05T08:45:17Z</time>
      </trkpt>
      <trkpt lat="46.52072" lon="0.3375">
        <ele>80.2</ele>
        <time>2023-03-05T08:45:19Z</time>
      </trkpt>
      <trkpt lat="46.5207" lon="0.33746">
        <ele>80.2</ele>
        <time>2023-03-05T08:45:20Z</time>
      </trkpt>
      <trkpt lat="46.52063" lon="0.33741">
        <ele>80</ele>
        <time>2023-03-05T08:45:22Z</time>
      </trkpt>
      <trkpt lat="46.52058" lon="0.3374">
        <ele>79.8</ele>
        <time>2023-03-05T08:45:23Z</time>
      </trkpt>
      <trkpt lat="46.52026" lon="0.33733">
        <ele>79.2</ele>
        <time>2023-03-05T08:45:29Z</time>
      </trkpt>
      <trkpt lat="46.52003" lon="0.33728">
        <ele>78.8</ele>
        <time>2023-03-05T08:45:34Z</time>
      </trkpt>
      <trkpt lat="46.51995" lon="0.33722">
        <ele>78.8</ele>
        <time>2023-03-05T08:45:36Z</time>
      </trkpt>
      <trkpt lat="46.51992" lon="0.33716">
        <ele>78.8</ele>
        <time>2023-03-05T08:45:37Z</time>
      </trkpt>
      <trkpt lat="46.51981" lon="0.33692">
        <ele>78.8</ele>
        <time>2023-03-05T08:45:41Z</time>
      </trkpt>
      <trkpt lat="46.51978" lon="0.33679">
        <ele>79.4</ele>
        <time>2023-03-05T08:45:43Z</time>
      </trkpt>
      <trkpt lat="46.51978" lon="0.33672">
        <ele>79.4</ele>
        <time>2023-03-05T08:45:44Z</time>
      </trkpt>
      <trkpt lat="46.51977" lon="0.33664">
        <ele>79.6</ele>
        <time>2023-03-05T08:45:45Z</time>
      </trkpt>
      <trkpt lat="46.51973" lon="0.33649">
        <ele>79.6</ele>
        <time>2023-03-05T08:45:47Z</time>
      </trkpt>
      <trkpt lat="46.5197" lon="0.33641">
        <ele>79.6</ele>
        <time>2023-03-05T08:45:48Z</time>
      </trkpt>
      <trkpt lat="46.51951" lon="0.33582">
        <ele>79.6</ele>
        <time>2023-03-05T08:45:55Z</time>
      </trkpt>
      <trkpt lat="46.51935" lon="0.33532">
        <ele>79.6</ele>
        <time>2023-03-05T08:46:01Z</time>
      </trkpt>
      <trkpt lat="46.5192" lon="0.33478">
        <ele>79.4</ele>
        <time>2023-03-05T08:46:08Z</time>
      </trkpt>
      <trkpt lat="46.51915" lon="0.33463">
        <ele>79.4</ele>
        <time>2023-03-05T08:46:10Z</time>
      </trkpt>
      <trkpt lat="46.5191" lon="0.33447">
        <ele>79.6</ele>
        <time>2023-03-05T08:46:12Z</time>
      </trkpt>
      <trkpt lat="46.51906" lon="0.33432">
        <ele>79.6</ele>
        <time>2023-03-05T08:46:14Z</time>
      </trkpt>
      <trkpt lat="46.519" lon="0.33414">
        <ele>79.6</ele>
        <time>2023-03-05T08:46:17Z</time>
      </trkpt>
      <trkpt lat="46.51897" lon="0.33412">
        <ele>79.6</ele>
        <time>2023-03-05T08:46:18Z</time>
      </trkpt>
      <trkpt lat="46.51894" lon="0.3341">
        <ele>79.6</ele>
        <time>2023-03-05T08:46:19Z</time>
      </trkpt>
      <trkpt lat="46.51881" lon="0.33414">
        <ele>79.6</ele>
        <time>2023-03-05T08:46:22Z</time>
      </trkpt>
      <trkpt lat="46.51867" lon="0.33418">
        <ele>79.8</ele>
        <time>2023-03-05T08:46:26Z</time>
      </trkpt>
      <trkpt lat="46.51864" lon="0.33419">
        <ele>79.8</ele>
        <time>2023-03-05T08:46:27Z</time>
      </trkpt>
      <trkpt lat="46.51861" lon="0.33418">
        <ele>79.8</ele>
        <time>2023-03-05T08:46:28Z</time>
      </trkpt>
      <trkpt lat="46.51857" lon="0.33413">
        <ele>80</ele>
        <time>2023-03-05T08:46:30Z</time>
      </trkpt>
      <trkpt lat="46.51849" lon="0.33397">
        <ele>80</ele>
        <time>2023-03-05T08:46:35Z</time>
      </trkpt>
      <trkpt lat="46.51837" lon="0.33394">
        <ele>80.6</ele>
        <time>2023-03-05T08:46:38Z</time>
      </trkpt>
      <trkpt lat="46.51833" lon="0.33397">
        <ele>80.8</ele>
        <time>2023-03-05T08:46:39Z</time>
      </trkpt>
      <trkpt lat="46.51819" lon="0.33406">
        <ele>80.8</ele>
        <time>2023-03-05T08:46:42Z</time>
      </trkpt>
      <trkpt lat="46.51805" lon="0.33416">
        <ele>80.6</ele>
        <time>2023-03-05T08:46:45Z</time>
      </trkpt>
      <trkpt lat="46.51794" lon="0.33419">
        <ele>80.6</ele>
        <time>2023-03-05T08:46:47Z</time>
      </trkpt>
      <trkpt lat="46.51766" lon="0.33428">
        <ele>80.8</ele>
        <time>2023-03-05T08:46:52Z</time>
      </trkpt>
      <trkpt lat="46.51761" lon="0.33431">
        <ele>81</ele>
        <time>2023-03-05T08:46:53Z</time>
      </trkpt>
      <trkpt lat="46.51729" lon="0.33458">
        <ele>81.2</ele>
        <time>2023-03-05T08:46:59Z</time>
      </trkpt>
      <trkpt lat="46.51695" lon="0.3349">
        <ele>81</ele>
        <time>2023-03-05T08:47:05Z</time>
      </trkpt>
      <trkpt lat="46.5169" lon="0.33495">
        <ele>80.8</ele>
        <time>2023-03-05T08:47:06Z</time>
      </trkpt>
      <trkpt lat="46.51654" lon="0.33529">
        <ele>80.8</ele>
        <time>2023-03-05T08:47:13Z</time>
      </trkpt>
      <trkpt lat="46.51648" lon="0.33533">
        <ele>80.8</ele>
        <time>2023-03-05T08:47:14Z</time>
      </trkpt>
      <trkpt lat="46.51629" lon="0.33552">
        <ele>80.8</ele>
        <time>2023-03-05T08:47:18Z</time>
      </trkpt>
      <trkpt lat="46.51612" lon="0.33569">
        <ele>80.8</ele>
        <time>2023-03-05T08:47:22Z</time>
      </trkpt>
      <trkpt lat="46.5161" lon="0.33574">
        <ele>80.8</ele>
        <time>2023-03-05T08:47:23Z</time>
      </trkpt>
      <trkpt lat="46.51602" lon="0.33591">
        <ele>80.8</ele>
        <time>2023-03-05T08:47:26Z</time>
      </trkpt>
      <trkpt lat="46.51595" lon="0.33603">
        <ele>80.8</ele>
        <time>2023-03-05T08:47:28Z</time>
      </trkpt>
      <trkpt lat="46.51576" lon="0.33638">
        <ele>80.8</ele>
        <time>2023-03-05T08:47:33Z</time>
      </trkpt>
      <trkpt lat="46.51568" lon="0.33652">
        <ele>80.4</ele>
        <time>2023-03-05T08:47:35Z</time>
      </trkpt>
      <trkpt lat="46.51562" lon="0.33668">
        <ele>80.2</ele>
        <time>2023-03-05T08:47:37Z</time>
      </trkpt>
      <trkpt lat="46.51556" lon="0.33702">
        <ele>80</ele>
        <time>2023-03-05T08:47:41Z</time>
      </trkpt>
      <trkpt lat="46.51555" lon="0.33718">
        <ele>80</ele>
        <time>2023-03-05T08:47:43Z</time>
      </trkpt>
      <trkpt lat="46.51555" lon="0.33741">
        <ele>80</ele>
        <time>2023-03-05T08:47:46Z</time>
      </trkpt>
      <trkpt lat="46.51558" lon="0.3375">
        <ele>80</ele>
        <time>2023-03-05T08:47:47Z</time>
      </trkpt>
      <trkpt lat="46.5156" lon="0.33758">
        <ele>80</ele>
        <time>2023-03-05T08:47:48Z</time>
      </trkpt>
      <trkpt lat="46.5156" lon="0.33766">
        <ele>79.6</ele>
        <time>2023-03-05T08:47:49Z</time>
      </trkpt>
      <trkpt lat="46.51558" lon="0.33782">
        <ele>79.4</ele>
        <time>2023-03-05T08:47:51Z</time>
      </trkpt>
      <trkpt lat="46.51552" lon="0.33794">
        <ele>79</ele>
        <time>2023-03-05T08:47:53Z</time>
      </trkpt>
      <trkpt lat="46.51549" lon="0.33797">
        <ele>79</ele>
        <time>2023-03-05T08:47:54Z</time>
      </trkpt>
      <trkpt lat="46.51544" lon="0.33797">
        <ele>79</ele>
        <time>2023-03-05T08:47:55Z</time>
      </trkpt>
      <trkpt lat="46.51528" lon="0.33798">
        <ele>79.2</ele>
        <time>2023-03-05T08:47:58Z</time>
      </trkpt>
      <trkpt lat="46.51505" lon="0.338">
        <ele>80</ele>
        <time>2023-03-05T08:48:02Z</time>
      </trkpt>
      <trkpt lat="46.51494" lon="0.33802">
        <ele>80.2</ele>
        <time>2023-03-05T08:48:04Z</time>
      </trkpt>
      <trkpt lat="46.51489" lon="0.33802">
        <ele>80.2</ele>
        <time>2023-03-05T08:48:05Z</time>
      </trkpt>
      <trkpt lat="46.51481" lon="0.338">
        <ele>80.2</ele>
        <time>2023-03-05T08:48:07Z</time>
      </trkpt>
      <trkpt lat="46.5148" lon="0.33797">
        <ele>80.2</ele>
        <time>2023-03-05T08:48:08Z</time>
      </trkpt>
      <trkpt lat="46.51479" lon="0.33777">
        <ele>80</ele>
        <time>2023-03-05T08:48:13Z</time>
      </trkpt>
      <trkpt lat="46.51478" lon="0.3377">
        <ele>80</ele>
        <time>2023-03-05T08:48:15Z</time>
      </trkpt>
      <trkpt lat="46.51475" lon="0.33768">
        <ele>80.4</ele>
        <time>2023-03-05T08:48:17Z</time>
      </trkpt>
      <trkpt lat="46.5146" lon="0.3377">
        <ele>81</ele>
        <time>2023-03-05T08:48:21Z</time>
      </trkpt>
      <trkpt lat="46.51452" lon="0.33769">
        <ele>81</ele>
        <time>2023-03-05T08:48:23Z</time>
      </trkpt>
      <trkpt lat="46.51445" lon="0.3376">
        <ele>80.8</ele>
        <time>2023-03-05T08:48:25Z</time>
      </trkpt>
      <trkpt lat="46.51431" lon="0.33736">
        <ele>81</ele>
        <time>2023-03-05T08:48:29Z</time>
      </trkpt>
      <trkpt lat="46.51427" lon="0.33731">
        <ele>81</ele>
        <time>2023-03-05T08:48:30Z</time>
      </trkpt>
      <trkpt lat="46.51424" lon="0.33725">
        <ele>81.2</ele>
        <time>2023-03-05T08:48:31Z</time>
      </trkpt>
      <trkpt lat="46.51412" lon="0.33701">
        <ele>81.2</ele>
        <time>2023-03-05T08:48:34Z</time>
      </trkpt>
      <trkpt lat="46.5141" lon="0.33693">
        <ele>81</ele>
        <time>2023-03-05T08:48:35Z</time>
      </trkpt>
      <trkpt lat="46.51407" lon="0.33678">
        <ele>81</ele>
        <time>2023-03-05T08:48:37Z</time>
      </trkpt>
      <trkpt lat="46.51405" lon="0.33672">
        <ele>81</ele>
        <time>2023-03-05T08:48:38Z</time>
      </trkpt>
      <trkpt lat="46.51399" lon="0.33661">
        <ele>81.2</ele>
        <time>2023-03-05T08:48:40Z</time>
      </trkpt>
      <trkpt lat="46.51396" lon="0.33656">
        <ele>81.4</ele>
        <time>2023-03-05T08:48:41Z</time>
      </trkpt>
      <trkpt lat="46.51392" lon="0.33652">
        <ele>81.4</ele>
        <time>2023-03-05T08:48:42Z</time>
      </trkpt>
      <trkpt lat="46.51382" lon="0.33648">
        <ele>81.6</ele>
        <time>2023-03-05T08:48:44Z</time>
      </trkpt>
      <trkpt lat="46.51365" lon="0.33648">
        <ele>81.6</ele>
        <time>2023-03-05T08:48:47Z</time>
      </trkpt>
      <trkpt lat="46.51361" lon="0.33646">
        <ele>81.2</ele>
        <time>2023-03-05T08:48:48Z</time>
      </trkpt>
      <trkpt lat="46.51348" lon="0.33642">
        <ele>81</ele>
        <time>2023-03-05T08:48:51Z</time>
      </trkpt>
      <trkpt lat="46.51344" lon="0.3364">
        <ele>80.8</ele>
        <time>2023-03-05T08:48:52Z</time>
      </trkpt>
      <trkpt lat="46.51339" lon="0.33637">
        <ele>80.8</ele>
        <time>2023-03-05T08:48:53Z</time>
      </trkpt>
      <trkpt lat="46.51327" lon="0.33621">
        <ele>80.8</ele>
        <time>2023-03-05T08:48:56Z</time>
      </trkpt>
      <trkpt lat="46.51313" lon="0.33602">
        <ele>81.2</ele>
        <time>2023-03-05T08:48:59Z</time>
      </trkpt>
      <trkpt lat="46.51304" lon="0.33593">
        <ele>80.6</ele>
        <time>2023-03-05T08:49:01Z</time>
      </trkpt>
      <trkpt lat="46.51288" lon="0.33568">
        <ele>80.8</ele>
        <time>2023-03-05T08:49:05Z</time>
      </trkpt>
      <trkpt lat="46.51265" lon="0.33533">
        <ele>80.6</ele>
        <time>2023-03-05T08:49:11Z</time>
      </trkpt>
      <trkpt lat="46.51243" lon="0.33506">
        <ele>81</ele>
        <time>2023-03-05T08:49:17Z</time>
      </trkpt>
      <trkpt lat="46.51235" lon="0.33502">
        <ele>81</ele>
        <time>2023-03-05T08:49:19Z</time>
      </trkpt>
      <trkpt lat="46.51226" lon="0.33501">
        <ele>80.2</ele>
        <time>2023-03-05T08:49:21Z</time>
      </trkpt>
      <trkpt lat="46.51217" lon="0.33506">
        <ele>80</ele>
        <time>2023-03-05T08:49:23Z</time>
      </trkpt>
      <trkpt lat="46.51208" lon="0.3351">
        <ele>80.4</ele>
        <time>2023-03-05T08:49:25Z</time>
      </trkpt>
      <trkpt lat="46.51199" lon="0.33516">
        <ele>80.4</ele>
        <time>2023-03-05T08:49:27Z</time>
      </trkpt>
      <trkpt lat="46.51192" lon="0.33523">
        <ele>80.4</ele>
        <time>2023-03-05T08:49:29Z</time>
      </trkpt>
      <trkpt lat="46.51189" lon="0.33528">
        <ele>80.6</ele>
        <time>2023-03-05T08:49:30Z</time>
      </trkpt>
      <trkpt lat="46.51189" lon="0.33534">
        <ele>80.6</ele>
        <time>2023-03-05T08:49:31Z</time>
      </trkpt>
      <trkpt lat="46.51189" lon="0.33548">
        <ele>80.8</ele>
        <time>2023-03-05T08:49:33Z</time>
      </trkpt>
      <trkpt lat="46.51191" lon="0.3357">
        <ele>80.8</ele>
        <time>2023-03-05T08:49:36Z</time>
      </trkpt>
      <trkpt lat="46.51189" lon="0.33584">
        <ele>81</ele>
        <time>2023-03-05T08:49:38Z</time>
      </trkpt>
      <trkpt lat="46.51189" lon="0.33597">
        <ele>80.8</ele>
        <time>2023-03-05T08:49:40Z</time>
      </trkpt>
      <trkpt lat="46.51192" lon="0.33624">
        <ele>80.6</ele>
        <time>2023-03-05T08:49:44Z</time>
      </trkpt>
      <trkpt lat="46.512" lon="0.33643">
        <ele>80.6</ele>
        <time>2023-03-05T08:49:48Z</time>
      </trkpt>
      <trkpt lat="46.51202" lon="0.33649">
        <ele>80.6</ele>
        <time>2023-03-05T08:49:49Z</time>
      </trkpt>
      <trkpt lat="46.51215" lon="0.33673">
        <ele>80.6</ele>
        <time>2023-03-05T08:49:53Z</time>
      </trkpt>
      <trkpt lat="46.5122" lon="0.33677">
        <ele>80.6</ele>
        <time>2023-03-05T08:49:54Z</time>
      </trkpt>
      <trkpt lat="46.51241" lon="0.33693">
        <ele>80.6</ele>
        <time>2023-03-05T08:49:59Z</time>
      </trkpt>
      <trkpt lat="46.51245" lon="0.33696">
        <ele>80.6</ele>
        <time>2023-03-05T08:50:00Z</time>
      </trkpt>
      <trkpt lat="46.51248" lon="0.337">
        <ele>80.6</ele>
        <time>2023-03-05T08:50:01Z</time>
      </trkpt>
      <trkpt lat="46.51256" lon="0.33714">
        <ele>80.6</ele>
        <time>2023-03-05T08:50:04Z</time>
      </trkpt>
      <trkpt lat="46.5126" lon="0.3372">
        <ele>80.6</ele>
        <time>2023-03-05T08:50:05Z</time>
      </trkpt>
      <trkpt lat="46.5127" lon="0.33737">
        <ele>80.4</ele>
        <time>2023-03-05T08:50:08Z</time>
      </trkpt>
      <trkpt lat="46.51281" lon="0.33759">
        <ele>80.4</ele>
        <time>2023-03-05T08:50:11Z</time>
      </trkpt>
      <trkpt lat="46.51285" lon="0.33767">
        <ele>80.4</ele>
        <time>2023-03-05T08:50:12Z</time>
      </trkpt>
      <trkpt lat="46.51297" lon="0.33786">
        <ele>80</ele>
        <time>2023-03-05T08:50:15Z</time>
      </trkpt>
      <trkpt lat="46.51299" lon="0.33794">
        <ele>79.8</ele>
        <time>2023-03-05T08:50:16Z</time>
      </trkpt>
      <trkpt lat="46.51299" lon="0.33802">
        <ele>79.8</ele>
        <time>2023-03-05T08:50:17Z</time>
      </trkpt>
      <trkpt lat="46.513" lon="0.33816">
        <ele>80</ele>
        <time>2023-03-05T08:50:19Z</time>
      </trkpt>
      <trkpt lat="46.51301" lon="0.33824">
        <ele>80</ele>
        <time>2023-03-05T08:50:20Z</time>
      </trkpt>
      <trkpt lat="46.51303" lon="0.33831">
        <ele>80.2</ele>
        <time>2023-03-05T08:50:21Z</time>
      </trkpt>
      <trkpt lat="46.51307" lon="0.33843">
        <ele>80.2</ele>
        <time>2023-03-05T08:50:23Z</time>
      </trkpt>
      <trkpt lat="46.5131" lon="0.33848">
        <ele>80.2</ele>
        <time>2023-03-05T08:50:24Z</time>
      </trkpt>
      <trkpt lat="46.51321" lon="0.33865">
        <ele>80</ele>
        <time>2023-03-05T08:50:28Z</time>
      </trkpt>
      <trkpt lat="46.51327" lon="0.33873">
        <ele>79.8</ele>
        <time>2023-03-05T08:50:30Z</time>
      </trkpt>
      <trkpt lat="46.51335" lon="0.33882">
        <ele>79.6</ele>
        <time>2023-03-05T08:50:32Z</time>
      </trkpt>
      <trkpt lat="46.51347" lon="0.33896">
        <ele>80</ele>
        <time>2023-03-05T08:50:35Z</time>
      </trkpt>
      <trkpt lat="46.51354" lon="0.33908">
        <ele>80.2</ele>
        <time>2023-03-05T08:50:37Z</time>
      </trkpt>
      <trkpt lat="46.51374" lon="0.3394">
        <ele>80.6</ele>
        <time>2023-03-05T08:50:42Z</time>
      </trkpt>
      <trkpt lat="46.51384" lon="0.33959">
        <ele>80.6</ele>
        <time>2023-03-05T08:50:45Z</time>
      </trkpt>
      <trkpt lat="46.51391" lon="0.33972">
        <ele>80.8</ele>
        <time>2023-03-05T08:50:47Z</time>
      </trkpt>
      <trkpt lat="46.51402" lon="0.33991">
        <ele>80.6</ele>
        <time>2023-03-05T08:50:50Z</time>
      </trkpt>
      <trkpt lat="46.51408" lon="0.34003">
        <ele>80.4</ele>
        <time>2023-03-05T08:50:52Z</time>
      </trkpt>
      <trkpt lat="46.5142" lon="0.34021">
        <ele>80.2</ele>
        <time>2023-03-05T08:50:55Z</time>
      </trkpt>
      <trkpt lat="46.51433" lon="0.34032">
        <ele>80.2</ele>
        <time>2023-03-05T08:50:58Z</time>
      </trkpt>
      <trkpt lat="46.51444" lon="0.34038">
        <ele>80</ele>
        <time>2023-03-05T08:51:00Z</time>
      </trkpt>
      <trkpt lat="46.51456" lon="0.34039">
        <ele>80</ele>
        <time>2023-03-05T08:51:02Z</time>
      </trkpt>
      <trkpt lat="46.51463" lon="0.34039">
        <ele>79.8</ele>
        <time>2023-03-05T08:51:03Z</time>
      </trkpt>
      <trkpt lat="46.51475" lon="0.34042">
        <ele>79.4</ele>
        <time>2023-03-05T08:51:05Z</time>
      </trkpt>
      <trkpt lat="46.51481" lon="0.34046">
        <ele>79.2</ele>
        <time>2023-03-05T08:51:06Z</time>
      </trkpt>
      <trkpt lat="46.51509" lon="0.34067">
        <ele>79.4</ele>
        <time>2023-03-05T08:51:12Z</time>
      </trkpt>
      <trkpt lat="46.51537" lon="0.34082">
        <ele>79.8</ele>
        <time>2023-03-05T08:51:18Z</time>
      </trkpt>
      <trkpt lat="46.51542" lon="0.34083">
        <ele>79.8</ele>
        <time>2023-03-05T08:51:19Z</time>
      </trkpt>
      <trkpt lat="46.5156" lon="0.34081">
        <ele>79.4</ele>
        <time>2023-03-05T08:51:23Z</time>
      </trkpt>
      <trkpt lat="46.51567" lon="0.34078">
        <ele>79.4</ele>
        <time>2023-03-05T08:51:25Z</time>
      </trkpt>
      <trkpt lat="46.51575" lon="0.34077">
        <ele>79.6</ele>
        <time>2023-03-05T08:51:27Z</time>
      </trkpt>
      <trkpt lat="46.51598" lon="0.34074">
        <ele>79.6</ele>
        <time>2023-03-05T08:51:32Z</time>
      </trkpt>
      <trkpt lat="46.51642" lon="0.34065">
        <ele>79.2</ele>
        <time>2023-03-05T08:51:41Z</time>
      </trkpt>
      <trkpt lat="46.5165" lon="0.34064">
        <ele>79</ele>
        <time>2023-03-05T08:51:43Z</time>
      </trkpt>
      <trkpt lat="46.51653" lon="0.34064">
        <ele>78.8</ele>
        <time>2023-03-05T08:51:44Z</time>
      </trkpt>
      <trkpt lat="46.51659" lon="0.34065">
        <ele>78.6</ele>
        <time>2023-03-05T08:51:46Z</time>
      </trkpt>
      <trkpt lat="46.5168" lon="0.34066">
        <ele>79.2</ele>
        <time>2023-03-05T08:51:51Z</time>
      </trkpt>
      <trkpt lat="46.51686" lon="0.34067">
        <ele>79.2</ele>
        <time>2023-03-05T08:51:52Z</time>
      </trkpt>
      <trkpt lat="46.51696" lon="0.34072">
        <ele>79.2</ele>
        <time>2023-03-05T08:51:54Z</time>
      </trkpt>
      <trkpt lat="46.517" lon="0.34075">
        <ele>79.2</ele>
        <time>2023-03-05T08:51:55Z</time>
      </trkpt>
      <trkpt lat="46.51708" lon="0.34082">
        <ele>79.2</ele>
        <time>2023-03-05T08:51:57Z</time>
      </trkpt>
      <trkpt lat="46.51716" lon="0.34095">
        <ele>79.6</ele>
        <time>2023-03-05T08:52:00Z</time>
      </trkpt>
      <trkpt lat="46.51717" lon="0.34109">
        <ele>80</ele>
        <time>2023-03-05T08:52:03Z</time>
      </trkpt>
      <trkpt lat="46.51716" lon="0.34113">
        <ele>80</ele>
        <time>2023-03-05T08:52:04Z</time>
      </trkpt>
      <trkpt lat="46.51708" lon="0.34143">
        <ele>80.8</ele>
        <time>2023-03-05T08:52:10Z</time>
      </trkpt>
      <trkpt lat="46.51706" lon="0.34149">
        <ele>81</ele>
        <time>2023-03-05T08:52:11Z</time>
      </trkpt>
      <trkpt lat="46.51695" lon="0.34178">
        <ele>82</ele>
        <time>2023-03-05T08:52:17Z</time>
      </trkpt>
      <trkpt lat="46.51691" lon="0.34188">
        <ele>82.2</ele>
        <time>2023-03-05T08:52:19Z</time>
      </trkpt>
      <trkpt lat="46.51682" lon="0.34214">
        <ele>83.2</ele>
        <time>2023-03-05T08:52:25Z</time>
      </trkpt>
      <trkpt lat="46.5168" lon="0.34233">
        <ele>84.2</ele>
        <time>2023-03-05T08:52:30Z</time>
      </trkpt>
      <trkpt lat="46.51679" lon="0.34243">
        <ele>85</ele>
        <time>2023-03-05T08:52:33Z</time>
      </trkpt>
      <trkpt lat="46.51678" lon="0.34247">
        <ele>85.4</ele>
        <time>2023-03-05T08:52:34Z</time>
      </trkpt>
      <trkpt lat="46.51678" lon="0.3426">
        <ele>86.6</ele>
        <time>2023-03-05T08:52:38Z</time>
      </trkpt>
      <trkpt lat="46.51679" lon="0.34267">
        <ele>87.2</ele>
        <time>2023-03-05T08:52:40Z</time>
      </trkpt>
      <trkpt lat="46.51679" lon="0.34275">
        <ele>87.6</ele>
        <time>2023-03-05T08:52:42Z</time>
      </trkpt>
      <trkpt lat="46.51683" lon="0.34289">
        <ele>88.8</ele>
        <time>2023-03-05T08:52:46Z</time>
      </trkpt>
      <trkpt lat="46.51687" lon="0.34294">
        <ele>89.4</ele>
        <time>2023-03-05T08:52:48Z</time>
      </trkpt>
      <trkpt lat="46.51696" lon="0.34298">
        <ele>89.8</ele>
        <time>2023-03-05T08:52:51Z</time>
      </trkpt>
      <trkpt lat="46.51699" lon="0.34299">
        <ele>90</ele>
        <time>2023-03-05T08:52:52Z</time>
      </trkpt>
      <trkpt lat="46.51717" lon="0.34303">
        <ele>90.4</ele>
        <time>2023-03-05T08:52:58Z</time>
      </trkpt>
      <trkpt lat="46.51735" lon="0.34309">
        <ele>90.6</ele>
        <time>2023-03-05T08:53:04Z</time>
      </trkpt>
      <trkpt lat="46.5176" lon="0.34315">
        <ele>89.6</ele>
        <time>2023-03-05T08:53:09Z</time>
      </trkpt>
      <trkpt lat="46.51765" lon="0.34316">
        <ele>89</ele>
        <time>2023-03-05T08:53:10Z</time>
      </trkpt>
      <trkpt lat="46.5177" lon="0.34318">
        <ele>88.6</ele>
        <time>2023-03-05T08:53:11Z</time>
      </trkpt>
      <trkpt lat="46.51776" lon="0.3432">
        <ele>88.2</ele>
        <time>2023-03-05T08:53:12Z</time>
      </trkpt>
      <trkpt lat="46.51791" lon="0.34321">
        <ele>87.6</ele>
        <time>2023-03-05T08:53:14Z</time>
      </trkpt>
      <trkpt lat="46.51798" lon="0.3432">
        <ele>87.4</ele>
        <time>2023-03-05T08:53:15Z</time>
      </trkpt>
      <trkpt lat="46.51805" lon="0.34319">
        <ele>87</ele>
        <time>2023-03-05T08:53:16Z</time>
      </trkpt>
      <trkpt lat="46.51827" lon="0.34308">
        <ele>86.2</ele>
        <time>2023-03-05T08:53:19Z</time>
      </trkpt>
      <trkpt lat="46.51875" lon="0.34277">
        <ele>85.2</ele>
        <time>2023-03-05T08:53:25Z</time>
      </trkpt>
      <trkpt lat="46.51884" lon="0.34272">
        <ele>84.8</ele>
        <time>2023-03-05T08:53:26Z</time>
      </trkpt>
      <trkpt lat="46.51901" lon="0.34265">
        <ele>84</ele>
        <time>2023-03-05T08:53:28Z</time>
      </trkpt>
      <trkpt lat="46.51918" lon="0.34262">
        <ele>83.8</ele>
        <time>2023-03-05T08:53:30Z</time>
      </trkpt>
      <trkpt lat="46.51965" lon="0.34254">
        <ele>83.4</ele>
        <time>2023-03-05T08:53:36Z</time>
      </trkpt>
      <trkpt lat="46.51977" lon="0.34258">
        <ele>83.4</ele>
        <time>2023-03-05T08:53:38Z</time>
      </trkpt>
      <trkpt lat="46.51981" lon="0.34263">
        <ele>83.4</ele>
        <time>2023-03-05T08:53:39Z</time>
      </trkpt>
      <trkpt lat="46.51983" lon="0.34269">
        <ele>83</ele>
        <time>2023-03-05T08:53:40Z</time>
      </trkpt>
      <trkpt lat="46.51984" lon="0.34279">
        <ele>82.8</ele>
        <time>2023-03-05T08:53:42Z</time>
      </trkpt>
      <trkpt lat="46.51985" lon="0.34287">
        <ele>83.4</ele>
        <time>2023-03-05T08:53:44Z</time>
      </trkpt>
      <trkpt lat="46.51988" lon="0.34293">
        <ele>84.2</ele>
        <time>2023-03-05T08:53:46Z</time>
      </trkpt>
      <trkpt lat="46.5199" lon="0.34294">
        <ele>84.8</ele>
        <time>2023-03-05T08:53:47Z</time>
      </trkpt>
      <trkpt lat="46.51992" lon="0.34296">
        <ele>85.4</ele>
        <time>2023-03-05T08:53:48Z</time>
      </trkpt>
      <trkpt lat="46.51996" lon="0.34303">
        <ele>86.6</ele>
        <time>2023-03-05T08:53:51Z</time>
      </trkpt>
      <trkpt lat="46.52" lon="0.34311">
        <ele>87.8</ele>
        <time>2023-03-05T08:53:54Z</time>
      </trkpt>
      <trkpt lat="46.52002" lon="0.3432">
        <ele>89</ele>
        <time>2023-03-05T08:53:57Z</time>
      </trkpt>
      <trkpt lat="46.52005" lon="0.34328">
        <ele>90.2</ele>
        <time>2023-03-05T08:54:00Z</time>
      </trkpt>
      <trkpt lat="46.52007" lon="0.34331">
        <ele>90.4</ele>
        <time>2023-03-05T08:54:01Z</time>
      </trkpt>
      <trkpt lat="46.52011" lon="0.34334">
        <ele>91.2</ele>
        <time>2023-03-05T08:54:03Z</time>
      </trkpt>
      <trkpt lat="46.52013" lon="0.34334">
        <ele>91.4</ele>
        <time>2023-03-05T08:54:04Z</time>
      </trkpt>
      <trkpt lat="46.52016" lon="0.34334">
        <ele>91.6</ele>
        <time>2023-03-05T08:54:05Z</time>
      </trkpt>
      <trkpt lat="46.52033" lon="0.34329">
        <ele>91.8</ele>
        <time>2023-03-05T08:54:10Z</time>
      </trkpt>
      <trkpt lat="46.5205" lon="0.34326">
        <ele>92.4</ele>
        <time>2023-03-05T08:54:16Z</time>
      </trkpt>
      <trkpt lat="46.52059" lon="0.34324">
        <ele>93.6</ele>
        <time>2023-03-05T08:54:20Z</time>
      </trkpt>
      <trkpt lat="46.5207" lon="0.34322">
        <ele>94.4</ele>
        <time>2023-03-05T08:54:24Z</time>
      </trkpt>
      <trkpt lat="46.52072" lon="0.34321">
        <ele>94.6</ele>
        <time>2023-03-05T08:54:25Z</time>
      </trkpt>
      <trkpt lat="46.52084" lon="0.34316">
        <ele>95.8</ele>
        <time>2023-03-05T08:54:30Z</time>
      </trkpt>
      <trkpt lat="46.52086" lon="0.34314">
        <ele>95.8</ele>
        <time>2023-03-05T08:54:31Z</time>
      </trkpt>
      <trkpt lat="46.52099" lon="0.34311">
        <ele>96.8</ele>
        <time>2023-03-05T08:54:36Z</time>
      </trkpt>
      <trkpt lat="46.52099" lon="0.34311">
        <ele>97.2</ele>
        <time>2023-03-05T08:54:41Z</time>
      </trkpt>
      <trkpt lat="46.52116" lon="0.3431">
        <ele>97.2</ele>
        <time>2023-03-05T08:54:42Z</time>
      </trkpt>
      <trkpt lat="46.52119" lon="0.34308">
        <ele>97.2</ele>
        <time>2023-03-05T08:54:43Z</time>
      </trkpt>
      <trkpt lat="46.52122" lon="0.34307">
        <ele>96.2</ele>
        <time>2023-03-05T08:54:44Z</time>
      </trkpt>
      <trkpt lat="46.52126" lon="0.34307">
        <ele>95.4</ele>
        <time>2023-03-05T08:54:45Z</time>
      </trkpt>
      <trkpt lat="46.52131" lon="0.34308">
        <ele>95</ele>
        <time>2023-03-05T08:54:46Z</time>
      </trkpt>
      <trkpt lat="46.52135" lon="0.34311">
        <ele>94.6</ele>
        <time>2023-03-05T08:54:47Z</time>
      </trkpt>
      <trkpt lat="46.52139" lon="0.34314">
        <ele>94</ele>
        <time>2023-03-05T08:54:48Z</time>
      </trkpt>
      <trkpt lat="46.52149" lon="0.34321">
        <ele>93.2</ele>
        <time>2023-03-05T08:54:51Z</time>
      </trkpt>
      <trkpt lat="46.52151" lon="0.34324">
        <ele>93.2</ele>
        <time>2023-03-05T08:54:52Z</time>
      </trkpt>
      <trkpt lat="46.52162" lon="0.34329">
        <ele>94</ele>
        <time>2023-03-05T08:54:56Z</time>
      </trkpt>
      <trkpt lat="46.52175" lon="0.34333">
        <ele>94.8</ele>
        <time>2023-03-05T08:55:00Z</time>
      </trkpt>
      <trkpt lat="46.52185" lon="0.34335">
        <ele>94.8</ele>
        <time>2023-03-05T08:55:02Z</time>
      </trkpt>
      <trkpt lat="46.52197" lon="0.3434">
        <ele>94.8</ele>
        <time>2023-03-05T08:55:05Z</time>
      </trkpt>
      <trkpt lat="46.52204" lon="0.34342">
        <ele>94.8</ele>
        <time>2023-03-05T08:55:07Z</time>
      </trkpt>
      <trkpt lat="46.52208" lon="0.34342">
        <ele>94.8</ele>
        <time>2023-03-05T08:55:08Z</time>
      </trkpt>
      <trkpt lat="46.52212" lon="0.34343">
        <ele>94.8</ele>
        <time>2023-03-05T08:55:09Z</time>
      </trkpt>
      <trkpt lat="46.52226" lon="0.34345">
        <ele>95.2</ele>
        <time>2023-03-05T08:55:12Z</time>
      </trkpt>
      <trkpt lat="46.5223" lon="0.34345">
        <ele>95.4</ele>
        <time>2023-03-05T08:55:13Z</time>
      </trkpt>
      <trkpt lat="46.52249" lon="0.34343">
        <ele>96.4</ele>
        <time>2023-03-05T08:55:18Z</time>
      </trkpt>
      <trkpt lat="46.52253" lon="0.34342">
        <ele>96.6</ele>
        <time>2023-03-05T08:55:19Z</time>
      </trkpt>
      <trkpt lat="46.52263" lon="0.34336">
        <ele>96.6</ele>
        <time>2023-03-05T08:55:22Z</time>
      </trkpt>
      <trkpt lat="46.52269" lon="0.34328">
        <ele>96.8</ele>
        <time>2023-03-05T08:55:24Z</time>
      </trkpt>
      <trkpt lat="46.5228" lon="0.34321">
        <ele>97.4</ele>
        <time>2023-03-05T08:55:28Z</time>
      </trkpt>
      <trkpt lat="46.52282" lon="0.3432">
        <ele>97.6</ele>
        <time>2023-03-05T08:55:29Z</time>
      </trkpt>
      <trkpt lat="46.52293" lon="0.3431">
        <ele>98.6</ele>
        <time>2023-03-05T08:55:34Z</time>
      </trkpt>
      <trkpt lat="46.52294" lon="0.34309">
        <ele>99.2</ele>
        <time>2023-03-05T08:55:35Z</time>
      </trkpt>
      <trkpt lat="46.52295" lon="0.34309">
        <ele>99.6</ele>
        <time>2023-03-05T08:55:36Z</time>
      </trkpt>
      <trkpt lat="46.52296" lon="0.34308">
        <ele>100</ele>
        <time>2023-03-05T08:55:37Z</time>
      </trkpt>
      <trkpt lat="46.523" lon="0.34305">
        <ele>101</ele>
        <time>2023-03-05T08:55:41Z</time>
      </trkpt>
      <trkpt lat="46.52302" lon="0.34303">
        <ele>101.4</ele>
        <time>2023-03-05T08:55:43Z</time>
      </trkpt>
      <trkpt lat="46.52304" lon="0.343">
        <ele>102</ele>
        <time>2023-03-05T08:55:46Z</time>
      </trkpt>
      <trkpt lat="46.52305" lon="0.343">
        <ele>102.2</ele>
        <time>2023-03-05T08:55:47Z</time>
      </trkpt>
      <trkpt lat="46.52308" lon="0.343">
        <ele>102.4</ele>
        <time>2023-03-05T08:55:51Z</time>
      </trkpt>
      <trkpt lat="46.52318" lon="0.34301">
        <ele>102.6</ele>
        <time>2023-03-05T08:55:55Z</time>
      </trkpt>
      <trkpt lat="46.52324" lon="0.34302">
        <ele>103.2</ele>
        <time>2023-03-05T08:55:58Z</time>
      </trkpt>
      <trkpt lat="46.5233" lon="0.34303">
        <ele>103.8</ele>
        <time>2023-03-05T08:56:01Z</time>
      </trkpt>
      <trkpt lat="46.52336" lon="0.34302">
        <ele>104.2</ele>
        <time>2023-03-05T08:56:04Z</time>
      </trkpt>
      <trkpt lat="46.52344" lon="0.34301">
        <ele>104.8</ele>
        <time>2023-03-05T08:56:08Z</time>
      </trkpt>
      <trkpt lat="46.52348" lon="0.343">
        <ele>105.4</ele>
        <time>2023-03-05T08:56:10Z</time>
      </trkpt>
      <trkpt lat="46.52355" lon="0.34299">
        <ele>106</ele>
        <time>2023-03-05T08:56:14Z</time>
      </trkpt>
      <trkpt lat="46.52369" lon="0.34292">
        <ele>106.4</ele>
        <time>2023-03-05T08:56:19Z</time>
      </trkpt>
      <trkpt lat="46.52372" lon="0.34291">
        <ele>106.4</ele>
        <time>2023-03-05T08:56:20Z</time>
      </trkpt>
      <trkpt lat="46.52378" lon="0.34288">
        <ele>107.6</ele>
        <time>2023-03-05T08:56:23Z</time>
      </trkpt>
      <trkpt lat="46.52382" lon="0.34286">
        <ele>108.6</ele>
        <time>2023-03-05T08:56:25Z</time>
      </trkpt>
      <trkpt lat="46.52388" lon="0.34282">
        <ele>109.8</ele>
        <time>2023-03-05T08:56:29Z</time>
      </trkpt>
      <trkpt lat="46.52393" lon="0.34281">
        <ele>110.2</ele>
        <time>2023-03-05T08:56:32Z</time>
      </trkpt>
      <trkpt lat="46.52396" lon="0.34277">
        <ele>111.2</ele>
        <time>2023-03-05T08:56:35Z</time>
      </trkpt>
      <trkpt lat="46.52401" lon="0.34274">
        <ele>112</ele>
        <time>2023-03-05T08:56:39Z</time>
      </trkpt>
      <trkpt lat="46.52403" lon="0.34273">
        <ele>112.2</ele>
        <time>2023-03-05T08:56:40Z</time>
      </trkpt>
      <trkpt lat="46.5241" lon="0.3427">
        <ele>113.4</ele>
        <time>2023-03-05T08:56:45Z</time>
      </trkpt>
      <trkpt lat="46.52414" lon="0.34269">
        <ele>113.8</ele>
        <time>2023-03-05T08:56:48Z</time>
      </trkpt>
      <trkpt lat="46.52418" lon="0.34265">
        <ele>114.4</ele>
        <time>2023-03-05T08:56:51Z</time>
      </trkpt>
      <trkpt lat="46.52421" lon="0.34257">
        <ele>114.4</ele>
        <time>2023-03-05T08:56:54Z</time>
      </trkpt>
      <trkpt lat="46.52428" lon="0.34238">
        <ele>114.4</ele>
        <time>2023-03-05T08:57:00Z</time>
      </trkpt>
      <trkpt lat="46.52436" lon="0.34213">
        <ele>113.8</ele>
        <time>2023-03-05T08:57:07Z</time>
      </trkpt>
      <trkpt lat="46.52438" lon="0.34208">
        <ele>113.2</ele>
        <time>2023-03-05T08:57:08Z</time>
      </trkpt>
      <trkpt lat="46.52444" lon="0.34194">
        <ele>112.6</ele>
        <time>2023-03-05T08:57:11Z</time>
      </trkpt>
      <trkpt lat="46.52448" lon="0.34189">
        <ele>112.6</ele>
        <time>2023-03-05T08:57:12Z</time>
      </trkpt>
      <trkpt lat="46.52459" lon="0.34173">
        <ele>112</ele>
        <time>2023-03-05T08:57:15Z</time>
      </trkpt>
      <trkpt lat="46.52467" lon="0.34158">
        <ele>111.4</ele>
        <time>2023-03-05T08:57:17Z</time>
      </trkpt>
      <trkpt lat="46.52472" lon="0.34148">
        <ele>110.8</ele>
        <time>2023-03-05T08:57:18Z</time>
      </trkpt>
      <trkpt lat="46.52481" lon="0.34125">
        <ele>109.2</ele>
        <time>2023-03-05T08:57:20Z</time>
      </trkpt>
      <trkpt lat="46.52486" lon="0.34113">
        <ele>108.8</ele>
        <time>2023-03-05T08:57:21Z</time>
      </trkpt>
      <trkpt lat="46.525" lon="0.3408">
        <ele>107.8</ele>
        <time>2023-03-05T08:57:24Z</time>
      </trkpt>
      <trkpt lat="46.52505" lon="0.34072">
        <ele>106.6</ele>
        <time>2023-03-05T08:57:25Z</time>
      </trkpt>
      <trkpt lat="46.52511" lon="0.34066">
        <ele>105.2</ele>
        <time>2023-03-05T08:57:26Z</time>
      </trkpt>
      <trkpt lat="46.52521" lon="0.34057">
        <ele>103.4</ele>
        <time>2023-03-05T08:57:28Z</time>
      </trkpt>
      <trkpt lat="46.52526" lon="0.34055">
        <ele>101.8</ele>
        <time>2023-03-05T08:57:29Z</time>
      </trkpt>
      <trkpt lat="46.52535" lon="0.34053">
        <ele>99</ele>
        <time>2023-03-05T08:57:31Z</time>
      </trkpt>
      <trkpt lat="46.52545" lon="0.34049">
        <ele>97.6</ele>
        <time>2023-03-05T08:57:33Z</time>
      </trkpt>
      <trkpt lat="46.5255" lon="0.34047">
        <ele>97.2</ele>
        <time>2023-03-05T08:57:34Z</time>
      </trkpt>
      <trkpt lat="46.52556" lon="0.34045">
        <ele>96.4</ele>
        <time>2023-03-05T08:57:35Z</time>
      </trkpt>
      <trkpt lat="46.52561" lon="0.34044">
        <ele>95.8</ele>
        <time>2023-03-05T08:57:36Z</time>
      </trkpt>
      <trkpt lat="46.52566" lon="0.34044">
        <ele>95.2</ele>
        <time>2023-03-05T08:57:37Z</time>
      </trkpt>
      <trkpt lat="46.52578" lon="0.34043">
        <ele>94.6</ele>
        <time>2023-03-05T08:57:39Z</time>
      </trkpt>
      <trkpt lat="46.52614" lon="0.34039">
        <ele>93.8</ele>
        <time>2023-03-05T08:57:45Z</time>
      </trkpt>
      <trkpt lat="46.5262" lon="0.34039">
        <ele>93.4</ele>
        <time>2023-03-05T08:57:46Z</time>
      </trkpt>
      <trkpt lat="46.52631" lon="0.34039">
        <ele>92.8</ele>
        <time>2023-03-05T08:57:48Z</time>
      </trkpt>
      <trkpt lat="46.52654" lon="0.34041">
        <ele>92.4</ele>
        <time>2023-03-05T08:57:52Z</time>
      </trkpt>
      <trkpt lat="46.52679" lon="0.34044">
        <ele>91.4</ele>
        <time>2023-03-05T08:57:56Z</time>
      </trkpt>
      <trkpt lat="46.52692" lon="0.34044">
        <ele>91</ele>
        <time>2023-03-05T08:57:58Z</time>
      </trkpt>
      <trkpt lat="46.52699" lon="0.34043">
        <ele>91</ele>
        <time>2023-03-05T08:57:59Z</time>
      </trkpt>
      <trkpt lat="46.52747" lon="0.3403">
        <ele>90.4</ele>
        <time>2023-03-05T08:58:06Z</time>
      </trkpt>
      <trkpt lat="46.52754" lon="0.34025">
        <ele>89.2</ele>
        <time>2023-03-05T08:58:07Z</time>
      </trkpt>
      <trkpt lat="46.52759" lon="0.34016">
        <ele>88</ele>
        <time>2023-03-05T08:58:08Z</time>
      </trkpt>
      <trkpt lat="46.52763" lon="0.34005">
        <ele>87.2</ele>
        <time>2023-03-05T08:58:09Z</time>
      </trkpt>
      <trkpt lat="46.52766" lon="0.33993">
        <ele>86.2</ele>
        <time>2023-03-05T08:58:10Z</time>
      </trkpt>
      <trkpt lat="46.52772" lon="0.33968">
        <ele>84.6</ele>
        <time>2023-03-05T08:58:12Z</time>
      </trkpt>
      <trkpt lat="46.52774" lon="0.33956">
        <ele>83.8</ele>
        <time>2023-03-05T08:58:13Z</time>
      </trkpt>
      <trkpt lat="46.52776" lon="0.33945">
        <ele>83.2</ele>
        <time>2023-03-05T08:58:14Z</time>
      </trkpt>
      <trkpt lat="46.52778" lon="0.33936">
        <ele>82.8</ele>
        <time>2023-03-05T08:58:15Z</time>
      </trkpt>
      <trkpt lat="46.52781" lon="0.33929">
        <ele>82.2</ele>
        <time>2023-03-05T08:58:16Z</time>
      </trkpt>
      <trkpt lat="46.52785" lon="0.33925">
        <ele>81.2</ele>
        <time>2023-03-05T08:58:17Z</time>
      </trkpt>
      <trkpt lat="46.52789" lon="0.33923">
        <ele>80.8</ele>
        <time>2023-03-05T08:58:18Z</time>
      </trkpt>
      <trkpt lat="46.52793" lon="0.33921">
        <ele>80.4</ele>
        <time>2023-03-05T08:58:19Z</time>
      </trkpt>
      <trkpt lat="46.52798" lon="0.3392">
        <ele>80.4</ele>
        <time>2023-03-05T08:58:20Z</time>
      </trkpt>
      <trkpt lat="46.5282" lon="0.33915">
        <ele>80.2</ele>
        <time>2023-03-05T08:58:24Z</time>
      </trkpt>
      <trkpt lat="46.52862" lon="0.33909">
        <ele>80.6</ele>
        <time>2023-03-05T08:58:31Z</time>
      </trkpt>
      <trkpt lat="46.52904" lon="0.33909">
        <ele>80.6</ele>
        <time>2023-03-05T08:58:38Z</time>
      </trkpt>
      <trkpt lat="46.52909" lon="0.33911">
        <ele>80.6</ele>
        <time>2023-03-05T08:58:39Z</time>
      </trkpt>
      <trkpt lat="46.52914" lon="0.33913">
        <ele>80.6</ele>
        <time>2023-03-05T08:58:40Z</time>
      </trkpt>
      <trkpt lat="46.52923" lon="0.3392">
        <ele>80.8</ele>
        <time>2023-03-05T08:58:42Z</time>
      </trkpt>
      <trkpt lat="46.52926" lon="0.33925">
        <ele>80.8</ele>
        <time>2023-03-05T08:58:43Z</time>
      </trkpt>
      <trkpt lat="46.52929" lon="0.33931">
        <ele>80.8</ele>
        <time>2023-03-05T08:58:44Z</time>
      </trkpt>
      <trkpt lat="46.52934" lon="0.3395">
        <ele>81</ele>
        <time>2023-03-05T08:58:47Z</time>
      </trkpt>
      <trkpt lat="46.52939" lon="0.33969">
        <ele>81.2</ele>
        <time>2023-03-05T08:58:50Z</time>
      </trkpt>
      <trkpt lat="46.52941" lon="0.33991">
        <ele>81.6</ele>
        <time>2023-03-05T08:58:53Z</time>
      </trkpt>
      <trkpt lat="46.52941" lon="0.33999">
        <ele>81.8</ele>
        <time>2023-03-05T08:58:54Z</time>
      </trkpt>
      <trkpt lat="46.52945" lon="0.34033">
        <ele>82.8</ele>
        <time>2023-03-05T08:58:59Z</time>
      </trkpt>
      <trkpt lat="46.52947" lon="0.3404">
        <ele>82.8</ele>
        <time>2023-03-05T08:59:00Z</time>
      </trkpt>
      <trkpt lat="46.5295" lon="0.34046">
        <ele>83</ele>
        <time>2023-03-05T08:59:01Z</time>
      </trkpt>
      <trkpt lat="46.52956" lon="0.34055">
        <ele>83.6</ele>
        <time>2023-03-05T08:59:03Z</time>
      </trkpt>
      <trkpt lat="46.52959" lon="0.34057">
        <ele>83.8</ele>
        <time>2023-03-05T08:59:04Z</time>
      </trkpt>
      <trkpt lat="46.52963" lon="0.34058">
        <ele>84.2</ele>
        <time>2023-03-05T08:59:05Z</time>
      </trkpt>
      <trkpt lat="46.52981" lon="0.34061">
        <ele>85</ele>
        <time>2023-03-05T08:59:10Z</time>
      </trkpt>
      <trkpt lat="46.53005" lon="0.3406">
        <ele>85.4</ele>
        <time>2023-03-05T08:59:16Z</time>
      </trkpt>
      <trkpt lat="46.53028" lon="0.34059">
        <ele>86</ele>
        <time>2023-03-05T08:59:22Z</time>
      </trkpt>
      <trkpt lat="46.53032" lon="0.34059">
        <ele>86.4</ele>
        <time>2023-03-05T08:59:23Z</time>
      </trkpt>
      <trkpt lat="46.53049" lon="0.34063">
        <ele>87.2</ele>
        <time>2023-03-05T08:59:28Z</time>
      </trkpt>
      <trkpt lat="46.53052" lon="0.34065">
        <ele>87.4</ele>
        <time>2023-03-05T08:59:29Z</time>
      </trkpt>
      <trkpt lat="46.53063" lon="0.34073">
        <ele>88.4</ele>
        <time>2023-03-05T08:59:32Z</time>
      </trkpt>
      <trkpt lat="46.5307" lon="0.34077">
        <ele>88.6</ele>
        <time>2023-03-05T08:59:34Z</time>
      </trkpt>
      <trkpt lat="46.53088" lon="0.34087">
        <ele>89.4</ele>
        <time>2023-03-05T08:59:39Z</time>
      </trkpt>
      <trkpt lat="46.53098" lon="0.34092">
        <ele>89.8</ele>
        <time>2023-03-05T08:59:42Z</time>
      </trkpt>
      <trkpt lat="46.53109" lon="0.34099">
        <ele>90.4</ele>
        <time>2023-03-05T08:59:45Z</time>
      </trkpt>
      <trkpt lat="46.53122" lon="0.34107">
        <ele>91</ele>
        <time>2023-03-05T08:59:49Z</time>
      </trkpt>
      <trkpt lat="46.53149" lon="0.34125">
        <ele>91.4</ele>
        <time>2023-03-05T08:59:57Z</time>
      </trkpt>
      <trkpt lat="46.53172" lon="0.34153">
        <ele>92.4</ele>
        <time>2023-03-05T09:00:04Z</time>
      </trkpt>
      <trkpt lat="46.53178" lon="0.34161">
        <ele>92.4</ele>
        <time>2023-03-05T09:00:06Z</time>
      </trkpt>
      <trkpt lat="46.53191" lon="0.34176">
        <ele>92.6</ele>
        <time>2023-03-05T09:00:10Z</time>
      </trkpt>
      <trkpt lat="46.53198" lon="0.34184">
        <ele>92.6</ele>
        <time>2023-03-05T09:00:12Z</time>
      </trkpt>
      <trkpt lat="46.53209" lon="0.34195">
        <ele>92.6</ele>
        <time>2023-03-05T09:00:15Z</time>
      </trkpt>
      <trkpt lat="46.53212" lon="0.34199">
        <ele>92.4</ele>
        <time>2023-03-05T09:00:16Z</time>
      </trkpt>
      <trkpt lat="46.53232" lon="0.3422">
        <ele>92.8</ele>
        <time>2023-03-05T09:00:21Z</time>
      </trkpt>
      <trkpt lat="46.53236" lon="0.34224">
        <ele>93</ele>
        <time>2023-03-05T09:00:22Z</time>
      </trkpt>
      <trkpt lat="46.53263" lon="0.34244">
        <ele>92.6</ele>
        <time>2023-03-05T09:00:28Z</time>
      </trkpt>
      <trkpt lat="46.53267" lon="0.34248">
        <ele>92.6</ele>
        <time>2023-03-05T09:00:29Z</time>
      </trkpt>
      <trkpt lat="46.53292" lon="0.34264">
        <ele>92.8</ele>
        <time>2023-03-05T09:00:34Z</time>
      </trkpt>
      <trkpt lat="46.53297" lon="0.34266">
        <ele>92.6</ele>
        <time>2023-03-05T09:00:35Z</time>
      </trkpt>
      <trkpt lat="46.53323" lon="0.34283">
        <ele>92.4</ele>
        <time>2023-03-05T09:00:40Z</time>
      </trkpt>
      <trkpt lat="46.53328" lon="0.34287">
        <ele>92.4</ele>
        <time>2023-03-05T09:00:41Z</time>
      </trkpt>
      <trkpt lat="46.53348" lon="0.34309">
        <ele>92</ele>
        <time>2023-03-05T09:00:45Z</time>
      </trkpt>
      <trkpt lat="46.53379" lon="0.34336">
        <ele>91.8</ele>
        <time>2023-03-05T09:00:51Z</time>
      </trkpt>
      <trkpt lat="46.53395" lon="0.34343">
        <ele>91.8</ele>
        <time>2023-03-05T09:00:54Z</time>
      </trkpt>
      <trkpt lat="46.53405" lon="0.34345">
        <ele>92</ele>
        <time>2023-03-05T09:00:56Z</time>
      </trkpt>
      <trkpt lat="46.53428" lon="0.34346">
        <ele>92.6</ele>
        <time>2023-03-05T09:01:01Z</time>
      </trkpt>
      <trkpt lat="46.53433" lon="0.34345">
        <ele>92.8</ele>
        <time>2023-03-05T09:01:02Z</time>
      </trkpt>
      <trkpt lat="46.53437" lon="0.34345">
        <ele>93</ele>
        <time>2023-03-05T09:01:03Z</time>
      </trkpt>
      <trkpt lat="46.53458" lon="0.34348">
        <ele>92.8</ele>
        <time>2023-03-05T09:01:07Z</time>
      </trkpt>
      <trkpt lat="46.53469" lon="0.34351">
        <ele>92.6</ele>
        <time>2023-03-05T09:01:09Z</time>
      </trkpt>
      <trkpt lat="46.5349" lon="0.34359">
        <ele>92</ele>
        <time>2023-03-05T09:01:13Z</time>
      </trkpt>
      <trkpt lat="46.53532" lon="0.34376">
        <ele>91.8</ele>
        <time>2023-03-05T09:01:20Z</time>
      </trkpt>
      <trkpt lat="46.53555" lon="0.34393">
        <ele>91.2</ele>
        <time>2023-03-05T09:01:24Z</time>
      </trkpt>
      <trkpt lat="46.53565" lon="0.34403">
        <ele>90.8</ele>
        <time>2023-03-05T09:01:26Z</time>
      </trkpt>
      <trkpt lat="46.53571" lon="0.34407">
        <ele>90.8</ele>
        <time>2023-03-05T09:01:27Z</time>
      </trkpt>
      <trkpt lat="46.53587" lon="0.34414">
        <ele>90.4</ele>
        <time>2023-03-05T09:01:30Z</time>
      </trkpt>
      <trkpt lat="46.53593" lon="0.34415">
        <ele>90</ele>
        <time>2023-03-05T09:01:31Z</time>
      </trkpt>
      <trkpt lat="46.53598" lon="0.34414">
        <ele>89.8</ele>
        <time>2023-03-05T09:01:32Z</time>
      </trkpt>
      <trkpt lat="46.5362" lon="0.34413">
        <ele>89.2</ele>
        <time>2023-03-05T09:01:36Z</time>
      </trkpt>
      <trkpt lat="46.53647" lon="0.3442">
        <ele>89.6</ele>
        <time>2023-03-05T09:01:41Z</time>
      </trkpt>
      <trkpt lat="46.53678" lon="0.34433">
        <ele>90</ele>
        <time>2023-03-05T09:01:48Z</time>
      </trkpt>
      <trkpt lat="46.53692" lon="0.3444">
        <ele>90.4</ele>
        <time>2023-03-05T09:01:51Z</time>
      </trkpt>
      <trkpt lat="46.53709" lon="0.34449">
        <ele>90.6</ele>
        <time>2023-03-05T09:01:55Z</time>
      </trkpt>
      <trkpt lat="46.53735" lon="0.34462">
        <ele>91.2</ele>
        <time>2023-03-05T09:02:01Z</time>
      </trkpt>
      <trkpt lat="46.53753" lon="0.34469">
        <ele>91.2</ele>
        <time>2023-03-05T09:02:06Z</time>
      </trkpt>
      <trkpt lat="46.53782" lon="0.34482">
        <ele>91.2</ele>
        <time>2023-03-05T09:02:13Z</time>
      </trkpt>
      <trkpt lat="46.53819" lon="0.34495">
        <ele>91.6</ele>
        <time>2023-03-05T09:02:21Z</time>
      </trkpt>
      <trkpt lat="46.53848" lon="0.34505">
        <ele>91.8</ele>
        <time>2023-03-05T09:02:28Z</time>
      </trkpt>
      <trkpt lat="46.53856" lon="0.34504">
        <ele>92.2</ele>
        <time>2023-03-05T09:02:30Z</time>
      </trkpt>
      <trkpt lat="46.5387" lon="0.34504">
        <ele>92</ele>
        <time>2023-03-05T09:02:33Z</time>
      </trkpt>
      <trkpt lat="46.539" lon="0.34499">
        <ele>91.2</ele>
        <time>2023-03-05T09:02:39Z</time>
      </trkpt>
      <trkpt lat="46.53906" lon="0.34498">
        <ele>90.8</ele>
        <time>2023-03-05T09:02:40Z</time>
      </trkpt>
      <trkpt lat="46.53915" lon="0.34493">
        <ele>90.6</ele>
        <time>2023-03-05T09:02:42Z</time>
      </trkpt>
      <trkpt lat="46.53922" lon="0.34484">
        <ele>90.4</ele>
        <time>2023-03-05T09:02:44Z</time>
      </trkpt>
      <trkpt lat="46.53926" lon="0.34473">
        <ele>90.4</ele>
        <time>2023-03-05T09:02:46Z</time>
      </trkpt>
      <trkpt lat="46.53929" lon="0.34463">
        <ele>90.6</ele>
        <time>2023-03-05T09:02:48Z</time>
      </trkpt>
      <trkpt lat="46.53933" lon="0.34442">
        <ele>92.2</ele>
        <time>2023-03-05T09:02:53Z</time>
      </trkpt>
      <trkpt lat="46.53935" lon="0.3444">
        <ele>92.4</ele>
        <time>2023-03-05T09:02:54Z</time>
      </trkpt>
      <trkpt lat="46.53939" lon="0.34434">
        <ele>93.6</ele>
        <time>2023-03-05T09:02:57Z</time>
      </trkpt>
      <trkpt lat="46.53944" lon="0.3443">
        <ele>94.4</ele>
        <time>2023-03-05T09:03:00Z</time>
      </trkpt>
      <trkpt lat="46.53946" lon="0.34429">
        <ele>94.6</ele>
        <time>2023-03-05T09:03:01Z</time>
      </trkpt>
      <trkpt lat="46.53954" lon="0.34423">
        <ele>95.8</ele>
        <time>2023-03-05T09:03:05Z</time>
      </trkpt>
      <trkpt lat="46.53957" lon="0.34421">
        <ele>96.4</ele>
        <time>2023-03-05T09:03:07Z</time>
      </trkpt>
      <trkpt lat="46.53961" lon="0.34419">
        <ele>96.8</ele>
        <time>2023-03-05T09:03:09Z</time>
      </trkpt>
      <trkpt lat="46.5397" lon="0.34414">
        <ele>98.2</ele>
        <time>2023-03-05T09:03:13Z</time>
      </trkpt>
      <trkpt lat="46.53982" lon="0.34409">
        <ele>99.2</ele>
        <time>2023-03-05T09:03:19Z</time>
      </trkpt>
      <trkpt lat="46.53986" lon="0.34406">
        <ele>99.8</ele>
        <time>2023-03-05T09:03:21Z</time>
      </trkpt>
      <trkpt lat="46.5399" lon="0.34405">
        <ele>100.4</ele>
        <time>2023-03-05T09:03:23Z</time>
      </trkpt>
      <trkpt lat="46.53995" lon="0.34401">
        <ele>101.4</ele>
        <time>2023-03-05T09:03:26Z</time>
      </trkpt>
      <trkpt lat="46.54" lon="0.34395">
        <ele>101.6</ele>
        <time>2023-03-05T09:03:29Z</time>
      </trkpt>
      <trkpt lat="46.54003" lon="0.34387">
        <ele>101.6</ele>
        <time>2023-03-05T09:03:31Z</time>
      </trkpt>
      <trkpt lat="46.54007" lon="0.34379">
        <ele>99.8</ele>
        <time>2023-03-05T09:03:33Z</time>
      </trkpt>
      <trkpt lat="46.54007" lon="0.34376">
        <ele>98.6</ele>
        <time>2023-03-05T09:03:34Z</time>
      </trkpt>
      <trkpt lat="46.54008" lon="0.34371">
        <ele>96.8</ele>
        <time>2023-03-05T09:03:36Z</time>
      </trkpt>
      <trkpt lat="46.54007" lon="0.34368">
        <ele>95.6</ele>
        <time>2023-03-05T09:03:37Z</time>
      </trkpt>
      <trkpt lat="46.54007" lon="0.34365">
        <ele>94.4</ele>
        <time>2023-03-05T09:03:38Z</time>
      </trkpt>
      <trkpt lat="46.54006" lon="0.34362">
        <ele>92.8</ele>
        <time>2023-03-05T09:03:39Z</time>
      </trkpt>
      <trkpt lat="46.54006" lon="0.34362">
        <ele>91.4</ele>
        <time>2023-03-05T09:03:41Z</time>
      </trkpt>
      <trkpt lat="46.54001" lon="0.34352">
        <ele>89</ele>
        <time>2023-03-05T09:03:42Z</time>
      </trkpt>
      <trkpt lat="46.54" lon="0.34349">
        <ele>87.2</ele>
        <time>2023-03-05T09:03:43Z</time>
      </trkpt>
      <trkpt lat="46.53999" lon="0.34346">
        <ele>85.8</ele>
        <time>2023-03-05T09:03:44Z</time>
      </trkpt>
      <trkpt lat="46.53996" lon="0.34344">
        <ele>84.8</ele>
        <time>2023-03-05T09:03:45Z</time>
      </trkpt>
      <trkpt lat="46.53993" lon="0.34343">
        <ele>82.8</ele>
        <time>2023-03-05T09:03:46Z</time>
      </trkpt>
      <trkpt lat="46.53992" lon="0.3434">
        <ele>81.6</ele>
        <time>2023-03-05T09:03:47Z</time>
      </trkpt>
      <trkpt lat="46.5399" lon="0.34333">
        <ele>79.8</ele>
        <time>2023-03-05T09:03:49Z</time>
      </trkpt>
      <trkpt lat="46.53988" lon="0.3433">
        <ele>79.2</ele>
        <time>2023-03-05T09:03:50Z</time>
      </trkpt>
      <trkpt lat="46.53986" lon="0.3433">
        <ele>78.8</ele>
        <time>2023-03-05T09:03:51Z</time>
      </trkpt>
      <trkpt lat="46.53979" lon="0.34337">
        <ele>78.2</ele>
        <time>2023-03-05T09:03:55Z</time>
      </trkpt>
      <trkpt lat="46.53965" lon="0.34349">
        <ele>78.4</ele>
        <time>2023-03-05T09:04:00Z</time>
      </trkpt>
      <trkpt lat="46.53954" lon="0.3436">
        <ele>79.4</ele>
        <time>2023-03-05T09:04:05Z</time>
      </trkpt>
      <trkpt lat="46.53949" lon="0.34363">
        <ele>79.8</ele>
        <time>2023-03-05T09:04:07Z</time>
      </trkpt>
      <trkpt lat="46.53936" lon="0.34376">
        <ele>81.2</ele>
        <time>2023-03-05T09:04:13Z</time>
      </trkpt>
      <trkpt lat="46.53933" lon="0.34379">
        <ele>81.4</ele>
        <time>2023-03-05T09:04:14Z</time>
      </trkpt>
      <trkpt lat="46.53918" lon="0.344">
        <ele>82</ele>
        <time>2023-03-05T09:04:21Z</time>
      </trkpt>
      <trkpt lat="46.53915" lon="0.34405">
        <ele>82.4</ele>
        <time>2023-03-05T09:04:23Z</time>
      </trkpt>
      <trkpt lat="46.53912" lon="0.34418">
        <ele>83.6</ele>
        <time>2023-03-05T09:04:27Z</time>
      </trkpt>
      <trkpt lat="46.53912" lon="0.34426">
        <ele>84.8</ele>
        <time>2023-03-05T09:04:30Z</time>
      </trkpt>
      <trkpt lat="46.53914" lon="0.34433">
        <ele>85.4</ele>
        <time>2023-03-05T09:04:33Z</time>
      </trkpt>
      <trkpt lat="46.53917" lon="0.34438">
        <ele>86</ele>
        <time>2023-03-05T09:04:35Z</time>
      </trkpt>
      <trkpt lat="46.53919" lon="0.34443">
        <ele>87</ele>
        <time>2023-03-05T09:04:38Z</time>
      </trkpt>
      <trkpt lat="46.5392" lon="0.34447">
        <ele>87.4</ele>
        <time>2023-03-05T09:04:40Z</time>
      </trkpt>
      <trkpt lat="46.53922" lon="0.34452">
        <ele>88</ele>
        <time>2023-03-05T09:04:43Z</time>
      </trkpt>
      <trkpt lat="46.53924" lon="0.34458">
        <ele>88.4</ele>
        <time>2023-03-05T09:04:46Z</time>
      </trkpt>
      <trkpt lat="46.53927" lon="0.34464">
        <ele>89</ele>
        <time>2023-03-05T09:04:49Z</time>
      </trkpt>
      <trkpt lat="46.53928" lon="0.34464">
        <ele>89.2</ele>
        <time>2023-03-05T09:04:50Z</time>
      </trkpt>
      <trkpt lat="46.53929" lon="0.34463">
        <ele>89.4</ele>
        <time>2023-03-05T09:04:51Z</time>
      </trkpt>
      <trkpt lat="46.5393" lon="0.3446">
        <ele>90.2</ele>
        <time>2023-03-05T09:04:54Z</time>
      </trkpt>
      <trkpt lat="46.53931" lon="0.34456">
        <ele>90.4</ele>
        <time>2023-03-05T09:04:56Z</time>
      </trkpt>
      <trkpt lat="46.53932" lon="0.34447">
        <ele>91.2</ele>
        <time>2023-03-05T09:05:00Z</time>
      </trkpt>
      <trkpt lat="46.53934" lon="0.34439">
        <ele>92</ele>
        <time>2023-03-05T09:05:04Z</time>
      </trkpt>
      <trkpt lat="46.53935" lon="0.34437">
        <ele>92.2</ele>
        <time>2023-03-05T09:05:05Z</time>
      </trkpt>
      <trkpt lat="46.5394" lon="0.34433">
        <ele>93.4</ele>
        <time>2023-03-05T09:05:10Z</time>
      </trkpt>
      <trkpt lat="46.53948" lon="0.34427">
        <ele>94.6</ele>
        <time>2023-03-05T09:05:16Z</time>
      </trkpt>
      <trkpt lat="46.53949" lon="0.34426">
        <ele>95</ele>
        <time>2023-03-05T09:05:17Z</time>
      </trkpt>
      <trkpt lat="46.53953" lon="0.34423">
        <ele>95.8</ele>
        <time>2023-03-05T09:05:20Z</time>
      </trkpt>
      <trkpt lat="46.53959" lon="0.34419">
        <ele>96.6</ele>
        <time>2023-03-05T09:05:24Z</time>
      </trkpt>
      <trkpt lat="46.53962" lon="0.34417">
        <ele>96.8</ele>
        <time>2023-03-05T09:05:26Z</time>
      </trkpt>
      <trkpt lat="46.53972" lon="0.34411">
        <ele>98</ele>
        <time>2023-03-05T09:05:32Z</time>
      </trkpt>
      <trkpt lat="46.53981" lon="0.34406">
        <ele>99</ele>
        <time>2023-03-05T09:05:37Z</time>
      </trkpt>
      <trkpt lat="46.53984" lon="0.34405">
        <ele>99.6</ele>
        <time>2023-03-05T09:05:39Z</time>
      </trkpt>
      <trkpt lat="46.53988" lon="0.34403">
        <ele>100</ele>
        <time>2023-03-05T09:05:41Z</time>
      </trkpt>
      <trkpt lat="46.53992" lon="0.34401">
        <ele>100.6</ele>
        <time>2023-03-05T09:05:44Z</time>
      </trkpt>
      <trkpt lat="46.53995" lon="0.34399">
        <ele>100.8</ele>
        <time>2023-03-05T09:05:46Z</time>
      </trkpt>
      <trkpt lat="46.53998" lon="0.34398">
        <ele>101.4</ele>
        <time>2023-03-05T09:05:48Z</time>
      </trkpt>
      <trkpt lat="46.54001" lon="0.34396">
        <ele>102.6</ele>
        <time>2023-03-05T09:05:53Z</time>
      </trkpt>
      <trkpt lat="46.5401" lon="0.34398">
        <ele>102.6</ele>
        <time>2023-03-05T09:06:02Z</time>
      </trkpt>
      <trkpt lat="46.54024" lon="0.34397">
        <ele>103</ele>
        <time>2023-03-05T09:06:09Z</time>
      </trkpt>
      <trkpt lat="46.54035" lon="0.34384">
        <ele>103.2</ele>
        <time>2023-03-05T09:06:16Z</time>
      </trkpt>
      <trkpt lat="46.5404" lon="0.3438">
        <ele>103.6</ele>
        <time>2023-03-05T09:06:18Z</time>
      </trkpt>
      <trkpt lat="46.54049" lon="0.34372">
        <ele>104.8</ele>
        <time>2023-03-05T09:06:22Z</time>
      </trkpt>
      <trkpt lat="46.54055" lon="0.34367">
        <ele>105.8</ele>
        <time>2023-03-05T09:06:25Z</time>
      </trkpt>
      <trkpt lat="46.54062" lon="0.34361">
        <ele>106.8</ele>
        <time>2023-03-05T09:06:29Z</time>
      </trkpt>
      <trkpt lat="46.5407" lon="0.34353">
        <ele>108</ele>
        <time>2023-03-05T09:06:34Z</time>
      </trkpt>
      <trkpt lat="46.54073" lon="0.3435">
        <ele>108.4</ele>
        <time>2023-03-05T09:06:36Z</time>
      </trkpt>
      <trkpt lat="46.54076" lon="0.34347">
        <ele>109.2</ele>
        <time>2023-03-05T09:06:38Z</time>
      </trkpt>
      <trkpt lat="46.54082" lon="0.34341">
        <ele>110.4</ele>
        <time>2023-03-05T09:06:42Z</time>
      </trkpt>
      <trkpt lat="46.54084" lon="0.34339">
        <ele>111</ele>
        <time>2023-03-05T09:06:44Z</time>
      </trkpt>
      <trkpt lat="46.54088" lon="0.34336">
        <ele>111.4</ele>
        <time>2023-03-05T09:06:46Z</time>
      </trkpt>
      <trkpt lat="46.5409" lon="0.34335">
        <ele>111.4</ele>
        <time>2023-03-05T09:06:47Z</time>
      </trkpt>
      <trkpt lat="46.54095" lon="0.3433">
        <ele>112.6</ele>
        <time>2023-03-05T09:06:50Z</time>
      </trkpt>
      <trkpt lat="46.54101" lon="0.34324">
        <ele>113.8</ele>
        <time>2023-03-05T09:06:54Z</time>
      </trkpt>
      <trkpt lat="46.54105" lon="0.34321">
        <ele>114.6</ele>
        <time>2023-03-05T09:06:58Z</time>
      </trkpt>
      <trkpt lat="46.54107" lon="0.34319">
        <ele>115</ele>
        <time>2023-03-05T09:06:59Z</time>
      </trkpt>
      <trkpt lat="46.54115" lon="0.34313">
        <ele>116</ele>
        <time>2023-03-05T09:07:03Z</time>
      </trkpt>
      <trkpt lat="46.54123" lon="0.34304">
        <ele>116.6</ele>
        <time>2023-03-05T09:07:08Z</time>
      </trkpt>
      <trkpt lat="46.54126" lon="0.34301">
        <ele>117.2</ele>
        <time>2023-03-05T09:07:10Z</time>
      </trkpt>
      <trkpt lat="46.54133" lon="0.34294">
        <ele>118</ele>
        <time>2023-03-05T09:07:15Z</time>
      </trkpt>
      <trkpt lat="46.54135" lon="0.34293">
        <ele>118.2</ele>
        <time>2023-03-05T09:07:16Z</time>
      </trkpt>
      <trkpt lat="46.54144" lon="0.34287">
        <ele>119</ele>
        <time>2023-03-05T09:07:21Z</time>
      </trkpt>
      <trkpt lat="46.54146" lon="0.34287">
        <ele>119.2</ele>
        <time>2023-03-05T09:07:22Z</time>
      </trkpt>
      <trkpt lat="46.54159" lon="0.34281">
        <ele>120.2</ele>
        <time>2023-03-05T09:07:29Z</time>
      </trkpt>
      <trkpt lat="46.54179" lon="0.34278">
        <ele>121.2</ele>
        <time>2023-03-05T09:07:38Z</time>
      </trkpt>
      <trkpt lat="46.54185" lon="0.34278">
        <ele>121.4</ele>
        <time>2023-03-05T09:07:40Z</time>
      </trkpt>
      <trkpt lat="46.542" lon="0.34278">
        <ele>121.6</ele>
        <time>2023-03-05T09:07:44Z</time>
      </trkpt>
      <trkpt lat="46.54202" lon="0.34281">
        <ele>121.6</ele>
        <time>2023-03-05T09:07:45Z</time>
      </trkpt>
      <trkpt lat="46.54203" lon="0.34293">
        <ele>122</ele>
        <time>2023-03-05T09:07:49Z</time>
      </trkpt>
      <trkpt lat="46.54204" lon="0.3432">
        <ele>121</ele>
        <time>2023-03-05T09:07:55Z</time>
      </trkpt>
      <trkpt lat="46.54204" lon="0.34333">
        <ele>121.2</ele>
        <time>2023-03-05T09:07:58Z</time>
      </trkpt>
      <trkpt lat="46.54198" lon="0.34346">
        <ele>121.2</ele>
        <time>2023-03-05T09:08:01Z</time>
      </trkpt>
      <trkpt lat="46.54192" lon="0.34351">
        <ele>121</ele>
        <time>2023-03-05T09:08:03Z</time>
      </trkpt>
      <trkpt lat="46.54187" lon="0.34358">
        <ele>121.2</ele>
        <time>2023-03-05T09:08:05Z</time>
      </trkpt>
      <trkpt lat="46.54186" lon="0.34367">
        <ele>121.2</ele>
        <time>2023-03-05T09:08:07Z</time>
      </trkpt>
      <trkpt lat="46.54188" lon="0.34372">
        <ele>121.2</ele>
        <time>2023-03-05T09:08:08Z</time>
      </trkpt>
      <trkpt lat="46.54193" lon="0.34383">
        <ele>121.4</ele>
        <time>2023-03-05T09:08:11Z</time>
      </trkpt>
      <trkpt lat="46.54193" lon="0.34387">
        <ele>121.4</ele>
        <time>2023-03-05T09:08:12Z</time>
      </trkpt>
      <trkpt lat="46.5419" lon="0.34417">
        <ele>121.4</ele>
        <time>2023-03-05T09:08:19Z</time>
      </trkpt>
      <trkpt lat="46.54189" lon="0.34431">
        <ele>121.4</ele>
        <time>2023-03-05T09:08:24Z</time>
      </trkpt>
      <trkpt lat="46.54188" lon="0.34434">
        <ele>121.4</ele>
        <time>2023-03-05T09:08:26Z</time>
      </trkpt>
      <trkpt lat="46.54186" lon="0.34439">
        <ele>121.4</ele>
        <time>2023-03-05T09:08:32Z</time>
      </trkpt>
      <trkpt lat="46.54186" lon="0.3444">
        <ele>121.2</ele>
        <time>2023-03-05T09:08:50Z</time>
      </trkpt>
      <trkpt lat="46.54186" lon="0.3444">
        <ele>121.4</ele>
        <time>2023-03-05T09:10:09Z</time>
      </trkpt>
      <trkpt lat="46.54186" lon="0.34439">
        <ele>121.4</ele>
        <time>2023-03-05T09:11:01Z</time>
      </trkpt>
      <trkpt lat="46.54185" lon="0.34439">
        <ele>121.4</ele>
        <time>2023-03-05T09:11:24Z</time>
      </trkpt>
      <trkpt lat="46.54185" lon="0.34439">
        <ele>121.4</ele>
        <time>2023-03-05T09:11:38Z</time>
      </trkpt>
      <trkpt lat="46.54185" lon="0.34439">
        <ele>121.4</ele>
        <time>2023-03-05T09:12:10Z</time>
      </trkpt>
      <trkpt lat="46.54185" lon="0.3444">
        <ele>121.4</ele>
        <time>2023-03-05T09:13:28Z</time>
      </trkpt>
      <trkpt lat="46.54185" lon="0.3444">
        <ele>121.4</ele>
        <time>2023-03-05T09:13:31Z</time>
      </trkpt>
      <trkpt lat="46.54185" lon="0.3444">
        <ele>121.4</ele>
        <time>2023-03-05T09:14:53Z</time>
      </trkpt>
      <trkpt lat="46.54185" lon="0.3444">
        <ele>121.4</ele>
        <time>2023-03-05T09:15:14Z</time>
      </trkpt>
      <trkpt lat="46.54185" lon="0.3444">
        <ele>121.4</ele>
        <time>2023-03-05T09:15:48Z</time>
      </trkpt>
      <trkpt lat="46.54185" lon="0.3444">
        <ele>121.4</ele>
        <time>2023-03-05T09:15:51Z</time>
      </trkpt>
      <trkpt lat="46.54185" lon="0.3444">
        <ele>121.4</ele>
        <time>2023-03-05T09:16:12Z</time>
      </trkpt>
      <trkpt lat="46.54184" lon="0.34441">
        <ele>121.4</ele>
        <time>2023-03-05T09:17:12Z</time>
      </trkpt>
      <trkpt lat="46.54185" lon="0.34442">
        <ele>121.4</ele>
        <time>2023-03-05T09:18:11Z</time>
      </trkpt>
      <trkpt lat="46.54185" lon="0.34442">
        <ele>121.4</ele>
        <time>2023-03-05T09:18:12Z</time>
      </trkpt>
      <trkpt lat="46.54185" lon="0.34442">
        <ele>121.4</ele>
        <time>2023-03-05T09:18:36Z</time>
      </trkpt>
      <trkpt lat="46.54185" lon="0.34442">
        <ele>121.4</ele>
        <time>2023-03-05T09:19:09Z</time>
      </trkpt>
      <trkpt lat="46.54185" lon="0.34442">
        <ele>121.4</ele>
        <time>2023-03-05T09:20:16Z</time>
      </trkpt>
      <trkpt lat="46.54185" lon="0.34443">
        <ele>121.4</ele>
        <time>2023-03-05T09:21:12Z</time>
      </trkpt>
      <trkpt lat="46.54185" lon="0.34443">
        <ele>121.4</ele>
        <time>2023-03-05T09:22:34Z</time>
      </trkpt>
      <trkpt lat="46.54185" lon="0.34443">
        <ele>121.4</ele>
        <time>2023-03-05T09:22:53Z</time>
      </trkpt>
      <trkpt lat="46.54185" lon="0.34443">
        <ele>121.4</ele>
        <time>2023-03-05T09:23:40Z</time>
      </trkpt>
      <trkpt lat="46.54185" lon="0.34443">
        <ele>121.4</ele>
        <time>2023-03-05T09:25:12Z</time>
      </trkpt>
      <trkpt lat="46.54185" lon="0.34443">
        <ele>121.4</ele>
        <time>2023-03-05T09:25:16Z</time>
      </trkpt>
      <trkpt lat="46.54185" lon="0.34445">
        <ele>121.4</ele>
        <time>2023-03-05T09:25:56Z</time>
      </trkpt>
      <trkpt lat="46.54185" lon="0.34439">
        <ele>121.4</ele>
        <time>2023-03-05T09:26:16Z</time>
      </trkpt>
      <trkpt lat="46.54186" lon="0.34438">
        <ele>121.4</ele>
        <time>2023-03-05T09:26:43Z</time>
      </trkpt>
      <trkpt lat="46.54186" lon="0.34437">
        <ele>121.4</ele>
        <time>2023-03-05T09:27:00Z</time>
      </trkpt>
      <trkpt lat="46.54189" lon="0.34432">
        <ele>121.4</ele>
        <time>2023-03-05T09:27:34Z</time>
      </trkpt>
      <trkpt lat="46.54193" lon="0.34421">
        <ele>121.4</ele>
        <time>2023-03-05T09:27:43Z</time>
      </trkpt>
      <trkpt lat="46.54202" lon="0.34423">
        <ele>122</ele>
        <time>2023-03-05T09:27:48Z</time>
      </trkpt>
      <trkpt lat="46.54213" lon="0.34431">
        <ele>122.4</ele>
        <time>2023-03-05T09:27:51Z</time>
      </trkpt>
      <trkpt lat="46.54219" lon="0.34439">
        <ele>122.2</ele>
        <time>2023-03-05T09:27:53Z</time>
      </trkpt>
      <trkpt lat="46.54223" lon="0.34442">
        <ele>122.2</ele>
        <time>2023-03-05T09:27:54Z</time>
      </trkpt>
      <trkpt lat="46.54232" lon="0.34452">
        <ele>122.6</ele>
        <time>2023-03-05T09:27:57Z</time>
      </trkpt>
      <trkpt lat="46.5424" lon="0.34459">
        <ele>122.8</ele>
        <time>2023-03-05T09:27:59Z</time>
      </trkpt>
      <trkpt lat="46.54265" lon="0.34482">
        <ele>122.8</ele>
        <time>2023-03-05T09:28:04Z</time>
      </trkpt>
      <trkpt lat="46.54282" lon="0.34495">
        <ele>123</ele>
        <time>2023-03-05T09:28:07Z</time>
      </trkpt>
      <trkpt lat="46.54295" lon="0.34501">
        <ele>123.4</ele>
        <time>2023-03-05T09:28:09Z</time>
      </trkpt>
      <trkpt lat="46.54331" lon="0.34516">
        <ele>123.8</ele>
        <time>2023-03-05T09:28:15Z</time>
      </trkpt>
      <trkpt lat="46.54361" lon="0.3453">
        <ele>123.6</ele>
        <time>2023-03-05T09:28:21Z</time>
      </trkpt>
      <trkpt lat="46.54365" lon="0.34532">
        <ele>123.4</ele>
        <time>2023-03-05T09:28:22Z</time>
      </trkpt>
      <trkpt lat="46.54371" lon="0.34539">
        <ele>123.2</ele>
        <time>2023-03-05T09:28:24Z</time>
      </trkpt>
      <trkpt lat="46.54373" lon="0.34542">
        <ele>123.2</ele>
        <time>2023-03-05T09:28:25Z</time>
      </trkpt>
      <trkpt lat="46.5438" lon="0.3456">
        <ele>122.6</ele>
        <time>2023-03-05T09:28:30Z</time>
      </trkpt>
      <trkpt lat="46.54381" lon="0.34565">
        <ele>123</ele>
        <time>2023-03-05T09:28:31Z</time>
      </trkpt>
      <trkpt lat="46.5438" lon="0.34575">
        <ele>123.2</ele>
        <time>2023-03-05T09:28:33Z</time>
      </trkpt>
      <trkpt lat="46.54379" lon="0.34579">
        <ele>123.2</ele>
        <time>2023-03-05T09:28:34Z</time>
      </trkpt>
      <trkpt lat="46.54376" lon="0.34581">
        <ele>123.4</ele>
        <time>2023-03-05T09:28:35Z</time>
      </trkpt>
      <trkpt lat="46.5437" lon="0.34586">
        <ele>123.2</ele>
        <time>2023-03-05T09:28:37Z</time>
      </trkpt>
      <trkpt lat="46.54367" lon="0.34587">
        <ele>123</ele>
        <time>2023-03-05T09:28:38Z</time>
      </trkpt>
      <trkpt lat="46.54364" lon="0.34586">
        <ele>123</ele>
        <time>2023-03-05T09:28:39Z</time>
      </trkpt>
      <trkpt lat="46.54359" lon="0.34588">
        <ele>122.8</ele>
        <time>2023-03-05T09:28:41Z</time>
      </trkpt>
      <trkpt lat="46.54356" lon="0.34591">
        <ele>122.8</ele>
        <time>2023-03-05T09:28:42Z</time>
      </trkpt>
      <trkpt lat="46.54354" lon="0.34595">
        <ele>122.8</ele>
        <time>2023-03-05T09:28:43Z</time>
      </trkpt>
      <trkpt lat="46.54351" lon="0.34604">
        <ele>122.8</ele>
        <time>2023-03-05T09:28:45Z</time>
      </trkpt>
      <trkpt lat="46.54349" lon="0.34609">
        <ele>122.8</ele>
        <time>2023-03-05T09:28:46Z</time>
      </trkpt>
      <trkpt lat="46.54346" lon="0.34611">
        <ele>122.8</ele>
        <time>2023-03-05T09:28:47Z</time>
      </trkpt>
      <trkpt lat="46.5434" lon="0.34617">
        <ele>122.6</ele>
        <time>2023-03-05T09:28:49Z</time>
      </trkpt>
      <trkpt lat="46.54333" lon="0.34623">
        <ele>122.4</ele>
        <time>2023-03-05T09:28:51Z</time>
      </trkpt>
      <trkpt lat="46.54327" lon="0.34629">
        <ele>122.4</ele>
        <time>2023-03-05T09:28:53Z</time>
      </trkpt>
      <trkpt lat="46.54318" lon="0.3464">
        <ele>122.2</ele>
        <time>2023-03-05T09:28:55Z</time>
      </trkpt>
      <trkpt lat="46.54315" lon="0.34644">
        <ele>122.2</ele>
        <time>2023-03-05T09:28:56Z</time>
      </trkpt>
      <trkpt lat="46.54312" lon="0.34648">
        <ele>122.2</ele>
        <time>2023-03-05T09:28:57Z</time>
      </trkpt>
      <trkpt lat="46.54307" lon="0.34657">
        <ele>122.2</ele>
        <time>2023-03-05T09:28:59Z</time>
      </trkpt>
      <trkpt lat="46.54303" lon="0.34661">
        <ele>122.2</ele>
        <time>2023-03-05T09:29:00Z</time>
      </trkpt>
      <trkpt lat="46.543" lon="0.34665">
        <ele>122.4</ele>
        <time>2023-03-05T09:29:01Z</time>
      </trkpt>
      <trkpt lat="46.54292" lon="0.34672">
        <ele>122.4</ele>
        <time>2023-03-05T09:29:03Z</time>
      </trkpt>
      <trkpt lat="46.54288" lon="0.34674">
        <ele>122.6</ele>
        <time>2023-03-05T09:29:04Z</time>
      </trkpt>
      <trkpt lat="46.54284" lon="0.34675">
        <ele>122.6</ele>
        <time>2023-03-05T09:29:05Z</time>
      </trkpt>
      <trkpt lat="46.54277" lon="0.34677">
        <ele>122.6</ele>
        <time>2023-03-05T09:29:07Z</time>
      </trkpt>
      <trkpt lat="46.54271" lon="0.34685">
        <ele>122.8</ele>
        <time>2023-03-05T09:29:09Z</time>
      </trkpt>
      <trkpt lat="46.54269" lon="0.34695">
        <ele>122.8</ele>
        <time>2023-03-05T09:29:11Z</time>
      </trkpt>
      <trkpt lat="46.54267" lon="0.34705">
        <ele>122.8</ele>
        <time>2023-03-05T09:29:13Z</time>
      </trkpt>
      <trkpt lat="46.54266" lon="0.34715">
        <ele>122.8</ele>
        <time>2023-03-05T09:29:15Z</time>
      </trkpt>
      <trkpt lat="46.54267" lon="0.34732">
        <ele>123</ele>
        <time>2023-03-05T09:29:18Z</time>
      </trkpt>
      <trkpt lat="46.54269" lon="0.3474">
        <ele>123.4</ele>
        <time>2023-03-05T09:29:20Z</time>
      </trkpt>
      <trkpt lat="46.54268" lon="0.34747">
        <ele>123.4</ele>
        <time>2023-03-05T09:29:22Z</time>
      </trkpt>
      <trkpt lat="46.54266" lon="0.34763">
        <ele>123.8</ele>
        <time>2023-03-05T09:29:26Z</time>
      </trkpt>
      <trkpt lat="46.54265" lon="0.34768">
        <ele>123.8</ele>
        <time>2023-03-05T09:29:27Z</time>
      </trkpt>
      <trkpt lat="46.54264" lon="0.34772">
        <ele>123.8</ele>
        <time>2023-03-05T09:29:28Z</time>
      </trkpt>
      <trkpt lat="46.5426" lon="0.34793">
        <ele>123.8</ele>
        <time>2023-03-05T09:29:32Z</time>
      </trkpt>
      <trkpt lat="46.54259" lon="0.34798">
        <ele>123.8</ele>
        <time>2023-03-05T09:29:33Z</time>
      </trkpt>
      <trkpt lat="46.54254" lon="0.34819">
        <ele>123.6</ele>
        <time>2023-03-05T09:29:36Z</time>
      </trkpt>
      <trkpt lat="46.54255" lon="0.34826">
        <ele>123.6</ele>
        <time>2023-03-05T09:29:37Z</time>
      </trkpt>
      <trkpt lat="46.54256" lon="0.34834">
        <ele>123.6</ele>
        <time>2023-03-05T09:29:38Z</time>
      </trkpt>
      <trkpt lat="46.5426" lon="0.34847">
        <ele>123.8</ele>
        <time>2023-03-05T09:29:40Z</time>
      </trkpt>
      <trkpt lat="46.54264" lon="0.34851">
        <ele>123.8</ele>
        <time>2023-03-05T09:29:41Z</time>
      </trkpt>
      <trkpt lat="46.5427" lon="0.3486">
        <ele>124</ele>
        <time>2023-03-05T09:29:43Z</time>
      </trkpt>
      <trkpt lat="46.54274" lon="0.34872">
        <ele>123.8</ele>
        <time>2023-03-05T09:29:45Z</time>
      </trkpt>
      <trkpt lat="46.54288" lon="0.34913">
        <ele>123.4</ele>
        <time>2023-03-05T09:29:51Z</time>
      </trkpt>
      <trkpt lat="46.54291" lon="0.34918">
        <ele>123.4</ele>
        <time>2023-03-05T09:29:52Z</time>
      </trkpt>
      <trkpt lat="46.54294" lon="0.34928">
        <ele>123.4</ele>
        <time>2023-03-05T09:29:54Z</time>
      </trkpt>
      <trkpt lat="46.54296" lon="0.34934">
        <ele>123.2</ele>
        <time>2023-03-05T09:29:55Z</time>
      </trkpt>
      <trkpt lat="46.54298" lon="0.34941">
        <ele>123.2</ele>
        <time>2023-03-05T09:29:56Z</time>
      </trkpt>
      <trkpt lat="46.543" lon="0.3495">
        <ele>123.2</ele>
        <time>2023-03-05T09:29:58Z</time>
      </trkpt>
      <trkpt lat="46.54299" lon="0.34953">
        <ele>123.2</ele>
        <time>2023-03-05T09:29:59Z</time>
      </trkpt>
      <trkpt lat="46.54291" lon="0.34954">
        <ele>123</ele>
        <time>2023-03-05T09:30:03Z</time>
      </trkpt>
      <trkpt lat="46.54286" lon="0.34957">
        <ele>123</ele>
        <time>2023-03-05T09:30:05Z</time>
      </trkpt>
      <trkpt lat="46.54284" lon="0.3496">
        <ele>122.6</ele>
        <time>2023-03-05T09:30:07Z</time>
      </trkpt>
      <trkpt lat="46.54283" lon="0.34962">
        <ele>122.4</ele>
        <time>2023-03-05T09:30:08Z</time>
      </trkpt>
      <trkpt lat="46.54281" lon="0.34964">
        <ele>122.4</ele>
        <time>2023-03-05T09:30:09Z</time>
      </trkpt>
      <trkpt lat="46.54275" lon="0.34965">
        <ele>122.2</ele>
        <time>2023-03-05T09:30:11Z</time>
      </trkpt>
      <trkpt lat="46.54273" lon="0.34964">
        <ele>121.8</ele>
        <time>2023-03-05T09:30:12Z</time>
      </trkpt>
      <trkpt lat="46.54268" lon="0.34963">
        <ele>121.4</ele>
        <time>2023-03-05T09:30:14Z</time>
      </trkpt>
      <trkpt lat="46.54265" lon="0.34968">
        <ele>121.2</ele>
        <time>2023-03-05T09:30:16Z</time>
      </trkpt>
      <trkpt lat="46.54256" lon="0.3499">
        <ele>120.8</ele>
        <time>2023-03-05T09:30:21Z</time>
      </trkpt>
      <trkpt lat="46.54255" lon="0.34994">
        <ele>120.6</ele>
        <time>2023-03-05T09:30:22Z</time>
      </trkpt>
      <trkpt lat="46.54255" lon="0.34999">
        <ele>120.6</ele>
        <time>2023-03-05T09:30:23Z</time>
      </trkpt>
      <trkpt lat="46.54258" lon="0.35009">
        <ele>121</ele>
        <time>2023-03-05T09:30:26Z</time>
      </trkpt>
      <trkpt lat="46.54265" lon="0.35023">
        <ele>122.4</ele>
        <time>2023-03-05T09:30:30Z</time>
      </trkpt>
      <trkpt lat="46.54269" lon="0.3503">
        <ele>122.6</ele>
        <time>2023-03-05T09:30:32Z</time>
      </trkpt>
      <trkpt lat="46.54275" lon="0.35037">
        <ele>123.4</ele>
        <time>2023-03-05T09:30:35Z</time>
      </trkpt>
      <trkpt lat="46.54281" lon="0.35046">
        <ele>123.8</ele>
        <time>2023-03-05T09:30:38Z</time>
      </trkpt>
      <trkpt lat="46.54294" lon="0.35052">
        <ele>124</ele>
        <time>2023-03-05T09:30:43Z</time>
      </trkpt>
      <trkpt lat="46.54296" lon="0.35053">
        <ele>124.2</ele>
        <time>2023-03-05T09:30:44Z</time>
      </trkpt>
      <trkpt lat="46.54299" lon="0.35053">
        <ele>124.2</ele>
        <time>2023-03-05T09:30:45Z</time>
      </trkpt>
      <trkpt lat="46.54309" lon="0.35055">
        <ele>124.4</ele>
        <time>2023-03-05T09:30:48Z</time>
      </trkpt>
      <trkpt lat="46.5431" lon="0.35057">
        <ele>124.4</ele>
        <time>2023-03-05T09:30:49Z</time>
      </trkpt>
      <trkpt lat="46.5432" lon="0.35067">
        <ele>125.4</ele>
        <time>2023-03-05T09:30:53Z</time>
      </trkpt>
      <trkpt lat="46.5432" lon="0.35071">
        <ele>125.4</ele>
        <time>2023-03-05T09:30:54Z</time>
      </trkpt>
      <trkpt lat="46.54319" lon="0.35086">
        <ele>125.8</ele>
        <time>2023-03-05T09:30:58Z</time>
      </trkpt>
      <trkpt lat="46.54318" lon="0.3509">
        <ele>125.8</ele>
        <time>2023-03-05T09:30:59Z</time>
      </trkpt>
      <trkpt lat="46.54313" lon="0.35113">
        <ele>126.4</ele>
        <time>2023-03-05T09:31:04Z</time>
      </trkpt>
      <trkpt lat="46.5431" lon="0.35123">
        <ele>126.2</ele>
        <time>2023-03-05T09:31:06Z</time>
      </trkpt>
      <trkpt lat="46.54307" lon="0.35135">
        <ele>126.6</ele>
        <time>2023-03-05T09:31:08Z</time>
      </trkpt>
      <trkpt lat="46.54303" lon="0.35146">
        <ele>126.6</ele>
        <time>2023-03-05T09:31:10Z</time>
      </trkpt>
      <trkpt lat="46.54295" lon="0.35159">
        <ele>126.8</ele>
        <time>2023-03-05T09:31:12Z</time>
      </trkpt>
      <trkpt lat="46.54277" lon="0.35197">
        <ele>126.8</ele>
        <time>2023-03-05T09:31:18Z</time>
      </trkpt>
      <trkpt lat="46.54254" lon="0.35237">
        <ele>127.2</ele>
        <time>2023-03-05T09:31:25Z</time>
      </trkpt>
      <trkpt lat="46.5425" lon="0.35242">
        <ele>127.2</ele>
        <time>2023-03-05T09:31:26Z</time>
      </trkpt>
      <trkpt lat="46.54239" lon="0.3526">
        <ele>127.2</ele>
        <time>2023-03-05T09:31:29Z</time>
      </trkpt>
      <trkpt lat="46.54231" lon="0.35273">
        <ele>127.4</ele>
        <time>2023-03-05T09:31:31Z</time>
      </trkpt>
      <trkpt lat="46.54224" lon="0.35285">
        <ele>127.6</ele>
        <time>2023-03-05T09:31:33Z</time>
      </trkpt>
      <trkpt lat="46.54217" lon="0.35296">
        <ele>127.6</ele>
        <time>2023-03-05T09:31:35Z</time>
      </trkpt>
      <trkpt lat="46.54213" lon="0.35301">
        <ele>127.4</ele>
        <time>2023-03-05T09:31:36Z</time>
      </trkpt>
      <trkpt lat="46.54208" lon="0.35306">
        <ele>127.4</ele>
        <time>2023-03-05T09:31:37Z</time>
      </trkpt>
      <trkpt lat="46.54203" lon="0.35311">
        <ele>127.2</ele>
        <time>2023-03-05T09:31:38Z</time>
      </trkpt>
      <trkpt lat="46.54178" lon="0.35332">
        <ele>127</ele>
        <time>2023-03-05T09:31:42Z</time>
      </trkpt>
      <trkpt lat="46.54166" lon="0.35351">
        <ele>126.8</ele>
        <time>2023-03-05T09:31:45Z</time>
      </trkpt>
      <trkpt lat="46.54162" lon="0.35359">
        <ele>126.6</ele>
        <time>2023-03-05T09:31:46Z</time>
      </trkpt>
      <trkpt lat="46.54157" lon="0.35367">
        <ele>126.4</ele>
        <time>2023-03-05T09:31:47Z</time>
      </trkpt>
      <trkpt lat="46.54147" lon="0.35384">
        <ele>126.4</ele>
        <time>2023-03-05T09:31:49Z</time>
      </trkpt>
      <trkpt lat="46.54141" lon="0.35391">
        <ele>126.4</ele>
        <time>2023-03-05T09:31:50Z</time>
      </trkpt>
      <trkpt lat="46.5411" lon="0.35438">
        <ele>126.8</ele>
        <time>2023-03-05T09:31:56Z</time>
      </trkpt>
      <trkpt lat="46.541" lon="0.35479">
        <ele>127</ele>
        <time>2023-03-05T09:32:00Z</time>
      </trkpt>
      <trkpt lat="46.54095" lon="0.35499">
        <ele>127</ele>
        <time>2023-03-05T09:32:02Z</time>
      </trkpt>
      <trkpt lat="46.54085" lon="0.35526">
        <ele>127.2</ele>
        <time>2023-03-05T09:32:05Z</time>
      </trkpt>
      <trkpt lat="46.54078" lon="0.35544">
        <ele>127.8</ele>
        <time>2023-03-05T09:32:07Z</time>
      </trkpt>
      <trkpt lat="46.5405" lon="0.35602">
        <ele>127.8</ele>
        <time>2023-03-05T09:32:14Z</time>
      </trkpt>
      <trkpt lat="46.54024" lon="0.35663">
        <ele>127.8</ele>
        <time>2023-03-05T09:32:21Z</time>
      </trkpt>
      <trkpt lat="46.5401" lon="0.35723">
        <ele>127.8</ele>
        <time>2023-03-05T09:32:27Z</time>
      </trkpt>
      <trkpt lat="46.54" lon="0.35785">
        <ele>127.6</ele>
        <time>2023-03-05T09:32:33Z</time>
      </trkpt>
      <trkpt lat="46.53999" lon="0.35806">
        <ele>127.4</ele>
        <time>2023-03-05T09:32:35Z</time>
      </trkpt>
      <trkpt lat="46.53996" lon="0.35861">
        <ele>126.6</ele>
        <time>2023-03-05T09:32:40Z</time>
      </trkpt>
      <trkpt lat="46.53994" lon="0.35897">
        <ele>126</ele>
        <time>2023-03-05T09:32:43Z</time>
      </trkpt>
      <trkpt lat="46.53993" lon="0.35921">
        <ele>125.6</ele>
        <time>2023-03-05T09:32:45Z</time>
      </trkpt>
      <trkpt lat="46.5399" lon="0.3597">
        <ele>124.2</ele>
        <time>2023-03-05T09:32:49Z</time>
      </trkpt>
      <trkpt lat="46.53988" lon="0.36004">
        <ele>123.2</ele>
        <time>2023-03-05T09:32:52Z</time>
      </trkpt>
      <trkpt lat="46.53986" lon="0.36014">
        <ele>123</ele>
        <time>2023-03-05T09:32:53Z</time>
      </trkpt>
      <trkpt lat="46.5398" lon="0.36033">
        <ele>123</ele>
        <time>2023-03-05T09:32:55Z</time>
      </trkpt>
      <trkpt lat="46.53972" lon="0.36047">
        <ele>123</ele>
        <time>2023-03-05T09:32:57Z</time>
      </trkpt>
      <trkpt lat="46.53962" lon="0.36059">
        <ele>123.6</ele>
        <time>2023-03-05T09:32:59Z</time>
      </trkpt>
      <trkpt lat="46.53947" lon="0.36074">
        <ele>124.2</ele>
        <time>2023-03-05T09:33:02Z</time>
      </trkpt>
      <trkpt lat="46.53922" lon="0.361">
        <ele>124.8</ele>
        <time>2023-03-05T09:33:07Z</time>
      </trkpt>
      <trkpt lat="46.53913" lon="0.36112">
        <ele>125</ele>
        <time>2023-03-05T09:33:09Z</time>
      </trkpt>
      <trkpt lat="46.53892" lon="0.36143">
        <ele>125.2</ele>
        <time>2023-03-05T09:33:14Z</time>
      </trkpt>
      <trkpt lat="46.53888" lon="0.36149">
        <ele>125.4</ele>
        <time>2023-03-05T09:33:15Z</time>
      </trkpt>
      <trkpt lat="46.53856" lon="0.36199">
        <ele>125.8</ele>
        <time>2023-03-05T09:33:23Z</time>
      </trkpt>
      <trkpt lat="46.53826" lon="0.36258">
        <ele>126</ele>
        <time>2023-03-05T09:33:31Z</time>
      </trkpt>
      <trkpt lat="46.53824" lon="0.36267">
        <ele>126</ele>
        <time>2023-03-05T09:33:32Z</time>
      </trkpt>
      <trkpt lat="46.5382" lon="0.36287">
        <ele>125.8</ele>
        <time>2023-03-05T09:33:34Z</time>
      </trkpt>
      <trkpt lat="46.53819" lon="0.36297">
        <ele>125.8</ele>
        <time>2023-03-05T09:33:35Z</time>
      </trkpt>
      <trkpt lat="46.53819" lon="0.36308">
        <ele>125.8</ele>
        <time>2023-03-05T09:33:36Z</time>
      </trkpt>
      <trkpt lat="46.53824" lon="0.36349">
        <ele>125.4</ele>
        <time>2023-03-05T09:33:40Z</time>
      </trkpt>
      <trkpt lat="46.53835" lon="0.36429">
        <ele>124</ele>
        <time>2023-03-05T09:33:47Z</time>
      </trkpt>
      <trkpt lat="46.53837" lon="0.36439">
        <ele>123.6</ele>
        <time>2023-03-05T09:33:48Z</time>
      </trkpt>
      <trkpt lat="46.53833" lon="0.36456">
        <ele>122.6</ele>
        <time>2023-03-05T09:33:50Z</time>
      </trkpt>
      <trkpt lat="46.53829" lon="0.3646">
        <ele>122</ele>
        <time>2023-03-05T09:33:51Z</time>
      </trkpt>
      <trkpt lat="46.53825" lon="0.36462">
        <ele>121.6</ele>
        <time>2023-03-05T09:33:52Z</time>
      </trkpt>
      <trkpt lat="46.53821" lon="0.36462">
        <ele>121.4</ele>
        <time>2023-03-05T09:33:53Z</time>
      </trkpt>
      <trkpt lat="46.53817" lon="0.3646">
        <ele>121</ele>
        <time>2023-03-05T09:33:54Z</time>
      </trkpt>
      <trkpt lat="46.53805" lon="0.3645">
        <ele>120.8</ele>
        <time>2023-03-05T09:33:57Z</time>
      </trkpt>
      <trkpt lat="46.53802" lon="0.36447">
        <ele>120.8</ele>
        <time>2023-03-05T09:33:58Z</time>
      </trkpt>
      <trkpt lat="46.53779" lon="0.36423">
        <ele>121.2</ele>
        <time>2023-03-05T09:34:03Z</time>
      </trkpt>
      <trkpt lat="46.53755" lon="0.36397">
        <ele>121.4</ele>
        <time>2023-03-05T09:34:08Z</time>
      </trkpt>
      <trkpt lat="46.53722" lon="0.36369">
        <ele>121</ele>
        <time>2023-03-05T09:34:13Z</time>
      </trkpt>
      <trkpt lat="46.53686" lon="0.36332">
        <ele>120.6</ele>
        <time>2023-03-05T09:34:19Z</time>
      </trkpt>
      <trkpt lat="46.53643" lon="0.36286">
        <ele>121.2</ele>
        <time>2023-03-05T09:34:27Z</time>
      </trkpt>
      <trkpt lat="46.53609" lon="0.36245">
        <ele>121.6</ele>
        <time>2023-03-05T09:34:34Z</time>
      </trkpt>
      <trkpt lat="46.53601" lon="0.36232">
        <ele>121.6</ele>
        <time>2023-03-05T09:34:36Z</time>
      </trkpt>
      <trkpt lat="46.53588" lon="0.36217">
        <ele>121.8</ele>
        <time>2023-03-05T09:34:39Z</time>
      </trkpt>
      <trkpt lat="46.53579" lon="0.3621">
        <ele>122.4</ele>
        <time>2023-03-05T09:34:41Z</time>
      </trkpt>
      <trkpt lat="46.53555" lon="0.36192">
        <ele>122.8</ele>
        <time>2023-03-05T09:34:46Z</time>
      </trkpt>
      <trkpt lat="46.5355" lon="0.36189">
        <ele>122.8</ele>
        <time>2023-03-05T09:34:47Z</time>
      </trkpt>
      <trkpt lat="46.5354" lon="0.36187">
        <ele>122.8</ele>
        <time>2023-03-05T09:34:49Z</time>
      </trkpt>
      <trkpt lat="46.53534" lon="0.36187">
        <ele>122.8</ele>
        <time>2023-03-05T09:34:50Z</time>
      </trkpt>
      <trkpt lat="46.53501" lon="0.36186">
        <ele>122.6</ele>
        <time>2023-03-05T09:34:55Z</time>
      </trkpt>
      <trkpt lat="46.53488" lon="0.36179">
        <ele>122.6</ele>
        <time>2023-03-05T09:34:57Z</time>
      </trkpt>
      <trkpt lat="46.53477" lon="0.36169">
        <ele>122.2</ele>
        <time>2023-03-05T09:34:59Z</time>
      </trkpt>
      <trkpt lat="46.53441" lon="0.36131">
        <ele>122</ele>
        <time>2023-03-05T09:35:06Z</time>
      </trkpt>
      <trkpt lat="46.53431" lon="0.36121">
        <ele>121.2</ele>
        <time>2023-03-05T09:35:08Z</time>
      </trkpt>
      <trkpt lat="46.53421" lon="0.36113">
        <ele>120.8</ele>
        <time>2023-03-05T09:35:10Z</time>
      </trkpt>
      <trkpt lat="46.53406" lon="0.36098">
        <ele>120.8</ele>
        <time>2023-03-05T09:35:13Z</time>
      </trkpt>
      <trkpt lat="46.53394" lon="0.36086">
        <ele>120.2</ele>
        <time>2023-03-05T09:35:15Z</time>
      </trkpt>
      <trkpt lat="46.53373" lon="0.36067">
        <ele>119.2</ele>
        <time>2023-03-05T09:35:18Z</time>
      </trkpt>
      <trkpt lat="46.53365" lon="0.36062">
        <ele>118.6</ele>
        <time>2023-03-05T09:35:19Z</time>
      </trkpt>
      <trkpt lat="46.5335" lon="0.36055">
        <ele>117.6</ele>
        <time>2023-03-05T09:35:21Z</time>
      </trkpt>
      <trkpt lat="46.53343" lon="0.36055">
        <ele>117.2</ele>
        <time>2023-03-05T09:35:22Z</time>
      </trkpt>
      <trkpt lat="46.53334" lon="0.36055">
        <ele>116.4</ele>
        <time>2023-03-05T09:35:23Z</time>
      </trkpt>
      <trkpt lat="46.53316" lon="0.36059">
        <ele>114.4</ele>
        <time>2023-03-05T09:35:25Z</time>
      </trkpt>
      <trkpt lat="46.53307" lon="0.36061">
        <ele>113.8</ele>
        <time>2023-03-05T09:35:26Z</time>
      </trkpt>
      <trkpt lat="46.53299" lon="0.36063">
        <ele>113</ele>
        <time>2023-03-05T09:35:27Z</time>
      </trkpt>
      <trkpt lat="46.53273" lon="0.36075">
        <ele>109.8</ele>
        <time>2023-03-05T09:35:30Z</time>
      </trkpt>
      <trkpt lat="46.53263" lon="0.36079">
        <ele>108.2</ele>
        <time>2023-03-05T09:35:31Z</time>
      </trkpt>
      <trkpt lat="46.53255" lon="0.36083">
        <ele>106.8</ele>
        <time>2023-03-05T09:35:32Z</time>
      </trkpt>
      <trkpt lat="46.53247" lon="0.36088">
        <ele>105.8</ele>
        <time>2023-03-05T09:35:33Z</time>
      </trkpt>
      <trkpt lat="46.53234" lon="0.36095">
        <ele>104.4</ele>
        <time>2023-03-05T09:35:35Z</time>
      </trkpt>
      <trkpt lat="46.53225" lon="0.36093">
        <ele>103.8</ele>
        <time>2023-03-05T09:35:37Z</time>
      </trkpt>
      <trkpt lat="46.53221" lon="0.3609">
        <ele>103.8</ele>
        <time>2023-03-05T09:35:38Z</time>
      </trkpt>
      <trkpt lat="46.53218" lon="0.36086">
        <ele>103.8</ele>
        <time>2023-03-05T09:35:39Z</time>
      </trkpt>
      <trkpt lat="46.53205" lon="0.36061">
        <ele>105</ele>
        <time>2023-03-05T09:35:44Z</time>
      </trkpt>
      <trkpt lat="46.53198" lon="0.36041">
        <ele>105.4</ele>
        <time>2023-03-05T09:35:47Z</time>
      </trkpt>
      <trkpt lat="46.53192" lon="0.36029">
        <ele>106.2</ele>
        <time>2023-03-05T09:35:49Z</time>
      </trkpt>
      <trkpt lat="46.53187" lon="0.36015">
        <ele>106.6</ele>
        <time>2023-03-05T09:35:51Z</time>
      </trkpt>
      <trkpt lat="46.53172" lon="0.35973">
        <ele>107.4</ele>
        <time>2023-03-05T09:35:57Z</time>
      </trkpt>
      <trkpt lat="46.53162" lon="0.35941">
        <ele>107.6</ele>
        <time>2023-03-05T09:36:01Z</time>
      </trkpt>
      <trkpt lat="46.53148" lon="0.359">
        <ele>107.8</ele>
        <time>2023-03-05T09:36:06Z</time>
      </trkpt>
      <trkpt lat="46.53122" lon="0.3584">
        <ele>108.6</ele>
        <time>2023-03-05T09:36:14Z</time>
      </trkpt>
      <trkpt lat="46.53119" lon="0.35834">
        <ele>108.6</ele>
        <time>2023-03-05T09:36:15Z</time>
      </trkpt>
      <trkpt lat="46.53104" lon="0.35806">
        <ele>109.8</ele>
        <time>2023-03-05T09:36:20Z</time>
      </trkpt>
      <trkpt lat="46.531" lon="0.35801">
        <ele>110</ele>
        <time>2023-03-05T09:36:21Z</time>
      </trkpt>
      <trkpt lat="46.5307" lon="0.35755">
        <ele>111.2</ele>
        <time>2023-03-05T09:36:30Z</time>
      </trkpt>
      <trkpt lat="46.53055" lon="0.3573">
        <ele>112.4</ele>
        <time>2023-03-05T09:36:35Z</time>
      </trkpt>
      <trkpt lat="46.53044" lon="0.35712">
        <ele>113.4</ele>
        <time>2023-03-05T09:36:39Z</time>
      </trkpt>
      <trkpt lat="46.5303" lon="0.35689">
        <ele>114.4</ele>
        <time>2023-03-05T09:36:44Z</time>
      </trkpt>
      <trkpt lat="46.5302" lon="0.35672">
        <ele>115.4</ele>
        <time>2023-03-05T09:36:48Z</time>
      </trkpt>
      <trkpt lat="46.53017" lon="0.35668">
        <ele>115.8</ele>
        <time>2023-03-05T09:36:49Z</time>
      </trkpt>
      <trkpt lat="46.53008" lon="0.35652">
        <ele>116.6</ele>
        <time>2023-03-05T09:36:54Z</time>
      </trkpt>
      <trkpt lat="46.53002" lon="0.35642">
        <ele>117.2</ele>
        <time>2023-03-05T09:36:57Z</time>
      </trkpt>
      <trkpt lat="46.52996" lon="0.3563">
        <ele>117.8</ele>
        <time>2023-03-05T09:37:00Z</time>
      </trkpt>
      <trkpt lat="46.52993" lon="0.35621">
        <ele>118.2</ele>
        <time>2023-03-05T09:37:02Z</time>
      </trkpt>
      <trkpt lat="46.52989" lon="0.35612">
        <ele>118.8</ele>
        <time>2023-03-05T09:37:04Z</time>
      </trkpt>
      <trkpt lat="46.52981" lon="0.35589">
        <ele>119.6</ele>
        <time>2023-03-05T09:37:09Z</time>
      </trkpt>
      <trkpt lat="46.5298" lon="0.35584">
        <ele>119.8</ele>
        <time>2023-03-05T09:37:10Z</time>
      </trkpt>
      <trkpt lat="46.52972" lon="0.35553">
        <ele>121</ele>
        <time>2023-03-05T09:37:16Z</time>
      </trkpt>
      <trkpt lat="46.52971" lon="0.35547">
        <ele>121</ele>
        <time>2023-03-05T09:37:17Z</time>
      </trkpt>
      <trkpt lat="46.52964" lon="0.35514">
        <ele>122</ele>
        <time>2023-03-05T09:37:23Z</time>
      </trkpt>
      <trkpt lat="46.5296" lon="0.35475">
        <ele>123.2</ele>
        <time>2023-03-05T09:37:30Z</time>
      </trkpt>
      <trkpt lat="46.52959" lon="0.3544">
        <ele>124.4</ele>
        <time>2023-03-05T09:37:36Z</time>
      </trkpt>
      <trkpt lat="46.52959" lon="0.35429">
        <ele>125</ele>
        <time>2023-03-05T09:37:38Z</time>
      </trkpt>
      <trkpt lat="46.5296" lon="0.35418">
        <ele>125.6</ele>
        <time>2023-03-05T09:37:40Z</time>
      </trkpt>
      <trkpt lat="46.52962" lon="0.35391">
        <ele>126.6</ele>
        <time>2023-03-05T09:37:45Z</time>
      </trkpt>
      <trkpt lat="46.52964" lon="0.35387">
        <ele>126.8</ele>
        <time>2023-03-05T09:37:46Z</time>
      </trkpt>
      <trkpt lat="46.52975" lon="0.35375">
        <ele>127.4</ele>
        <time>2023-03-05T09:37:50Z</time>
      </trkpt>
      <trkpt lat="46.52979" lon="0.35373">
        <ele>127.6</ele>
        <time>2023-03-05T09:37:51Z</time>
      </trkpt>
      <trkpt lat="46.52995" lon="0.35373">
        <ele>128.8</ele>
        <time>2023-03-05T09:37:55Z</time>
      </trkpt>
      <trkpt lat="46.53033" lon="0.35371">
        <ele>129.8</ele>
        <time>2023-03-05T09:38:04Z</time>
      </trkpt>
      <trkpt lat="46.53037" lon="0.35371">
        <ele>130</ele>
        <time>2023-03-05T09:38:05Z</time>
      </trkpt>
      <trkpt lat="46.53077" lon="0.3537">
        <ele>130.6</ele>
        <time>2023-03-05T09:38:14Z</time>
      </trkpt>
      <trkpt lat="46.53114" lon="0.35371">
        <ele>130.8</ele>
        <time>2023-03-05T09:38:22Z</time>
      </trkpt>
      <trkpt lat="46.53123" lon="0.35372">
        <ele>131.2</ele>
        <time>2023-03-05T09:38:24Z</time>
      </trkpt>
      <trkpt lat="46.53156" lon="0.35377">
        <ele>131.6</ele>
        <time>2023-03-05T09:38:31Z</time>
      </trkpt>
      <trkpt lat="46.53187" lon="0.35389">
        <ele>131.2</ele>
        <time>2023-03-05T09:38:38Z</time>
      </trkpt>
      <trkpt lat="46.53192" lon="0.3539">
        <ele>131</ele>
        <time>2023-03-05T09:38:39Z</time>
      </trkpt>
      <trkpt lat="46.532" lon="0.35385">
        <ele>130.8</ele>
        <time>2023-03-05T09:38:41Z</time>
      </trkpt>
      <trkpt lat="46.53205" lon="0.35371">
        <ele>130.6</ele>
        <time>2023-03-05T09:38:43Z</time>
      </trkpt>
      <trkpt lat="46.53206" lon="0.35363">
        <ele>130.4</ele>
        <time>2023-03-05T09:38:44Z</time>
      </trkpt>
      <trkpt lat="46.53207" lon="0.35349">
        <ele>130.2</ele>
        <time>2023-03-05T09:38:46Z</time>
      </trkpt>
      <trkpt lat="46.53206" lon="0.35342">
        <ele>130.2</ele>
        <time>2023-03-05T09:38:47Z</time>
      </trkpt>
      <trkpt lat="46.53203" lon="0.35338">
        <ele>130</ele>
        <time>2023-03-05T09:38:48Z</time>
      </trkpt>
      <trkpt lat="46.53199" lon="0.35335">
        <ele>130</ele>
        <time>2023-03-05T09:38:49Z</time>
      </trkpt>
      <trkpt lat="46.53189" lon="0.35334">
        <ele>130</ele>
        <time>2023-03-05T09:38:51Z</time>
      </trkpt>
      <trkpt lat="46.53155" lon="0.35326">
        <ele>129.8</ele>
        <time>2023-03-05T09:38:58Z</time>
      </trkpt>
      <trkpt lat="46.53137" lon="0.35322">
        <ele>129.6</ele>
        <time>2023-03-05T09:39:02Z</time>
      </trkpt>
      <trkpt lat="46.53122" lon="0.35321">
        <ele>129.8</ele>
        <time>2023-03-05T09:39:05Z</time>
      </trkpt>
      <trkpt lat="46.53086" lon="0.35324">
        <ele>130.4</ele>
        <time>2023-03-05T09:39:11Z</time>
      </trkpt>
      <trkpt lat="46.53042" lon="0.35326">
        <ele>130.4</ele>
        <time>2023-03-05T09:39:17Z</time>
      </trkpt>
      <trkpt lat="46.52983" lon="0.35332">
        <ele>130</ele>
        <time>2023-03-05T09:39:25Z</time>
      </trkpt>
      <trkpt lat="46.52968" lon="0.35334">
        <ele>130</ele>
        <time>2023-03-05T09:39:27Z</time>
      </trkpt>
      <trkpt lat="46.52909" lon="0.3534">
        <ele>129</ele>
        <time>2023-03-05T09:39:35Z</time>
      </trkpt>
      <trkpt lat="46.52895" lon="0.35341">
        <ele>128.4</ele>
        <time>2023-03-05T09:39:37Z</time>
      </trkpt>
      <trkpt lat="46.52855" lon="0.35345">
        <ele>128.6</ele>
        <time>2023-03-05T09:39:43Z</time>
      </trkpt>
      <trkpt lat="46.52828" lon="0.35346">
        <ele>130.2</ele>
        <time>2023-03-05T09:39:48Z</time>
      </trkpt>
      <trkpt lat="46.52818" lon="0.35346">
        <ele>130.6</ele>
        <time>2023-03-05T09:39:50Z</time>
      </trkpt>
      <trkpt lat="46.52782" lon="0.35348">
        <ele>131.2</ele>
        <time>2023-03-05T09:39:56Z</time>
      </trkpt>
      <trkpt lat="46.52765" lon="0.35349">
        <ele>131.2</ele>
        <time>2023-03-05T09:39:59Z</time>
      </trkpt>
      <trkpt lat="46.52729" lon="0.35353">
        <ele>132</ele>
        <time>2023-03-05T09:40:05Z</time>
      </trkpt>
      <trkpt lat="46.52717" lon="0.35354">
        <ele>132.2</ele>
        <time>2023-03-05T09:40:07Z</time>
      </trkpt>
      <trkpt lat="46.52691" lon="0.35358">
        <ele>132.6</ele>
        <time>2023-03-05T09:40:11Z</time>
      </trkpt>
      <trkpt lat="46.52642" lon="0.35365">
        <ele>133.4</ele>
        <time>2023-03-05T09:40:19Z</time>
      </trkpt>
      <trkpt lat="46.52597" lon="0.35371">
        <ele>133.4</ele>
        <time>2023-03-05T09:40:26Z</time>
      </trkpt>
      <trkpt lat="46.52548" lon="0.35376">
        <ele>133.8</ele>
        <time>2023-03-05T09:40:34Z</time>
      </trkpt>
      <trkpt lat="46.52523" lon="0.35378">
        <ele>134.4</ele>
        <time>2023-03-05T09:40:38Z</time>
      </trkpt>
      <trkpt lat="46.52505" lon="0.35381">
        <ele>134.8</ele>
        <time>2023-03-05T09:40:41Z</time>
      </trkpt>
      <trkpt lat="46.52465" lon="0.3539">
        <ele>134.8</ele>
        <time>2023-03-05T09:40:47Z</time>
      </trkpt>
      <trkpt lat="46.52412" lon="0.3541">
        <ele>135</ele>
        <time>2023-03-05T09:40:55Z</time>
      </trkpt>
      <trkpt lat="46.52354" lon="0.3543">
        <ele>135.2</ele>
        <time>2023-03-05T09:41:04Z</time>
      </trkpt>
      <trkpt lat="46.52337" lon="0.35435">
        <ele>135.4</ele>
        <time>2023-03-05T09:41:07Z</time>
      </trkpt>
      <trkpt lat="46.5231" lon="0.35442">
        <ele>136</ele>
        <time>2023-03-05T09:41:12Z</time>
      </trkpt>
      <trkpt lat="46.52295" lon="0.35447">
        <ele>136.6</ele>
        <time>2023-03-05T09:41:15Z</time>
      </trkpt>
      <trkpt lat="46.52266" lon="0.35456">
        <ele>137.6</ele>
        <time>2023-03-05T09:41:21Z</time>
      </trkpt>
      <trkpt lat="46.52261" lon="0.35457">
        <ele>138</ele>
        <time>2023-03-05T09:41:22Z</time>
      </trkpt>
      <trkpt lat="46.52242" lon="0.35464">
        <ele>138.4</ele>
        <time>2023-03-05T09:41:26Z</time>
      </trkpt>
      <trkpt lat="46.52233" lon="0.35471">
        <ele>138.4</ele>
        <time>2023-03-05T09:41:28Z</time>
      </trkpt>
      <trkpt lat="46.52214" lon="0.35485">
        <ele>138.4</ele>
        <time>2023-03-05T09:41:32Z</time>
      </trkpt>
      <trkpt lat="46.52203" lon="0.35489">
        <ele>138.6</ele>
        <time>2023-03-05T09:41:34Z</time>
      </trkpt>
      <trkpt lat="46.52175" lon="0.35501">
        <ele>139</ele>
        <time>2023-03-05T09:41:39Z</time>
      </trkpt>
      <trkpt lat="46.52158" lon="0.35507">
        <ele>139.4</ele>
        <time>2023-03-05T09:41:42Z</time>
      </trkpt>
      <trkpt lat="46.5213" lon="0.35519">
        <ele>140</ele>
        <time>2023-03-05T09:41:47Z</time>
      </trkpt>
      <trkpt lat="46.52114" lon="0.35526">
        <ele>140.2</ele>
        <time>2023-03-05T09:41:50Z</time>
      </trkpt>
      <trkpt lat="46.52067" lon="0.35546">
        <ele>140.6</ele>
        <time>2023-03-05T09:41:59Z</time>
      </trkpt>
      <trkpt lat="46.52042" lon="0.35557">
        <ele>141</ele>
        <time>2023-03-05T09:42:04Z</time>
      </trkpt>
      <trkpt lat="46.52017" lon="0.35567">
        <ele>141.2</ele>
        <time>2023-03-05T09:42:09Z</time>
      </trkpt>
      <trkpt lat="46.51977" lon="0.35584">
        <ele>142</ele>
        <time>2023-03-05T09:42:17Z</time>
      </trkpt>
      <trkpt lat="46.51949" lon="0.35595">
        <ele>142.6</ele>
        <time>2023-03-05T09:42:23Z</time>
      </trkpt>
      <trkpt lat="46.51902" lon="0.35613">
        <ele>143</ele>
        <time>2023-03-05T09:42:32Z</time>
      </trkpt>
      <trkpt lat="46.51856" lon="0.35626">
        <ele>142.4</ele>
        <time>2023-03-05T09:42:40Z</time>
      </trkpt>
      <trkpt lat="46.51844" lon="0.35626">
        <ele>142.4</ele>
        <time>2023-03-05T09:42:42Z</time>
      </trkpt>
      <trkpt lat="46.51834" lon="0.35619">
        <ele>142.4</ele>
        <time>2023-03-05T09:42:44Z</time>
      </trkpt>
      <trkpt lat="46.51826" lon="0.35609">
        <ele>142.4</ele>
        <time>2023-03-05T09:42:46Z</time>
      </trkpt>
      <trkpt lat="46.51817" lon="0.35605">
        <ele>142.4</ele>
        <time>2023-03-05T09:42:48Z</time>
      </trkpt>
      <trkpt lat="46.51811" lon="0.35612">
        <ele>142.4</ele>
        <time>2023-03-05T09:42:50Z</time>
      </trkpt>
      <trkpt lat="46.51808" lon="0.35624">
        <ele>142.6</ele>
        <time>2023-03-05T09:42:52Z</time>
      </trkpt>
      <trkpt lat="46.51804" lon="0.35636">
        <ele>142.8</ele>
        <time>2023-03-05T09:42:54Z</time>
      </trkpt>
      <trkpt lat="46.518" lon="0.3565">
        <ele>142.8</ele>
        <time>2023-03-05T09:42:56Z</time>
      </trkpt>
      <trkpt lat="46.51799" lon="0.35658">
        <ele>143.2</ele>
        <time>2023-03-05T09:42:57Z</time>
      </trkpt>
      <trkpt lat="46.51798" lon="0.35666">
        <ele>143.4</ele>
        <time>2023-03-05T09:42:58Z</time>
      </trkpt>
      <trkpt lat="46.51802" lon="0.35681">
        <ele>143.8</ele>
        <time>2023-03-05T09:43:00Z</time>
      </trkpt>
      <trkpt lat="46.51806" lon="0.35687">
        <ele>144</ele>
        <time>2023-03-05T09:43:01Z</time>
      </trkpt>
      <trkpt lat="46.51811" lon="0.35693">
        <ele>144.2</ele>
        <time>2023-03-05T09:43:02Z</time>
      </trkpt>
      <trkpt lat="46.5183" lon="0.35717">
        <ele>144.6</ele>
        <time>2023-03-05T09:43:06Z</time>
      </trkpt>
      <trkpt lat="46.51842" lon="0.35723">
        <ele>144.2</ele>
        <time>2023-03-05T09:43:08Z</time>
      </trkpt>
      <trkpt lat="46.51854" lon="0.35725">
        <ele>144.2</ele>
        <time>2023-03-05T09:43:10Z</time>
      </trkpt>
      <trkpt lat="46.51867" lon="0.35728">
        <ele>144</ele>
        <time>2023-03-05T09:43:12Z</time>
      </trkpt>
      <trkpt lat="46.51884" lon="0.35736">
        <ele>143.8</ele>
        <time>2023-03-05T09:43:15Z</time>
      </trkpt>
      <trkpt lat="46.51924" lon="0.35761">
        <ele>144.2</ele>
        <time>2023-03-05T09:43:22Z</time>
      </trkpt>
      <trkpt lat="46.51957" lon="0.35786">
        <ele>144.2</ele>
        <time>2023-03-05T09:43:28Z</time>
      </trkpt>
      <trkpt lat="46.51994" lon="0.35814">
        <ele>144</ele>
        <time>2023-03-05T09:43:34Z</time>
      </trkpt>
      <trkpt lat="46.52006" lon="0.35827">
        <ele>143.8</ele>
        <time>2023-03-05T09:43:36Z</time>
      </trkpt>
      <trkpt lat="46.52014" lon="0.35844">
        <ele>143.4</ele>
        <time>2023-03-05T09:43:38Z</time>
      </trkpt>
      <trkpt lat="46.52024" lon="0.35862">
        <ele>143</ele>
        <time>2023-03-05T09:43:40Z</time>
      </trkpt>
      <trkpt lat="46.52046" lon="0.35899">
        <ele>141.6</ele>
        <time>2023-03-05T09:43:44Z</time>
      </trkpt>
      <trkpt lat="46.52057" lon="0.35918">
        <ele>141</ele>
        <time>2023-03-05T09:43:46Z</time>
      </trkpt>
      <trkpt lat="46.52063" lon="0.35927">
        <ele>140.4</ele>
        <time>2023-03-05T09:43:47Z</time>
      </trkpt>
      <trkpt lat="46.5208" lon="0.35956">
        <ele>139.2</ele>
        <time>2023-03-05T09:43:50Z</time>
      </trkpt>
      <trkpt lat="46.52103" lon="0.35996">
        <ele>138.2</ele>
        <time>2023-03-05T09:43:54Z</time>
      </trkpt>
      <trkpt lat="46.52109" lon="0.36006">
        <ele>138.2</ele>
        <time>2023-03-05T09:43:55Z</time>
      </trkpt>
      <trkpt lat="46.52126" lon="0.36034">
        <ele>137</ele>
        <time>2023-03-05T09:43:58Z</time>
      </trkpt>
      <trkpt lat="46.52135" lon="0.36051">
        <ele>136.6</ele>
        <time>2023-03-05T09:44:00Z</time>
      </trkpt>
      <trkpt lat="46.5215" lon="0.36076">
        <ele>136</ele>
        <time>2023-03-05T09:44:03Z</time>
      </trkpt>
      <trkpt lat="46.52164" lon="0.36103">
        <ele>134.8</ele>
        <time>2023-03-05T09:44:06Z</time>
      </trkpt>
      <trkpt lat="46.52172" lon="0.3612">
        <ele>134.6</ele>
        <time>2023-03-05T09:44:08Z</time>
      </trkpt>
      <trkpt lat="46.52195" lon="0.36178">
        <ele>134.2</ele>
        <time>2023-03-05T09:44:15Z</time>
      </trkpt>
      <trkpt lat="46.52215" lon="0.36227">
        <ele>133.8</ele>
        <time>2023-03-05T09:44:21Z</time>
      </trkpt>
      <trkpt lat="46.52223" lon="0.36243">
        <ele>133.2</ele>
        <time>2023-03-05T09:44:23Z</time>
      </trkpt>
      <trkpt lat="46.52231" lon="0.3626">
        <ele>132.6</ele>
        <time>2023-03-05T09:44:25Z</time>
      </trkpt>
      <trkpt lat="46.52259" lon="0.36311">
        <ele>131.6</ele>
        <time>2023-03-05T09:44:31Z</time>
      </trkpt>
      <trkpt lat="46.52273" lon="0.36333">
        <ele>131.4</ele>
        <time>2023-03-05T09:44:34Z</time>
      </trkpt>
      <trkpt lat="46.5229" lon="0.36353">
        <ele>130.6</ele>
        <time>2023-03-05T09:44:37Z</time>
      </trkpt>
      <trkpt lat="46.5232" lon="0.36381">
        <ele>130.4</ele>
        <time>2023-03-05T09:44:42Z</time>
      </trkpt>
      <trkpt lat="46.52325" lon="0.36389">
        <ele>130.4</ele>
        <time>2023-03-05T09:44:43Z</time>
      </trkpt>
      <trkpt lat="46.52335" lon="0.36406">
        <ele>130</ele>
        <time>2023-03-05T09:44:45Z</time>
      </trkpt>
      <trkpt lat="46.52343" lon="0.36425">
        <ele>129</ele>
        <time>2023-03-05T09:44:47Z</time>
      </trkpt>
      <trkpt lat="46.52347" lon="0.36435">
        <ele>128.6</ele>
        <time>2023-03-05T09:44:48Z</time>
      </trkpt>
      <trkpt lat="46.52359" lon="0.36465">
        <ele>127.8</ele>
        <time>2023-03-05T09:44:51Z</time>
      </trkpt>
      <trkpt lat="46.52362" lon="0.36475">
        <ele>127.4</ele>
        <time>2023-03-05T09:44:52Z</time>
      </trkpt>
      <trkpt lat="46.52365" lon="0.36496">
        <ele>126.6</ele>
        <time>2023-03-05T09:44:54Z</time>
      </trkpt>
      <trkpt lat="46.52366" lon="0.36506">
        <ele>125.8</ele>
        <time>2023-03-05T09:44:55Z</time>
      </trkpt>
      <trkpt lat="46.52365" lon="0.36516">
        <ele>125.4</ele>
        <time>2023-03-05T09:44:56Z</time>
      </trkpt>
      <trkpt lat="46.52364" lon="0.36526">
        <ele>125</ele>
        <time>2023-03-05T09:44:57Z</time>
      </trkpt>
      <trkpt lat="46.52362" lon="0.36536">
        <ele>124.8</ele>
        <time>2023-03-05T09:44:58Z</time>
      </trkpt>
      <trkpt lat="46.52359" lon="0.36583">
        <ele>124.6</ele>
        <time>2023-03-05T09:45:03Z</time>
      </trkpt>
      <trkpt lat="46.52359" lon="0.36593">
        <ele>124.4</ele>
        <time>2023-03-05T09:45:04Z</time>
      </trkpt>
      <trkpt lat="46.5236" lon="0.36603">
        <ele>124</ele>
        <time>2023-03-05T09:45:05Z</time>
      </trkpt>
      <trkpt lat="46.52365" lon="0.36633">
        <ele>123.2</ele>
        <time>2023-03-05T09:45:08Z</time>
      </trkpt>
      <trkpt lat="46.52374" lon="0.36668">
        <ele>121.8</ele>
        <time>2023-03-05T09:45:11Z</time>
      </trkpt>
      <trkpt lat="46.5238" lon="0.36693">
        <ele>120.8</ele>
        <time>2023-03-05T09:45:13Z</time>
      </trkpt>
      <trkpt lat="46.52383" lon="0.36705">
        <ele>120.6</ele>
        <time>2023-03-05T09:45:14Z</time>
      </trkpt>
      <trkpt lat="46.52398" lon="0.36766">
        <ele>119.4</ele>
        <time>2023-03-05T09:45:19Z</time>
      </trkpt>
      <trkpt lat="46.52404" lon="0.36789">
        <ele>118.8</ele>
        <time>2023-03-05T09:45:21Z</time>
      </trkpt>
      <trkpt lat="46.52424" lon="0.3687">
        <ele>118.4</ele>
        <time>2023-03-05T09:45:28Z</time>
      </trkpt>
      <trkpt lat="46.52428" lon="0.36893">
        <ele>118.2</ele>
        <time>2023-03-05T09:45:30Z</time>
      </trkpt>
      <trkpt lat="46.52429" lon="0.36916">
        <ele>117.6</ele>
        <time>2023-03-05T09:45:32Z</time>
      </trkpt>
      <trkpt lat="46.5243" lon="0.36927">
        <ele>117.4</ele>
        <time>2023-03-05T09:45:33Z</time>
      </trkpt>
      <trkpt lat="46.52432" lon="0.36984">
        <ele>116.2</ele>
        <time>2023-03-05T09:45:38Z</time>
      </trkpt>
      <trkpt lat="46.52436" lon="0.37019">
        <ele>115.6</ele>
        <time>2023-03-05T09:45:41Z</time>
      </trkpt>
      <trkpt lat="46.52436" lon="0.3703">
        <ele>115</ele>
        <time>2023-03-05T09:45:42Z</time>
      </trkpt>
      <trkpt lat="46.52436" lon="0.3704">
        <ele>114.2</ele>
        <time>2023-03-05T09:45:43Z</time>
      </trkpt>
      <trkpt lat="46.52436" lon="0.37051">
        <ele>113.4</ele>
        <time>2023-03-05T09:45:44Z</time>
      </trkpt>
      <trkpt lat="46.52441" lon="0.3707">
        <ele>112.6</ele>
        <time>2023-03-05T09:45:46Z</time>
      </trkpt>
      <trkpt lat="46.52446" lon="0.3708">
        <ele>112</ele>
        <time>2023-03-05T09:45:47Z</time>
      </trkpt>
      <trkpt lat="46.52457" lon="0.37099">
        <ele>110.2</ele>
        <time>2023-03-05T09:45:49Z</time>
      </trkpt>
      <trkpt lat="46.52462" lon="0.37109">
        <ele>109.8</ele>
        <time>2023-03-05T09:45:50Z</time>
      </trkpt>
      <trkpt lat="46.52473" lon="0.3713">
        <ele>109</ele>
        <time>2023-03-05T09:45:52Z</time>
      </trkpt>
      <trkpt lat="46.52483" lon="0.3715">
        <ele>107.8</ele>
        <time>2023-03-05T09:45:54Z</time>
      </trkpt>
      <trkpt lat="46.52493" lon="0.3717">
        <ele>106.8</ele>
        <time>2023-03-05T09:45:56Z</time>
      </trkpt>
      <trkpt lat="46.52503" lon="0.37189">
        <ele>105</ele>
        <time>2023-03-05T09:45:58Z</time>
      </trkpt>
      <trkpt lat="46.52508" lon="0.37198">
        <ele>103.8</ele>
        <time>2023-03-05T09:45:59Z</time>
      </trkpt>
      <trkpt lat="46.52517" lon="0.37214">
        <ele>102.6</ele>
        <time>2023-03-05T09:46:01Z</time>
      </trkpt>
      <trkpt lat="46.52521" lon="0.37223">
        <ele>102.2</ele>
        <time>2023-03-05T09:46:02Z</time>
      </trkpt>
      <trkpt lat="46.52544" lon="0.37273">
        <ele>101.4</ele>
        <time>2023-03-05T09:46:08Z</time>
      </trkpt>
      <trkpt lat="46.52553" lon="0.37289">
        <ele>101.2</ele>
        <time>2023-03-05T09:46:10Z</time>
      </trkpt>
      <trkpt lat="46.52576" lon="0.37323">
        <ele>100.4</ele>
        <time>2023-03-05T09:46:14Z</time>
      </trkpt>
      <trkpt lat="46.52585" lon="0.37341">
        <ele>100</ele>
        <time>2023-03-05T09:46:16Z</time>
      </trkpt>
      <trkpt lat="46.52605" lon="0.37367">
        <ele>99.2</ele>
        <time>2023-03-05T09:46:19Z</time>
      </trkpt>
      <trkpt lat="46.52612" lon="0.37375">
        <ele>98.6</ele>
        <time>2023-03-05T09:46:20Z</time>
      </trkpt>
      <trkpt lat="46.52619" lon="0.37381">
        <ele>98.2</ele>
        <time>2023-03-05T09:46:21Z</time>
      </trkpt>
      <trkpt lat="46.52626" lon="0.37387">
        <ele>98</ele>
        <time>2023-03-05T09:46:22Z</time>
      </trkpt>
      <trkpt lat="46.52633" lon="0.3739">
        <ele>97.8</ele>
        <time>2023-03-05T09:46:23Z</time>
      </trkpt>
      <trkpt lat="46.52639" lon="0.37392">
        <ele>97.8</ele>
        <time>2023-03-05T09:46:24Z</time>
      </trkpt>
      <trkpt lat="46.52645" lon="0.37391">
        <ele>97.4</ele>
        <time>2023-03-05T09:46:25Z</time>
      </trkpt>
      <trkpt lat="46.5265" lon="0.37388">
        <ele>96.6</ele>
        <time>2023-03-05T09:46:26Z</time>
      </trkpt>
      <trkpt lat="46.52654" lon="0.37382">
        <ele>96.4</ele>
        <time>2023-03-05T09:46:27Z</time>
      </trkpt>
      <trkpt lat="46.52661" lon="0.37368">
        <ele>95.8</ele>
        <time>2023-03-05T09:46:29Z</time>
      </trkpt>
      <trkpt lat="46.52668" lon="0.37353">
        <ele>95.8</ele>
        <time>2023-03-05T09:46:31Z</time>
      </trkpt>
      <trkpt lat="46.52678" lon="0.37333">
        <ele>95.4</ele>
        <time>2023-03-05T09:46:34Z</time>
      </trkpt>
      <trkpt lat="46.52681" lon="0.37325">
        <ele>95.4</ele>
        <time>2023-03-05T09:46:35Z</time>
      </trkpt>
      <trkpt lat="46.52682" lon="0.37317">
        <ele>95.4</ele>
        <time>2023-03-05T09:46:36Z</time>
      </trkpt>
      <trkpt lat="46.52683" lon="0.37309">
        <ele>95.2</ele>
        <time>2023-03-05T09:46:37Z</time>
      </trkpt>
      <trkpt lat="46.52682" lon="0.37285">
        <ele>95.4</ele>
        <time>2023-03-05T09:46:40Z</time>
      </trkpt>
      <trkpt lat="46.52674" lon="0.37252">
        <ele>96</ele>
        <time>2023-03-05T09:46:45Z</time>
      </trkpt>
      <trkpt lat="46.52662" lon="0.37213">
        <ele>96.4</ele>
        <time>2023-03-05T09:46:50Z</time>
      </trkpt>
      <trkpt lat="46.5266" lon="0.37206">
        <ele>96.4</ele>
        <time>2023-03-05T09:46:51Z</time>
      </trkpt>
      <trkpt lat="46.52647" lon="0.37166">
        <ele>97</ele>
        <time>2023-03-05T09:46:57Z</time>
      </trkpt>
      <trkpt lat="46.52641" lon="0.37142">
        <ele>97.6</ele>
        <time>2023-03-05T09:47:01Z</time>
      </trkpt>
      <trkpt lat="46.52637" lon="0.37123">
        <ele>98</ele>
        <time>2023-03-05T09:47:04Z</time>
      </trkpt>
      <trkpt lat="46.52636" lon="0.37115">
        <ele>98</ele>
        <time>2023-03-05T09:47:05Z</time>
      </trkpt>
      <trkpt lat="46.52634" lon="0.37093">
        <ele>98</ele>
        <time>2023-03-05T09:47:08Z</time>
      </trkpt>
      <trkpt lat="46.52635" lon="0.37086">
        <ele>98</ele>
        <time>2023-03-05T09:47:09Z</time>
      </trkpt>
      <trkpt lat="46.5264" lon="0.37047">
        <ele>98</ele>
        <time>2023-03-05T09:47:15Z</time>
      </trkpt>
      <trkpt lat="46.52642" lon="0.37029">
        <ele>98</ele>
        <time>2023-03-05T09:47:18Z</time>
      </trkpt>
      <trkpt lat="46.52644" lon="0.37017">
        <ele>98</ele>
        <time>2023-03-05T09:47:20Z</time>
      </trkpt>
      <trkpt lat="46.52647" lon="0.36996">
        <ele>98.2</ele>
        <time>2023-03-05T09:47:23Z</time>
      </trkpt>
      <trkpt lat="46.52651" lon="0.36985">
        <ele>98.6</ele>
        <time>2023-03-05T09:47:25Z</time>
      </trkpt>
      <trkpt lat="46.52653" lon="0.36979">
        <ele>98.6</ele>
        <time>2023-03-05T09:47:26Z</time>
      </trkpt>
      <trkpt lat="46.52662" lon="0.36951">
        <ele>99.6</ele>
        <time>2023-03-05T09:47:31Z</time>
      </trkpt>
      <trkpt lat="46.52663" lon="0.36947">
        <ele>99.8</ele>
        <time>2023-03-05T09:47:32Z</time>
      </trkpt>
      <trkpt lat="46.52673" lon="0.36928">
        <ele>100.8</ele>
        <time>2023-03-05T09:47:37Z</time>
      </trkpt>
      <trkpt lat="46.5268" lon="0.36911">
        <ele>102</ele>
        <time>2023-03-05T09:47:42Z</time>
      </trkpt>
      <trkpt lat="46.52682" lon="0.36908">
        <ele>102.4</ele>
        <time>2023-03-05T09:47:43Z</time>
      </trkpt>
      <trkpt lat="46.5269" lon="0.36898">
        <ele>103.6</ele>
        <time>2023-03-05T09:47:47Z</time>
      </trkpt>
      <trkpt lat="46.52693" lon="0.36891">
        <ele>104.2</ele>
        <time>2023-03-05T09:47:50Z</time>
      </trkpt>
      <trkpt lat="46.52696" lon="0.36886">
        <ele>104.8</ele>
        <time>2023-03-05T09:47:52Z</time>
      </trkpt>
      <trkpt lat="46.52702" lon="0.36876">
        <ele>106</ele>
        <time>2023-03-05T09:47:57Z</time>
      </trkpt>
      <trkpt lat="46.52703" lon="0.36874">
        <ele>106.2</ele>
        <time>2023-03-05T09:47:58Z</time>
      </trkpt>
      <trkpt lat="46.52706" lon="0.36865">
        <ele>107</ele>
        <time>2023-03-05T09:48:03Z</time>
      </trkpt>
      <trkpt lat="46.52709" lon="0.36861">
        <ele>108</ele>
        <time>2023-03-05T09:48:06Z</time>
      </trkpt>
      <trkpt lat="46.52713" lon="0.36853">
        <ele>109.2</ele>
        <time>2023-03-05T09:48:11Z</time>
      </trkpt>
      <trkpt lat="46.52714" lon="0.36851">
        <ele>109.4</ele>
        <time>2023-03-05T09:48:12Z</time>
      </trkpt>
      <trkpt lat="46.52717" lon="0.36847">
        <ele>109.8</ele>
        <time>2023-03-05T09:48:15Z</time>
      </trkpt>
      <trkpt lat="46.52719" lon="0.36845">
        <ele>110.2</ele>
        <time>2023-03-05T09:48:17Z</time>
      </trkpt>
      <trkpt lat="46.5272" lon="0.36844">
        <ele>110.2</ele>
        <time>2023-03-05T09:48:18Z</time>
      </trkpt>
      <trkpt lat="46.52722" lon="0.36842">
        <ele>110.4</ele>
        <time>2023-03-05T09:48:19Z</time>
      </trkpt>
      <trkpt lat="46.52726" lon="0.36838">
        <ele>111.4</ele>
        <time>2023-03-05T09:48:23Z</time>
      </trkpt>
      <trkpt lat="46.52728" lon="0.36837">
        <ele>111.8</ele>
        <time>2023-03-05T09:48:24Z</time>
      </trkpt>
      <trkpt lat="46.5273" lon="0.36834">
        <ele>112.6</ele>
        <time>2023-03-05T09:48:26Z</time>
      </trkpt>
      <trkpt lat="46.52742" lon="0.36825">
        <ele>113.6</ele>
        <time>2023-03-05T09:48:32Z</time>
      </trkpt>
      <trkpt lat="46.52749" lon="0.36819">
        <ele>114.4</ele>
        <time>2023-03-05T09:48:36Z</time>
      </trkpt>
      <trkpt lat="46.52753" lon="0.36816">
        <ele>114.8</ele>
        <time>2023-03-05T09:48:39Z</time>
      </trkpt>
      <trkpt lat="46.52762" lon="0.36811">
        <ele>115.8</ele>
        <time>2023-03-05T09:48:44Z</time>
      </trkpt>
      <trkpt lat="46.52768" lon="0.3681">
        <ele>116.6</ele>
        <time>2023-03-05T09:48:48Z</time>
      </trkpt>
      <trkpt lat="46.52772" lon="0.36809">
        <ele>117</ele>
        <time>2023-03-05T09:48:50Z</time>
      </trkpt>
      <trkpt lat="46.52782" lon="0.36808">
        <ele>118</ele>
        <time>2023-03-05T09:48:56Z</time>
      </trkpt>
      <trkpt lat="46.52786" lon="0.36808">
        <ele>118.4</ele>
        <time>2023-03-05T09:48:58Z</time>
      </trkpt>
      <trkpt lat="46.52791" lon="0.36807">
        <ele>119.2</ele>
        <time>2023-03-05T09:49:00Z</time>
      </trkpt>
      <trkpt lat="46.52801" lon="0.36809">
        <ele>120.4</ele>
        <time>2023-03-05T09:49:06Z</time>
      </trkpt>
      <trkpt lat="46.52807" lon="0.36811">
        <ele>120.6</ele>
        <time>2023-03-05T09:49:09Z</time>
      </trkpt>
      <trkpt lat="46.52812" lon="0.36812">
        <ele>120.8</ele>
        <time>2023-03-05T09:49:11Z</time>
      </trkpt>
      <trkpt lat="46.52822" lon="0.36814">
        <ele>121.4</ele>
        <time>2023-03-05T09:49:15Z</time>
      </trkpt>
      <trkpt lat="46.52827" lon="0.36815">
        <ele>121.8</ele>
        <time>2023-03-05T09:49:17Z</time>
      </trkpt>
      <trkpt lat="46.52838" lon="0.36818">
        <ele>122.6</ele>
        <time>2023-03-05T09:49:21Z</time>
      </trkpt>
      <trkpt lat="46.52846" lon="0.36821">
        <ele>123</ele>
        <time>2023-03-05T09:49:24Z</time>
      </trkpt>
      <trkpt lat="46.52857" lon="0.36831">
        <ele>123.6</ele>
        <time>2023-03-05T09:49:29Z</time>
      </trkpt>
      <trkpt lat="46.52862" lon="0.36836">
        <ele>124</ele>
        <time>2023-03-05T09:49:31Z</time>
      </trkpt>
      <trkpt lat="46.52887" lon="0.36857">
        <ele>124.6</ele>
        <time>2023-03-05T09:49:40Z</time>
      </trkpt>
      <trkpt lat="46.52897" lon="0.36866">
        <ele>125</ele>
        <time>2023-03-05T09:49:43Z</time>
      </trkpt>
      <trkpt lat="46.52909" lon="0.36884">
        <ele>125.8</ele>
        <time>2023-03-05T09:49:48Z</time>
      </trkpt>
      <trkpt lat="46.52913" lon="0.36901">
        <ele>126</ele>
        <time>2023-03-05T09:49:52Z</time>
      </trkpt>
      <trkpt lat="46.52918" lon="0.36924">
        <ele>126.8</ele>
        <time>2023-03-05T09:49:58Z</time>
      </trkpt>
      <trkpt lat="46.52919" lon="0.36932">
        <ele>127.2</ele>
        <time>2023-03-05T09:50:00Z</time>
      </trkpt>
      <trkpt lat="46.52923" lon="0.36953">
        <ele>128.2</ele>
        <time>2023-03-05T09:50:05Z</time>
      </trkpt>
      <trkpt lat="46.52924" lon="0.36962">
        <ele>128.6</ele>
        <time>2023-03-05T09:50:07Z</time>
      </trkpt>
      <trkpt lat="46.52932" lon="0.36993">
        <ele>128.8</ele>
        <time>2023-03-05T09:50:14Z</time>
      </trkpt>
      <trkpt lat="46.52937" lon="0.37003">
        <ele>129</ele>
        <time>2023-03-05T09:50:16Z</time>
      </trkpt>
      <trkpt lat="46.52943" lon="0.37012">
        <ele>128.8</ele>
        <time>2023-03-05T09:50:18Z</time>
      </trkpt>
      <trkpt lat="46.52951" lon="0.37019">
        <ele>128.4</ele>
        <time>2023-03-05T09:50:20Z</time>
      </trkpt>
      <trkpt lat="46.5296" lon="0.37026">
        <ele>127.6</ele>
        <time>2023-03-05T09:50:22Z</time>
      </trkpt>
      <trkpt lat="46.52969" lon="0.37033">
        <ele>126.8</ele>
        <time>2023-03-05T09:50:24Z</time>
      </trkpt>
      <trkpt lat="46.52976" lon="0.37036">
        <ele>126.2</ele>
        <time>2023-03-05T09:50:25Z</time>
      </trkpt>
      <trkpt lat="46.52982" lon="0.37039">
        <ele>125.6</ele>
        <time>2023-03-05T09:50:26Z</time>
      </trkpt>
      <trkpt lat="46.53005" lon="0.37051">
        <ele>124.8</ele>
        <time>2023-03-05T09:50:29Z</time>
      </trkpt>
      <trkpt lat="46.53014" lon="0.37055">
        <ele>124.2</ele>
        <time>2023-03-05T09:50:30Z</time>
      </trkpt>
      <trkpt lat="46.53039" lon="0.37057">
        <ele>123.4</ele>
        <time>2023-03-05T09:50:33Z</time>
      </trkpt>
      <trkpt lat="46.53047" lon="0.37056">
        <ele>123</ele>
        <time>2023-03-05T09:50:34Z</time>
      </trkpt>
      <trkpt lat="46.53066" lon="0.37053">
        <ele>121.4</ele>
        <time>2023-03-05T09:50:36Z</time>
      </trkpt>
      <trkpt lat="46.53085" lon="0.3705">
        <ele>119.8</ele>
        <time>2023-03-05T09:50:38Z</time>
      </trkpt>
      <trkpt lat="46.53094" lon="0.37047">
        <ele>119.2</ele>
        <time>2023-03-05T09:50:39Z</time>
      </trkpt>
      <trkpt lat="46.53104" lon="0.37044">
        <ele>118.2</ele>
        <time>2023-03-05T09:50:40Z</time>
      </trkpt>
      <trkpt lat="46.53124" lon="0.37037">
        <ele>116.6</ele>
        <time>2023-03-05T09:50:42Z</time>
      </trkpt>
      <trkpt lat="46.53133" lon="0.37034">
        <ele>115.6</ele>
        <time>2023-03-05T09:50:43Z</time>
      </trkpt>
      <trkpt lat="46.53149" lon="0.37028">
        <ele>114.4</ele>
        <time>2023-03-05T09:50:45Z</time>
      </trkpt>
      <trkpt lat="46.53156" lon="0.37027">
        <ele>114.2</ele>
        <time>2023-03-05T09:50:46Z</time>
      </trkpt>
      <trkpt lat="46.53166" lon="0.37032">
        <ele>114</ele>
        <time>2023-03-05T09:50:48Z</time>
      </trkpt>
      <trkpt lat="46.53178" lon="0.37055">
        <ele>113.8</ele>
        <time>2023-03-05T09:50:52Z</time>
      </trkpt>
      <trkpt lat="46.53181" lon="0.37067">
        <ele>114.6</ele>
        <time>2023-03-05T09:50:54Z</time>
      </trkpt>
      <trkpt lat="46.53185" lon="0.3708">
        <ele>115.4</ele>
        <time>2023-03-05T09:50:56Z</time>
      </trkpt>
      <trkpt lat="46.53187" lon="0.37086">
        <ele>115.6</ele>
        <time>2023-03-05T09:50:57Z</time>
      </trkpt>
      <trkpt lat="46.53198" lon="0.37121">
        <ele>116.8</ele>
        <time>2023-03-05T09:51:02Z</time>
      </trkpt>
      <trkpt lat="46.53201" lon="0.37128">
        <ele>117</ele>
        <time>2023-03-05T09:51:03Z</time>
      </trkpt>
      <trkpt lat="46.5321" lon="0.37154">
        <ele>118</ele>
        <time>2023-03-05T09:51:07Z</time>
      </trkpt>
      <trkpt lat="46.53217" lon="0.37172">
        <ele>118.8</ele>
        <time>2023-03-05T09:51:10Z</time>
      </trkpt>
      <trkpt lat="46.5322" lon="0.37178">
        <ele>119.2</ele>
        <time>2023-03-05T09:51:11Z</time>
      </trkpt>
      <trkpt lat="46.5323" lon="0.37206">
        <ele>120.4</ele>
        <time>2023-03-05T09:51:16Z</time>
      </trkpt>
      <trkpt lat="46.53232" lon="0.37211">
        <ele>120.6</ele>
        <time>2023-03-05T09:51:17Z</time>
      </trkpt>
      <trkpt lat="46.53236" lon="0.37231">
        <ele>121.4</ele>
        <time>2023-03-05T09:51:21Z</time>
      </trkpt>
      <trkpt lat="46.53239" lon="0.3724">
        <ele>121.6</ele>
        <time>2023-03-05T09:51:23Z</time>
      </trkpt>
      <trkpt lat="46.53243" lon="0.37253">
        <ele>122.6</ele>
        <time>2023-03-05T09:51:26Z</time>
      </trkpt>
      <trkpt lat="46.53248" lon="0.37268">
        <ele>123</ele>
        <time>2023-03-05T09:51:29Z</time>
      </trkpt>
      <trkpt lat="46.53255" lon="0.37287">
        <ele>123.6</ele>
        <time>2023-03-05T09:51:33Z</time>
      </trkpt>
      <trkpt lat="46.53259" lon="0.373">
        <ele>124.4</ele>
        <time>2023-03-05T09:51:36Z</time>
      </trkpt>
      <trkpt lat="46.53262" lon="0.37308">
        <ele>124.8</ele>
        <time>2023-03-05T09:51:38Z</time>
      </trkpt>
      <trkpt lat="46.53273" lon="0.37333">
        <ele>125.8</ele>
        <time>2023-03-05T09:51:44Z</time>
      </trkpt>
      <trkpt lat="46.53285" lon="0.37365">
        <ele>126.8</ele>
        <time>2023-03-05T09:51:51Z</time>
      </trkpt>
      <trkpt lat="46.53287" lon="0.37369">
        <ele>127</ele>
        <time>2023-03-05T09:51:52Z</time>
      </trkpt>
      <trkpt lat="46.53294" lon="0.37393">
        <ele>128.2</ele>
        <time>2023-03-05T09:51:57Z</time>
      </trkpt>
      <trkpt lat="46.53299" lon="0.37407">
        <ele>128.4</ele>
        <time>2023-03-05T09:52:00Z</time>
      </trkpt>
      <trkpt lat="46.53306" lon="0.37425">
        <ele>129.2</ele>
        <time>2023-03-05T09:52:04Z</time>
      </trkpt>
      <trkpt lat="46.53311" lon="0.37441">
        <ele>129.8</ele>
        <time>2023-03-05T09:52:08Z</time>
      </trkpt>
      <trkpt lat="46.53317" lon="0.37454">
        <ele>130.2</ele>
        <time>2023-03-05T09:52:11Z</time>
      </trkpt>
      <trkpt lat="46.53324" lon="0.37471">
        <ele>131.2</ele>
        <time>2023-03-05T09:52:15Z</time>
      </trkpt>
      <trkpt lat="46.53326" lon="0.37475">
        <ele>131.4</ele>
        <time>2023-03-05T09:52:16Z</time>
      </trkpt>
      <trkpt lat="46.53339" lon="0.37507">
        <ele>132.4</ele>
        <time>2023-03-05T09:52:23Z</time>
      </trkpt>
      <trkpt lat="46.53343" lon="0.37517">
        <ele>132.6</ele>
        <time>2023-03-05T09:52:25Z</time>
      </trkpt>
      <trkpt lat="46.53354" lon="0.37543">
        <ele>132.8</ele>
        <time>2023-03-05T09:52:30Z</time>
      </trkpt>
      <trkpt lat="46.53373" lon="0.37593">
        <ele>132.6</ele>
        <time>2023-03-05T09:52:38Z</time>
      </trkpt>
      <trkpt lat="46.53386" lon="0.37628">
        <ele>133.8</ele>
        <time>2023-03-05T09:52:43Z</time>
      </trkpt>
      <trkpt lat="46.53395" lon="0.37651">
        <ele>133.8</ele>
        <time>2023-03-05T09:52:46Z</time>
      </trkpt>
      <trkpt lat="46.5341" lon="0.37688">
        <ele>132.4</ele>
        <time>2023-03-05T09:52:50Z</time>
      </trkpt>
      <trkpt lat="46.53414" lon="0.37698">
        <ele>131.6</ele>
        <time>2023-03-05T09:52:51Z</time>
      </trkpt>
      <trkpt lat="46.53419" lon="0.37708">
        <ele>131.2</ele>
        <time>2023-03-05T09:52:52Z</time>
      </trkpt>
      <trkpt lat="46.53436" lon="0.37751">
        <ele>130.4</ele>
        <time>2023-03-05T09:52:56Z</time>
      </trkpt>
      <trkpt lat="46.5344" lon="0.37761">
        <ele>129.8</ele>
        <time>2023-03-05T09:52:57Z</time>
      </trkpt>
      <trkpt lat="46.5346" lon="0.37795">
        <ele>129</ele>
        <time>2023-03-05T09:53:01Z</time>
      </trkpt>
      <trkpt lat="46.53484" lon="0.37831">
        <ele>128.8</ele>
        <time>2023-03-05T09:53:06Z</time>
      </trkpt>
      <trkpt lat="46.53489" lon="0.37835">
        <ele>128.6</ele>
        <time>2023-03-05T09:53:07Z</time>
      </trkpt>
      <trkpt lat="46.53516" lon="0.37851">
        <ele>127.4</ele>
        <time>2023-03-05T09:53:11Z</time>
      </trkpt>
      <trkpt lat="46.53524" lon="0.37855">
        <ele>127</ele>
        <time>2023-03-05T09:53:12Z</time>
      </trkpt>
      <trkpt lat="46.53532" lon="0.37859">
        <ele>126.4</ele>
        <time>2023-03-05T09:53:13Z</time>
      </trkpt>
      <trkpt lat="46.5355" lon="0.37869">
        <ele>125.2</ele>
        <time>2023-03-05T09:53:15Z</time>
      </trkpt>
      <trkpt lat="46.53569" lon="0.37879">
        <ele>123.6</ele>
        <time>2023-03-05T09:53:17Z</time>
      </trkpt>
      <trkpt lat="46.53588" lon="0.37892">
        <ele>121.8</ele>
        <time>2023-03-05T09:53:19Z</time>
      </trkpt>
      <trkpt lat="46.53597" lon="0.37899">
        <ele>121</ele>
        <time>2023-03-05T09:53:20Z</time>
      </trkpt>
      <trkpt lat="46.53604" lon="0.37908">
        <ele>119.8</ele>
        <time>2023-03-05T09:53:21Z</time>
      </trkpt>
      <trkpt lat="46.53621" lon="0.37927">
        <ele>118.4</ele>
        <time>2023-03-05T09:53:23Z</time>
      </trkpt>
      <trkpt lat="46.5363" lon="0.37934">
        <ele>117.8</ele>
        <time>2023-03-05T09:53:24Z</time>
      </trkpt>
      <trkpt lat="46.53642" lon="0.37938">
        <ele>117.4</ele>
        <time>2023-03-05T09:53:25Z</time>
      </trkpt>
      <trkpt lat="46.53653" lon="0.37939">
        <ele>117</ele>
        <time>2023-03-05T09:53:26Z</time>
      </trkpt>
      <trkpt lat="46.53672" lon="0.37939">
        <ele>116.2</ele>
        <time>2023-03-05T09:53:28Z</time>
      </trkpt>
      <trkpt lat="46.5368" lon="0.3794">
        <ele>116.2</ele>
        <time>2023-03-05T09:53:29Z</time>
      </trkpt>
      <trkpt lat="46.53695" lon="0.37944">
        <ele>116</ele>
        <time>2023-03-05T09:53:31Z</time>
      </trkpt>
      <trkpt lat="46.53702" lon="0.37945">
        <ele>116.2</ele>
        <time>2023-03-05T09:53:32Z</time>
      </trkpt>
      <trkpt lat="46.53715" lon="0.37947">
        <ele>116.8</ele>
        <time>2023-03-05T09:53:34Z</time>
      </trkpt>
      <trkpt lat="46.53721" lon="0.37946">
        <ele>117.6</ele>
        <time>2023-03-05T09:53:35Z</time>
      </trkpt>
      <trkpt lat="46.53726" lon="0.37945">
        <ele>117.8</ele>
        <time>2023-03-05T09:53:36Z</time>
      </trkpt>
      <trkpt lat="46.5373" lon="0.37944">
        <ele>118</ele>
        <time>2023-03-05T09:53:37Z</time>
      </trkpt>
      <trkpt lat="46.53742" lon="0.37942">
        <ele>118.4</ele>
        <time>2023-03-05T09:53:40Z</time>
      </trkpt>
      <trkpt lat="46.53745" lon="0.37941">
        <ele>118.6</ele>
        <time>2023-03-05T09:53:41Z</time>
      </trkpt>
      <trkpt lat="46.53756" lon="0.37935">
        <ele>119</ele>
        <time>2023-03-05T09:53:44Z</time>
      </trkpt>
      <trkpt lat="46.53762" lon="0.37927">
        <ele>119.4</ele>
        <time>2023-03-05T09:53:46Z</time>
      </trkpt>
      <trkpt lat="46.53765" lon="0.37923">
        <ele>119.8</ele>
        <time>2023-03-05T09:53:47Z</time>
      </trkpt>
      <trkpt lat="46.5377" lon="0.37915">
        <ele>120.8</ele>
        <time>2023-03-05T09:53:49Z</time>
      </trkpt>
      <trkpt lat="46.53774" lon="0.37906">
        <ele>122</ele>
        <time>2023-03-05T09:53:51Z</time>
      </trkpt>
      <trkpt lat="46.5378" lon="0.37894">
        <ele>123</ele>
        <time>2023-03-05T09:53:54Z</time>
      </trkpt>
      <trkpt lat="46.53786" lon="0.37879">
        <ele>124.2</ele>
        <time>2023-03-05T09:53:58Z</time>
      </trkpt>
      <trkpt lat="46.53793" lon="0.37861">
        <ele>125.2</ele>
        <time>2023-03-05T09:54:03Z</time>
      </trkpt>
      <trkpt lat="46.53794" lon="0.37857">
        <ele>125.4</ele>
        <time>2023-03-05T09:54:04Z</time>
      </trkpt>
      <trkpt lat="46.53801" lon="0.37837">
        <ele>126.6</ele>
        <time>2023-03-05T09:54:09Z</time>
      </trkpt>
      <trkpt lat="46.53802" lon="0.37833">
        <ele>126.8</ele>
        <time>2023-03-05T09:54:10Z</time>
      </trkpt>
      <trkpt lat="46.53808" lon="0.37816">
        <ele>127.8</ele>
        <time>2023-03-05T09:54:14Z</time>
      </trkpt>
      <trkpt lat="46.53813" lon="0.37798">
        <ele>128.4</ele>
        <time>2023-03-05T09:54:18Z</time>
      </trkpt>
      <trkpt lat="46.53817" lon="0.37786">
        <ele>129</ele>
        <time>2023-03-05T09:54:21Z</time>
      </trkpt>
      <trkpt lat="46.53823" lon="0.37763">
        <ele>129</ele>
        <time>2023-03-05T09:54:26Z</time>
      </trkpt>
      <trkpt lat="46.53832" lon="0.37737">
        <ele>130</ele>
        <time>2023-03-05T09:54:31Z</time>
      </trkpt>
      <trkpt lat="46.53837" lon="0.37721">
        <ele>130.4</ele>
        <time>2023-03-05T09:54:34Z</time>
      </trkpt>
      <trkpt lat="46.53853" lon="0.37683">
        <ele>131</ele>
        <time>2023-03-05T09:54:41Z</time>
      </trkpt>
      <trkpt lat="46.53872" lon="0.37657">
        <ele>131.6</ele>
        <time>2023-03-05T09:54:47Z</time>
      </trkpt>
      <trkpt lat="46.53888" lon="0.37635">
        <ele>132</ele>
        <time>2023-03-05T09:54:52Z</time>
      </trkpt>
      <trkpt lat="46.5389" lon="0.37629">
        <ele>132</ele>
        <time>2023-03-05T09:54:53Z</time>
      </trkpt>
      <trkpt lat="46.53893" lon="0.37624">
        <ele>132</ele>
        <time>2023-03-05T09:54:54Z</time>
      </trkpt>
      <trkpt lat="46.53901" lon="0.37607">
        <ele>132.2</ele>
        <time>2023-03-05T09:54:57Z</time>
      </trkpt>
      <trkpt lat="46.5391" lon="0.37581">
        <ele>132.6</ele>
        <time>2023-03-05T09:55:01Z</time>
      </trkpt>
      <trkpt lat="46.53932" lon="0.37537">
        <ele>133.2</ele>
        <time>2023-03-05T09:55:08Z</time>
      </trkpt>
      <trkpt lat="46.53963" lon="0.37495">
        <ele>133.4</ele>
        <time>2023-03-05T09:55:16Z</time>
      </trkpt>
      <trkpt lat="46.53969" lon="0.37482">
        <ele>133</ele>
        <time>2023-03-05T09:55:18Z</time>
      </trkpt>
      <trkpt lat="46.53977" lon="0.37462">
        <ele>132.8</ele>
        <time>2023-03-05T09:55:21Z</time>
      </trkpt>
      <trkpt lat="46.53997" lon="0.3741">
        <ele>132.2</ele>
        <time>2023-03-05T09:55:28Z</time>
      </trkpt>
      <trkpt lat="46.54" lon="0.37403">
        <ele>132</ele>
        <time>2023-03-05T09:55:29Z</time>
      </trkpt>
      <trkpt lat="46.54017" lon="0.37371">
        <ele>130.8</ele>
        <time>2023-03-05T09:55:34Z</time>
      </trkpt>
      <trkpt lat="46.54041" lon="0.37337">
        <ele>130</ele>
        <time>2023-03-05T09:55:39Z</time>
      </trkpt>
      <trkpt lat="46.54046" lon="0.37329">
        <ele>129.6</ele>
        <time>2023-03-05T09:55:40Z</time>
      </trkpt>
      <trkpt lat="46.54075" lon="0.37292">
        <ele>128.8</ele>
        <time>2023-03-05T09:55:45Z</time>
      </trkpt>
      <trkpt lat="46.5408" lon="0.37289">
        <ele>128.6</ele>
        <time>2023-03-05T09:55:46Z</time>
      </trkpt>
      <trkpt lat="46.54084" lon="0.37289">
        <ele>128.2</ele>
        <time>2023-03-05T09:55:47Z</time>
      </trkpt>
      <trkpt lat="46.54088" lon="0.37291">
        <ele>127.6</ele>
        <time>2023-03-05T09:55:49Z</time>
      </trkpt>
      <trkpt lat="46.5409" lon="0.37293">
        <ele>127.4</ele>
        <time>2023-03-05T09:55:50Z</time>
      </trkpt>
      <trkpt lat="46.54094" lon="0.37313">
        <ele>127.2</ele>
        <time>2023-03-05T09:55:55Z</time>
      </trkpt>
      <trkpt lat="46.54096" lon="0.37316">
        <ele>127.2</ele>
        <time>2023-03-05T09:55:56Z</time>
      </trkpt>
      <trkpt lat="46.54102" lon="0.37316">
        <ele>127.4</ele>
        <time>2023-03-05T09:55:58Z</time>
      </trkpt>
      <trkpt lat="46.54121" lon="0.37299">
        <ele>128.2</ele>
        <time>2023-03-05T09:56:03Z</time>
      </trkpt>
      <trkpt lat="46.54149" lon="0.37274">
        <ele>127.4</ele>
        <time>2023-03-05T09:56:09Z</time>
      </trkpt>
      <trkpt lat="46.54167" lon="0.37257">
        <ele>126.2</ele>
        <time>2023-03-05T09:56:12Z</time>
      </trkpt>
      <trkpt lat="46.54174" lon="0.37251">
        <ele>125.8</ele>
        <time>2023-03-05T09:56:13Z</time>
      </trkpt>
      <trkpt lat="46.54187" lon="0.37239">
        <ele>124.8</ele>
        <time>2023-03-05T09:56:15Z</time>
      </trkpt>
      <trkpt lat="46.54199" lon="0.37228">
        <ele>123.6</ele>
        <time>2023-03-05T09:56:17Z</time>
      </trkpt>
      <trkpt lat="46.54205" lon="0.37223">
        <ele>122.2</ele>
        <time>2023-03-05T09:56:18Z</time>
      </trkpt>
      <trkpt lat="46.5421" lon="0.37219">
        <ele>120.8</ele>
        <time>2023-03-05T09:56:19Z</time>
      </trkpt>
      <trkpt lat="46.54216" lon="0.37214">
        <ele>119.4</ele>
        <time>2023-03-05T09:56:20Z</time>
      </trkpt>
      <trkpt lat="46.54221" lon="0.37208">
        <ele>118.4</ele>
        <time>2023-03-05T09:56:21Z</time>
      </trkpt>
      <trkpt lat="46.54225" lon="0.37201">
        <ele>117</ele>
        <time>2023-03-05T09:56:22Z</time>
      </trkpt>
      <trkpt lat="46.5423" lon="0.37194">
        <ele>115.2</ele>
        <time>2023-03-05T09:56:23Z</time>
      </trkpt>
      <trkpt lat="46.54237" lon="0.37183">
        <ele>113.8</ele>
        <time>2023-03-05T09:56:25Z</time>
      </trkpt>
      <trkpt lat="46.54239" lon="0.37177">
        <ele>113.4</ele>
        <time>2023-03-05T09:56:26Z</time>
      </trkpt>
      <trkpt lat="46.54245" lon="0.37158">
        <ele>113.4</ele>
        <time>2023-03-05T09:56:31Z</time>
      </trkpt>
      <trkpt lat="46.54247" lon="0.37143">
        <ele>114.8</ele>
        <time>2023-03-05T09:56:37Z</time>
      </trkpt>
      <trkpt lat="46.54249" lon="0.37135">
        <ele>116</ele>
        <time>2023-03-05T09:56:40Z</time>
      </trkpt>
      <trkpt lat="46.5425" lon="0.37121">
        <ele>116.8</ele>
        <time>2023-03-05T09:56:44Z</time>
      </trkpt>
      <trkpt lat="46.54251" lon="0.37118">
        <ele>117.2</ele>
        <time>2023-03-05T09:56:45Z</time>
      </trkpt>
      <trkpt lat="46.54251" lon="0.3711">
        <ele>118.4</ele>
        <time>2023-03-05T09:56:48Z</time>
      </trkpt>
      <trkpt lat="46.5425" lon="0.37101">
        <ele>119.2</ele>
        <time>2023-03-05T09:56:51Z</time>
      </trkpt>
      <trkpt lat="46.54249" lon="0.37095">
        <ele>119.6</ele>
        <time>2023-03-05T09:56:53Z</time>
      </trkpt>
      <trkpt lat="46.54249" lon="0.3708">
        <ele>120.2</ele>
        <time>2023-03-05T09:56:58Z</time>
      </trkpt>
      <trkpt lat="46.54249" lon="0.37075">
        <ele>121</ele>
        <time>2023-03-05T09:57:00Z</time>
      </trkpt>
      <trkpt lat="46.54247" lon="0.3707">
        <ele>121.4</ele>
        <time>2023-03-05T09:57:02Z</time>
      </trkpt>
      <trkpt lat="46.54246" lon="0.37068">
        <ele>121.6</ele>
        <time>2023-03-05T09:57:03Z</time>
      </trkpt>
      <trkpt lat="46.54244" lon="0.3706">
        <ele>122</ele>
        <time>2023-03-05T09:57:06Z</time>
      </trkpt>
      <trkpt lat="46.54244" lon="0.37052">
        <ele>122.6</ele>
        <time>2023-03-05T09:57:09Z</time>
      </trkpt>
      <trkpt lat="46.54245" lon="0.37048">
        <ele>123.2</ele>
        <time>2023-03-05T09:57:11Z</time>
      </trkpt>
      <trkpt lat="46.54248" lon="0.37042">
        <ele>124</ele>
        <time>2023-03-05T09:57:15Z</time>
      </trkpt>
      <trkpt lat="46.54248" lon="0.37041">
        <ele>124.2</ele>
        <time>2023-03-05T09:57:16Z</time>
      </trkpt>
      <trkpt lat="46.54252" lon="0.37035">
        <ele>125.4</ele>
        <time>2023-03-05T09:57:21Z</time>
      </trkpt>
      <trkpt lat="46.54261" lon="0.37026">
        <ele>126.4</ele>
        <time>2023-03-05T09:57:27Z</time>
      </trkpt>
      <trkpt lat="46.54262" lon="0.37025">
        <ele>126.4</ele>
        <time>2023-03-05T09:57:28Z</time>
      </trkpt>
      <trkpt lat="46.54268" lon="0.37014">
        <ele>127.2</ele>
        <time>2023-03-05T09:57:32Z</time>
      </trkpt>
      <trkpt lat="46.5427" lon="0.36998">
        <ele>127.4</ele>
        <time>2023-03-05T09:57:36Z</time>
      </trkpt>
      <trkpt lat="46.54269" lon="0.36995">
        <ele>127.4</ele>
        <time>2023-03-05T09:57:37Z</time>
      </trkpt>
      <trkpt lat="46.5426" lon="0.36971">
        <ele>128</ele>
        <time>2023-03-05T09:57:43Z</time>
      </trkpt>
      <trkpt lat="46.54246" lon="0.36931">
        <ele>128.2</ele>
        <time>2023-03-05T09:57:51Z</time>
      </trkpt>
      <trkpt lat="46.54238" lon="0.36914">
        <ele>128.6</ele>
        <time>2023-03-05T09:57:54Z</time>
      </trkpt>
      <trkpt lat="46.54235" lon="0.36901">
        <ele>128.6</ele>
        <time>2023-03-05T09:57:56Z</time>
      </trkpt>
      <trkpt lat="46.54236" lon="0.36895">
        <ele>128.2</ele>
        <time>2023-03-05T09:57:57Z</time>
      </trkpt>
      <trkpt lat="46.54238" lon="0.36889">
        <ele>128</ele>
        <time>2023-03-05T09:57:58Z</time>
      </trkpt>
      <trkpt lat="46.54244" lon="0.36885">
        <ele>128.2</ele>
        <time>2023-03-05T09:58:00Z</time>
      </trkpt>
      <trkpt lat="46.54271" lon="0.36886">
        <ele>129.2</ele>
        <time>2023-03-05T09:58:06Z</time>
      </trkpt>
      <trkpt lat="46.5428" lon="0.36887">
        <ele>129.6</ele>
        <time>2023-03-05T09:58:08Z</time>
      </trkpt>
      <trkpt lat="46.54305" lon="0.36889">
        <ele>130.2</ele>
        <time>2023-03-05T09:58:14Z</time>
      </trkpt>
      <trkpt lat="46.54326" lon="0.36891">
        <ele>130.6</ele>
        <time>2023-03-05T09:58:19Z</time>
      </trkpt>
      <trkpt lat="46.54339" lon="0.36891">
        <ele>131.4</ele>
        <time>2023-03-05T09:58:22Z</time>
      </trkpt>
      <trkpt lat="46.54372" lon="0.36892">
        <ele>131.6</ele>
        <time>2023-03-05T09:58:30Z</time>
      </trkpt>
      <trkpt lat="46.54376" lon="0.36891">
        <ele>131.8</ele>
        <time>2023-03-05T09:58:31Z</time>
      </trkpt>
      <trkpt lat="46.54393" lon="0.3689">
        <ele>131.8</ele>
        <time>2023-03-05T09:58:35Z</time>
      </trkpt>
      <trkpt lat="46.54404" lon="0.36887">
        <ele>132</ele>
        <time>2023-03-05T09:58:37Z</time>
      </trkpt>
      <trkpt lat="46.5444" lon="0.36874">
        <ele>132.6</ele>
        <time>2023-03-05T09:58:44Z</time>
      </trkpt>
      <trkpt lat="46.54465" lon="0.36864">
        <ele>132.8</ele>
        <time>2023-03-05T09:58:49Z</time>
      </trkpt>
      <trkpt lat="46.54476" lon="0.3686">
        <ele>132.8</ele>
        <time>2023-03-05T09:58:51Z</time>
      </trkpt>
      <trkpt lat="46.54517" lon="0.36844">
        <ele>132.6</ele>
        <time>2023-03-05T09:58:58Z</time>
      </trkpt>
      <trkpt lat="46.54535" lon="0.36836">
        <ele>131.8</ele>
        <time>2023-03-05T09:59:01Z</time>
      </trkpt>
      <trkpt lat="46.54569" lon="0.36822">
        <ele>130.6</ele>
        <time>2023-03-05T09:59:06Z</time>
      </trkpt>
      <trkpt lat="46.54597" lon="0.36809">
        <ele>129.6</ele>
        <time>2023-03-05T09:59:10Z</time>
      </trkpt>
      <trkpt lat="46.54619" lon="0.36799">
        <ele>128.8</ele>
        <time>2023-03-05T09:59:13Z</time>
      </trkpt>
      <trkpt lat="46.54641" lon="0.3679">
        <ele>128.2</ele>
        <time>2023-03-05T09:59:16Z</time>
      </trkpt>
      <trkpt lat="46.54669" lon="0.36778">
        <ele>128.2</ele>
        <time>2023-03-05T09:59:20Z</time>
      </trkpt>
      <trkpt lat="46.54682" lon="0.36771">
        <ele>128.4</ele>
        <time>2023-03-05T09:59:22Z</time>
      </trkpt>
      <trkpt lat="46.5469" lon="0.36759">
        <ele>128.4</ele>
        <time>2023-03-05T09:59:24Z</time>
      </trkpt>
      <trkpt lat="46.54692" lon="0.36752">
        <ele>128.4</ele>
        <time>2023-03-05T09:59:25Z</time>
      </trkpt>
      <trkpt lat="46.54698" lon="0.36733">
        <ele>128.6</ele>
        <time>2023-03-05T09:59:28Z</time>
      </trkpt>
      <trkpt lat="46.54705" lon="0.36714">
        <ele>129.2</ele>
        <time>2023-03-05T09:59:31Z</time>
      </trkpt>
      <trkpt lat="46.54711" lon="0.36697">
        <ele>129.4</ele>
        <time>2023-03-05T09:59:34Z</time>
      </trkpt>
      <trkpt lat="46.54714" lon="0.36686">
        <ele>130</ele>
        <time>2023-03-05T09:59:36Z</time>
      </trkpt>
      <trkpt lat="46.54718" lon="0.36674">
        <ele>130.4</ele>
        <time>2023-03-05T09:59:38Z</time>
      </trkpt>
      <trkpt lat="46.54723" lon="0.36657">
        <ele>130.8</ele>
        <time>2023-03-05T09:59:41Z</time>
      </trkpt>
      <trkpt lat="46.54728" lon="0.36646">
        <ele>130.8</ele>
        <time>2023-03-05T09:59:43Z</time>
      </trkpt>
      <trkpt lat="46.54738" lon="0.36624">
        <ele>131.4</ele>
        <time>2023-03-05T09:59:47Z</time>
      </trkpt>
      <trkpt lat="46.5474" lon="0.36619">
        <ele>131.6</ele>
        <time>2023-03-05T09:59:48Z</time>
      </trkpt>
      <trkpt lat="46.54757" lon="0.36586">
        <ele>132.2</ele>
        <time>2023-03-05T09:59:55Z</time>
      </trkpt>
      <trkpt lat="46.54763" lon="0.36577">
        <ele>132.2</ele>
        <time>2023-03-05T09:59:57Z</time>
      </trkpt>
      <trkpt lat="46.54771" lon="0.36573">
        <ele>132.2</ele>
        <time>2023-03-05T09:59:59Z</time>
      </trkpt>
      <trkpt lat="46.54775" lon="0.36572">
        <ele>132.2</ele>
        <time>2023-03-05T10:00:00Z</time>
      </trkpt>
      <trkpt lat="46.54778" lon="0.36569">
        <ele>132.4</ele>
        <time>2023-03-05T10:00:01Z</time>
      </trkpt>
      <trkpt lat="46.54781" lon="0.36565">
        <ele>132.6</ele>
        <time>2023-03-05T10:00:02Z</time>
      </trkpt>
      <trkpt lat="46.54783" lon="0.36559">
        <ele>132.6</ele>
        <time>2023-03-05T10:00:03Z</time>
      </trkpt>
      <trkpt lat="46.54785" lon="0.36552">
        <ele>132.2</ele>
        <time>2023-03-05T10:00:04Z</time>
      </trkpt>
      <trkpt lat="46.54789" lon="0.36531">
        <ele>132</ele>
        <time>2023-03-05T10:00:07Z</time>
      </trkpt>
      <trkpt lat="46.54795" lon="0.36495">
        <ele>131.4</ele>
        <time>2023-03-05T10:00:12Z</time>
      </trkpt>
      <trkpt lat="46.54795" lon="0.36491">
        <ele>131</ele>
        <time>2023-03-05T10:00:13Z</time>
      </trkpt>
      <trkpt lat="46.54798" lon="0.36486">
        <ele>130.4</ele>
        <time>2023-03-05T10:00:15Z</time>
      </trkpt>
      <trkpt lat="46.548" lon="0.36486">
        <ele>130.2</ele>
        <time>2023-03-05T10:00:16Z</time>
      </trkpt>
      <trkpt lat="46.54802" lon="0.36486">
        <ele>130</ele>
        <time>2023-03-05T10:00:17Z</time>
      </trkpt>
      <trkpt lat="46.54816" lon="0.36484">
        <ele>130</ele>
        <time>2023-03-05T10:00:21Z</time>
      </trkpt>
      <trkpt lat="46.54846" lon="0.36478">
        <ele>129.8</ele>
        <time>2023-03-05T10:00:27Z</time>
      </trkpt>
      <trkpt lat="46.54887" lon="0.36483">
        <ele>129.8</ele>
        <time>2023-03-05T10:00:33Z</time>
      </trkpt>
      <trkpt lat="46.54902" lon="0.36486">
        <ele>129</ele>
        <time>2023-03-05T10:00:35Z</time>
      </trkpt>
      <trkpt lat="46.54918" lon="0.36491">
        <ele>128</ele>
        <time>2023-03-05T10:00:37Z</time>
      </trkpt>
      <trkpt lat="46.54925" lon="0.36494">
        <ele>127.4</ele>
        <time>2023-03-05T10:00:38Z</time>
      </trkpt>
      <trkpt lat="46.54933" lon="0.36497">
        <ele>127</ele>
        <time>2023-03-05T10:00:39Z</time>
      </trkpt>
      <trkpt lat="46.54939" lon="0.36501">
        <ele>126.4</ele>
        <time>2023-03-05T10:00:40Z</time>
      </trkpt>
      <trkpt lat="46.54944" lon="0.36505">
        <ele>125.2</ele>
        <time>2023-03-05T10:00:41Z</time>
      </trkpt>
      <trkpt lat="46.54949" lon="0.36508">
        <ele>124.6</ele>
        <time>2023-03-05T10:00:42Z</time>
      </trkpt>
      <trkpt lat="46.54959" lon="0.36517">
        <ele>124</ele>
        <time>2023-03-05T10:00:44Z</time>
      </trkpt>
      <trkpt lat="46.54964" lon="0.36524">
        <ele>123.6</ele>
        <time>2023-03-05T10:00:45Z</time>
      </trkpt>
      <trkpt lat="46.54969" lon="0.3653">
        <ele>122.6</ele>
        <time>2023-03-05T10:00:46Z</time>
      </trkpt>
      <trkpt lat="46.54975" lon="0.36536">
        <ele>122.2</ele>
        <time>2023-03-05T10:00:47Z</time>
      </trkpt>
      <trkpt lat="46.5498" lon="0.36543">
        <ele>121.2</ele>
        <time>2023-03-05T10:00:48Z</time>
      </trkpt>
      <trkpt lat="46.54987" lon="0.36551">
        <ele>120.4</ele>
        <time>2023-03-05T10:00:49Z</time>
      </trkpt>
      <trkpt lat="46.54994" lon="0.36557">
        <ele>119.6</ele>
        <time>2023-03-05T10:00:50Z</time>
      </trkpt>
      <trkpt lat="46.55002" lon="0.36562">
        <ele>118.8</ele>
        <time>2023-03-05T10:00:51Z</time>
      </trkpt>
      <trkpt lat="46.5501" lon="0.36567">
        <ele>118.4</ele>
        <time>2023-03-05T10:00:52Z</time>
      </trkpt>
      <trkpt lat="46.55029" lon="0.36577">
        <ele>116.8</ele>
        <time>2023-03-05T10:00:54Z</time>
      </trkpt>
      <trkpt lat="46.55039" lon="0.36582">
        <ele>114.8</ele>
        <time>2023-03-05T10:00:55Z</time>
      </trkpt>
      <trkpt lat="46.55049" lon="0.36588">
        <ele>113</ele>
        <time>2023-03-05T10:00:56Z</time>
      </trkpt>
      <trkpt lat="46.55068" lon="0.36598">
        <ele>111.4</ele>
        <time>2023-03-05T10:00:58Z</time>
      </trkpt>
      <trkpt lat="46.55085" lon="0.36608">
        <ele>110</ele>
        <time>2023-03-05T10:01:00Z</time>
      </trkpt>
      <trkpt lat="46.55093" lon="0.36613">
        <ele>109.6</ele>
        <time>2023-03-05T10:01:01Z</time>
      </trkpt>
      <trkpt lat="46.55106" lon="0.36619">
        <ele>108.2</ele>
        <time>2023-03-05T10:01:03Z</time>
      </trkpt>
      <trkpt lat="46.5511" lon="0.3662">
        <ele>107.8</ele>
        <time>2023-03-05T10:01:04Z</time>
      </trkpt>
      <trkpt lat="46.55114" lon="0.3662">
        <ele>107</ele>
        <time>2023-03-05T10:01:05Z</time>
      </trkpt>
      <trkpt lat="46.55117" lon="0.3662">
        <ele>105.8</ele>
        <time>2023-03-05T10:01:07Z</time>
      </trkpt>
      <trkpt lat="46.55118" lon="0.3662">
        <ele>105.4</ele>
        <time>2023-03-05T10:01:08Z</time>
      </trkpt>
      <trkpt lat="46.55121" lon="0.36618">
        <ele>105</ele>
        <time>2023-03-05T10:01:10Z</time>
      </trkpt>
      <trkpt lat="46.55122" lon="0.36614">
        <ele>104.8</ele>
        <time>2023-03-05T10:01:12Z</time>
      </trkpt>
      <trkpt lat="46.55122" lon="0.36608">
        <ele>104.8</ele>
        <time>2023-03-05T10:01:14Z</time>
      </trkpt>
      <trkpt lat="46.55121" lon="0.36598">
        <ele>104.2</ele>
        <time>2023-03-05T10:01:16Z</time>
      </trkpt>
      <trkpt lat="46.55118" lon="0.36585">
        <ele>103.8</ele>
        <time>2023-03-05T10:01:18Z</time>
      </trkpt>
      <trkpt lat="46.55112" lon="0.3657">
        <ele>103.8</ele>
        <time>2023-03-05T10:01:20Z</time>
      </trkpt>
      <trkpt lat="46.55109" lon="0.36563">
        <ele>103.8</ele>
        <time>2023-03-05T10:01:21Z</time>
      </trkpt>
      <trkpt lat="46.55103" lon="0.36551">
        <ele>103.2</ele>
        <time>2023-03-05T10:01:23Z</time>
      </trkpt>
      <trkpt lat="46.55098" lon="0.36546">
        <ele>102.6</ele>
        <time>2023-03-05T10:01:24Z</time>
      </trkpt>
      <trkpt lat="46.55087" lon="0.36538">
        <ele>102</ele>
        <time>2023-03-05T10:01:26Z</time>
      </trkpt>
      <trkpt lat="46.55075" lon="0.36528">
        <ele>101.4</ele>
        <time>2023-03-05T10:01:28Z</time>
      </trkpt>
      <trkpt lat="46.55059" lon="0.36506">
        <ele>100.2</ele>
        <time>2023-03-05T10:01:31Z</time>
      </trkpt>
      <trkpt lat="46.55051" lon="0.36487">
        <ele>99.6</ele>
        <time>2023-03-05T10:01:33Z</time>
      </trkpt>
      <trkpt lat="46.55049" lon="0.36477">
        <ele>98.6</ele>
        <time>2023-03-05T10:01:34Z</time>
      </trkpt>
      <trkpt lat="46.55048" lon="0.36466">
        <ele>98</ele>
        <time>2023-03-05T10:01:35Z</time>
      </trkpt>
      <trkpt lat="46.55047" lon="0.36455">
        <ele>97.4</ele>
        <time>2023-03-05T10:01:36Z</time>
      </trkpt>
      <trkpt lat="46.55047" lon="0.36443">
        <ele>96.8</ele>
        <time>2023-03-05T10:01:37Z</time>
      </trkpt>
      <trkpt lat="46.55046" lon="0.36432">
        <ele>96.4</ele>
        <time>2023-03-05T10:01:38Z</time>
      </trkpt>
      <trkpt lat="46.55044" lon="0.36422">
        <ele>96</ele>
        <time>2023-03-05T10:01:39Z</time>
      </trkpt>
      <trkpt lat="46.55041" lon="0.36401">
        <ele>94.8</ele>
        <time>2023-03-05T10:01:41Z</time>
      </trkpt>
      <trkpt lat="46.5504" lon="0.3639">
        <ele>94.4</ele>
        <time>2023-03-05T10:01:42Z</time>
      </trkpt>
      <trkpt lat="46.55043" lon="0.3637">
        <ele>93.6</ele>
        <time>2023-03-05T10:01:44Z</time>
      </trkpt>
      <trkpt lat="46.55049" lon="0.36355">
        <ele>92.4</ele>
        <time>2023-03-05T10:01:46Z</time>
      </trkpt>
      <trkpt lat="46.55051" lon="0.36349">
        <ele>91.6</ele>
        <time>2023-03-05T10:01:47Z</time>
      </trkpt>
      <trkpt lat="46.55052" lon="0.36345">
        <ele>91.2</ele>
        <time>2023-03-05T10:01:48Z</time>
      </trkpt>
      <trkpt lat="46.55053" lon="0.36334">
        <ele>90.2</ele>
        <time>2023-03-05T10:01:50Z</time>
      </trkpt>
      <trkpt lat="46.55054" lon="0.36329">
        <ele>89.8</ele>
        <time>2023-03-05T10:01:51Z</time>
      </trkpt>
      <trkpt lat="46.55054" lon="0.36322">
        <ele>89.6</ele>
        <time>2023-03-05T10:01:53Z</time>
      </trkpt>
      <trkpt lat="46.55055" lon="0.3632">
        <ele>89.4</ele>
        <time>2023-03-05T10:01:54Z</time>
      </trkpt>
      <trkpt lat="46.55057" lon="0.3632">
        <ele>89</ele>
        <time>2023-03-05T10:01:57Z</time>
      </trkpt>
      <trkpt lat="46.5506" lon="0.36321">
        <ele>88.8</ele>
        <time>2023-03-05T10:01:59Z</time>
      </trkpt>
      <trkpt lat="46.55075" lon="0.3632">
        <ele>89.6</ele>
        <time>2023-03-05T10:02:05Z</time>
      </trkpt>
      <trkpt lat="46.55087" lon="0.36325">
        <ele>89.2</ele>
        <time>2023-03-05T10:02:09Z</time>
      </trkpt>
      <trkpt lat="46.55093" lon="0.36325">
        <ele>89</ele>
        <time>2023-03-05T10:02:11Z</time>
      </trkpt>
      <trkpt lat="46.55098" lon="0.3632">
        <ele>89</ele>
        <time>2023-03-05T10:02:13Z</time>
      </trkpt>
      <trkpt lat="46.55104" lon="0.36318">
        <ele>89</ele>
        <time>2023-03-05T10:02:15Z</time>
      </trkpt>
      <trkpt lat="46.55111" lon="0.3632">
        <ele>89</ele>
        <time>2023-03-05T10:02:17Z</time>
      </trkpt>
      <trkpt lat="46.55117" lon="0.3632">
        <ele>89</ele>
        <time>2023-03-05T10:02:19Z</time>
      </trkpt>
      <trkpt lat="46.55123" lon="0.36313">
        <ele>89.2</ele>
        <time>2023-03-05T10:02:21Z</time>
      </trkpt>
      <trkpt lat="46.55125" lon="0.36308">
        <ele>89.2</ele>
        <time>2023-03-05T10:02:22Z</time>
      </trkpt>
      <trkpt lat="46.55126" lon="0.36292">
        <ele>89</ele>
        <time>2023-03-05T10:02:25Z</time>
      </trkpt>
      <trkpt lat="46.55125" lon="0.36277">
        <ele>88.8</ele>
        <time>2023-03-05T10:02:28Z</time>
      </trkpt>
      <trkpt lat="46.55122" lon="0.36268">
        <ele>89</ele>
        <time>2023-03-05T10:02:30Z</time>
      </trkpt>
      <trkpt lat="46.55116" lon="0.36263">
        <ele>89</ele>
        <time>2023-03-05T10:02:34Z</time>
      </trkpt>
      <trkpt lat="46.55114" lon="0.3626">
        <ele>88.8</ele>
        <time>2023-03-05T10:02:36Z</time>
      </trkpt>
      <trkpt lat="46.55112" lon="0.36253">
        <ele>88.6</ele>
        <time>2023-03-05T10:02:38Z</time>
      </trkpt>
      <trkpt lat="46.55111" lon="0.36249">
        <ele>88.6</ele>
        <time>2023-03-05T10:02:39Z</time>
      </trkpt>
      <trkpt lat="46.55102" lon="0.36241">
        <ele>88.6</ele>
        <time>2023-03-05T10:02:42Z</time>
      </trkpt>
      <trkpt lat="46.55089" lon="0.36236">
        <ele>88.6</ele>
        <time>2023-03-05T10:02:47Z</time>
      </trkpt>
      <trkpt lat="46.55084" lon="0.36233">
        <ele>88.4</ele>
        <time>2023-03-05T10:02:49Z</time>
      </trkpt>
      <trkpt lat="46.55076" lon="0.3623">
        <ele>88.6</ele>
        <time>2023-03-05T10:02:52Z</time>
      </trkpt>
      <trkpt lat="46.5506" lon="0.36224">
        <ele>88.8</ele>
        <time>2023-03-05T10:02:57Z</time>
      </trkpt>
      <trkpt lat="46.55048" lon="0.36218">
        <ele>89</ele>
        <time>2023-03-05T10:03:00Z</time>
      </trkpt>
      <trkpt lat="46.55039" lon="0.36211">
        <ele>89</ele>
        <time>2023-03-05T10:03:03Z</time>
      </trkpt>
      <trkpt lat="46.55026" lon="0.36205">
        <ele>89.4</ele>
        <time>2023-03-05T10:03:06Z</time>
      </trkpt>
      <trkpt lat="46.55016" lon="0.36199">
        <ele>89.4</ele>
        <time>2023-03-05T10:03:08Z</time>
      </trkpt>
      <trkpt lat="46.55005" lon="0.3619">
        <ele>89.6</ele>
        <time>2023-03-05T10:03:11Z</time>
      </trkpt>
      <trkpt lat="46.54997" lon="0.36181">
        <ele>89.6</ele>
        <time>2023-03-05T10:03:13Z</time>
      </trkpt>
      <trkpt lat="46.54994" lon="0.36177">
        <ele>89.6</ele>
        <time>2023-03-05T10:03:14Z</time>
      </trkpt>
      <trkpt lat="46.5499" lon="0.36167">
        <ele>89.4</ele>
        <time>2023-03-05T10:03:16Z</time>
      </trkpt>
      <trkpt lat="46.54987" lon="0.36163">
        <ele>89.4</ele>
        <time>2023-03-05T10:03:17Z</time>
      </trkpt>
      <trkpt lat="46.5498" lon="0.3615">
        <ele>89.4</ele>
        <time>2023-03-05T10:03:20Z</time>
      </trkpt>
      <trkpt lat="46.54976" lon="0.36142">
        <ele>89.6</ele>
        <time>2023-03-05T10:03:22Z</time>
      </trkpt>
      <trkpt lat="46.54973" lon="0.36138">
        <ele>89.6</ele>
        <time>2023-03-05T10:03:23Z</time>
      </trkpt>
      <trkpt lat="46.54964" lon="0.36122">
        <ele>89.2</ele>
        <time>2023-03-05T10:03:26Z</time>
      </trkpt>
      <trkpt lat="46.54957" lon="0.36109">
        <ele>89</ele>
        <time>2023-03-05T10:03:28Z</time>
      </trkpt>
      <trkpt lat="46.54939" lon="0.36086">
        <ele>88.8</ele>
        <time>2023-03-05T10:03:32Z</time>
      </trkpt>
      <trkpt lat="46.54934" lon="0.36081">
        <ele>88.8</ele>
        <time>2023-03-05T10:03:33Z</time>
      </trkpt>
      <trkpt lat="46.54927" lon="0.36072">
        <ele>88.8</ele>
        <time>2023-03-05T10:03:35Z</time>
      </trkpt>
      <trkpt lat="46.54918" lon="0.36063">
        <ele>88.8</ele>
        <time>2023-03-05T10:03:37Z</time>
      </trkpt>
      <trkpt lat="46.54915" lon="0.36057">
        <ele>88.8</ele>
        <time>2023-03-05T10:03:38Z</time>
      </trkpt>
      <trkpt lat="46.54911" lon="0.36053">
        <ele>88.8</ele>
        <time>2023-03-05T10:03:39Z</time>
      </trkpt>
      <trkpt lat="46.54891" lon="0.36033">
        <ele>88.4</ele>
        <time>2023-03-05T10:03:44Z</time>
      </trkpt>
      <trkpt lat="46.54878" lon="0.36022">
        <ele>88.4</ele>
        <time>2023-03-05T10:03:47Z</time>
      </trkpt>
      <trkpt lat="46.5487" lon="0.36015">
        <ele>88.6</ele>
        <time>2023-03-05T10:03:49Z</time>
      </trkpt>
      <trkpt lat="46.54867" lon="0.3601">
        <ele>88.8</ele>
        <time>2023-03-05T10:03:50Z</time>
      </trkpt>
      <trkpt lat="46.54853" lon="0.35992">
        <ele>89.2</ele>
        <time>2023-03-05T10:03:54Z</time>
      </trkpt>
      <trkpt lat="46.54849" lon="0.35988">
        <ele>89.2</ele>
        <time>2023-03-05T10:03:55Z</time>
      </trkpt>
      <trkpt lat="46.54845" lon="0.35982">
        <ele>89.2</ele>
        <time>2023-03-05T10:03:56Z</time>
      </trkpt>
      <trkpt lat="46.54832" lon="0.35961">
        <ele>88.8</ele>
        <time>2023-03-05T10:04:00Z</time>
      </trkpt>
      <trkpt lat="46.54826" lon="0.35953">
        <ele>88.8</ele>
        <time>2023-03-05T10:04:02Z</time>
      </trkpt>
      <trkpt lat="46.54821" lon="0.35946">
        <ele>88.8</ele>
        <time>2023-03-05T10:04:04Z</time>
      </trkpt>
      <trkpt lat="46.54819" lon="0.35942">
        <ele>88.8</ele>
        <time>2023-03-05T10:04:05Z</time>
      </trkpt>
      <trkpt lat="46.54817" lon="0.35938">
        <ele>88.8</ele>
        <time>2023-03-05T10:04:06Z</time>
      </trkpt>
      <trkpt lat="46.54814" lon="0.3593">
        <ele>88.6</ele>
        <time>2023-03-05T10:04:08Z</time>
      </trkpt>
      <trkpt lat="46.54812" lon="0.35915">
        <ele>88.4</ele>
        <time>2023-03-05T10:04:11Z</time>
      </trkpt>
      <trkpt lat="46.54803" lon="0.35874">
        <ele>88.4</ele>
        <time>2023-03-05T10:04:17Z</time>
      </trkpt>
      <trkpt lat="46.54794" lon="0.35843">
        <ele>88.6</ele>
        <time>2023-03-05T10:04:21Z</time>
      </trkpt>
      <trkpt lat="46.54787" lon="0.35822">
        <ele>88.6</ele>
        <time>2023-03-05T10:04:24Z</time>
      </trkpt>
      <trkpt lat="46.54786" lon="0.35816">
        <ele>88.6</ele>
        <time>2023-03-05T10:04:25Z</time>
      </trkpt>
      <trkpt lat="46.54785" lon="0.35796">
        <ele>88.6</ele>
        <time>2023-03-05T10:04:28Z</time>
      </trkpt>
      <trkpt lat="46.54783" lon="0.35775">
        <ele>88.6</ele>
        <time>2023-03-05T10:04:31Z</time>
      </trkpt>
      <trkpt lat="46.54781" lon="0.35735">
        <ele>89.2</ele>
        <time>2023-03-05T10:04:37Z</time>
      </trkpt>
      <trkpt lat="46.54779" lon="0.35722">
        <ele>89.2</ele>
        <time>2023-03-05T10:04:39Z</time>
      </trkpt>
      <trkpt lat="46.54775" lon="0.35703">
        <ele>89</ele>
        <time>2023-03-05T10:04:42Z</time>
      </trkpt>
      <trkpt lat="46.54774" lon="0.35695">
        <ele>89</ele>
        <time>2023-03-05T10:04:43Z</time>
      </trkpt>
      <trkpt lat="46.54771" lon="0.35677">
        <ele>89</ele>
        <time>2023-03-05T10:04:45Z</time>
      </trkpt>
      <trkpt lat="46.5477" lon="0.35664">
        <ele>89</ele>
        <time>2023-03-05T10:04:47Z</time>
      </trkpt>
      <trkpt lat="46.54767" lon="0.35639">
        <ele>89.2</ele>
        <time>2023-03-05T10:04:50Z</time>
      </trkpt>
      <trkpt lat="46.54762" lon="0.35623">
        <ele>89.2</ele>
        <time>2023-03-05T10:04:52Z</time>
      </trkpt>
      <trkpt lat="46.54759" lon="0.35616">
        <ele>89.2</ele>
        <time>2023-03-05T10:04:53Z</time>
      </trkpt>
      <trkpt lat="46.54758" lon="0.3561">
        <ele>89.2</ele>
        <time>2023-03-05T10:04:54Z</time>
      </trkpt>
      <trkpt lat="46.54756" lon="0.35597">
        <ele>89.2</ele>
        <time>2023-03-05T10:04:56Z</time>
      </trkpt>
      <trkpt lat="46.54757" lon="0.35585">
        <ele>89.2</ele>
        <time>2023-03-05T10:04:58Z</time>
      </trkpt>
      <trkpt lat="46.5476" lon="0.35548">
        <ele>88.6</ele>
        <time>2023-03-05T10:05:03Z</time>
      </trkpt>
      <trkpt lat="46.54763" lon="0.35531">
        <ele>88</ele>
        <time>2023-03-05T10:05:05Z</time>
      </trkpt>
      <trkpt lat="46.54764" lon="0.35521">
        <ele>87.8</ele>
        <time>2023-03-05T10:05:06Z</time>
      </trkpt>
      <trkpt lat="46.54765" lon="0.35512">
        <ele>87.6</ele>
        <time>2023-03-05T10:05:07Z</time>
      </trkpt>
      <trkpt lat="46.54773" lon="0.35468">
        <ele>87.4</ele>
        <time>2023-03-05T10:05:13Z</time>
      </trkpt>
      <trkpt lat="46.54782" lon="0.3542">
        <ele>87.4</ele>
        <time>2023-03-05T10:05:19Z</time>
      </trkpt>
      <trkpt lat="46.54786" lon="0.35392">
        <ele>87.4</ele>
        <time>2023-03-05T10:05:23Z</time>
      </trkpt>
      <trkpt lat="46.54788" lon="0.35384">
        <ele>87.4</ele>
        <time>2023-03-05T10:05:24Z</time>
      </trkpt>
      <trkpt lat="46.54788" lon="0.35376">
        <ele>87.4</ele>
        <time>2023-03-05T10:05:25Z</time>
      </trkpt>
      <trkpt lat="46.54794" lon="0.35347">
        <ele>87.4</ele>
        <time>2023-03-05T10:05:29Z</time>
      </trkpt>
      <trkpt lat="46.54805" lon="0.35316">
        <ele>87.2</ele>
        <time>2023-03-05T10:05:34Z</time>
      </trkpt>
      <trkpt lat="46.54815" lon="0.35287">
        <ele>87.4</ele>
        <time>2023-03-05T10:05:40Z</time>
      </trkpt>
      <trkpt lat="46.54819" lon="0.35279">
        <ele>87.8</ele>
        <time>2023-03-05T10:05:42Z</time>
      </trkpt>
      <trkpt lat="46.54824" lon="0.35268">
        <ele>87.6</ele>
        <time>2023-03-05T10:05:45Z</time>
      </trkpt>
      <trkpt lat="46.54824" lon="0.35264">
        <ele>87.6</ele>
        <time>2023-03-05T10:05:46Z</time>
      </trkpt>
      <trkpt lat="46.54828" lon="0.3525">
        <ele>87.2</ele>
        <time>2023-03-05T10:05:49Z</time>
      </trkpt>
      <trkpt lat="46.54832" lon="0.35239">
        <ele>87.2</ele>
        <time>2023-03-05T10:05:51Z</time>
      </trkpt>
      <trkpt lat="46.54838" lon="0.35223">
        <ele>87.6</ele>
        <time>2023-03-05T10:05:54Z</time>
      </trkpt>
      <trkpt lat="46.5484" lon="0.35219">
        <ele>87.8</ele>
        <time>2023-03-05T10:05:55Z</time>
      </trkpt>
      <trkpt lat="46.54843" lon="0.35216">
        <ele>87.8</ele>
        <time>2023-03-05T10:05:56Z</time>
      </trkpt>
      <trkpt lat="46.54854" lon="0.35207">
        <ele>87.4</ele>
        <time>2023-03-05T10:06:00Z</time>
      </trkpt>
      <trkpt lat="46.54863" lon="0.35198">
        <ele>88</ele>
        <time>2023-03-05T10:06:03Z</time>
      </trkpt>
      <trkpt lat="46.54869" lon="0.35193">
        <ele>87.6</ele>
        <time>2023-03-05T10:06:05Z</time>
      </trkpt>
      <trkpt lat="46.54873" lon="0.3519">
        <ele>87.2</ele>
        <time>2023-03-05T10:06:06Z</time>
      </trkpt>
      <trkpt lat="46.54877" lon="0.35188">
        <ele>86.8</ele>
        <time>2023-03-05T10:06:07Z</time>
      </trkpt>
      <trkpt lat="46.5488" lon="0.35184">
        <ele>86.6</ele>
        <time>2023-03-05T10:06:08Z</time>
      </trkpt>
      <trkpt lat="46.54884" lon="0.35181">
        <ele>86.6</ele>
        <time>2023-03-05T10:06:09Z</time>
      </trkpt>
      <trkpt lat="46.54892" lon="0.35177">
        <ele>86.4</ele>
        <time>2023-03-05T10:06:11Z</time>
      </trkpt>
      <trkpt lat="46.549" lon="0.35172">
        <ele>86.4</ele>
        <time>2023-03-05T10:06:13Z</time>
      </trkpt>
      <trkpt lat="46.54916" lon="0.35162">
        <ele>86.8</ele>
        <time>2023-03-05T10:06:17Z</time>
      </trkpt>
      <trkpt lat="46.54936" lon="0.35154">
        <ele>86.2</ele>
        <time>2023-03-05T10:06:21Z</time>
      </trkpt>
      <trkpt lat="46.5494" lon="0.3515">
        <ele>86.2</ele>
        <time>2023-03-05T10:06:22Z</time>
      </trkpt>
      <trkpt lat="46.54942" lon="0.35147">
        <ele>86.4</ele>
        <time>2023-03-05T10:06:23Z</time>
      </trkpt>
      <trkpt lat="46.54947" lon="0.35144">
        <ele>86.4</ele>
        <time>2023-03-05T10:06:25Z</time>
      </trkpt>
      <trkpt lat="46.54964" lon="0.35134">
        <ele>87.4</ele>
        <time>2023-03-05T10:06:31Z</time>
      </trkpt>
      <trkpt lat="46.54966" lon="0.35133">
        <ele>87.6</ele>
        <time>2023-03-05T10:06:32Z</time>
      </trkpt>
      <trkpt lat="46.54969" lon="0.35132">
        <ele>87.6</ele>
        <time>2023-03-05T10:06:33Z</time>
      </trkpt>
      <trkpt lat="46.54975" lon="0.35131">
        <ele>88</ele>
        <time>2023-03-05T10:06:35Z</time>
      </trkpt>
      <trkpt lat="46.54996" lon="0.35129">
        <ele>88.6</ele>
        <time>2023-03-05T10:06:41Z</time>
      </trkpt>
      <trkpt lat="46.55007" lon="0.35129">
        <ele>88.6</ele>
        <time>2023-03-05T10:06:44Z</time>
      </trkpt>
      <trkpt lat="46.55019" lon="0.35131">
        <ele>88.6</ele>
        <time>2023-03-05T10:06:47Z</time>
      </trkpt>
      <trkpt lat="46.55027" lon="0.35131">
        <ele>88.6</ele>
        <time>2023-03-05T10:06:49Z</time>
      </trkpt>
      <trkpt lat="46.55036" lon="0.35133">
        <ele>88.8</ele>
        <time>2023-03-05T10:06:52Z</time>
      </trkpt>
      <trkpt lat="46.55048" lon="0.35135">
        <ele>89</ele>
        <time>2023-03-05T10:06:55Z</time>
      </trkpt>
      <trkpt lat="46.55056" lon="0.35139">
        <ele>89</ele>
        <time>2023-03-05T10:06:57Z</time>
      </trkpt>
      <trkpt lat="46.55059" lon="0.35141">
        <ele>89</ele>
        <time>2023-03-05T10:06:58Z</time>
      </trkpt>
      <trkpt lat="46.55063" lon="0.35143">
        <ele>89</ele>
        <time>2023-03-05T10:06:59Z</time>
      </trkpt>
      <trkpt lat="46.55081" lon="0.35151">
        <ele>88.8</ele>
        <time>2023-03-05T10:07:04Z</time>
      </trkpt>
      <trkpt lat="46.55094" lon="0.35159">
        <ele>89.2</ele>
        <time>2023-03-05T10:07:08Z</time>
      </trkpt>
      <trkpt lat="46.55105" lon="0.35166">
        <ele>89.2</ele>
        <time>2023-03-05T10:07:10Z</time>
      </trkpt>
      <trkpt lat="46.55131" lon="0.35186">
        <ele>89.2</ele>
        <time>2023-03-05T10:07:16Z</time>
      </trkpt>
      <trkpt lat="46.55134" lon="0.35189">
        <ele>89.2</ele>
        <time>2023-03-05T10:07:17Z</time>
      </trkpt>
      <trkpt lat="46.55141" lon="0.35196">
        <ele>89.4</ele>
        <time>2023-03-05T10:07:19Z</time>
      </trkpt>
      <trkpt lat="46.55156" lon="0.35209">
        <ele>89.4</ele>
        <time>2023-03-05T10:07:23Z</time>
      </trkpt>
      <trkpt lat="46.55177" lon="0.3523">
        <ele>89.4</ele>
        <time>2023-03-05T10:07:29Z</time>
      </trkpt>
      <trkpt lat="46.55198" lon="0.35248">
        <ele>89.6</ele>
        <time>2023-03-05T10:07:36Z</time>
      </trkpt>
      <trkpt lat="46.5522" lon="0.35264">
        <ele>89</ele>
        <time>2023-03-05T10:07:42Z</time>
      </trkpt>
      <trkpt lat="46.55226" lon="0.35269">
        <ele>88.2</ele>
        <time>2023-03-05T10:07:44Z</time>
      </trkpt>
      <trkpt lat="46.55234" lon="0.3527">
        <ele>88.2</ele>
        <time>2023-03-05T10:07:46Z</time>
      </trkpt>
      <trkpt lat="46.55237" lon="0.3527">
        <ele>88.2</ele>
        <time>2023-03-05T10:07:47Z</time>
      </trkpt>
      <trkpt lat="46.55256" lon="0.35268">
        <ele>89.8</ele>
        <time>2023-03-05T10:07:53Z</time>
      </trkpt>
      <trkpt lat="46.5528" lon="0.35261">
        <ele>90.2</ele>
        <time>2023-03-05T10:07:59Z</time>
      </trkpt>
      <trkpt lat="46.55289" lon="0.35258">
        <ele>89.8</ele>
        <time>2023-03-05T10:08:01Z</time>
      </trkpt>
      <trkpt lat="46.55304" lon="0.35248">
        <ele>89.4</ele>
        <time>2023-03-05T10:08:04Z</time>
      </trkpt>
      <trkpt lat="46.55324" lon="0.35224">
        <ele>88.4</ele>
        <time>2023-03-05T10:08:09Z</time>
      </trkpt>
      <trkpt lat="46.55325" lon="0.35215">
        <ele>87.8</ele>
        <time>2023-03-05T10:08:11Z</time>
      </trkpt>
      <trkpt lat="46.55324" lon="0.3521">
        <ele>87.6</ele>
        <time>2023-03-05T10:08:12Z</time>
      </trkpt>
      <trkpt lat="46.55324" lon="0.35206">
        <ele>86.8</ele>
        <time>2023-03-05T10:08:13Z</time>
      </trkpt>
      <trkpt lat="46.55326" lon="0.35191">
        <ele>86</ele>
        <time>2023-03-05T10:08:16Z</time>
      </trkpt>
      <trkpt lat="46.55326" lon="0.35185">
        <ele>85.8</ele>
        <time>2023-03-05T10:08:17Z</time>
      </trkpt>
      <trkpt lat="46.55325" lon="0.35173">
        <ele>85.6</ele>
        <time>2023-03-05T10:08:19Z</time>
      </trkpt>
      <trkpt lat="46.55324" lon="0.35166">
        <ele>85.6</ele>
        <time>2023-03-05T10:08:20Z</time>
      </trkpt>
      <trkpt lat="46.55321" lon="0.35144">
        <ele>85.8</ele>
        <time>2023-03-05T10:08:24Z</time>
      </trkpt>
      <trkpt lat="46.5532" lon="0.35139">
        <ele>85.8</ele>
        <time>2023-03-05T10:08:25Z</time>
      </trkpt>
      <trkpt lat="46.55309" lon="0.35095">
        <ele>85.8</ele>
        <time>2023-03-05T10:08:32Z</time>
      </trkpt>
      <trkpt lat="46.55304" lon="0.3508">
        <ele>85.8</ele>
        <time>2023-03-05T10:08:34Z</time>
      </trkpt>
      <trkpt lat="46.55291" lon="0.35048">
        <ele>86</ele>
        <time>2023-03-05T10:08:38Z</time>
      </trkpt>
      <trkpt lat="46.55283" lon="0.35018">
        <ele>86.2</ele>
        <time>2023-03-05T10:08:42Z</time>
      </trkpt>
      <trkpt lat="46.5528" lon="0.35003">
        <ele>86.2</ele>
        <time>2023-03-05T10:08:44Z</time>
      </trkpt>
      <trkpt lat="46.55279" lon="0.34996">
        <ele>86.4</ele>
        <time>2023-03-05T10:08:45Z</time>
      </trkpt>
      <trkpt lat="46.55275" lon="0.3498">
        <ele>86.4</ele>
        <time>2023-03-05T10:08:47Z</time>
      </trkpt>
      <trkpt lat="46.55273" lon="0.34961">
        <ele>86.6</ele>
        <time>2023-03-05T10:08:49Z</time>
      </trkpt>
      <trkpt lat="46.55272" lon="0.34929">
        <ele>86.8</ele>
        <time>2023-03-05T10:08:52Z</time>
      </trkpt>
      <trkpt lat="46.55273" lon="0.34909">
        <ele>87.2</ele>
        <time>2023-03-05T10:08:54Z</time>
      </trkpt>
      <trkpt lat="46.55274" lon="0.34889">
        <ele>87</ele>
        <time>2023-03-05T10:08:56Z</time>
      </trkpt>
      <trkpt lat="46.55281" lon="0.34862">
        <ele>86.6</ele>
        <time>2023-03-05T10:08:59Z</time>
      </trkpt>
      <trkpt lat="46.55298" lon="0.34813">
        <ele>86.4</ele>
        <time>2023-03-05T10:09:05Z</time>
      </trkpt>
      <trkpt lat="46.55302" lon="0.34797">
        <ele>85.8</ele>
        <time>2023-03-05T10:09:07Z</time>
      </trkpt>
      <trkpt lat="46.55311" lon="0.34769">
        <ele>85.4</ele>
        <time>2023-03-05T10:09:11Z</time>
      </trkpt>
      <trkpt lat="46.55323" lon="0.34727">
        <ele>86</ele>
        <time>2023-03-05T10:09:18Z</time>
      </trkpt>
      <trkpt lat="46.55334" lon="0.34699">
        <ele>85.2</ele>
        <time>2023-03-05T10:09:23Z</time>
      </trkpt>
      <trkpt lat="46.55335" lon="0.34694">
        <ele>85.2</ele>
        <time>2023-03-05T10:09:24Z</time>
      </trkpt>
      <trkpt lat="46.55336" lon="0.34688">
        <ele>85.2</ele>
        <time>2023-03-05T10:09:25Z</time>
      </trkpt>
      <trkpt lat="46.55338" lon="0.34671">
        <ele>86.2</ele>
        <time>2023-03-05T10:09:29Z</time>
      </trkpt>
      <trkpt lat="46.55337" lon="0.34663">
        <ele>87</ele>
        <time>2023-03-05T10:09:31Z</time>
      </trkpt>
      <trkpt lat="46.55337" lon="0.34655">
        <ele>88.2</ele>
        <time>2023-03-05T10:09:33Z</time>
      </trkpt>
      <trkpt lat="46.55336" lon="0.34647">
        <ele>88.8</ele>
        <time>2023-03-05T10:09:35Z</time>
      </trkpt>
      <trkpt lat="46.55331" lon="0.34637">
        <ele>89.4</ele>
        <time>2023-03-05T10:09:38Z</time>
      </trkpt>
      <trkpt lat="46.55329" lon="0.34629">
        <ele>89.8</ele>
        <time>2023-03-05T10:09:40Z</time>
      </trkpt>
      <trkpt lat="46.55326" lon="0.34618">
        <ele>90</ele>
        <time>2023-03-05T10:09:43Z</time>
      </trkpt>
      <trkpt lat="46.55316" lon="0.34596">
        <ele>90</ele>
        <time>2023-03-05T10:09:47Z</time>
      </trkpt>
      <trkpt lat="46.5531" lon="0.34583">
        <ele>89.8</ele>
        <time>2023-03-05T10:09:49Z</time>
      </trkpt>
      <trkpt lat="46.55305" lon="0.34573">
        <ele>89.8</ele>
        <time>2023-03-05T10:09:51Z</time>
      </trkpt>
      <trkpt lat="46.55303" lon="0.34568">
        <ele>89.8</ele>
        <time>2023-03-05T10:09:52Z</time>
      </trkpt>
      <trkpt lat="46.55298" lon="0.34553">
        <ele>89.4</ele>
        <time>2023-03-05T10:09:55Z</time>
      </trkpt>
      <trkpt lat="46.55291" lon="0.34547">
        <ele>88.8</ele>
        <time>2023-03-05T10:09:57Z</time>
      </trkpt>
      <trkpt lat="46.55285" lon="0.34543">
        <ele>88.2</ele>
        <time>2023-03-05T10:09:59Z</time>
      </trkpt>
      <trkpt lat="46.55273" lon="0.34532">
        <ele>87.4</ele>
        <time>2023-03-05T10:10:02Z</time>
      </trkpt>
      <trkpt lat="46.55264" lon="0.34526">
        <ele>87</ele>
        <time>2023-03-05T10:10:04Z</time>
      </trkpt>
      <trkpt lat="46.55248" lon="0.34515">
        <ele>86.4</ele>
        <time>2023-03-05T10:10:07Z</time>
      </trkpt>
      <trkpt lat="46.55223" lon="0.34503">
        <ele>86.8</ele>
        <time>2023-03-05T10:10:12Z</time>
      </trkpt>
      <trkpt lat="46.55187" lon="0.34485">
        <ele>86.2</ele>
        <time>2023-03-05T10:10:19Z</time>
      </trkpt>
      <trkpt lat="46.55169" lon="0.34477">
        <ele>85.8</ele>
        <time>2023-03-05T10:10:23Z</time>
      </trkpt>
      <trkpt lat="46.55164" lon="0.34473">
        <ele>86</ele>
        <time>2023-03-05T10:10:24Z</time>
      </trkpt>
      <trkpt lat="46.55159" lon="0.3447">
        <ele>86.2</ele>
        <time>2023-03-05T10:10:25Z</time>
      </trkpt>
      <trkpt lat="46.55149" lon="0.34467">
        <ele>86.6</ele>
        <time>2023-03-05T10:10:27Z</time>
      </trkpt>
      <trkpt lat="46.55145" lon="0.34466">
        <ele>86.6</ele>
        <time>2023-03-05T10:10:28Z</time>
      </trkpt>
      <trkpt lat="46.55136" lon="0.34464">
        <ele>86.6</ele>
        <time>2023-03-05T10:10:30Z</time>
      </trkpt>
      <trkpt lat="46.55132" lon="0.34463">
        <ele>87</ele>
        <time>2023-03-05T10:10:31Z</time>
      </trkpt>
      <trkpt lat="46.55117" lon="0.34462">
        <ele>87.2</ele>
        <time>2023-03-05T10:10:34Z</time>
      </trkpt>
      <trkpt lat="46.55108" lon="0.34461">
        <ele>87.6</ele>
        <time>2023-03-05T10:10:36Z</time>
      </trkpt>
      <trkpt lat="46.55094" lon="0.34458">
        <ele>88</ele>
        <time>2023-03-05T10:10:39Z</time>
      </trkpt>
      <trkpt lat="46.5509" lon="0.34456">
        <ele>88</ele>
        <time>2023-03-05T10:10:40Z</time>
      </trkpt>
      <trkpt lat="46.55077" lon="0.34443">
        <ele>86.8</ele>
        <time>2023-03-05T10:10:43Z</time>
      </trkpt>
      <trkpt lat="46.55077" lon="0.34437">
        <ele>86.4</ele>
        <time>2023-03-05T10:10:44Z</time>
      </trkpt>
      <trkpt lat="46.55076" lon="0.3443">
        <ele>86</ele>
        <time>2023-03-05T10:10:45Z</time>
      </trkpt>
      <trkpt lat="46.55076" lon="0.34422">
        <ele>85.6</ele>
        <time>2023-03-05T10:10:46Z</time>
      </trkpt>
      <trkpt lat="46.55077" lon="0.34415">
        <ele>85.2</ele>
        <time>2023-03-05T10:10:47Z</time>
      </trkpt>
      <trkpt lat="46.55077" lon="0.34403">
        <ele>84.6</ele>
        <time>2023-03-05T10:10:49Z</time>
      </trkpt>
      <trkpt lat="46.55074" lon="0.34399">
        <ele>84.2</ele>
        <time>2023-03-05T10:10:50Z</time>
      </trkpt>
      <trkpt lat="46.5507" lon="0.34395">
        <ele>84</ele>
        <time>2023-03-05T10:10:51Z</time>
      </trkpt>
      <trkpt lat="46.55065" lon="0.34389">
        <ele>84.2</ele>
        <time>2023-03-05T10:10:53Z</time>
      </trkpt>
      <trkpt lat="46.55065" lon="0.34384">
        <ele>84.2</ele>
        <time>2023-03-05T10:10:54Z</time>
      </trkpt>
      <trkpt lat="46.55065" lon="0.34379">
        <ele>84.2</ele>
        <time>2023-03-05T10:10:55Z</time>
      </trkpt>
      <trkpt lat="46.55066" lon="0.34369">
        <ele>84.4</ele>
        <time>2023-03-05T10:10:57Z</time>
      </trkpt>
      <trkpt lat="46.55065" lon="0.34363">
        <ele>84.4</ele>
        <time>2023-03-05T10:10:58Z</time>
      </trkpt>
      <trkpt lat="46.55063" lon="0.34359">
        <ele>84.6</ele>
        <time>2023-03-05T10:10:59Z</time>
      </trkpt>
      <trkpt lat="46.55056" lon="0.3435">
        <ele>85</ele>
        <time>2023-03-05T10:11:01Z</time>
      </trkpt>
      <trkpt lat="46.55057" lon="0.34346">
        <ele>85.2</ele>
        <time>2023-03-05T10:11:02Z</time>
      </trkpt>
      <trkpt lat="46.55058" lon="0.34345">
        <ele>85.4</ele>
        <time>2023-03-05T10:11:03Z</time>
      </trkpt>
      <trkpt lat="46.55065" lon="0.34346">
        <ele>85.8</ele>
        <time>2023-03-05T10:11:05Z</time>
      </trkpt>
      <trkpt lat="46.55074" lon="0.34348">
        <ele>86.6</ele>
        <time>2023-03-05T10:11:07Z</time>
      </trkpt>
      <trkpt lat="46.55087" lon="0.34353">
        <ele>87.8</ele>
        <time>2023-03-05T10:11:10Z</time>
      </trkpt>
      <trkpt lat="46.55091" lon="0.34355">
        <ele>88</ele>
        <time>2023-03-05T10:11:11Z</time>
      </trkpt>
      <trkpt lat="46.55111" lon="0.34368">
        <ele>88.6</ele>
        <time>2023-03-05T10:11:16Z</time>
      </trkpt>
      <trkpt lat="46.55126" lon="0.34376">
        <ele>88.6</ele>
        <time>2023-03-05T10:11:19Z</time>
      </trkpt>
      <trkpt lat="46.55139" lon="0.3438">
        <ele>88.6</ele>
        <time>2023-03-05T10:11:22Z</time>
      </trkpt>
      <trkpt lat="46.55166" lon="0.34385">
        <ele>88</ele>
        <time>2023-03-05T10:11:30Z</time>
      </trkpt>
      <trkpt lat="46.55185" lon="0.34392">
        <ele>87.6</ele>
        <time>2023-03-05T10:11:37Z</time>
      </trkpt>
      <trkpt lat="46.55187" lon="0.34392">
        <ele>87.6</ele>
        <time>2023-03-05T10:11:39Z</time>
      </trkpt>
      <trkpt lat="46.55186" lon="0.34388">
        <ele>87.8</ele>
        <time>2023-03-05T10:11:41Z</time>
      </trkpt>
      <trkpt lat="46.55184" lon="0.34387">
        <ele>87.8</ele>
        <time>2023-03-05T10:11:42Z</time>
      </trkpt>
      <trkpt lat="46.55178" lon="0.34384">
        <ele>89</ele>
        <time>2023-03-05T10:11:46Z</time>
      </trkpt>
      <trkpt lat="46.55167" lon="0.34377">
        <ele>89.8</ele>
        <time>2023-03-05T10:11:52Z</time>
      </trkpt>
      <trkpt lat="46.55166" lon="0.34377">
        <ele>90.2</ele>
        <time>2023-03-05T10:11:53Z</time>
      </trkpt>
      <trkpt lat="46.55159" lon="0.34374">
        <ele>91.6</ele>
        <time>2023-03-05T10:11:56Z</time>
      </trkpt>
      <trkpt lat="46.55152" lon="0.34369">
        <ele>92.6</ele>
        <time>2023-03-05T10:11:59Z</time>
      </trkpt>
      <trkpt lat="46.55139" lon="0.34361">
        <ele>93.6</ele>
        <time>2023-03-05T10:12:04Z</time>
      </trkpt>
      <trkpt lat="46.55135" lon="0.34356">
        <ele>93.8</ele>
        <time>2023-03-05T10:12:06Z</time>
      </trkpt>
      <trkpt lat="46.55117" lon="0.34346">
        <ele>94.8</ele>
        <time>2023-03-05T10:12:13Z</time>
      </trkpt>
      <trkpt lat="46.55109" lon="0.34339">
        <ele>95.8</ele>
        <time>2023-03-05T10:12:17Z</time>
      </trkpt>
      <trkpt lat="46.55103" lon="0.34335">
        <ele>95.8</ele>
        <time>2023-03-05T10:12:20Z</time>
      </trkpt>
      <trkpt lat="46.55101" lon="0.34333">
        <ele>96</ele>
        <time>2023-03-05T10:12:21Z</time>
      </trkpt>
      <trkpt lat="46.551" lon="0.34328">
        <ele>96.6</ele>
        <time>2023-03-05T10:12:24Z</time>
      </trkpt>
      <trkpt lat="46.551" lon="0.34328">
        <ele>96.8</ele>
        <time>2023-03-05T10:12:25Z</time>
      </trkpt>
      <trkpt lat="46.55103" lon="0.34327">
        <ele>98</ele>
        <time>2023-03-05T10:12:29Z</time>
      </trkpt>
      <trkpt lat="46.55104" lon="0.34327">
        <ele>98.8</ele>
        <time>2023-03-05T10:12:32Z</time>
      </trkpt>
      <trkpt lat="46.55106" lon="0.34327">
        <ele>99.4</ele>
        <time>2023-03-05T10:12:34Z</time>
      </trkpt>
      <trkpt lat="46.55107" lon="0.34327">
        <ele>99.8</ele>
        <time>2023-03-05T10:12:36Z</time>
      </trkpt>
      <trkpt lat="46.55108" lon="0.34326">
        <ele>100.6</ele>
        <time>2023-03-05T10:12:38Z</time>
      </trkpt>
      <trkpt lat="46.55112" lon="0.34324">
        <ele>101.6</ele>
        <time>2023-03-05T10:12:43Z</time>
      </trkpt>
      <trkpt lat="46.55115" lon="0.34323">
        <ele>102.8</ele>
        <time>2023-03-05T10:12:46Z</time>
      </trkpt>
      <trkpt lat="46.55118" lon="0.34319">
        <ele>104.2</ele>
        <time>2023-03-05T10:12:51Z</time>
      </trkpt>
      <trkpt lat="46.55122" lon="0.34316">
        <ele>105.2</ele>
        <time>2023-03-05T10:12:56Z</time>
      </trkpt>
      <trkpt lat="46.55123" lon="0.34315">
        <ele>105.6</ele>
        <time>2023-03-05T10:12:58Z</time>
      </trkpt>
      <trkpt lat="46.55125" lon="0.34312">
        <ele>106.2</ele>
        <time>2023-03-05T10:13:01Z</time>
      </trkpt>
      <trkpt lat="46.55128" lon="0.34309">
        <ele>107.4</ele>
        <time>2023-03-05T10:13:04Z</time>
      </trkpt>
      <trkpt lat="46.55133" lon="0.34308">
        <ele>108.4</ele>
        <time>2023-03-05T10:13:08Z</time>
      </trkpt>
      <trkpt lat="46.55135" lon="0.34308">
        <ele>108.6</ele>
        <time>2023-03-05T10:13:09Z</time>
      </trkpt>
      <trkpt lat="46.55141" lon="0.34311">
        <ele>109.2</ele>
        <time>2023-03-05T10:13:13Z</time>
      </trkpt>
      <trkpt lat="46.55146" lon="0.34316">
        <ele>109.4</ele>
        <time>2023-03-05T10:13:15Z</time>
      </trkpt>
      <trkpt lat="46.55149" lon="0.34318">
        <ele>109.4</ele>
        <time>2023-03-05T10:13:16Z</time>
      </trkpt>
      <trkpt lat="46.55163" lon="0.34325">
        <ele>109.6</ele>
        <time>2023-03-05T10:13:20Z</time>
      </trkpt>
      <trkpt lat="46.55189" lon="0.34332">
        <ele>109.8</ele>
        <time>2023-03-05T10:13:27Z</time>
      </trkpt>
      <trkpt lat="46.55212" lon="0.34335">
        <ele>110.4</ele>
        <time>2023-03-05T10:13:34Z</time>
      </trkpt>
      <trkpt lat="46.55214" lon="0.34336">
        <ele>110.4</ele>
        <time>2023-03-05T10:13:35Z</time>
      </trkpt>
      <trkpt lat="46.55226" lon="0.34338">
        <ele>110.6</ele>
        <time>2023-03-05T10:13:39Z</time>
      </trkpt>
      <trkpt lat="46.55242" lon="0.34343">
        <ele>111.2</ele>
        <time>2023-03-05T10:13:45Z</time>
      </trkpt>
      <trkpt lat="46.55258" lon="0.34343">
        <ele>111.8</ele>
        <time>2023-03-05T10:13:50Z</time>
      </trkpt>
      <trkpt lat="46.55261" lon="0.34343">
        <ele>112</ele>
        <time>2023-03-05T10:13:51Z</time>
      </trkpt>
      <trkpt lat="46.55271" lon="0.34343">
        <ele>113</ele>
        <time>2023-03-05T10:13:55Z</time>
      </trkpt>
      <trkpt lat="46.55276" lon="0.34343">
        <ele>113.4</ele>
        <time>2023-03-05T10:13:57Z</time>
      </trkpt>
      <trkpt lat="46.55285" lon="0.34342">
        <ele>114</ele>
        <time>2023-03-05T10:14:01Z</time>
      </trkpt>
      <trkpt lat="46.5529" lon="0.34342">
        <ele>115</ele>
        <time>2023-03-05T10:14:03Z</time>
      </trkpt>
      <trkpt lat="46.55292" lon="0.34342">
        <ele>115.2</ele>
        <time>2023-03-05T10:14:04Z</time>
      </trkpt>
      <trkpt lat="46.55304" lon="0.34342">
        <ele>116.4</ele>
        <time>2023-03-05T10:14:09Z</time>
      </trkpt>
      <trkpt lat="46.55307" lon="0.34343">
        <ele>116.6</ele>
        <time>2023-03-05T10:14:10Z</time>
      </trkpt>
      <trkpt lat="46.55317" lon="0.34343">
        <ele>117.4</ele>
        <time>2023-03-05T10:14:14Z</time>
      </trkpt>
      <trkpt lat="46.55322" lon="0.34344">
        <ele>117.8</ele>
        <time>2023-03-05T10:14:16Z</time>
      </trkpt>
      <trkpt lat="46.55329" lon="0.34345">
        <ele>118.6</ele>
        <time>2023-03-05T10:14:19Z</time>
      </trkpt>
      <trkpt lat="46.55338" lon="0.34346">
        <ele>118.8</ele>
        <time>2023-03-05T10:14:22Z</time>
      </trkpt>
      <trkpt lat="46.55358" lon="0.34345">
        <ele>119.2</ele>
        <time>2023-03-05T10:14:29Z</time>
      </trkpt>
      <trkpt lat="46.55379" lon="0.34341">
        <ele>118.4</ele>
        <time>2023-03-05T10:14:34Z</time>
      </trkpt>
      <trkpt lat="46.55383" lon="0.34339">
        <ele>118.2</ele>
        <time>2023-03-05T10:14:35Z</time>
      </trkpt>
      <trkpt lat="46.55398" lon="0.3433">
        <ele>118</ele>
        <time>2023-03-05T10:14:40Z</time>
      </trkpt>
      <trkpt lat="46.55413" lon="0.34324">
        <ele>119.2</ele>
        <time>2023-03-05T10:14:46Z</time>
      </trkpt>
      <trkpt lat="46.55414" lon="0.34323">
        <ele>119.6</ele>
        <time>2023-03-05T10:14:47Z</time>
      </trkpt>
      <trkpt lat="46.55428" lon="0.34316">
        <ele>120.4</ele>
        <time>2023-03-05T10:14:53Z</time>
      </trkpt>
      <trkpt lat="46.55434" lon="0.34314">
        <ele>120.8</ele>
        <time>2023-03-05T10:14:56Z</time>
      </trkpt>
      <trkpt lat="46.55441" lon="0.34313">
        <ele>121.4</ele>
        <time>2023-03-05T10:15:00Z</time>
      </trkpt>
      <trkpt lat="46.55443" lon="0.34315">
        <ele>120.8</ele>
        <time>2023-03-05T10:15:05Z</time>
      </trkpt>
      <trkpt lat="46.55445" lon="0.34315">
        <ele>120.8</ele>
        <time>2023-03-05T10:15:07Z</time>
      </trkpt>
      <trkpt lat="46.55451" lon="0.34314">
        <ele>121</ele>
        <time>2023-03-05T10:15:09Z</time>
      </trkpt>
      <trkpt lat="46.55458" lon="0.34315">
        <ele>121.2</ele>
        <time>2023-03-05T10:15:11Z</time>
      </trkpt>
      <trkpt lat="46.55471" lon="0.34316">
        <ele>121.6</ele>
        <time>2023-03-05T10:15:16Z</time>
      </trkpt>
      <trkpt lat="46.55475" lon="0.34316">
        <ele>121.8</ele>
        <time>2023-03-05T10:15:18Z</time>
      </trkpt>
      <trkpt lat="46.55485" lon="0.34317">
        <ele>122.4</ele>
        <time>2023-03-05T10:15:22Z</time>
      </trkpt>
      <trkpt lat="46.55487" lon="0.34315">
        <ele>122.4</ele>
        <time>2023-03-05T10:15:23Z</time>
      </trkpt>
      <trkpt lat="46.55487" lon="0.34312">
        <ele>122.6</ele>
        <time>2023-03-05T10:15:24Z</time>
      </trkpt>
      <trkpt lat="46.55486" lon="0.34309">
        <ele>123.2</ele>
        <time>2023-03-05T10:15:25Z</time>
      </trkpt>
      <trkpt lat="46.55484" lon="0.34306">
        <ele>123.4</ele>
        <time>2023-03-05T10:15:26Z</time>
      </trkpt>
      <trkpt lat="46.55479" lon="0.34298">
        <ele>124.2</ele>
        <time>2023-03-05T10:15:29Z</time>
      </trkpt>
      <trkpt lat="46.55475" lon="0.34287">
        <ele>125.2</ele>
        <time>2023-03-05T10:15:32Z</time>
      </trkpt>
      <trkpt lat="46.55473" lon="0.34283">
        <ele>125.4</ele>
        <time>2023-03-05T10:15:33Z</time>
      </trkpt>
      <trkpt lat="46.55467" lon="0.34265">
        <ele>127</ele>
        <time>2023-03-05T10:15:38Z</time>
      </trkpt>
      <trkpt lat="46.55465" lon="0.34253">
        <ele>128</ele>
        <time>2023-03-05T10:15:41Z</time>
      </trkpt>
      <trkpt lat="46.55462" lon="0.34238">
        <ele>128.6</ele>
        <time>2023-03-05T10:15:45Z</time>
      </trkpt>
      <trkpt lat="46.55462" lon="0.34235">
        <ele>128.6</ele>
        <time>2023-03-05T10:15:46Z</time>
      </trkpt>
      <trkpt lat="46.55466" lon="0.34233">
        <ele>129</ele>
        <time>2023-03-05T10:15:48Z</time>
      </trkpt>
      <trkpt lat="46.55472" lon="0.34233">
        <ele>129</ele>
        <time>2023-03-05T10:15:50Z</time>
      </trkpt>
      <trkpt lat="46.55486" lon="0.34231">
        <ele>129.8</ele>
        <time>2023-03-05T10:15:54Z</time>
      </trkpt>
      <trkpt lat="46.5549" lon="0.3423">
        <ele>130.2</ele>
        <time>2023-03-05T10:15:55Z</time>
      </trkpt>
      <trkpt lat="46.55522" lon="0.34224">
        <ele>131</ele>
        <time>2023-03-05T10:16:03Z</time>
      </trkpt>
      <trkpt lat="46.55538" lon="0.34221">
        <ele>131.2</ele>
        <time>2023-03-05T10:16:07Z</time>
      </trkpt>
      <trkpt lat="46.55548" lon="0.34219">
        <ele>131.4</ele>
        <time>2023-03-05T10:16:10Z</time>
      </trkpt>
      <trkpt lat="46.55568" lon="0.34215">
        <ele>131</ele>
        <time>2023-03-05T10:16:18Z</time>
      </trkpt>
      <trkpt lat="46.55584" lon="0.34213">
        <ele>131.2</ele>
        <time>2023-03-05T10:16:23Z</time>
      </trkpt>
      <trkpt lat="46.55621" lon="0.34211">
        <ele>132.4</ele>
        <time>2023-03-05T10:16:30Z</time>
      </trkpt>
      <trkpt lat="46.55659" lon="0.34215">
        <ele>132.8</ele>
        <time>2023-03-05T10:16:37Z</time>
      </trkpt>
      <trkpt lat="46.55664" lon="0.34215">
        <ele>132.8</ele>
        <time>2023-03-05T10:16:38Z</time>
      </trkpt>
      <trkpt lat="46.55672" lon="0.34207">
        <ele>132.4</ele>
        <time>2023-03-05T10:16:40Z</time>
      </trkpt>
      <trkpt lat="46.55679" lon="0.34195">
        <ele>131.8</ele>
        <time>2023-03-05T10:16:42Z</time>
      </trkpt>
      <trkpt lat="46.55687" lon="0.34172">
        <ele>131.6</ele>
        <time>2023-03-05T10:16:45Z</time>
      </trkpt>
      <trkpt lat="46.55693" lon="0.34157">
        <ele>131.2</ele>
        <time>2023-03-05T10:16:47Z</time>
      </trkpt>
      <trkpt lat="46.55698" lon="0.3414">
        <ele>130.6</ele>
        <time>2023-03-05T10:16:49Z</time>
      </trkpt>
      <trkpt lat="46.55701" lon="0.3413">
        <ele>130.4</ele>
        <time>2023-03-05T10:16:50Z</time>
      </trkpt>
      <trkpt lat="46.55707" lon="0.34103">
        <ele>130.2</ele>
        <time>2023-03-05T10:16:53Z</time>
      </trkpt>
      <trkpt lat="46.5571" lon="0.34097">
        <ele>129.8</ele>
        <time>2023-03-05T10:16:54Z</time>
      </trkpt>
      <trkpt lat="46.55714" lon="0.34092">
        <ele>129.2</ele>
        <time>2023-03-05T10:16:55Z</time>
      </trkpt>
      <trkpt lat="46.55718" lon="0.34091">
        <ele>128</ele>
        <time>2023-03-05T10:16:56Z</time>
      </trkpt>
      <trkpt lat="46.55724" lon="0.3409">
        <ele>127.2</ele>
        <time>2023-03-05T10:16:57Z</time>
      </trkpt>
      <trkpt lat="46.55729" lon="0.3409">
        <ele>126.6</ele>
        <time>2023-03-05T10:16:58Z</time>
      </trkpt>
      <trkpt lat="46.5576" lon="0.34088">
        <ele>126</ele>
        <time>2023-03-05T10:17:03Z</time>
      </trkpt>
      <trkpt lat="46.5578" lon="0.34084">
        <ele>126</ele>
        <time>2023-03-05T10:17:06Z</time>
      </trkpt>
      <trkpt lat="46.55791" lon="0.34077">
        <ele>126</ele>
        <time>2023-03-05T10:17:08Z</time>
      </trkpt>
      <trkpt lat="46.55814" lon="0.34061">
        <ele>126.2</ele>
        <time>2023-03-05T10:17:12Z</time>
      </trkpt>
      <trkpt lat="46.55842" lon="0.34044">
        <ele>126</ele>
        <time>2023-03-05T10:17:17Z</time>
      </trkpt>
      <trkpt lat="46.55848" lon="0.34044">
        <ele>125.8</ele>
        <time>2023-03-05T10:17:18Z</time>
      </trkpt>
      <trkpt lat="46.55854" lon="0.34044">
        <ele>125.6</ele>
        <time>2023-03-05T10:17:19Z</time>
      </trkpt>
      <trkpt lat="46.55861" lon="0.34044">
        <ele>125.4</ele>
        <time>2023-03-05T10:17:20Z</time>
      </trkpt>
      <trkpt lat="46.55881" lon="0.34044">
        <ele>125</ele>
        <time>2023-03-05T10:17:23Z</time>
      </trkpt>
      <trkpt lat="46.55901" lon="0.34042">
        <ele>125</ele>
        <time>2023-03-05T10:17:26Z</time>
      </trkpt>
      <trkpt lat="46.5591" lon="0.34042">
        <ele>125.2</ele>
        <time>2023-03-05T10:17:28Z</time>
      </trkpt>
      <trkpt lat="46.55917" lon="0.34035">
        <ele>125.8</ele>
        <time>2023-03-05T10:17:30Z</time>
      </trkpt>
      <trkpt lat="46.55919" lon="0.3403">
        <ele>126</ele>
        <time>2023-03-05T10:17:31Z</time>
      </trkpt>
      <trkpt lat="46.55922" lon="0.34024">
        <ele>126</ele>
        <time>2023-03-05T10:17:32Z</time>
      </trkpt>
      <trkpt lat="46.55927" lon="0.34011">
        <ele>126</ele>
        <time>2023-03-05T10:17:34Z</time>
      </trkpt>
      <trkpt lat="46.5593" lon="0.34005">
        <ele>126</ele>
        <time>2023-03-05T10:17:35Z</time>
      </trkpt>
      <trkpt lat="46.55934" lon="0.33999">
        <ele>126</ele>
        <time>2023-03-05T10:17:36Z</time>
      </trkpt>
      <trkpt lat="46.55945" lon="0.33986">
        <ele>126</ele>
        <time>2023-03-05T10:17:39Z</time>
      </trkpt>
      <trkpt lat="46.55954" lon="0.3398">
        <ele>126.6</ele>
        <time>2023-03-05T10:17:42Z</time>
      </trkpt>
      <trkpt lat="46.55958" lon="0.33978">
        <ele>126.8</ele>
        <time>2023-03-05T10:17:43Z</time>
      </trkpt>
      <trkpt lat="46.55961" lon="0.33974">
        <ele>127</ele>
        <time>2023-03-05T10:17:44Z</time>
      </trkpt>
      <trkpt lat="46.5598" lon="0.33952">
        <ele>127.2</ele>
        <time>2023-03-05T10:17:49Z</time>
      </trkpt>
      <trkpt lat="46.55985" lon="0.33949">
        <ele>127.4</ele>
        <time>2023-03-05T10:17:50Z</time>
      </trkpt>
      <trkpt lat="46.55994" lon="0.33944">
        <ele>127.6</ele>
        <time>2023-03-05T10:17:52Z</time>
      </trkpt>
      <trkpt lat="46.56" lon="0.3394">
        <ele>127.6</ele>
        <time>2023-03-05T10:17:54Z</time>
      </trkpt>
      <trkpt lat="46.56003" lon="0.33938">
        <ele>127.8</ele>
        <time>2023-03-05T10:17:55Z</time>
      </trkpt>
      <trkpt lat="46.56012" lon="0.33929">
        <ele>127.8</ele>
        <time>2023-03-05T10:17:58Z</time>
      </trkpt>
      <trkpt lat="46.5602" lon="0.33917">
        <ele>128</ele>
        <time>2023-03-05T10:18:00Z</time>
      </trkpt>
      <trkpt lat="46.56031" lon="0.33896">
        <ele>127.6</ele>
        <time>2023-03-05T10:18:03Z</time>
      </trkpt>
      <trkpt lat="46.56046" lon="0.33875">
        <ele>127.2</ele>
        <time>2023-03-05T10:18:06Z</time>
      </trkpt>
      <trkpt lat="46.56069" lon="0.33851">
        <ele>126.6</ele>
        <time>2023-03-05T10:18:10Z</time>
      </trkpt>
      <trkpt lat="46.56088" lon="0.33833">
        <ele>125.6</ele>
        <time>2023-03-05T10:18:13Z</time>
      </trkpt>
      <trkpt lat="46.56094" lon="0.33826">
        <ele>125.2</ele>
        <time>2023-03-05T10:18:14Z</time>
      </trkpt>
      <trkpt lat="46.56119" lon="0.338">
        <ele>124</ele>
        <time>2023-03-05T10:18:18Z</time>
      </trkpt>
      <trkpt lat="46.56133" lon="0.33786">
        <ele>123.2</ele>
        <time>2023-03-05T10:18:20Z</time>
      </trkpt>
      <trkpt lat="46.56141" lon="0.33778">
        <ele>122.6</ele>
        <time>2023-03-05T10:18:21Z</time>
      </trkpt>
      <trkpt lat="46.56161" lon="0.33758">
        <ele>121.6</ele>
        <time>2023-03-05T10:18:24Z</time>
      </trkpt>
      <trkpt lat="46.56173" lon="0.33743">
        <ele>121.4</ele>
        <time>2023-03-05T10:18:26Z</time>
      </trkpt>
      <trkpt lat="46.56179" lon="0.33735">
        <ele>121.2</ele>
        <time>2023-03-05T10:18:27Z</time>
      </trkpt>
      <trkpt lat="46.56193" lon="0.33725">
        <ele>119.8</ele>
        <time>2023-03-05T10:18:29Z</time>
      </trkpt>
      <trkpt lat="46.56206" lon="0.33722">
        <ele>118.2</ele>
        <time>2023-03-05T10:18:31Z</time>
      </trkpt>
      <trkpt lat="46.56219" lon="0.33722">
        <ele>116.6</ele>
        <time>2023-03-05T10:18:33Z</time>
      </trkpt>
      <trkpt lat="46.56222" lon="0.33721">
        <ele>116</ele>
        <time>2023-03-05T10:18:34Z</time>
      </trkpt>
      <trkpt lat="46.56223" lon="0.33719">
        <ele>114.8</ele>
        <time>2023-03-05T10:18:35Z</time>
      </trkpt>
      <trkpt lat="46.56222" lon="0.33715">
        <ele>113.8</ele>
        <time>2023-03-05T10:18:36Z</time>
      </trkpt>
      <trkpt lat="46.56222" lon="0.3371">
        <ele>113</ele>
        <time>2023-03-05T10:18:37Z</time>
      </trkpt>
      <trkpt lat="46.56222" lon="0.33704">
        <ele>112.4</ele>
        <time>2023-03-05T10:18:38Z</time>
      </trkpt>
      <trkpt lat="46.56222" lon="0.33699">
        <ele>111.6</ele>
        <time>2023-03-05T10:18:39Z</time>
      </trkpt>
      <trkpt lat="46.56221" lon="0.33693">
        <ele>111</ele>
        <time>2023-03-05T10:18:40Z</time>
      </trkpt>
      <trkpt lat="46.56219" lon="0.33684">
        <ele>110.4</ele>
        <time>2023-03-05T10:18:42Z</time>
      </trkpt>
      <trkpt lat="46.56216" lon="0.3368">
        <ele>109.8</ele>
        <time>2023-03-05T10:18:43Z</time>
      </trkpt>
      <trkpt lat="46.56213" lon="0.33676">
        <ele>109.4</ele>
        <time>2023-03-05T10:18:44Z</time>
      </trkpt>
      <trkpt lat="46.56212" lon="0.33673">
        <ele>108.8</ele>
        <time>2023-03-05T10:18:45Z</time>
      </trkpt>
      <trkpt lat="46.56213" lon="0.33669">
        <ele>107.6</ele>
        <time>2023-03-05T10:18:46Z</time>
      </trkpt>
      <trkpt lat="46.56212" lon="0.33666">
        <ele>105.8</ele>
        <time>2023-03-05T10:18:47Z</time>
      </trkpt>
      <trkpt lat="46.56213" lon="0.33662">
        <ele>104.4</ele>
        <time>2023-03-05T10:18:48Z</time>
      </trkpt>
      <trkpt lat="46.56212" lon="0.33649">
        <ele>102.8</ele>
        <time>2023-03-05T10:18:50Z</time>
      </trkpt>
      <trkpt lat="46.56209" lon="0.33643">
        <ele>101.8</ele>
        <time>2023-03-05T10:18:51Z</time>
      </trkpt>
      <trkpt lat="46.56208" lon="0.33637">
        <ele>100.4</ele>
        <time>2023-03-05T10:18:52Z</time>
      </trkpt>
      <trkpt lat="46.56207" lon="0.3363">
        <ele>98.8</ele>
        <time>2023-03-05T10:18:53Z</time>
      </trkpt>
      <trkpt lat="46.56207" lon="0.33623">
        <ele>97.8</ele>
        <time>2023-03-05T10:18:54Z</time>
      </trkpt>
      <trkpt lat="46.56208" lon="0.33614">
        <ele>96.8</ele>
        <time>2023-03-05T10:18:55Z</time>
      </trkpt>
      <trkpt lat="46.56209" lon="0.33607">
        <ele>94.4</ele>
        <time>2023-03-05T10:18:56Z</time>
      </trkpt>
      <trkpt lat="46.56212" lon="0.33599">
        <ele>93</ele>
        <time>2023-03-05T10:18:57Z</time>
      </trkpt>
      <trkpt lat="46.56213" lon="0.33592">
        <ele>92.2</ele>
        <time>2023-03-05T10:18:58Z</time>
      </trkpt>
      <trkpt lat="46.56213" lon="0.33588">
        <ele>91.6</ele>
        <time>2023-03-05T10:18:59Z</time>
      </trkpt>
      <trkpt lat="46.56212" lon="0.33585">
        <ele>91.4</ele>
        <time>2023-03-05T10:19:00Z</time>
      </trkpt>
      <trkpt lat="46.56211" lon="0.33586">
        <ele>90.6</ele>
        <time>2023-03-05T10:19:01Z</time>
      </trkpt>
      <trkpt lat="46.56209" lon="0.33588">
        <ele>90.2</ele>
        <time>2023-03-05T10:19:02Z</time>
      </trkpt>
      <trkpt lat="46.56206" lon="0.33595">
        <ele>89.8</ele>
        <time>2023-03-05T10:19:04Z</time>
      </trkpt>
      <trkpt lat="46.56203" lon="0.33599">
        <ele>89.4</ele>
        <time>2023-03-05T10:19:05Z</time>
      </trkpt>
      <trkpt lat="46.562" lon="0.33604">
        <ele>88.4</ele>
        <time>2023-03-05T10:19:06Z</time>
      </trkpt>
      <trkpt lat="46.56197" lon="0.33609">
        <ele>88</ele>
        <time>2023-03-05T10:19:07Z</time>
      </trkpt>
      <trkpt lat="46.5619" lon="0.33614">
        <ele>86.8</ele>
        <time>2023-03-05T10:19:09Z</time>
      </trkpt>
      <trkpt lat="46.56184" lon="0.33612">
        <ele>86</ele>
        <time>2023-03-05T10:19:10Z</time>
      </trkpt>
      <trkpt lat="46.5618" lon="0.33613">
        <ele>85.6</ele>
        <time>2023-03-05T10:19:11Z</time>
      </trkpt>
      <trkpt lat="46.56171" lon="0.33619">
        <ele>84.6</ele>
        <time>2023-03-05T10:19:13Z</time>
      </trkpt>
      <trkpt lat="46.56164" lon="0.33631">
        <ele>84.4</ele>
        <time>2023-03-05T10:19:15Z</time>
      </trkpt>
      <trkpt lat="46.56154" lon="0.3364">
        <ele>84.2</ele>
        <time>2023-03-05T10:19:17Z</time>
      </trkpt>
      <trkpt lat="46.56145" lon="0.3365">
        <ele>84</ele>
        <time>2023-03-05T10:19:19Z</time>
      </trkpt>
      <trkpt lat="46.56134" lon="0.33657">
        <ele>83.8</ele>
        <time>2023-03-05T10:19:21Z</time>
      </trkpt>
      <trkpt lat="46.56122" lon="0.33673">
        <ele>83.8</ele>
        <time>2023-03-05T10:19:24Z</time>
      </trkpt>
      <trkpt lat="46.56115" lon="0.33686">
        <ele>83.8</ele>
        <time>2023-03-05T10:19:26Z</time>
      </trkpt>
      <trkpt lat="46.56095" lon="0.33711">
        <ele>83.6</ele>
        <time>2023-03-05T10:19:30Z</time>
      </trkpt>
      <trkpt lat="46.56087" lon="0.33723">
        <ele>83.6</ele>
        <time>2023-03-05T10:19:32Z</time>
      </trkpt>
      <trkpt lat="46.56063" lon="0.33753">
        <ele>83.2</ele>
        <time>2023-03-05T10:19:37Z</time>
      </trkpt>
      <trkpt lat="46.56058" lon="0.33764">
        <ele>83.2</ele>
        <time>2023-03-05T10:19:39Z</time>
      </trkpt>
      <trkpt lat="46.56053" lon="0.33781">
        <ele>83.4</ele>
        <time>2023-03-05T10:19:42Z</time>
      </trkpt>
      <trkpt lat="46.56045" lon="0.33797">
        <ele>83.4</ele>
        <time>2023-03-05T10:19:45Z</time>
      </trkpt>
      <trkpt lat="46.56033" lon="0.3382">
        <ele>83.2</ele>
        <time>2023-03-05T10:19:49Z</time>
      </trkpt>
      <trkpt lat="46.56031" lon="0.33828">
        <ele>83</ele>
        <time>2023-03-05T10:19:50Z</time>
      </trkpt>
      <trkpt lat="46.56015" lon="0.33844">
        <ele>83.4</ele>
        <time>2023-03-05T10:19:53Z</time>
      </trkpt>
      <trkpt lat="46.56002" lon="0.33864">
        <ele>84</ele>
        <time>2023-03-05T10:19:57Z</time>
      </trkpt>
      <trkpt lat="46.55988" lon="0.33873">
        <ele>83.6</ele>
        <time>2023-03-05T10:19:59Z</time>
      </trkpt>
      <trkpt lat="46.55973" lon="0.33891">
        <ele>83.4</ele>
        <time>2023-03-05T10:20:04Z</time>
      </trkpt>
      <trkpt lat="46.55971" lon="0.33894">
        <ele>83.4</ele>
        <time>2023-03-05T10:20:05Z</time>
      </trkpt>
      <trkpt lat="46.5595" lon="0.33906">
        <ele>84</ele>
        <time>2023-03-05T10:20:09Z</time>
      </trkpt>
      <trkpt lat="46.55934" lon="0.33912">
        <ele>84.4</ele>
        <time>2023-03-05T10:20:12Z</time>
      </trkpt>
      <trkpt lat="46.55919" lon="0.33915">
        <ele>84.6</ele>
        <time>2023-03-05T10:20:14Z</time>
      </trkpt>
      <trkpt lat="46.5591" lon="0.33915">
        <ele>84.8</ele>
        <time>2023-03-05T10:20:15Z</time>
      </trkpt>
      <trkpt lat="46.55899" lon="0.33914">
        <ele>84.6</ele>
        <time>2023-03-05T10:20:17Z</time>
      </trkpt>
      <trkpt lat="46.55893" lon="0.33913">
        <ele>84.8</ele>
        <time>2023-03-05T10:20:18Z</time>
      </trkpt>
      <trkpt lat="46.55881" lon="0.33912">
        <ele>84.6</ele>
        <time>2023-03-05T10:20:20Z</time>
      </trkpt>
      <trkpt lat="46.55865" lon="0.3391">
        <ele>85</ele>
        <time>2023-03-05T10:20:22Z</time>
      </trkpt>
      <trkpt lat="46.55858" lon="0.33908">
        <ele>85</ele>
        <time>2023-03-05T10:20:23Z</time>
      </trkpt>
      <trkpt lat="46.55839" lon="0.339">
        <ele>85.2</ele>
        <time>2023-03-05T10:20:26Z</time>
      </trkpt>
      <trkpt lat="46.55827" lon="0.33893">
        <ele>85</ele>
        <time>2023-03-05T10:20:28Z</time>
      </trkpt>
      <trkpt lat="46.55803" lon="0.33879">
        <ele>83.6</ele>
        <time>2023-03-05T10:20:32Z</time>
      </trkpt>
      <trkpt lat="46.55797" lon="0.33877">
        <ele>83.6</ele>
        <time>2023-03-05T10:20:33Z</time>
      </trkpt>
      <trkpt lat="46.5579" lon="0.33878">
        <ele>83.4</ele>
        <time>2023-03-05T10:20:34Z</time>
      </trkpt>
      <trkpt lat="46.55784" lon="0.33879">
        <ele>83.4</ele>
        <time>2023-03-05T10:20:35Z</time>
      </trkpt>
      <trkpt lat="46.5577" lon="0.33886">
        <ele>82.6</ele>
        <time>2023-03-05T10:20:38Z</time>
      </trkpt>
      <trkpt lat="46.55731" lon="0.33905">
        <ele>82.8</ele>
        <time>2023-03-05T10:20:44Z</time>
      </trkpt>
      <trkpt lat="46.55701" lon="0.33918">
        <ele>82.6</ele>
        <time>2023-03-05T10:20:49Z</time>
      </trkpt>
      <trkpt lat="46.55697" lon="0.3392">
        <ele>82.6</ele>
        <time>2023-03-05T10:20:50Z</time>
      </trkpt>
      <trkpt lat="46.5568" lon="0.33926">
        <ele>82.8</ele>
        <time>2023-03-05T10:20:53Z</time>
      </trkpt>
      <trkpt lat="46.55674" lon="0.33927">
        <ele>82.8</ele>
        <time>2023-03-05T10:20:54Z</time>
      </trkpt>
      <trkpt lat="46.55662" lon="0.33929">
        <ele>83</ele>
        <time>2023-03-05T10:20:56Z</time>
      </trkpt>
      <trkpt lat="46.55649" lon="0.33928">
        <ele>83</ele>
        <time>2023-03-05T10:20:58Z</time>
      </trkpt>
      <trkpt lat="46.55641" lon="0.33926">
        <ele>83</ele>
        <time>2023-03-05T10:20:59Z</time>
      </trkpt>
      <trkpt lat="46.55631" lon="0.33923">
        <ele>82.4</ele>
        <time>2023-03-05T10:21:01Z</time>
      </trkpt>
      <trkpt lat="46.55622" lon="0.33918">
        <ele>81.6</ele>
        <time>2023-03-05T10:21:03Z</time>
      </trkpt>
      <trkpt lat="46.55616" lon="0.33916">
        <ele>81.4</ele>
        <time>2023-03-05T10:21:04Z</time>
      </trkpt>
      <trkpt lat="46.55599" lon="0.33909">
        <ele>80.8</ele>
        <time>2023-03-05T10:21:09Z</time>
      </trkpt>
      <trkpt lat="46.55595" lon="0.33906">
        <ele>80.8</ele>
        <time>2023-03-05T10:21:12Z</time>
      </trkpt>
      <trkpt lat="46.55588" lon="0.33901">
        <ele>81.4</ele>
        <time>2023-03-05T10:21:16Z</time>
      </trkpt>
      <trkpt lat="46.55571" lon="0.33888">
        <ele>81.8</ele>
        <time>2023-03-05T10:21:21Z</time>
      </trkpt>
      <trkpt lat="46.5556" lon="0.3388">
        <ele>81.8</ele>
        <time>2023-03-05T10:21:23Z</time>
      </trkpt>
      <trkpt lat="46.55553" lon="0.33869">
        <ele>81.8</ele>
        <time>2023-03-05T10:21:25Z</time>
      </trkpt>
      <trkpt lat="46.55543" lon="0.3385">
        <ele>81.8</ele>
        <time>2023-03-05T10:21:28Z</time>
      </trkpt>
      <trkpt lat="46.55531" lon="0.33834">
        <ele>81.6</ele>
        <time>2023-03-05T10:21:31Z</time>
      </trkpt>
      <trkpt lat="46.55522" lon="0.33824">
        <ele>81.6</ele>
        <time>2023-03-05T10:21:33Z</time>
      </trkpt>
      <trkpt lat="46.55513" lon="0.33812">
        <ele>81.6</ele>
        <time>2023-03-05T10:21:35Z</time>
      </trkpt>
      <trkpt lat="46.55509" lon="0.33807">
        <ele>81.6</ele>
        <time>2023-03-05T10:21:36Z</time>
      </trkpt>
      <trkpt lat="46.55504" lon="0.33803">
        <ele>81.6</ele>
        <time>2023-03-05T10:21:37Z</time>
      </trkpt>
      <trkpt lat="46.55495" lon="0.33794">
        <ele>81.6</ele>
        <time>2023-03-05T10:21:39Z</time>
      </trkpt>
      <trkpt lat="46.55492" lon="0.33791">
        <ele>81.6</ele>
        <time>2023-03-05T10:21:40Z</time>
      </trkpt>
      <trkpt lat="46.55487" lon="0.33788">
        <ele>81.6</ele>
        <time>2023-03-05T10:21:41Z</time>
      </trkpt>
      <trkpt lat="46.55468" lon="0.33777">
        <ele>82.2</ele>
        <time>2023-03-05T10:21:46Z</time>
      </trkpt>
      <trkpt lat="46.55451" lon="0.33773">
        <ele>82</ele>
        <time>2023-03-05T10:21:50Z</time>
      </trkpt>
      <trkpt lat="46.55442" lon="0.33772">
        <ele>82</ele>
        <time>2023-03-05T10:21:52Z</time>
      </trkpt>
      <trkpt lat="46.55433" lon="0.3377">
        <ele>81.8</ele>
        <time>2023-03-05T10:21:54Z</time>
      </trkpt>
      <trkpt lat="46.55422" lon="0.3377">
        <ele>81.8</ele>
        <time>2023-03-05T10:21:56Z</time>
      </trkpt>
      <trkpt lat="46.55404" lon="0.33769">
        <ele>81.2</ele>
        <time>2023-03-05T10:22:00Z</time>
      </trkpt>
      <trkpt lat="46.55399" lon="0.33768">
        <ele>81.2</ele>
        <time>2023-03-05T10:22:01Z</time>
      </trkpt>
      <trkpt lat="46.55395" lon="0.33767">
        <ele>81.2</ele>
        <time>2023-03-05T10:22:02Z</time>
      </trkpt>
      <trkpt lat="46.55383" lon="0.3376">
        <ele>81.4</ele>
        <time>2023-03-05T10:22:05Z</time>
      </trkpt>
      <trkpt lat="46.5538" lon="0.33758">
        <ele>81.4</ele>
        <time>2023-03-05T10:22:06Z</time>
      </trkpt>
      <trkpt lat="46.55377" lon="0.33756">
        <ele>81.4</ele>
        <time>2023-03-05T10:22:07Z</time>
      </trkpt>
      <trkpt lat="46.55368" lon="0.33753">
        <ele>81.4</ele>
        <time>2023-03-05T10:22:10Z</time>
      </trkpt>
      <trkpt lat="46.55365" lon="0.33751">
        <ele>81.6</ele>
        <time>2023-03-05T10:22:11Z</time>
      </trkpt>
      <trkpt lat="46.55362" lon="0.33749">
        <ele>81.8</ele>
        <time>2023-03-05T10:22:12Z</time>
      </trkpt>
      <trkpt lat="46.5535" lon="0.33747">
        <ele>82</ele>
        <time>2023-03-05T10:22:14Z</time>
      </trkpt>
      <trkpt lat="46.55344" lon="0.33747">
        <ele>82.2</ele>
        <time>2023-03-05T10:22:15Z</time>
      </trkpt>
      <trkpt lat="46.55324" lon="0.33746">
        <ele>82.2</ele>
        <time>2023-03-05T10:22:18Z</time>
      </trkpt>
      <trkpt lat="46.55305" lon="0.33743">
        <ele>82</ele>
        <time>2023-03-05T10:22:21Z</time>
      </trkpt>
      <trkpt lat="46.553" lon="0.33743">
        <ele>82</ele>
        <time>2023-03-05T10:22:22Z</time>
      </trkpt>
      <trkpt lat="46.55269" lon="0.33743">
        <ele>81.8</ele>
        <time>2023-03-05T10:22:27Z</time>
      </trkpt>
      <trkpt lat="46.55238" lon="0.33742">
        <ele>81.4</ele>
        <time>2023-03-05T10:22:33Z</time>
      </trkpt>
      <trkpt lat="46.55206" lon="0.33743">
        <ele>81.6</ele>
        <time>2023-03-05T10:22:39Z</time>
      </trkpt>
      <trkpt lat="46.55168" lon="0.33743">
        <ele>82.2</ele>
        <time>2023-03-05T10:22:46Z</time>
      </trkpt>
      <trkpt lat="46.55141" lon="0.33738">
        <ele>82</ele>
        <time>2023-03-05T10:22:51Z</time>
      </trkpt>
      <trkpt lat="46.55109" lon="0.33734">
        <ele>81.8</ele>
        <time>2023-03-05T10:22:57Z</time>
      </trkpt>
      <trkpt lat="46.55092" lon="0.33731">
        <ele>81.8</ele>
        <time>2023-03-05T10:23:00Z</time>
      </trkpt>
      <trkpt lat="46.55081" lon="0.33728">
        <ele>81.8</ele>
        <time>2023-03-05T10:23:02Z</time>
      </trkpt>
      <trkpt lat="46.55066" lon="0.33725">
        <ele>81.8</ele>
        <time>2023-03-05T10:23:05Z</time>
      </trkpt>
      <trkpt lat="46.55056" lon="0.33725">
        <ele>82</ele>
        <time>2023-03-05T10:23:07Z</time>
      </trkpt>
      <trkpt lat="46.55053" lon="0.33725">
        <ele>82</ele>
        <time>2023-03-05T10:23:08Z</time>
      </trkpt>
      <trkpt lat="46.55043" lon="0.33724">
        <ele>82.2</ele>
        <time>2023-03-05T10:23:11Z</time>
      </trkpt>
      <trkpt lat="46.55029" lon="0.33722">
        <ele>82.2</ele>
        <time>2023-03-05T10:23:15Z</time>
      </trkpt>
      <trkpt lat="46.55023" lon="0.33724">
        <ele>82.4</ele>
        <time>2023-03-05T10:23:18Z</time>
      </trkpt>
      <trkpt lat="46.55021" lon="0.33726">
        <ele>82.4</ele>
        <time>2023-03-05T10:23:19Z</time>
      </trkpt>
      <trkpt lat="46.55014" lon="0.33742">
        <ele>82.8</ele>
        <time>2023-03-05T10:23:23Z</time>
      </trkpt>
      <trkpt lat="46.55003" lon="0.33771">
        <ele>83</ele>
        <time>2023-03-05T10:23:29Z</time>
      </trkpt>
      <trkpt lat="46.55001" lon="0.33772">
        <ele>83</ele>
        <time>2023-03-05T10:23:30Z</time>
      </trkpt>
      <trkpt lat="46.54997" lon="0.33769">
        <ele>82.8</ele>
        <time>2023-03-05T10:23:32Z</time>
      </trkpt>
      <trkpt lat="46.54986" lon="0.33762">
        <ele>82.6</ele>
        <time>2023-03-05T10:23:37Z</time>
      </trkpt>
      <trkpt lat="46.54969" lon="0.3375">
        <ele>82.8</ele>
        <time>2023-03-05T10:23:43Z</time>
      </trkpt>
      <trkpt lat="46.54954" lon="0.33736">
        <ele>83</ele>
        <time>2023-03-05T10:23:48Z</time>
      </trkpt>
      <trkpt lat="46.54952" lon="0.33734">
        <ele>82.8</ele>
        <time>2023-03-05T10:23:49Z</time>
      </trkpt>
      <trkpt lat="46.5495" lon="0.33733">
        <ele>83</ele>
        <time>2023-03-05T10:23:51Z</time>
      </trkpt>
      <trkpt lat="46.5495" lon="0.33734">
        <ele>83</ele>
        <time>2023-03-05T10:24:03Z</time>
      </trkpt>
      <trkpt lat="46.54949" lon="0.33734">
        <ele>83.2</ele>
        <time>2023-03-05T10:24:09Z</time>
      </trkpt>
    </trkseg>
  </trk>
</gpx>